GFSWCAN_sfc_wetblb_000.txt.gz
Wetbulb
50.36 50.13 50.12 50.07 49.97 50.10 50.19 50.43 50.25 50.37 50.28 50.35 50.81 50.76 50.70 50.40 50.97 52.13 52.50 54.79 50.59 42.28 45.69 48.66 49.25 45.15 44.59 40.70 34.50 40.22 39.35 36.96 35.26 32.53 31.22 29.29 32.17 29.55 28.68 32.72 29.67 28.24 24.50 27.82 26.35 27.06 25.91 40.18 40.52 33.52 36.95 38.25 41.05 41.18
50.90 49.68 49.48 49.65 49.64 49.78 49.82 50.03 49.82 49.76 49.85 49.99 50.13 50.46 50.47 50.24 50.59 51.67 49.41 54.50 53.94 47.06 45.99 51.25 51.98 52.64 50.86 48.12 44.45 41.46 40.31 39.55 37.54 33.75 33.12 28.64 31.84 32.55 27.54 29.85 36.21 31.87 33.26 29.58 30.23 30.00 37.38 40.42 41.64 41.71 43.29 42.05 40.47 41.57
49.58 49.91 49.46 49.50 49.14 49.33 49.68 49.68 49.93 49.48 49.55 49.47 49.64 49.96 50.01 50.07 50.63 51.21 50.30 51.61 48.63 38.59 44.04 45.65 46.37 50.81 53.85 52.38 51.58 40.70 37.06 45.38 42.94 42.19 35.57 34.60 32.95 34.69 32.94 32.92 33.97 37.38 40.04 32.92 34.00 37.51 39.26 41.07 43.65 44.48 42.67 41.29 44.36 44.35
48.33 48.79 49.28 49.12 48.57 48.43 48.61 48.75 48.57 49.22 49.04 49.55 49.35 49.42 49.46 49.61 50.26 50.36 48.96 51.17 48.41 41.58 34.24 41.50 48.56 48.63 52.33 52.07 51.45 49.94 48.67 48.51 47.61 44.66 35.69 34.24 33.51 40.47 34.54 37.79 36.26 39.12 39.80 37.02 36.83 39.44 40.68 41.64 41.90 42.99 44.33 44.98 42.62 42.63
47.23 47.81 47.92 48.15 48.82 48.66 48.37 48.37 47.90 48.27 48.57 48.99 49.04 49.32 49.51 50.12 50.17 49.90 49.75 50.52 50.84 46.64 36.59 38.08 44.95 48.56 50.71 51.39 50.30 50.50 49.45 47.07 39.61 38.04 33.68 34.57 36.17 36.40 35.11 34.55 34.81 40.24 38.40 35.80 35.27 40.98 40.22 41.20 43.67 43.24 41.49 40.27 39.68 38.87
47.20 47.16 47.40 47.43 47.61 47.88 47.94 47.94 47.98 48.05 48.07 48.52 48.83 49.11 49.44 49.34 49.95 49.62 44.81 47.56 50.41 52.17 39.68 34.95 43.29 42.92 46.32 47.60 47.45 46.97 47.49 46.23 45.29 40.20 35.11 38.59 42.15 38.94 33.33 33.22 38.71 41.85 43.98 44.63 41.55 44.37 43.33 43.64 42.89 42.73 40.72 40.83 41.44 40.71
46.84 46.88 46.89 46.68 46.64 46.66 46.98 47.20 47.36 47.67 47.98 48.43 48.59 49.06 49.11 48.72 50.34 46.78 43.95 46.97 50.69 51.02 36.05 35.49 35.44 38.61 41.82 43.55 43.21 43.84 45.31 44.30 44.66 42.01 37.30 38.16 38.95 42.20 33.13 35.75 41.02 42.49 42.70 44.06 44.96 43.16 40.08 40.89 38.96 40.71 40.19 40.54 40.14 39.19
46.45 46.79 46.16 46.20 46.27 46.30 46.53 46.86 47.49 47.54 47.71 48.03 48.41 49.21 49.24 49.04 48.52 45.08 46.91 48.48 50.87 45.45 38.54 34.78 34.37 35.55 42.83 35.20 33.87 39.05 35.46 38.20 41.35 41.04 37.62 36.03 37.54 35.13 33.47 40.46 40.45 41.78 43.10 42.65 42.82 41.92 40.75 40.66 39.84 38.84 39.20 38.85 37.40 35.97
46.29 46.18 45.79 45.65 45.65 46.09 46.32 46.68 47.42 48.06 47.72 48.08 48.30 48.41 46.73 44.89 41.09 43.02 46.89 46.79 45.66 43.70 36.22 32.79 32.79 32.77 41.36 37.34 35.59 34.67 36.08 32.95 37.23 32.94 34.54 37.08 32.76 33.48 36.90 38.62 39.64 40.28 38.87 39.26 39.21 38.29 38.17 36.88 36.82 37.68 37.71 36.35 35.79 34.66
45.64 45.87 45.62 45.34 45.27 45.48 46.07 46.52 46.82 47.27 47.79 47.65 45.28 41.45 34.75 39.10 47.00 46.44 42.55 37.60 36.51 35.46 36.44 32.59 35.44 33.84 40.17 33.66 32.77 32.94 32.76 31.85 30.51 32.80 36.20 32.76 34.22 39.14 40.71 41.59 41.73 38.79 39.14 38.71 34.98 33.62 35.64 33.93 33.21 33.54 33.76 34.45 32.86 32.13
45.64 45.55 45.41 45.10 45.15 45.27 45.86 46.34 45.85 45.82 45.76 43.36 37.19 35.13 41.80 46.77 42.76 37.33 32.55 33.25 33.24 31.26 33.07 32.62 33.95 33.99 38.50 33.19 32.38 32.92 31.64 31.44 26.99 25.26 30.98 23.34 27.63 32.98 37.05 37.32 38.28 38.60 38.69 37.86 36.57 35.17 33.58 33.17 32.79 32.48 31.47 31.30 29.50 28.75
46.14 45.80 45.45 45.17 45.22 45.52 45.79 46.15 45.47 44.01 43.15 42.77 41.80 43.90 42.24 40.12 34.36 32.47 31.05 31.43 31.20 28.28 32.17 31.91 33.45 36.36 34.75 38.94 32.50 32.18 28.38 28.88 24.55 27.39 27.38 24.55 26.46 33.40 34.96 34.83 35.30 34.26 35.61 35.44 34.78 34.35 34.19 33.96 33.49 31.99 31.18 30.32 28.46 27.27
45.37 45.90 45.57 45.15 45.11 45.73 45.75 44.56 45.17 44.99 45.20 43.33 37.30 34.54 35.65 32.86 29.97 26.85 25.53 28.31 27.35 31.99 33.29 33.30 32.41 33.48 34.16 33.84 31.41 27.63 26.17 23.58 23.19 25.71 24.42 22.97 31.08 33.79 34.47 35.11 35.41 35.74 33.33 31.82 34.48 35.04 34.40 33.29 31.80 28.22 27.96 27.59 24.67 27.10
44.98 45.54 45.51 45.05 44.90 44.69 43.45 44.23 44.28 43.39 40.63 32.11 29.71 26.65 28.20 24.37 25.92 25.74 27.47 29.01 32.52 32.58 32.92 33.09 31.99 30.26 29.52 22.50 26.92 24.42 23.28 21.38 18.84 20.98 17.53 24.06 29.17 32.05 33.47 33.87 33.22 32.69 29.70 28.73 31.45 31.89 29.79 28.08 27.75 24.41 32.47 31.76 30.34 31.01
45.22 45.44 45.30 44.68 44.09 43.75 43.38 43.32 43.32 41.12 33.29 28.47 27.49 20.79 23.23 28.10 29.41 31.38 32.38 32.74 32.74 34.14 32.74 30.52 29.03 27.50 21.87 18.64 18.47 17.74 16.16 21.09 21.89 16.76 19.55 24.98 29.34 30.41 31.10 31.55 30.78 28.06 27.56 27.63 31.21 28.53 27.38 26.57 25.50 27.26 28.88 32.05 28.60 30.26
44.94 43.63 42.73 43.99 43.84 43.70 43.06 42.46 42.00 39.20 29.84 27.29 26.15 20.31 26.72 27.34 28.34 30.14 31.31 31.64 33.80 31.12 27.40 27.32 21.93 17.86 17.21 16.56 14.14 12.90 13.64 14.07 16.83 17.81 22.80 26.16 29.36 29.69 29.83 29.44 30.19 29.85 29.58 30.65 31.41 30.48 29.91 27.34 28.34 28.88 29.98 32.18 29.41 31.92
42.14 39.26 43.82 43.79 43.34 42.91 42.71 39.28 34.52 30.22 25.51 22.20 18.95 28.72 24.70 26.56 21.64 30.19 28.09 32.19 34.83 31.19 20.10 19.67 15.61 18.53 20.04 11.45 11.83 20.64 15.51 18.02 20.68 23.55 26.04 28.12 29.11 29.65 29.98 29.62 27.82 29.20 30.34 30.03 30.31 29.53 28.90 29.30 24.13 29.64 29.68 29.26 26.58 29.94
38.97 42.71 43.57 43.54 41.51 40.62 37.99 33.88 29.87 26.51 23.42 22.34 19.44 19.61 20.80 20.30 30.04 28.87 30.23 31.58 33.03 30.87 22.01 19.54 22.78 15.18 12.23 10.10 12.31 17.44 19.00 20.39 24.27 24.54 25.68 27.41 29.24 29.75 30.37 29.69 30.78 31.03 30.63 30.54 29.20 28.54 27.88 26.15 26.12 28.16 28.49 28.94 28.87 28.77
41.26 41.62 42.66 42.86 39.96 32.79 28.31 29.06 30.30 20.95 21.32 20.39 21.71 20.83 21.28 20.29 21.72 22.71 23.69 31.42 32.20 31.67 26.22 17.88 11.72 11.43 14.13 16.07 13.44 15.35 14.88 17.60 24.01 28.40 29.47 29.19 28.98 29.31 30.34 30.63 30.28 29.96 29.99 29.80 30.06 30.40 30.30 29.08 30.04 31.56 31.49 28.14 29.87 28.89
42.13 41.71 41.76 42.12 40.60 30.65 25.32 23.45 29.70 23.65 21.03 24.03 20.90 20.65 21.38 21.32 20.25 19.88 28.53 26.59 30.40 29.47 27.28 25.45 18.57 19.54 19.28 23.43 23.49 22.66 25.21 25.41 23.91 24.55 28.12 29.66 28.62 29.67 29.88 30.09 29.92 30.38 30.28 30.18 28.89 24.48 26.44 28.84 28.66 29.98 29.29 29.92 29.92 28.38
39.63 40.33 40.97 38.65 35.80 30.23 25.64 22.48 21.70 23.67 24.41 22.89 23.43 23.58 20.28 16.74 19.90 27.28 28.37 23.79 27.66 25.99 23.85 24.20 22.94 26.46 27.46 26.83 26.08 26.94 27.54 26.97 27.95 26.34 28.25 28.55 30.59 27.00 28.31 29.24 28.82 28.09 27.49 28.57 26.08 29.70 26.30 28.39 31.22 31.45 31.52 32.09 31.94 31.99
36.67 40.16 35.18 36.22 30.78 27.03 23.11 24.74 23.65 23.90 21.54 19.99 20.27 21.41 16.32 14.99 16.39 21.99 21.46 27.14 26.60 23.77 24.96 25.16 27.79 27.82 26.72 27.23 28.74 28.87 29.76 29.78 30.03 29.08 26.89 26.44 27.07 27.28 28.34 27.04 23.01 26.39 31.03 31.68 31.55 31.83 32.34 32.94 33.06 33.00 32.20 32.17 31.05 28.98
38.02 35.62 32.16 31.71 23.52 21.54 17.95 25.40 19.80 22.38 17.25 16.15 18.10 15.86 12.53 11.45 17.33 23.92 14.96 22.47 23.36 26.73 29.77 29.29 29.54 29.37 29.40 30.53 29.33 29.76 30.04 29.88 28.99 27.83 26.37 25.81 25.93 22.18 22.79 24.72 21.56 26.20 29.48 31.60 31.89 32.30 32.32 32.90 32.76 32.18 32.12 30.86 29.16 27.54
36.85 30.00 26.66 25.54 19.40 11.08 19.48 25.81 24.38 19.00 13.29 15.93 12.45 9.14 13.36 13.91 17.77 13.17 13.56 14.28 23.77 25.72 25.60 28.70 28.91 28.51 27.05 27.34 27.29 28.85 30.27 27.98 27.24 25.63 22.15 22.18 21.29 23.70 23.60 30.24 30.57 31.71 32.01 32.56 32.41 32.55 31.91 31.79 30.13 29.05 29.95 29.55 28.22 27.09
21.93 25.47 26.55 22.24 25.49 21.46 21.39 12.29 11.67 11.80 10.66 9.02 7.00 7.08 13.24 13.92 11.13 6.18 10.85 20.85 20.29 21.51 24.16 26.05 24.70 27.34 26.68 27.14 22.89 26.07 25.92 27.61 25.96 24.96 22.02 21.98 19.14 21.52 28.99 30.47 30.45 30.75 31.70 31.76 31.27 32.03 31.70 31.91 29.60 29.58 27.53 26.26 27.64 27.99
16.20 20.28 23.17 20.60 15.15 15.44 15.02 7.71 7.59 10.87 5.14 6.49 9.39 13.73 7.47 7.77 7.15 11.05 16.66 16.51 14.97 17.43 17.00 20.32 20.87 19.93 24.08 27.38 27.38 25.20 26.34 23.94 23.95 21.54 22.60 22.82 22.98 27.02 28.06 27.42 27.52 29.05 31.02 31.25 30.81 31.19 30.43 30.45 29.32 23.15 20.53 26.17 25.15 26.92
12.81 15.53 22.38 24.26 22.57 19.54 11.08 8.69 12.40 9.37 6.43 8.91 8.84 8.13 8.74 11.91 9.43 15.62 20.64 21.43 22.37 22.13 24.06 23.91 25.46 25.15 25.70 27.86 27.43 26.24 23.54 24.32 25.39 25.59 25.28 29.44 30.58 29.43 29.63 28.07 27.60 29.28 32.17 32.22 31.12 31.45 30.34 29.84 29.26 27.35 27.35 28.08 28.76 29.15
18.66 14.23 18.51 18.71 18.35 17.96 11.32 5.44 6.89 10.51 11.57 16.95 12.11 8.74 12.19 12.57 14.50 19.69 23.78 25.78 24.13 25.21 25.22 25.04 27.40 28.94 28.20 26.71 22.38 21.21 20.88 20.38 19.57 21.91 20.21 21.56 23.94 24.83 24.35 30.44 31.81 31.19 31.14 32.34 31.15 31.64 31.12 30.96 31.16 31.09 28.88 29.04 29.34 28.75
23.10 18.73 21.54 17.89 15.73 16.54 16.45 15.75 14.47 18.10 21.33 17.74 12.57 9.87 13.10 19.41 19.47 19.52 23.23 24.00 26.81 24.88 25.84 29.69 28.61 27.61 30.34 28.81 27.57 28.48 28.61 23.41 21.02 21.46 25.44 25.64 26.68 23.55 18.89 23.59 28.58 29.01 30.65 30.81 31.37 30.65 30.80 30.99 31.34 31.31 30.75 30.17 29.87 27.61
18.26 22.96 19.10 8.32 12.85 14.30 18.20 19.25 15.83 16.04 18.68 25.85 23.82 22.13 22.58 22.82 25.63 27.18 25.71 26.11 21.37 28.28 28.41 24.75 24.72 27.75 30.34 29.07 28.02 22.29 24.22 29.02 30.28 28.66 25.33 22.58 22.04 23.20 28.43 29.96 29.39 29.73 30.15 30.06 30.16 27.47 25.36 25.53 28.65 29.85 28.99 26.75 26.54 25.41
15.17 11.08 10.24 8.23 10.57 16.33 21.02 16.77 14.81 15.81 12.33 18.32 24.49 23.62 25.50 27.08 21.21 20.62 17.15 22.04 26.72 29.74 29.81 28.96 28.74 28.20 27.29 26.20 25.69 24.94 24.07 21.64 21.72 19.90 17.49 16.65 19.13 22.83 25.17 27.71 29.28 29.29 27.60 16.47 17.51 19.43 21.00 23.84 24.40 25.93 25.56 24.81 24.27 23.72
8.48 12.19 13.95 12.71 20.53 20.31 20.67 18.68 18.27 19.38 19.74 13.98 23.79 17.88 19.19 15.51 21.07 18.41 19.46 18.15 20.41 19.75 19.61 19.97 19.85 19.22 21.54 20.45 22.44 21.59 19.99 18.13 15.82 14.57 14.34 13.13 14.05 15.11 16.75 18.46 20.40 23.68 21.15 16.20 16.54 18.09 19.99 22.13 23.41 22.34 22.00 22.15 21.75 20.59
9.11 5.91 5.59 6.60 8.69 7.32 12.62 13.30 10.50 9.51 6.58 12.72 19.53 21.18 21.44 19.22 21.23 17.06 17.53 18.83 15.90 15.34 14.96 16.02 17.14 19.32 19.67 22.28 22.28 20.27 18.46 18.68 19.34 20.09 18.52 18.06 15.59 14.71 14.19 15.12 16.07 18.47 18.72 17.81 17.26 17.41 16.01 15.67 14.05 13.11 12.72 12.77 11.32 10.59

GFSWCAN_sfc_wetblb_003.txt.gz
Wetbulb
50.02 50.02 50.30 50.08 49.97 50.08 50.29 50.41 50.36 50.28 50.13 50.31 51.05 51.08 50.99 50.56 50.74 51.65 50.75 52.17 48.51 40.03 43.53 46.57 47.16 43.63 42.48 39.50 34.28 39.22 38.21 35.64 35.35 31.81 27.70 28.51 20.82 28.76 28.18 31.18 28.59 28.41 27.12 24.31 26.75 25.57 23.43 38.47 39.76 33.95 37.96 39.13 39.50 39.41
50.36 49.50 49.48 49.51 49.45 49.70 49.97 50.03 49.92 49.80 49.76 49.72 50.21 50.63 50.64 50.57 50.70 51.34 49.35 52.45 51.45 46.32 45.12 50.02 51.02 50.18 48.57 46.67 42.51 39.68 39.41 37.80 37.00 34.49 33.14 28.74 28.66 31.64 26.66 30.06 34.28 31.09 33.17 28.35 32.16 30.55 37.08 38.84 41.35 42.11 42.53 40.04 38.22 39.03
49.40 49.71 49.28 49.13 49.35 49.27 49.58 49.72 49.45 49.31 49.47 49.42 49.67 50.31 50.39 50.30 50.69 51.37 49.59 49.92 47.41 38.24 43.05 44.58 45.26 48.29 52.67 50.52 50.20 40.47 35.11 43.05 39.71 40.74 34.34 34.07 33.15 32.56 32.96 33.08 34.49 37.37 39.84 31.96 33.76 37.90 39.25 41.75 43.32 44.78 42.64 41.14 43.77 42.09
48.50 49.01 49.13 48.92 49.26 48.95 48.97 48.99 48.99 49.12 49.44 49.28 49.30 49.38 49.65 49.97 50.43 50.06 48.35 49.40 46.35 40.68 33.53 39.82 46.53 47.00 50.52 51.53 50.24 48.69 47.25 45.90 44.27 39.64 34.22 33.89 33.35 39.64 34.19 37.53 36.22 39.41 39.56 36.57 37.17 40.52 41.18 41.99 42.68 42.85 44.18 41.83 39.34 39.55
47.65 47.76 47.83 48.39 48.39 48.59 48.43 48.55 48.30 48.39 48.68 49.31 49.31 49.48 49.40 49.90 49.96 48.44 47.81 48.57 49.91 45.96 35.70 37.57 43.22 47.01 48.53 49.14 48.38 48.43 47.49 45.11 38.89 36.79 34.07 34.60 35.84 36.27 34.60 34.54 34.03 40.67 38.66 35.56 35.70 41.37 40.72 41.87 42.32 41.94 39.85 38.95 39.44 38.75
46.88 47.23 47.14 47.45 47.67 48.36 47.99 47.69 47.70 47.90 48.08 48.54 48.61 49.33 49.75 49.41 50.02 50.12 45.53 47.02 50.24 50.63 39.33 35.52 41.89 41.92 44.55 45.55 45.80 45.48 45.92 44.43 43.44 40.65 35.34 38.74 41.83 38.53 33.17 33.47 39.16 41.96 44.13 43.90 41.13 44.15 44.36 42.38 39.73 40.23 38.94 39.07 40.31 40.22
46.45 46.71 46.84 46.84 46.77 47.20 47.54 47.69 47.92 47.83 48.03 48.21 48.36 48.72 49.24 48.85 50.61 47.45 44.71 45.33 49.14 49.35 36.79 35.16 35.45 36.71 40.14 41.82 40.90 41.88 43.01 42.21 43.28 40.48 36.96 38.18 38.72 41.77 32.99 34.06 39.66 42.13 42.72 43.07 43.84 43.97 40.71 39.63 37.40 39.51 38.31 37.77 37.35 37.21
46.30 46.27 46.07 46.16 46.43 46.53 46.75 47.09 47.20 47.60 47.98 48.17 48.52 48.72 48.90 48.95 48.60 45.45 47.14 48.84 49.96 45.19 39.12 34.78 34.57 34.89 39.79 34.64 34.00 38.69 35.33 37.59 39.91 40.37 37.29 34.95 35.79 34.98 33.85 39.11 39.67 39.91 40.63 40.68 41.01 41.10 39.82 39.33 38.52 36.88 36.98 37.36 35.63 34.63
46.07 45.82 45.48 45.50 46.02 46.21 46.41 46.70 47.25 47.40 47.74 48.28 48.39 48.23 47.25 45.34 41.67 43.67 47.09 46.95 46.22 44.34 35.69 32.80 32.97 32.97 39.69 36.27 34.75 33.77 35.74 32.96 35.98 32.97 34.24 36.65 33.32 33.59 37.13 37.69 38.16 39.11 38.15 37.78 37.24 37.63 37.67 35.34 36.62 35.65 33.86 32.79 32.21 32.13
45.89 45.75 45.18 44.97 45.41 46.09 46.02 46.59 47.31 47.43 47.78 47.45 45.40 42.44 35.31 39.13 46.91 46.26 43.37 39.10 37.47 36.04 36.26 32.99 35.70 33.68 40.53 33.32 32.61 33.51 32.77 32.22 30.69 32.43 35.33 32.23 32.97 37.07 38.16 37.22 38.50 37.73 37.65 37.42 32.69 32.45 32.68 30.97 30.25 30.03 30.33 31.32 31.76 31.00
45.85 45.48 45.04 45.04 45.32 45.93 45.69 45.60 46.95 47.06 46.40 42.32 37.22 35.15 41.96 46.61 42.52 36.62 33.32 33.63 33.80 32.49 33.24 33.21 33.80 34.01 38.00 33.57 32.59 32.97 31.64 31.48 26.85 24.27 30.25 25.94 26.28 31.68 34.18 34.74 35.58 36.01 35.22 33.85 33.88 33.43 33.15 32.21 31.59 31.03 30.43 31.30 31.04 29.33
46.12 45.43 45.10 44.97 45.29 45.50 45.97 45.19 45.26 44.51 42.80 42.22 41.34 43.81 41.87 39.56 34.51 33.36 31.81 31.43 31.42 30.37 32.17 31.96 33.33 36.17 34.24 38.69 32.70 31.85 28.19 28.88 22.80 27.82 27.44 21.96 26.01 31.82 32.45 33.45 33.34 33.48 34.04 34.78 34.29 34.26 34.67 34.77 33.83 31.36 30.33 30.06 28.98 25.81
45.58 45.57 45.27 45.16 45.28 45.65 45.21 45.03 45.30 45.53 44.90 41.77 37.66 34.74 36.23 32.58 30.72 29.08 26.79 28.67 27.80 31.40 32.73 32.92 32.25 32.94 33.74 34.48 30.90 27.59 24.65 23.66 24.15 23.54 21.80 23.37 28.91 31.08 32.26 32.99 33.51 34.33 32.00 30.26 32.16 33.12 33.28 32.58 31.76 28.30 28.54 27.55 29.78 30.06
45.42 45.46 45.21 44.90 45.06 43.79 44.33 44.58 43.93 42.67 38.91 30.97 29.27 29.61 29.97 27.30 29.33 27.43 22.14 23.52 31.46 32.59 32.77 32.94 31.61 29.91 29.38 24.03 25.64 23.98 21.39 19.79 22.11 20.76 16.65 22.30 27.60 29.28 30.17 31.10 30.91 30.80 27.19 26.91 28.99 29.84 28.58 27.70 27.85 26.90 22.49 26.63 28.01 29.52
45.42 45.33 44.96 44.51 44.22 43.53 43.47 43.36 43.48 39.66 33.01 28.91 24.56 19.52 25.07 25.75 30.52 31.79 32.61 32.61 32.76 34.01 32.82 31.45 30.33 27.00 24.24 18.31 23.10 18.26 17.06 17.82 21.44 15.96 18.01 23.67 28.88 29.39 29.29 30.11 29.97 27.45 26.47 26.73 29.52 27.93 26.87 26.59 26.02 27.06 27.84 25.12 26.05 31.63
45.32 44.63 43.11 44.10 43.74 43.57 43.16 42.84 40.60 35.99 29.31 26.85 25.25 19.03 28.33 29.16 28.52 30.20 31.84 31.84 34.10 32.67 31.12 29.20 17.52 14.89 15.99 14.23 13.16 17.64 13.09 12.39 15.92 15.49 21.11 25.21 28.90 29.13 29.00 28.99 29.20 29.06 28.15 28.57 29.45 28.94 28.77 26.13 26.05 28.17 26.90 24.72 26.56 28.45
43.10 39.79 44.07 43.68 43.28 43.04 42.47 38.16 34.70 30.89 24.22 19.31 17.79 29.06 19.90 26.14 20.53 28.57 30.52 32.19 34.22 30.96 26.14 19.31 14.51 16.41 18.00 10.19 11.95 18.58 13.89 16.05 17.15 21.68 23.77 26.90 28.66 29.06 28.92 28.73 26.88 27.93 29.29 28.71 29.22 28.76 28.75 28.30 25.53 22.38 24.18 28.99 25.61 25.96
39.73 43.17 43.57 43.64 41.98 39.82 37.48 33.26 27.40 25.01 22.76 21.19 19.64 18.23 27.37 20.79 30.46 31.00 28.34 24.24 32.56 30.47 25.01 20.81 21.56 12.94 9.72 9.24 10.69 16.35 18.21 19.39 22.67 23.33 24.86 27.15 28.50 28.69 29.00 28.86 30.08 29.89 29.26 29.19 26.83 27.46 27.16 24.86 25.99 27.62 27.83 28.71 26.01 24.61
42.17 42.56 43.14 42.83 39.50 33.67 29.35 29.26 30.05 21.32 19.76 18.38 20.04 20.43 19.71 20.24 22.90 21.26 19.83 23.48 31.89 31.46 29.34 25.14 10.85 11.65 14.18 15.63 13.25 12.88 11.07 15.35 22.65 26.41 26.00 28.24 28.21 28.46 29.31 29.65 29.64 29.51 29.00 28.36 28.77 29.33 29.85 29.13 28.83 29.15 29.20 29.11 29.21 29.91
43.10 42.53 42.04 41.60 38.92 28.16 24.81 22.80 28.27 23.95 20.42 23.05 19.79 19.96 20.48 20.42 19.46 21.00 29.33 24.14 28.52 30.11 28.31 25.48 18.81 18.40 18.23 21.40 22.75 21.63 23.29 24.07 22.85 23.03 26.02 27.21 27.89 28.71 28.88 29.29 29.27 29.20 28.55 27.97 26.64 23.16 28.28 29.23 29.11 28.47 30.06 30.63 30.41 30.66
40.47 40.46 40.52 37.30 31.98 29.60 26.45 21.89 20.81 22.49 23.55 22.22 22.29 22.09 18.60 20.30 24.36 20.84 26.89 30.25 26.91 27.03 25.56 24.72 19.28 23.50 26.77 27.47 25.50 26.03 26.87 26.14 26.03 24.78 25.74 27.14 28.54 27.14 27.68 28.09 27.17 25.58 24.21 24.02 23.44 26.91 29.56 30.77 31.50 32.78 32.47 32.46 32.52 32.29
38.47 39.85 34.92 35.21 29.30 23.74 23.57 23.63 22.58 22.15 19.82 17.95 18.25 20.47 15.19 13.11 19.01 24.35 21.90 26.75 26.07 25.41 25.11 23.84 27.36 27.99 27.48 26.98 28.18 27.75 28.37 28.54 28.42 27.89 26.05 26.24 25.36 26.06 23.29 23.30 20.92 19.69 27.91 29.07 29.09 29.71 31.42 31.98 32.26 32.58 32.43 32.29 31.78 29.05
37.67 35.04 31.44 30.54 21.24 17.25 18.19 23.49 16.88 20.87 16.31 14.74 16.74 14.90 10.86 9.25 16.13 23.09 18.77 23.97 22.31 26.60 28.34 27.11 28.42 29.65 28.85 29.77 27.89 28.59 29.00 29.11 28.11 27.94 26.79 26.21 25.95 23.20 20.01 21.53 17.32 21.48 28.35 29.53 31.03 31.49 31.84 32.38 32.34 31.59 31.46 31.70 29.41 26.81
36.12 28.82 23.66 20.70 14.97 11.99 18.25 24.95 23.66 16.76 12.46 14.27 11.14 8.33 11.40 10.88 14.71 11.04 12.79 13.03 23.37 24.00 25.01 27.96 27.77 26.84 25.62 26.31 26.26 28.34 29.51 27.40 26.96 25.29 23.75 20.77 22.25 23.38 22.33 23.43 22.74 24.22 28.80 30.79 30.59 30.89 32.00 32.22 32.20 29.90 25.71 29.38 28.60 27.87
21.34 24.22 18.20 21.12 24.95 22.15 17.72 11.63 11.62 16.08 14.17 7.71 7.57 6.36 11.56 11.06 10.19 5.04 10.04 16.78 14.63 16.81 22.36 22.97 21.93 25.06 23.80 23.26 22.46 25.42 24.67 26.88 25.41 23.66 25.06 21.39 17.78 16.18 19.30 21.55 22.86 27.94 25.73 29.63 28.67 30.77 30.88 31.49 31.39 30.35 28.96 26.64 24.29 24.72
11.45 19.34 22.82 22.02 21.57 11.74 14.28 10.31 16.47 12.49 2.82 4.16 6.95 10.08 3.09 4.70 5.87 9.42 15.15 16.28 12.91 15.40 15.18 16.03 16.48 17.54 21.36 25.27 24.55 24.41 26.20 24.62 24.16 21.98 23.34 23.32 22.78 20.48 20.31 25.88 26.54 23.19 21.72 28.68 31.00 30.19 29.89 29.73 30.48 29.78 28.85 27.52 22.34 26.37
11.96 18.06 23.54 23.09 21.13 18.76 10.94 5.68 9.30 6.24 3.44 7.21 6.42 4.83 5.47 6.27 6.65 14.68 18.98 19.28 21.36 20.95 22.09 22.80 25.01 24.70 25.01 26.20 25.98 26.16 24.99 21.65 25.71 25.44 22.95 24.02 25.43 25.88 25.68 27.90 24.35 23.23 27.87 30.90 29.99 29.25 28.60 29.31 29.71 29.91 29.38 29.03 26.88 26.74
17.08 16.38 18.65 17.81 14.66 13.69 7.93 2.65 5.15 8.76 10.64 15.26 9.56 7.85 10.40 10.90 13.78 18.96 22.51 23.27 22.41 22.70 24.48 25.19 24.92 26.69 26.37 25.66 21.34 19.75 24.08 21.91 15.81 17.70 17.19 20.44 24.12 21.54 16.97 27.77 28.95 27.36 26.34 27.95 29.36 29.64 29.38 29.17 29.81 30.13 30.32 29.63 28.61 29.79
24.02 19.51 15.93 11.26 12.74 14.24 16.69 14.53 12.97 16.74 19.90 17.15 12.05 8.17 11.98 17.98 17.49 18.17 22.28 22.12 20.19 21.13 19.83 23.74 23.68 15.22 20.43 29.93 28.98 29.22 24.04 28.27 25.22 20.05 20.92 17.70 21.44 24.70 24.43 22.45 28.42 29.78 29.11 28.89 29.52 30.60 30.66 29.62 28.84 28.80 29.40 30.03 31.00 31.65
17.64 21.83 22.48 20.37 19.82 19.06 18.78 18.56 13.67 13.51 16.84 22.47 21.51 21.08 21.33 18.67 19.55 18.41 17.74 17.79 16.03 15.10 18.19 20.51 21.80 21.75 26.84 29.42 27.44 26.24 25.52 23.89 26.64 26.86 23.44 18.29 16.80 15.03 19.03 26.38 27.30 28.49 28.68 28.42 27.51 25.06 20.55 18.16 20.67 23.02 24.71 26.42 27.42 26.41
14.64 10.30 8.42 5.19 8.59 12.39 16.35 11.27 5.97 7.83 8.92 15.37 16.64 20.55 23.83 21.18 13.49 11.41 15.03 13.83 13.57 22.41 21.99 21.06 24.08 21.82 22.01 21.51 20.20 18.39 19.48 17.99 18.29 18.77 16.66 11.22 9.60 9.61 9.17 13.14 17.27 22.42 26.05 23.83 23.75 14.49 10.44 13.02 15.64 17.94 20.29 22.05 22.10 23.71
14.86 10.94 11.35 8.27 11.44 15.23 8.33 12.61 10.98 11.01 15.61 6.15 21.58 11.27 8.44 10.31 10.13 9.31 14.79 14.36 13.99 13.89 13.54 14.77 15.33 17.50 20.01 20.60 18.71 16.76 18.03 18.15 18.28 17.56 16.93 14.87 14.18 10.28 9.37 10.41 11.31 12.82 13.99 21.73 18.53 12.33 11.95 11.53 11.13 11.94 13.50 17.96 17.73 15.70
3.09 -1.12 -2.74 1.62 6.02 6.14 6.74 8.43 5.02 5.38 0.28 3.30 16.63 9.71 8.34 14.43 13.92 12.55 16.13 15.91 14.39 14.43 14.20 15.09 16.20 17.14 18.58 20.07 19.70 19.54 19.65 19.52 19.63 19.99 18.95 16.35 13.25 10.00 5.05 4.45 3.92 6.11 8.18 9.62 12.73 12.18 11.21 7.76 6.06 5.85 6.56 8.27 7.93 7.39

GFSWCAN_sfc_wetblb_006.txt.gz
Wetbulb
49.41 49.51 49.81 49.80 49.77 49.99 50.32 50.23 50.14 50.29 50.21 50.11 50.53 51.38 50.71 50.31 50.78 51.79 49.78 50.48 47.18 38.60 41.82 45.59 45.28 42.06 40.92 38.31 33.85 38.22 37.39 34.55 35.26 32.29 28.45 29.20 19.68 27.76 27.52 30.78 27.52 26.76 23.40 21.55 26.36 25.75 22.34 36.29 37.66 32.97 37.11 39.86 40.88 40.69
49.62 49.56 48.96 49.15 49.26 49.57 49.83 49.96 49.89 49.68 49.66 49.56 50.20 50.50 50.46 50.17 50.37 50.68 49.13 50.32 49.36 44.38 42.97 46.97 48.10 47.72 45.92 44.90 41.10 37.04 38.37 36.91 35.79 32.74 32.24 28.67 26.54 27.81 29.10 29.49 32.25 28.90 31.91 30.71 33.20 29.69 35.92 39.61 40.91 41.88 41.93 40.55 39.36 38.29
49.03 49.48 48.63 48.74 49.26 49.29 49.56 49.60 49.45 49.40 49.31 49.44 49.74 50.55 50.48 50.44 50.80 50.67 48.45 47.69 45.57 37.67 42.15 43.93 43.61 47.68 51.40 48.95 48.23 39.58 33.88 41.20 38.37 39.02 32.82 31.28 27.03 30.05 32.11 31.90 29.64 36.47 39.10 34.64 34.57 36.83 39.97 42.51 43.15 42.74 41.65 41.53 40.00 39.64
47.87 48.12 49.28 48.43 48.74 48.92 49.04 49.13 48.99 48.93 49.01 49.26 49.38 49.64 49.76 50.01 50.10 49.84 47.85 46.62 45.08 40.12 33.68 38.63 45.19 45.11 48.32 49.79 48.03 47.78 45.59 44.03 41.38 37.90 33.37 32.47 33.31 39.13 33.78 37.31 35.81 37.83 38.88 36.54 35.83 40.44 40.67 40.59 40.49 40.83 40.34 40.69 40.06 39.87
47.47 47.27 47.54 48.21 48.21 48.38 48.68 48.59 48.45 48.86 48.92 49.57 50.23 49.71 49.48 49.80 49.33 48.60 47.90 48.28 48.94 44.60 35.25 37.14 42.74 45.31 46.75 47.28 46.54 45.69 45.75 43.31 39.74 36.58 33.66 34.57 34.34 36.04 34.19 34.51 34.25 39.06 37.31 33.36 35.17 40.40 41.28 42.00 41.87 42.37 40.08 39.07 39.41 38.58
46.91 47.09 46.88 47.08 48.02 47.69 48.05 48.03 48.20 48.03 48.41 48.74 49.05 49.59 49.66 49.32 49.56 48.14 43.98 46.41 47.98 49.49 38.72 34.02 40.68 39.42 42.80 44.55 44.36 42.80 44.34 42.69 41.42 40.04 35.11 38.26 41.86 38.07 32.77 32.88 38.96 40.56 41.91 43.75 40.91 44.42 43.60 42.60 41.48 40.59 38.51 37.09 37.97 36.24
46.56 46.68 46.77 46.61 46.86 47.62 47.44 47.27 47.45 47.62 47.82 48.18 48.50 48.86 49.21 48.87 50.88 47.65 43.25 44.54 48.10 46.45 35.85 34.55 34.44 34.74 38.74 41.04 40.27 40.72 41.58 40.31 40.84 39.58 36.38 37.07 37.72 41.14 32.94 34.26 39.41 41.02 41.92 42.92 43.02 42.60 38.11 37.44 36.98 39.12 38.65 36.69 35.93 35.00
46.14 46.02 46.12 46.30 46.44 46.70 46.82 47.26 47.24 47.62 47.80 48.02 48.16 48.20 48.56 48.86 48.35 46.33 46.50 48.57 49.38 43.55 39.26 34.39 34.52 33.37 39.03 34.28 34.19 38.16 35.10 38.11 40.45 40.10 36.89 34.73 36.29 34.39 33.57 37.89 38.60 40.08 41.08 40.02 38.99 39.03 38.01 38.90 38.50 36.11 34.23 32.87 31.49 30.83
45.88 45.43 45.31 45.57 45.96 46.21 46.36 46.71 47.35 47.78 47.78 48.14 48.16 48.27 47.26 45.67 42.00 43.92 47.18 47.45 46.75 43.26 36.40 32.95 33.30 33.12 39.72 36.06 34.67 32.47 35.11 32.94 36.82 32.94 34.02 36.06 33.10 33.40 36.54 34.21 34.36 35.41 35.83 35.87 36.87 36.40 35.53 32.61 31.46 31.82 31.40 30.43 29.26 29.29
45.64 45.22 44.90 44.99 45.87 45.89 46.32 46.81 46.89 47.56 47.78 47.60 45.92 42.20 35.47 39.28 46.93 46.73 43.72 39.72 38.51 36.38 36.83 33.13 35.73 33.83 40.51 33.10 32.95 33.65 32.74 32.48 31.58 32.62 34.63 32.20 32.64 36.71 34.31 35.58 35.98 35.19 35.84 35.55 32.29 31.38 31.21 29.55 29.77 30.21 30.23 30.08 29.88 29.53
45.87 45.29 44.89 45.12 45.82 45.44 46.32 46.66 46.97 47.31 46.41 42.56 37.62 35.13 41.95 46.53 42.22 37.75 33.45 33.99 34.17 32.57 33.62 33.64 34.13 34.16 37.89 33.39 32.92 33.09 31.79 31.61 23.34 23.61 30.01 27.81 26.28 30.40 31.90 31.34 32.10 32.54 32.85 32.56 32.05 31.40 31.78 31.81 31.07 30.87 29.94 29.56 29.10 28.37
46.14 45.15 45.01 45.12 45.61 45.82 45.06 45.94 46.11 44.20 42.61 42.33 42.15 43.67 41.79 39.58 34.69 34.14 31.83 31.46 31.99 29.37 32.17 31.96 33.16 35.98 34.01 38.23 32.85 31.82 29.35 28.82 23.23 27.41 26.48 19.22 25.41 30.00 31.07 31.04 31.33 31.86 31.52 31.26 31.90 32.19 32.13 32.43 32.07 31.00 30.15 29.86 28.54 27.51
45.52 44.99 45.13 45.24 45.33 45.48 45.13 45.44 45.42 45.25 44.17 40.48 37.59 34.66 36.28 32.83 30.67 28.85 24.80 28.68 29.06 31.55 32.70 32.71 32.15 32.71 33.71 34.25 31.05 29.56 24.57 21.51 24.13 21.30 19.48 22.16 27.90 28.60 28.53 30.24 31.21 31.64 30.11 28.49 29.74 29.78 29.98 29.72 29.14 26.61 27.43 27.74 25.93 26.28
45.14 44.79 45.06 45.25 44.80 44.33 44.75 44.23 43.84 42.77 39.42 32.52 30.32 30.46 28.53 27.43 29.31 29.06 28.66 23.69 26.62 32.36 32.56 32.73 30.86 30.32 29.02 28.21 27.17 19.98 22.25 21.92 21.94 15.85 15.35 20.91 26.89 27.87 28.77 29.66 29.68 29.67 25.79 25.08 28.07 28.79 26.89 25.70 25.94 25.89 23.75 24.31 22.95 24.27
45.13 44.98 44.95 44.49 43.62 43.85 43.78 43.65 42.64 40.23 35.69 30.13 27.24 23.66 27.03 26.63 28.35 31.99 32.20 32.74 32.56 33.69 32.70 31.40 29.35 27.60 25.38 22.49 23.84 19.66 20.74 17.93 19.33 15.83 16.54 22.88 27.77 28.81 29.02 29.66 28.83 26.55 24.34 24.63 28.80 26.34 24.38 24.26 24.14 25.74 26.97 25.04 24.06 23.01
45.31 44.44 42.65 44.02 43.75 43.70 43.26 41.85 39.85 36.30 30.85 28.05 24.72 19.95 26.80 28.69 28.17 30.25 32.03 32.23 34.02 32.67 31.01 27.87 20.64 21.05 18.51 16.92 14.88 18.02 15.66 14.18 15.60 13.87 20.24 24.26 28.29 28.87 29.08 28.19 28.06 28.11 27.63 28.30 28.42 27.35 27.12 23.82 24.08 27.46 27.45 25.54 24.55 23.40
43.83 39.96 43.87 43.70 43.19 41.99 41.78 37.81 35.13 29.64 25.66 21.47 19.21 28.23 18.93 19.95 22.43 24.23 31.43 31.70 33.93 31.13 26.25 24.42 15.34 15.71 17.38 10.58 13.14 17.52 13.09 15.39 16.69 19.66 22.53 26.16 28.25 28.70 28.77 28.07 26.14 26.86 27.98 27.66 27.68 27.11 27.10 26.89 24.14 22.39 23.27 28.10 26.37 25.65
40.28 43.12 43.68 43.51 41.12 39.33 36.78 32.56 27.70 25.88 22.29 21.61 20.51 19.38 28.46 24.39 22.57 24.42 28.20 28.29 30.67 29.23 26.09 23.66 21.42 12.18 8.47 9.34 11.75 16.32 17.74 17.88 20.59 20.85 24.45 26.65 28.16 28.39 28.73 27.99 29.01 29.04 28.66 28.28 25.55 25.46 25.03 22.92 24.73 27.47 27.60 28.02 27.74 27.26
42.29 42.44 42.95 41.74 39.39 32.19 29.53 28.73 29.43 21.30 20.03 19.77 20.80 22.55 20.69 22.20 27.13 25.13 23.33 26.75 30.43 31.32 27.86 21.41 11.25 12.88 16.06 16.49 14.92 10.85 9.77 14.86 21.48 24.66 25.33 27.59 27.53 27.56 27.94 28.56 28.47 28.57 27.85 26.86 27.31 27.98 28.31 27.40 27.92 28.81 27.84 27.85 29.18 30.59
42.92 42.11 41.33 40.44 38.45 28.80 24.83 23.82 27.80 23.86 20.35 22.58 19.85 21.44 20.22 20.44 24.16 26.30 28.65 24.79 25.16 28.59 27.47 22.36 19.46 18.02 17.93 20.55 21.81 21.24 22.13 23.04 22.00 22.19 25.39 24.61 26.64 27.64 27.98 28.50 28.39 28.48 28.01 26.63 24.97 23.17 25.49 26.22 27.32 27.70 27.63 30.31 30.99 30.95
40.26 39.79 39.40 36.37 30.36 28.98 25.36 20.63 20.55 21.31 22.86 21.09 20.94 20.10 16.65 24.61 25.42 24.59 26.83 27.53 27.35 26.22 20.43 22.62 18.49 23.68 25.95 25.12 25.27 25.61 26.13 25.80 25.54 23.57 23.74 25.28 26.61 26.51 27.58 28.07 26.86 24.45 21.60 20.24 25.29 28.25 28.91 29.29 30.02 31.44 31.41 30.86 31.31 31.79
37.90 39.45 34.14 33.85 25.95 22.92 23.31 23.17 21.77 21.53 18.84 17.22 16.40 17.59 10.29 9.46 19.16 23.57 27.13 25.68 24.49 22.30 24.95 24.77 27.77 25.79 26.23 26.69 27.25 27.55 28.03 28.11 27.82 26.55 24.27 24.94 25.17 23.75 23.92 24.05 18.85 20.72 19.41 20.94 23.68 25.91 29.41 30.36 30.98 31.93 31.67 30.68 30.88 31.74
37.07 33.88 28.65 24.41 21.02 16.70 19.82 22.75 16.54 19.20 13.31 13.58 14.43 12.76 9.61 7.83 13.39 24.38 22.49 25.36 22.44 25.54 25.78 25.51 27.35 28.68 28.20 28.99 27.32 28.15 28.23 27.87 26.85 26.83 26.26 26.29 26.43 24.19 19.91 21.17 18.91 19.71 21.43 23.98 22.83 25.40 29.64 30.25 30.37 32.05 32.32 31.19 30.74 29.89
35.65 28.17 23.61 20.56 15.88 14.79 22.83 20.04 20.46 16.35 11.34 10.05 9.33 12.10 10.46 9.83 14.79 19.85 16.54 11.85 22.00 22.32 23.83 27.62 26.29 25.10 24.39 25.14 24.48 26.78 27.79 26.61 26.26 24.87 23.70 20.76 21.88 23.99 21.76 22.31 19.64 19.92 22.94 25.61 25.76 29.50 29.44 28.73 31.99 31.55 31.91 29.29 29.00 28.24
23.86 24.47 18.34 18.97 21.61 17.30 15.20 8.07 9.46 19.07 19.62 8.79 8.66 7.92 8.52 9.02 8.88 6.48 8.84 14.90 12.32 13.38 19.02 20.00 20.52 23.71 21.97 19.03 20.06 23.17 23.21 25.49 23.64 22.68 25.67 22.14 20.32 15.52 19.79 20.28 20.91 21.87 20.02 15.49 18.52 22.09 28.98 30.44 30.08 29.23 30.23 29.68 28.19 27.92
12.40 21.99 20.07 15.51 20.04 10.74 9.14 11.74 15.70 14.82 1.05 3.40 11.56 7.04 0.24 2.50 5.00 9.42 13.85 14.86 10.38 13.17 11.76 13.08 13.89 15.66 19.62 24.03 22.66 21.91 25.00 22.42 21.20 19.86 26.08 22.69 22.94 22.34 19.11 17.67 20.06 21.15 18.63 25.77 28.24 28.73 28.58 28.36 27.60 27.77 27.56 28.26 27.94 28.10
12.65 19.85 24.18 22.35 19.48 15.18 7.03 3.33 7.73 4.18 1.59 6.27 4.94 2.59 3.33 5.26 4.73 13.61 17.62 18.25 20.31 20.52 21.46 21.44 22.31 22.96 24.86 25.46 24.47 24.04 21.37 19.32 22.72 24.51 20.56 20.89 21.92 23.44 22.96 21.85 26.22 26.13 26.86 28.21 26.78 27.89 27.15 27.16 27.25 27.39 27.82 28.20 28.35 28.94
13.63 14.78 17.17 18.14 19.34 14.64 6.21 1.41 3.69 7.03 8.66 13.43 8.13 7.16 9.30 9.65 12.91 18.19 21.57 23.22 21.75 21.17 21.20 22.06 22.16 23.89 23.35 24.12 21.12 17.26 23.58 23.29 22.79 14.79 19.13 25.45 25.81 25.72 22.34 20.81 24.92 27.75 25.16 27.40 28.57 28.57 28.26 28.69 28.15 27.00 26.48 26.44 26.51 28.41
22.54 19.17 15.84 15.37 7.93 6.85 11.12 12.72 11.26 14.90 19.31 16.85 13.02 8.66 12.22 17.29 17.59 17.93 19.28 18.56 15.41 18.78 18.08 18.30 20.05 13.74 18.02 18.15 19.71 23.85 24.16 27.05 27.23 25.16 23.50 23.29 14.57 21.83 22.23 20.18 21.85 26.51 27.89 27.83 28.19 28.28 26.09 21.60 19.68 22.09 21.56 24.29 26.45 27.82
19.23 18.30 12.43 8.34 11.45 13.61 17.14 21.20 15.07 12.22 14.13 17.37 17.64 19.10 18.64 16.47 12.69 14.39 14.92 16.27 18.80 19.93 22.23 22.27 24.28 24.15 25.10 25.62 26.20 25.62 22.44 23.01 24.31 24.92 22.53 16.60 16.18 15.13 15.05 15.76 16.77 21.26 23.73 26.34 26.53 25.65 24.52 10.93 12.91 13.79 14.82 16.74 16.64 17.70
9.26 11.94 13.99 11.67 11.04 11.66 14.68 6.18 1.86 3.55 3.98 10.45 10.08 16.67 22.06 14.64 13.99 8.47 13.51 9.99 12.13 13.44 13.99 12.52 13.50 14.47 14.32 15.83 16.95 18.48 20.53 18.25 18.20 15.89 15.75 15.60 16.26 15.73 14.27 13.19 12.02 13.14 16.88 20.25 22.78 21.68 11.71 6.26 3.73 3.50 8.55 15.66 16.74 12.83
16.46 10.96 9.85 6.30 9.28 8.50 2.50 10.84 3.04 3.90 5.17 3.89 18.31 2.96 5.26 6.64 2.13 7.78 13.64 11.00 10.70 10.82 10.98 11.83 11.48 12.12 16.28 17.80 18.84 18.63 18.00 16.31 15.76 16.29 15.32 14.66 13.92 12.29 10.07 8.28 5.84 5.38 3.21 9.04 6.47 4.81 2.44 0.86 0.08 1.47 0.86 3.97 6.16 6.30
-0.97 -0.95 3.77 -1.31 5.37 5.91 2.01 4.29 1.87 5.25 -1.54 -3.30 -0.67 -0.42 -1.85 3.70 6.54 10.70 15.11 14.85 13.50 11.84 11.07 12.13 14.52 15.66 17.45 16.50 16.17 16.17 16.30 15.81 15.41 14.41 13.64 14.05 10.19 7.26 3.45 -0.03 -2.14 -2.63 -1.57 -1.01 -0.49 -1.86 0.23 -1.71 -2.40 -1.37 0.02 0.83 1.54 1.86

GFSWCAN_sfc_wetblb_009.txt.gz
Wetbulb
49.38 49.05 49.46 49.48 49.44 49.65 49.83 49.97 50.01 50.21 50.38 50.38 50.67 50.97 50.06 50.19 50.49 52.64 51.25 50.85 48.07 40.10 43.80 47.10 46.11 42.48 42.17 40.84 38.16 40.44 40.30 38.46 37.02 33.42 33.06 32.79 30.74 33.11 32.38 33.59 30.98 31.60 30.80 28.35 28.64 27.79 25.83 38.96 39.38 36.28 40.58 42.26 41.94 42.00
49.13 49.44 48.76 48.88 49.06 49.18 49.50 49.62 49.69 49.64 49.71 49.93 50.32 50.70 50.38 50.22 50.23 51.18 50.51 50.54 49.38 45.94 45.12 49.00 51.03 49.85 48.46 46.17 42.50 39.43 41.25 39.05 39.78 34.85 33.27 32.47 31.23 29.04 31.29 32.13 35.21 32.33 35.37 33.31 33.76 34.00 39.41 41.07 42.54 44.36 42.52 41.68 40.51 40.51
47.83 48.48 48.74 48.32 48.65 48.97 49.29 49.22 49.31 49.26 49.17 49.35 49.97 50.70 50.40 50.52 50.41 51.04 49.59 48.52 46.36 39.14 43.33 45.80 45.95 48.91 51.67 50.25 49.63 42.37 38.82 42.85 40.77 41.70 36.88 34.20 33.24 33.60 31.40 31.50 33.72 37.35 39.23 37.04 35.50 39.86 40.99 42.73 44.41 43.39 42.41 40.54 40.88 41.18
47.42 47.24 47.65 48.52 48.30 48.59 48.88 48.91 48.86 48.95 48.92 48.93 49.33 49.75 49.97 49.86 49.85 49.89 49.03 47.40 45.85 40.51 34.15 40.69 45.61 46.77 49.76 51.31 50.55 49.26 45.92 44.19 42.52 40.86 34.51 33.42 33.06 39.41 34.27 38.10 37.20 39.99 39.95 37.31 36.32 40.81 41.83 41.88 43.28 42.80 41.32 41.80 40.44 40.83
47.11 46.84 46.84 47.11 47.94 48.12 48.55 48.71 48.50 48.55 48.63 49.23 48.38 49.28 49.52 49.74 49.34 49.17 48.91 49.19 48.56 46.45 36.49 38.02 43.95 46.06 46.54 48.16 49.14 48.00 46.59 44.38 41.38 37.41 34.15 35.05 37.27 37.32 35.78 35.91 35.35 40.85 39.49 36.93 36.26 42.26 41.33 42.02 43.70 42.71 40.18 39.37 39.58 38.98
46.59 46.75 46.70 46.66 46.82 47.62 47.78 48.19 48.28 48.57 48.66 48.83 49.31 49.86 49.56 49.04 49.32 48.58 44.61 47.47 49.09 48.16 38.46 34.87 41.51 40.59 42.74 45.33 46.20 45.86 46.22 44.30 43.36 40.98 35.40 39.80 42.91 40.12 33.24 33.16 39.56 42.20 43.54 44.37 42.20 43.80 43.11 41.96 41.64 41.50 39.13 38.30 37.68 36.69
46.29 46.43 46.54 46.48 46.44 46.98 47.34 47.43 47.92 48.12 48.10 48.30 48.66 49.23 49.30 48.73 51.51 47.09 43.61 45.85 48.04 46.72 36.50 34.51 35.08 37.28 40.37 41.22 40.68 41.17 42.89 42.69 44.03 40.57 36.31 37.51 38.17 41.26 33.06 33.56 40.14 41.62 42.03 43.21 42.84 42.69 37.99 38.58 37.40 38.96 37.11 36.60 36.29 35.90
45.89 45.82 45.98 46.28 46.21 46.48 46.69 46.84 47.40 47.89 48.23 48.59 48.47 48.50 48.65 48.64 48.39 46.95 47.99 48.30 48.03 44.15 40.21 34.10 34.87 34.41 39.97 35.87 35.58 38.78 37.36 40.03 41.56 40.88 37.05 36.14 37.09 36.14 33.75 38.39 37.18 37.65 39.10 39.83 39.40 40.33 39.37 37.28 36.32 36.08 36.36 35.62 34.35 33.58
45.50 45.18 45.26 45.75 46.05 46.28 46.50 46.98 47.18 47.52 48.19 48.41 48.43 48.77 48.30 46.57 42.65 44.92 47.72 47.40 47.00 43.68 36.87 33.24 33.60 33.42 39.23 36.49 35.50 35.32 36.64 33.78 37.85 33.42 34.51 36.75 34.69 33.33 33.87 33.93 35.75 36.09 36.64 36.72 36.06 34.78 35.35 34.86 35.10 35.20 34.79 34.32 32.96 32.69
45.31 44.86 44.74 45.43 45.27 45.61 46.34 46.64 47.00 47.34 47.81 48.07 46.48 43.12 35.58 39.55 47.07 47.13 43.78 40.11 38.43 37.36 37.55 33.42 36.16 34.69 39.93 34.33 33.97 35.23 33.42 33.06 32.02 33.84 35.04 32.52 32.92 33.79 33.59 35.15 36.76 36.47 36.85 36.77 33.52 32.98 33.64 32.95 33.28 33.31 33.41 33.90 33.09 32.17
45.64 45.02 44.79 45.30 45.38 45.58 46.28 46.62 46.98 47.04 46.48 42.74 37.54 35.23 41.89 46.48 42.65 38.42 33.54 34.19 34.43 32.70 34.27 34.19 34.27 34.79 38.15 34.42 33.42 33.22 31.97 32.33 28.41 29.15 31.40 29.74 29.66 31.48 33.25 32.69 33.52 34.22 34.68 34.59 35.00 34.55 33.74 32.78 32.31 32.48 32.63 33.27 32.55 31.58
46.23 45.20 44.97 45.55 45.64 45.16 46.59 46.53 46.20 44.39 43.07 43.25 42.18 43.80 42.08 39.70 34.81 32.46 31.78 31.75 32.83 31.54 33.00 33.03 33.50 36.22 34.30 38.29 33.12 32.09 30.51 29.99 22.97 29.48 28.94 26.32 28.91 31.85 32.87 33.22 33.68 33.66 33.30 32.75 33.00 32.16 32.22 31.97 32.60 31.72 31.55 31.36 30.88 30.54
45.59 44.90 44.94 45.13 45.20 45.10 45.73 45.68 45.63 45.49 44.19 42.21 38.54 34.42 36.08 32.98 30.81 30.23 28.00 29.51 30.48 32.29 32.68 33.19 32.14 33.24 33.81 34.90 31.72 30.09 26.04 25.49 27.49 25.40 23.95 26.08 29.98 30.10 30.60 31.75 32.61 33.10 32.36 30.24 31.54 32.09 32.30 31.83 31.16 28.70 28.64 29.26 28.39 28.78
45.07 44.69 45.00 45.03 44.72 45.23 45.25 45.54 44.80 42.65 39.70 33.75 33.39 30.60 29.89 28.76 29.75 26.84 27.05 27.68 29.94 32.86 33.06 33.06 30.78 31.12 29.96 29.54 28.45 24.87 24.49 24.36 23.06 19.43 20.90 26.04 28.96 29.69 30.70 31.83 31.20 31.00 26.73 26.86 29.52 30.72 28.96 27.65 27.57 27.40 25.16 26.31 25.44 26.78
44.94 44.56 45.02 44.03 44.45 44.16 44.60 43.98 43.29 41.73 34.95 29.44 29.60 26.62 28.29 27.35 30.79 32.15 32.50 32.88 32.67 34.04 33.22 31.42 30.14 30.40 25.83 25.08 25.00 23.26 22.55 20.38 21.02 21.01 24.15 27.47 29.70 30.53 31.02 31.13 30.72 28.07 25.25 26.32 30.50 29.01 26.75 26.31 26.26 27.37 28.76 28.48 28.63 26.45
44.94 44.39 41.49 43.55 43.69 44.26 43.31 42.09 40.49 37.08 31.15 29.10 25.62 24.10 27.26 26.58 28.89 31.56 32.33 32.15 34.07 32.49 31.61 30.07 24.78 25.72 23.70 22.90 21.19 19.69 19.03 16.87 21.90 22.93 25.77 27.43 29.56 30.28 30.53 30.11 29.44 29.47 28.88 29.32 29.87 29.04 28.82 26.63 25.30 29.07 28.58 27.54 26.69 26.20
44.52 40.36 44.04 43.47 42.58 41.68 41.41 37.13 34.46 29.76 27.36 22.92 22.09 26.07 24.41 23.72 26.92 30.37 32.29 33.24 34.70 32.47 27.55 24.69 22.36 22.66 21.38 18.85 18.70 20.71 18.01 21.73 23.26 24.94 25.65 27.87 29.55 29.89 29.95 29.04 26.94 27.76 28.86 29.26 29.53 29.18 29.06 29.03 26.35 25.54 26.52 30.34 29.91 29.26
40.42 43.30 43.78 43.00 40.82 39.62 36.36 32.93 28.75 27.19 23.35 24.12 22.29 24.61 28.68 28.20 23.49 23.50 30.35 31.97 32.82 29.86 27.57 24.70 23.87 17.10 16.19 15.66 18.18 20.89 22.72 23.55 23.91 25.37 27.87 29.03 30.30 29.94 29.92 29.49 30.27 30.17 30.03 29.74 28.32 27.71 27.51 26.06 27.71 29.38 29.34 30.09 29.33 30.20
42.61 42.82 42.91 41.95 39.37 32.05 29.42 28.98 28.80 21.82 20.33 21.04 22.69 25.46 25.94 27.49 28.32 27.30 28.41 30.18 30.22 29.72 26.58 23.32 17.72 18.98 20.34 21.49 21.94 20.55 19.83 21.96 25.79 27.58 28.00 29.36 29.05 28.79 28.60 29.33 29.23 29.66 29.60 29.12 29.60 29.77 29.56 28.36 28.13 29.11 29.81 30.42 29.86 30.20
41.80 40.91 40.00 40.00 38.62 29.26 25.85 23.18 27.76 23.55 20.94 23.31 22.52 25.09 22.43 24.21 26.80 27.73 29.14 30.73 32.07 31.69 28.91 25.89 23.10 23.82 22.71 23.96 24.73 25.32 25.82 25.44 24.95 25.19 27.13 27.61 29.01 28.74 28.92 29.96 30.42 30.60 30.29 29.44 28.09 24.31 28.05 29.40 30.35 30.84 30.13 30.06 30.45 29.84
39.26 38.97 38.33 36.06 30.35 29.07 25.80 21.71 21.22 22.28 23.49 21.85 21.42 21.39 19.61 26.01 25.98 26.11 27.77 30.48 28.81 27.58 25.63 25.97 24.46 26.99 27.18 27.24 27.74 27.77 27.73 27.51 27.03 27.21 27.49 27.30 29.30 28.67 29.52 30.06 29.96 28.73 27.38 27.75 26.56 27.63 24.67 28.82 30.50 31.17 30.65 30.52 31.53 31.37
37.43 38.79 33.56 31.47 25.99 24.13 22.63 23.64 22.37 21.87 20.14 18.36 17.81 18.91 12.31 12.53 22.00 24.21 28.11 26.51 25.74 25.40 26.46 25.85 27.29 28.02 27.76 27.82 28.94 29.08 29.57 29.37 29.36 28.63 25.88 26.71 26.47 27.03 27.03 28.00 26.51 27.39 26.67 27.33 27.56 27.50 28.69 29.25 30.93 30.94 30.29 30.99 32.28 31.35
36.81 34.06 28.18 24.74 20.85 16.57 19.93 22.89 16.55 19.17 13.84 13.97 14.58 13.71 11.06 9.88 15.18 25.12 22.57 25.19 24.94 26.33 27.61 27.32 28.45 29.66 28.86 29.47 27.84 28.91 28.75 28.48 27.81 27.85 27.05 27.19 27.79 28.13 26.78 27.39 25.94 25.51 25.54 27.47 27.69 27.77 27.87 30.28 30.40 30.65 31.43 32.17 32.02 31.88
34.79 27.75 24.61 16.58 14.41 16.01 21.48 13.85 18.55 18.39 13.83 12.32 10.64 13.66 11.83 12.36 19.01 20.17 18.79 17.37 22.31 23.53 24.98 27.92 27.87 26.94 26.14 25.75 25.93 27.31 28.52 28.42 27.72 27.03 26.78 25.70 26.14 27.48 27.83 27.51 26.87 25.77 26.97 28.87 27.20 27.09 28.52 30.22 27.65 31.10 30.68 28.54 28.65 29.87
21.55 22.54 17.71 17.37 19.22 14.89 10.49 15.59 17.09 20.67 16.47 16.88 14.57 11.31 9.29 11.37 10.13 11.67 16.10 17.28 16.34 17.89 20.63 20.54 21.37 25.29 24.22 23.53 22.89 25.00 24.25 26.88 26.43 25.82 28.16 25.30 26.77 25.03 26.62 26.99 24.82 25.60 26.71 25.76 26.28 25.87 26.13 30.11 30.94 29.72 28.12 27.47 27.36 28.01
14.92 22.09 12.20 10.76 11.46 11.17 9.21 14.56 16.04 16.88 11.47 9.85 14.57 7.35 3.21 5.83 7.50 11.27 15.10 17.92 16.00 17.83 17.34 18.32 20.18 20.53 22.02 24.14 24.60 25.03 27.08 25.70 25.50 24.85 27.88 26.90 25.99 25.82 26.36 25.55 24.80 26.59 27.31 27.05 27.70 28.35 27.84 27.78 28.12 27.83 27.83 28.48 27.99 27.89
15.46 19.24 21.14 21.68 18.61 14.22 6.56 6.42 9.52 5.41 10.22 10.40 6.72 3.51 4.78 6.65 6.32 14.94 19.34 19.79 21.89 22.10 22.72 23.27 24.05 24.32 25.72 27.26 25.67 25.80 24.60 23.66 25.49 27.12 25.55 25.06 25.86 25.80 25.84 26.82 27.18 28.91 29.66 29.20 29.35 27.76 27.10 27.04 27.23 27.88 27.00 27.02 27.35 26.82
12.65 13.89 12.96 15.41 17.08 11.73 5.25 1.14 3.33 7.97 9.66 13.69 9.19 8.31 9.80 10.65 13.86 19.06 21.33 22.10 20.38 22.14 23.16 22.59 22.07 22.95 23.65 24.91 24.70 23.71 24.55 24.34 27.34 26.26 24.17 24.96 25.84 24.94 24.87 25.05 25.95 26.08 27.20 27.77 28.66 28.62 28.09 27.84 26.50 24.89 25.42 26.05 25.85 26.64
18.32 14.26 14.30 18.44 16.38 15.84 9.93 14.59 14.44 16.24 18.65 15.24 12.22 8.69 13.26 18.05 16.41 15.72 17.07 16.73 17.74 21.15 20.96 20.86 22.48 21.99 22.87 23.40 26.54 23.94 24.87 26.54 26.49 25.69 26.29 25.60 24.95 23.14 20.11 20.87 21.42 23.05 25.10 26.44 27.68 28.37 27.52 26.04 24.33 22.97 22.95 22.24 22.18 21.56
17.98 16.26 10.75 7.50 9.09 11.10 15.98 18.47 13.70 10.90 14.50 16.31 16.65 18.37 18.41 13.07 13.57 12.73 13.18 12.43 11.87 12.10 14.04 15.73 17.47 17.87 17.37 16.86 16.50 18.97 19.76 19.72 19.38 20.68 21.92 21.57 18.27 16.74 16.96 16.59 17.43 18.18 19.28 21.10 23.40 24.57 24.38 17.28 16.40 15.70 15.28 17.92 16.26 14.96
10.32 19.41 12.18 12.19 10.12 11.38 10.52 1.47 -0.01 2.21 3.03 8.78 5.49 15.25 17.99 11.22 11.45 8.95 11.93 8.96 6.33 7.53 10.25 9.53 10.02 12.46 13.38 13.50 14.64 15.76 17.71 17.90 17.87 17.46 17.43 16.38 15.31 14.42 13.52 12.73 12.91 12.49 12.98 16.86 21.06 19.69 15.33 11.56 9.21 9.31 9.79 8.97 8.43 8.73
17.83 15.26 11.29 10.58 9.59 5.63 3.51 9.85 4.23 2.75 0.42 2.92 7.20 -1.20 3.35 5.70 0.79 7.80 11.55 10.49 9.44 8.50 9.68 10.22 9.72 11.33 15.49 18.06 16.97 16.61 15.86 14.77 13.63 14.04 14.53 13.67 12.95 11.52 9.93 8.12 6.86 6.41 8.59 8.58 8.85 8.78 6.74 6.15 5.84 5.49 5.63 5.08 4.55 4.68
8.74 11.69 10.94 5.86 7.32 6.91 1.27 1.62 2.07 6.28 0.50 -2.85 -2.94 -2.48 -1.75 0.35 -1.97 5.14 8.53 10.87 10.24 8.59 7.60 8.64 10.97 15.90 14.62 13.32 12.45 12.64 12.54 12.07 11.83 10.60 9.51 9.51 6.98 5.52 5.18 3.23 2.61 3.15 4.80 4.91 4.03 4.31 3.60 3.01 2.61 2.06 1.53 0.48 0.48 0.43

GFSWCAN_sfc_wetblb_012.txt.gz
Wetbulb
49.31 49.23 49.78 49.53 49.36 49.37 49.60 49.75 50.01 50.35 50.65 50.93 51.13 50.95 50.40 50.18 50.55 57.35 56.12 56.33 55.75 49.66 50.07 50.87 50.46 48.84 48.66 50.49 47.84 47.70 47.44 46.56 45.01 36.41 37.13 38.77 36.05 39.92 37.61 39.24 37.15 37.10 36.31 32.93 33.92 30.40 28.94 43.63 43.25 37.85 43.21 45.36 42.82 42.20
48.95 49.13 49.04 48.89 48.86 49.03 49.43 49.61 49.63 49.95 50.11 50.25 50.61 51.01 50.62 50.18 50.38 53.51 56.42 55.68 55.29 54.58 51.90 53.77 54.13 53.54 53.40 53.07 50.90 49.09 48.18 47.54 49.18 43.56 39.44 37.60 34.05 34.05 39.03 35.86 41.65 36.50 40.27 38.35 37.81 38.98 45.74 47.24 46.37 47.28 46.38 44.63 41.27 42.01
47.77 48.11 48.53 48.46 48.46 48.68 49.00 49.14 49.25 49.33 49.69 49.83 50.27 50.94 50.80 50.26 50.35 53.72 56.46 55.77 55.75 50.31 51.79 52.88 51.65 53.16 56.09 54.98 55.72 50.52 49.47 49.75 48.51 49.74 46.11 41.12 34.96 41.75 34.05 37.37 39.70 42.86 44.21 40.18 39.63 43.02 44.96 46.54 48.13 47.41 44.87 42.14 43.03 43.09
47.12 47.16 47.41 47.93 48.42 48.23 48.42 48.64 48.71 48.95 49.00 49.33 49.79 50.24 50.30 50.14 49.99 52.34 56.15 53.98 54.04 48.10 37.13 48.36 50.07 50.91 52.90 55.14 55.25 54.73 51.92 50.34 49.65 50.18 39.31 37.13 36.59 45.31 38.45 43.58 41.79 44.29 44.20 41.57 40.86 43.93 45.12 46.25 45.72 45.41 43.26 42.24 41.37 41.81
46.76 46.82 46.87 47.00 47.43 47.86 48.01 48.21 48.26 48.62 48.73 48.64 48.93 48.71 50.10 49.79 50.42 55.13 56.37 55.08 55.60 54.14 43.73 47.51 49.07 48.96 50.81 52.35 53.55 53.81 52.94 51.06 47.83 42.03 35.32 38.20 46.01 42.69 41.32 40.76 40.14 45.47 43.21 39.12 37.61 44.24 42.79 43.52 42.93 43.98 42.46 40.92 40.71 40.00
46.50 46.55 46.59 46.76 46.80 47.27 47.52 47.68 47.97 48.22 48.48 48.97 48.53 50.12 50.29 49.60 50.18 56.61 53.18 55.80 55.58 56.16 47.88 41.85 48.60 46.56 48.29 51.27 51.42 51.60 52.25 51.26 49.83 45.84 41.31 45.70 47.74 46.08 34.05 35.95 42.98 46.27 47.48 47.53 42.89 44.28 44.25 43.77 43.48 43.36 40.73 40.46 39.10 39.35
46.05 46.28 46.39 46.46 46.68 46.91 47.30 47.32 47.63 48.04 48.57 48.75 48.95 49.47 50.22 48.88 56.42 53.04 50.80 51.60 50.96 55.38 44.02 40.40 42.07 44.82 44.61 46.75 46.75 48.92 49.20 50.05 48.30 46.91 41.80 45.61 46.35 44.05 36.59 34.59 43.26 44.63 41.34 42.79 44.39 44.17 41.29 42.12 40.58 40.68 39.51 40.18 40.94 40.64
45.71 45.71 45.68 46.14 46.46 46.64 46.69 46.91 47.28 48.03 48.35 48.37 48.57 48.62 48.57 48.52 49.47 51.80 53.06 49.74 52.19 49.44 45.83 38.22 37.50 41.47 44.60 41.49 38.85 42.60 42.17 44.98 44.57 43.72 39.41 41.45 40.96 41.29 35.68 41.58 40.20 40.66 40.48 41.16 41.96 43.82 43.00 41.05 40.35 40.02 40.92 40.08 38.15 37.50
45.62 45.20 45.11 45.55 45.92 46.41 46.57 46.80 47.21 47.61 48.12 48.50 48.55 48.62 49.16 47.94 45.27 48.01 47.32 48.98 51.83 50.48 41.45 36.23 35.14 34.78 43.72 39.48 39.25 40.63 42.63 37.13 42.54 35.68 37.08 40.01 36.77 35.53 38.61 36.44 37.67 38.89 40.64 38.91 40.61 40.74 39.58 37.95 37.79 37.91 37.36 37.08 35.98 36.18
45.37 45.29 44.86 45.27 45.28 45.62 46.51 46.82 47.07 47.41 47.95 48.24 48.04 44.26 36.21 41.45 47.38 48.11 46.22 45.75 42.85 42.98 41.06 37.31 43.73 38.70 43.41 37.86 36.95 38.37 37.68 36.77 34.59 36.37 38.63 33.14 34.26 33.78 35.94 38.54 39.59 40.38 40.11 40.08 36.68 34.67 35.09 34.53 34.98 35.24 35.46 36.41 36.13 35.61
45.64 45.40 44.87 45.50 45.50 45.94 46.60 46.58 46.85 47.39 47.12 43.43 38.39 36.23 42.88 46.54 44.43 39.93 34.94 35.64 35.26 33.33 35.95 35.56 36.13 36.16 41.33 37.90 36.59 36.77 33.51 34.59 31.83 34.80 34.65 33.44 33.68 35.47 37.88 37.07 38.66 38.84 38.64 37.01 36.46 36.15 36.00 35.87 35.13 35.17 35.21 35.35 35.10 34.82
45.82 45.56 44.94 45.46 45.57 46.19 46.58 46.51 46.55 45.52 44.28 43.74 42.88 44.13 41.98 39.49 34.88 33.33 32.06 32.24 32.34 33.61 33.99 34.00 34.68 37.03 35.50 40.19 36.41 33.66 33.33 33.51 30.18 35.94 31.11 29.48 35.81 36.87 37.06 36.96 37.37 37.09 36.51 35.54 35.99 35.57 36.23 36.01 36.51 35.50 34.88 34.44 34.50 33.91
44.45 45.32 44.99 45.47 45.35 46.06 46.39 45.96 45.99 45.11 45.36 43.98 38.79 33.13 34.63 32.22 31.88 31.51 30.05 31.69 32.40 35.11 34.63 34.37 33.14 36.03 35.91 36.85 32.96 34.59 31.51 30.97 34.47 28.40 29.26 34.36 36.44 36.84 36.98 36.81 36.76 36.90 35.94 34.42 35.47 36.34 36.80 36.36 35.85 33.68 33.05 33.52 33.06 33.27
43.80 44.96 44.97 45.25 45.15 45.60 45.65 45.46 45.31 43.99 41.85 36.30 32.96 31.15 32.78 30.74 32.71 33.47 34.63 35.32 35.47 36.05 35.32 34.96 32.78 34.85 32.96 31.56 32.95 30.61 30.22 31.79 26.89 25.22 28.27 33.61 34.67 35.11 35.89 36.42 35.51 34.56 34.57 32.55 33.93 34.81 34.49 33.57 33.39 33.16 31.79 32.10 31.19 31.28
43.71 44.99 45.14 44.85 44.37 44.93 44.61 43.64 43.21 43.19 38.73 33.34 34.48 29.77 31.14 31.36 34.05 34.05 34.96 35.32 35.08 36.72 36.23 33.96 33.25 35.57 31.68 29.60 30.99 29.10 26.31 25.09 27.64 28.22 33.15 34.97 34.52 34.95 34.97 35.18 35.52 34.69 33.53 32.37 34.28 34.57 33.39 32.67 32.48 32.62 34.09 34.22 33.60 32.00
44.70 44.63 44.36 43.82 44.25 43.75 43.02 42.77 41.91 39.65 35.15 32.94 31.66 29.98 31.11 32.01 31.51 32.42 33.33 32.96 35.51 34.20 34.44 35.44 31.94 30.76 28.99 30.07 26.89 27.11 25.74 24.81 29.39 33.80 35.52 35.02 33.97 33.95 34.65 35.71 34.88 34.17 33.11 33.00 33.51 33.75 33.36 32.61 32.01 33.11 33.42 32.88 31.99 32.22
44.64 41.43 44.09 43.54 42.11 41.11 40.79 39.67 39.45 32.46 31.78 31.85 29.76 31.57 31.73 32.60 33.87 34.05 35.50 34.59 36.18 34.20 31.68 32.11 28.96 27.63 27.42 26.32 25.51 27.68 26.50 31.01 33.82 33.93 34.69 34.48 33.93 34.19 34.65 33.99 32.90 32.74 32.56 33.61 34.17 34.12 33.84 33.97 33.49 31.72 31.76 33.32 33.64 34.61
41.02 43.53 43.93 42.91 42.52 41.06 38.38 37.95 34.92 33.13 28.96 29.90 29.87 30.85 31.87 32.24 32.24 32.78 34.93 35.83 34.82 32.67 32.00 31.00 29.38 26.21 26.04 24.59 26.81 30.73 31.50 34.00 33.69 33.73 34.25 34.61 34.94 34.89 34.76 34.09 34.27 34.09 33.97 34.06 34.06 33.50 33.09 32.32 32.65 33.81 32.54 32.48 31.58 32.05
42.43 44.10 43.06 42.50 42.72 39.34 35.20 34.06 34.39 29.27 28.14 29.85 29.39 30.50 31.24 31.80 31.50 31.24 32.77 33.31 35.46 35.14 32.57 31.50 28.70 27.28 27.51 28.70 31.49 32.96 33.44 33.53 33.93 34.11 34.20 34.84 34.60 33.71 33.24 33.42 32.79 33.17 33.89 33.95 34.22 34.97 35.41 34.51 34.15 33.97 34.01 33.30 31.01 32.29
43.13 41.09 40.18 39.54 41.21 36.93 32.26 31.93 34.69 30.92 29.15 29.63 30.26 30.38 30.44 29.92 30.40 31.32 32.60 34.24 34.76 34.66 32.20 30.09 30.12 31.42 31.83 33.27 33.53 34.61 34.85 35.00 33.46 32.03 32.39 33.99 34.45 33.80 33.36 33.90 34.41 35.21 34.85 34.63 34.90 32.34 33.75 34.96 36.13 35.52 34.79 33.64 32.50 31.54
37.64 39.08 38.21 38.53 35.04 33.95 31.86 30.91 30.52 31.02 30.50 30.02 29.54 31.57 28.47 29.91 29.17 29.56 30.53 32.53 31.76 31.61 30.24 32.82 34.10 35.33 34.48 34.00 34.33 34.59 33.79 33.79 32.90 33.04 32.61 32.36 35.14 34.81 34.30 34.89 34.96 34.59 33.78 34.33 34.65 34.84 32.72 34.23 35.36 34.94 34.22 32.59 32.81 33.51
36.62 39.12 35.21 34.69 31.41 30.68 29.92 30.83 31.00 30.38 30.83 29.50 29.95 30.37 29.55 28.25 27.14 27.70 30.44 28.78 28.71 31.42 33.44 33.96 34.34 34.76 34.18 32.69 34.06 34.25 34.52 34.38 34.25 33.86 31.95 32.49 32.43 33.52 34.04 34.48 34.00 34.20 34.57 35.21 35.23 34.96 35.08 35.48 35.10 34.33 32.96 32.28 32.10 33.22
37.58 35.89 32.51 32.01 28.00 28.39 26.19 31.14 27.91 27.16 26.15 26.70 27.96 26.76 26.79 27.86 26.88 28.19 25.41 27.38 29.73 33.18 34.22 34.20 34.41 34.38 33.82 34.62 33.63 33.56 33.72 32.95 33.24 34.03 34.05 34.37 34.72 35.16 34.48 34.74 34.90 33.42 33.49 35.11 35.84 35.13 34.73 33.05 33.27 32.92 33.51 32.75 32.12 30.76
35.87 30.93 27.34 25.81 27.05 23.48 28.13 25.38 27.98 26.16 26.78 24.96 24.64 21.01 22.26 25.76 24.64 23.71 22.77 26.04 30.10 32.38 31.32 32.08 33.45 33.01 33.22 31.06 31.69 33.31 34.04 34.26 34.41 34.72 35.38 33.92 33.46 34.48 35.71 35.21 35.62 35.38 34.42 34.10 34.44 34.59 33.90 32.60 32.13 32.54 32.06 31.47 30.59 30.60
28.65 25.22 26.31 21.74 25.45 22.49 21.76 22.48 22.48 24.28 21.15 21.69 19.54 21.63 22.76 23.06 23.15 21.96 22.06 27.57 30.93 31.57 32.83 32.04 31.01 31.87 31.89 33.13 33.68 34.04 32.36 33.56 33.75 33.59 36.11 35.47 35.01 34.45 34.40 35.33 35.83 35.07 34.93 31.69 31.33 32.06 32.24 32.06 32.06 31.51 31.01 30.43 29.37 29.97
20.82 23.74 22.29 22.02 22.18 21.99 21.98 19.26 20.12 20.81 21.53 18.96 20.44 21.91 21.84 23.92 20.92 21.70 25.31 30.26 31.59 32.10 33.19 33.91 33.67 32.20 31.88 32.40 31.93 33.00 34.65 34.14 33.46 32.22 34.09 35.13 33.58 32.74 31.88 31.18 31.68 33.00 34.43 33.67 31.33 30.70 30.07 29.78 29.25 28.91 28.75 28.95 28.03 27.65
19.83 21.39 25.72 26.04 24.89 22.07 20.37 19.96 20.80 21.30 18.34 18.53 22.82 19.75 21.85 19.06 20.36 25.81 29.55 27.94 29.11 28.45 29.29 30.18 29.47 29.37 29.37 30.00 31.25 32.36 32.67 32.53 31.39 31.81 33.64 32.27 32.21 32.61 31.09 29.59 29.31 31.19 32.13 32.04 31.33 30.79 29.36 28.84 28.65 28.82 28.43 28.15 27.83 27.31
23.92 24.91 20.56 23.40 22.98 24.09 20.81 20.83 20.79 19.89 23.18 23.89 23.09 19.61 20.47 21.70 23.65 26.19 24.79 23.75 23.86 26.09 27.53 28.11 28.12 26.74 26.29 28.04 28.22 29.13 28.78 29.29 29.52 30.89 30.81 30.79 30.92 30.55 29.01 29.77 29.24 27.13 30.08 30.79 30.61 30.66 30.01 29.61 27.73 27.18 27.08 27.28 26.72 27.13
25.17 24.75 24.94 19.98 20.12 21.75 22.68 23.63 24.26 26.28 27.13 25.14 24.53 24.23 24.66 24.64 19.47 19.35 19.66 19.80 22.10 22.38 21.16 20.28 21.54 22.33 24.27 24.57 25.84 25.82 25.20 24.18 22.61 22.69 23.71 25.23 29.61 25.02 24.62 25.17 26.10 26.49 27.12 27.55 27.17 27.93 27.75 26.26 25.41 25.10 24.95 25.26 25.26 24.80
23.63 26.33 23.56 20.38 19.47 21.75 27.60 28.00 28.66 27.91 26.97 28.45 28.01 26.96 24.18 17.93 16.54 18.81 18.16 17.83 16.74 16.24 17.00 17.60 17.94 18.07 17.31 17.80 18.85 21.24 22.40 21.55 20.25 18.62 18.36 18.72 18.78 20.38 20.92 20.75 21.12 21.94 22.57 24.21 25.34 25.85 24.79 23.78 22.96 23.22 21.34 20.65 19.76 19.37
24.05 24.76 23.37 23.17 23.10 27.67 26.59 21.46 22.59 22.37 24.35 27.07 26.89 27.52 26.63 15.69 15.21 15.87 14.83 15.95 15.85 15.85 14.94 14.56 15.64 17.49 16.86 16.53 16.10 16.25 16.39 18.19 16.31 16.44 16.82 18.30 18.15 17.49 16.94 16.56 17.51 18.13 19.81 21.13 21.72 21.88 20.19 20.14 19.24 17.94 16.09 14.21 13.10 13.48
23.50 22.85 22.79 20.09 23.85 23.29 21.46 22.38 22.85 22.40 24.89 23.58 24.58 20.30 17.59 17.47 11.55 12.60 13.01 14.24 13.32 11.55 10.74 11.97 12.11 13.63 16.25 16.71 16.30 16.42 14.08 14.48 13.75 13.03 12.16 12.91 13.16 13.35 13.64 13.76 14.06 15.58 16.71 17.35 17.51 16.98 15.59 14.90 14.47 13.73 13.19 10.69 9.48 8.91
18.26 18.61 18.34 18.59 19.93 21.79 20.14 18.59 19.14 18.36 19.65 19.26 17.73 16.78 13.73 13.25 6.78 10.44 14.11 14.16 12.55 11.35 10.73 11.60 13.14 14.01 16.23 14.92 13.90 14.58 13.68 14.22 12.89 11.96 10.07 9.50 8.14 7.85 9.08 10.65 11.14 12.85 13.39 14.29 14.10 13.48 11.94 10.82 9.97 8.90 7.37 6.30 5.43 4.69

GFSWCAN_sfc_wetblb_015.txt.gz
Wetbulb
49.39 49.92 49.93 49.60 49.54 49.73 49.91 50.25 50.58 50.90 51.35 51.64 51.67 51.23 50.43 50.42 51.04 57.90 59.05 59.96 58.74 53.61 52.85 53.72 53.73 52.42 52.71 52.84 49.39 51.40 49.58 49.91 49.40 39.07 39.45 42.11 37.93 42.13 40.41 42.13 39.10 37.09 36.16 33.43 36.25 32.58 29.98 46.30 44.96 39.07 44.52 48.06 46.74 43.95
48.83 48.73 49.21 49.01 48.99 49.13 49.52 49.63 50.07 50.27 50.65 50.83 51.81 51.46 50.80 50.47 50.64 53.01 58.99 59.49 60.02 57.17 54.64 57.28 56.40 56.73 56.00 55.64 54.21 52.92 50.52 50.45 50.89 47.11 43.48 44.23 38.71 36.90 40.13 37.49 45.14 38.38 42.30 40.32 40.45 40.12 47.33 47.93 46.42 48.38 48.97 46.97 44.68 41.86
47.68 48.09 48.36 48.69 48.69 48.80 48.97 49.17 49.46 49.85 50.36 50.46 50.97 51.86 50.82 50.37 50.65 53.34 60.07 59.84 60.02 55.83 54.77 54.68 53.25 55.99 58.37 57.77 58.96 52.07 53.66 53.06 52.38 55.03 49.14 42.88 36.18 44.15 35.08 40.33 44.25 45.14 47.80 42.56 42.30 44.51 45.27 46.39 48.11 48.13 47.99 46.07 44.55 43.21
47.04 47.15 47.71 48.22 48.55 48.49 48.49 48.51 48.63 49.21 49.77 50.22 50.40 51.43 51.16 50.27 50.79 52.82 59.16 58.80 58.34 53.09 39.81 51.76 53.89 54.15 55.73 57.86 57.49 57.54 55.47 54.99 54.90 53.20 41.74 37.63 39.63 48.47 42.01 45.21 43.94 45.95 46.51 43.85 43.23 46.04 45.82 47.69 46.82 46.19 46.25 45.28 42.90 45.28
46.71 46.71 46.81 47.17 47.75 48.36 48.17 48.09 47.98 48.56 49.01 49.45 49.43 48.78 51.13 50.65 51.53 58.02 59.43 58.71 58.62 55.98 46.47 50.84 52.60 52.44 53.83 55.08 55.71 55.67 55.04 53.22 51.95 44.87 38.36 40.68 48.84 47.96 46.10 44.18 42.68 46.14 44.66 42.81 40.30 45.89 44.46 44.66 45.66 46.55 44.88 44.13 43.55 42.56
46.35 46.42 46.38 46.71 46.85 47.31 47.80 47.48 47.89 47.93 48.33 48.25 48.60 50.28 50.67 50.49 51.27 58.98 54.89 59.15 58.39 58.52 51.11 42.66 52.31 50.16 52.00 53.85 54.18 53.86 54.45 53.99 53.21 48.63 41.76 48.96 51.11 47.76 36.89 38.18 44.69 47.70 48.60 48.84 46.00 47.97 45.80 44.49 45.18 46.41 44.31 43.31 42.48 42.02
46.01 46.13 46.26 46.35 46.33 46.85 47.31 47.33 47.48 47.82 48.18 48.24 48.76 49.81 50.68 49.91 57.60 54.44 52.36 54.00 51.96 59.42 49.58 43.44 46.83 48.35 48.85 51.32 51.86 52.57 52.57 50.91 50.18 48.15 46.76 46.56 47.75 47.35 39.45 37.98 44.43 47.14 47.25 45.72 46.69 45.71 41.12 43.54 42.54 44.02 42.72 42.66 42.81 42.31
45.80 45.75 45.66 46.08 46.28 46.49 46.70 47.17 47.31 47.77 48.13 48.56 48.76 48.64 48.74 48.49 49.85 53.75 55.77 51.84 53.90 55.11 52.56 41.44 41.17 43.70 48.23 45.39 44.32 48.90 45.75 47.87 47.90 47.75 43.72 43.55 46.68 45.22 37.44 43.40 46.14 45.87 44.51 43.38 43.12 44.32 44.70 44.81 43.77 42.56 42.58 41.34 38.98 38.63
45.73 45.55 45.07 45.40 45.60 45.87 46.49 46.83 47.13 47.53 48.11 48.36 48.13 48.45 50.76 51.15 49.81 54.31 47.90 50.78 56.55 53.56 46.19 38.18 36.55 36.00 47.24 41.95 42.43 43.08 44.60 39.99 45.61 37.82 40.20 43.43 40.14 37.98 42.19 44.16 43.86 44.00 43.35 42.74 43.43 43.61 42.87 40.62 39.65 39.14 38.81 38.54 37.39 37.21
45.21 45.36 45.07 45.40 45.46 45.70 46.53 46.45 47.03 47.33 47.75 47.89 48.69 46.12 38.18 42.86 47.71 48.76 51.42 49.10 47.39 46.81 47.08 38.00 45.65 39.71 45.15 39.97 37.63 39.04 39.66 39.20 35.08 37.89 39.23 33.28 34.64 41.39 41.49 42.90 43.76 43.93 44.13 43.10 40.15 38.18 37.47 35.96 36.75 37.33 37.35 37.89 37.46 36.62
45.52 45.41 45.02 45.65 45.69 46.54 46.79 46.49 47.04 47.33 47.42 44.11 39.05 36.55 43.55 46.81 45.65 40.45 36.71 39.81 40.45 35.46 39.40 42.29 42.76 40.39 45.09 38.73 36.70 39.81 35.64 35.82 33.28 35.89 36.36 35.13 35.08 40.10 41.78 41.85 42.93 43.06 42.82 41.03 39.78 38.32 38.08 37.50 37.12 36.93 36.96 36.95 36.50 35.96
45.63 45.66 45.13 45.48 45.65 46.67 46.67 46.18 46.55 46.60 45.02 43.84 43.29 44.34 42.77 39.60 35.38 36.17 34.19 33.10 33.63 35.08 35.73 34.49 36.73 41.96 39.02 42.95 36.18 33.93 33.65 34.73 32.56 39.05 33.19 30.94 38.50 41.37 41.25 40.53 40.77 40.43 39.37 38.01 37.91 37.40 37.84 37.61 38.24 37.29 36.54 35.87 36.01 35.42
44.92 45.58 45.22 45.43 45.34 46.43 46.33 45.47 45.61 45.70 46.13 43.33 36.65 33.60 33.89 32.18 31.29 32.01 30.01 32.56 32.56 33.83 34.22 34.32 32.71 34.72 35.55 37.20 33.63 34.73 32.38 33.46 37.69 30.76 30.41 36.69 40.38 40.40 40.56 40.40 39.52 39.47 38.17 35.98 36.63 37.54 38.09 37.80 37.45 35.82 35.20 35.62 35.07 34.92
44.17 45.35 45.11 45.36 45.48 45.59 45.93 45.30 44.28 44.46 43.72 35.63 32.74 31.29 32.20 31.47 32.92 33.99 35.28 35.28 35.64 36.00 35.28 34.37 33.10 33.81 34.01 34.19 34.55 32.01 32.67 34.43 28.73 26.75 30.81 38.83 39.16 40.15 40.87 40.32 38.99 37.58 34.67 34.55 35.29 36.08 35.66 36.24 35.73 35.93 34.19 34.11 33.07 33.27
43.29 45.21 45.20 45.05 45.11 44.63 44.31 43.61 43.03 45.54 41.15 34.94 34.79 30.55 31.64 33.27 34.01 33.65 34.37 35.82 36.42 38.14 37.80 36.89 37.06 38.04 34.01 32.20 34.07 31.49 28.49 27.46 29.49 31.37 36.30 38.92 39.51 39.35 38.05 37.55 36.98 35.97 34.90 34.79 36.20 36.31 35.07 35.10 35.12 34.63 36.12 36.34 35.97 34.19
44.13 44.80 45.56 44.61 44.22 43.84 43.56 43.37 42.63 41.44 39.36 35.70 33.64 31.83 33.46 33.46 32.38 32.74 33.46 33.28 37.36 37.42 38.03 37.93 34.01 32.74 31.47 32.88 29.39 29.45 29.06 27.39 32.27 36.32 39.21 37.86 36.39 36.68 36.76 37.08 36.97 36.84 35.50 35.39 35.52 35.42 35.80 35.21 33.96 35.05 35.91 34.67 33.65 33.10
44.26 44.52 44.69 44.01 42.39 41.36 42.55 40.93 39.97 35.45 35.69 34.17 32.15 34.92 34.37 34.73 33.65 33.10 36.00 35.76 38.72 35.82 33.10 34.66 30.55 30.27 30.92 29.85 28.69 32.30 30.58 34.28 37.13 37.76 37.93 37.33 35.53 35.84 36.28 36.19 35.22 35.30 35.03 35.34 35.46 35.84 36.06 36.40 36.13 34.61 33.27 35.87 35.70 34.98
43.98 45.72 44.01 43.19 44.44 42.22 40.39 41.38 38.94 36.83 31.83 34.17 33.95 33.09 34.25 34.76 34.37 34.37 36.35 37.13 36.09 34.19 33.67 32.28 32.77 28.93 28.47 27.29 29.66 34.73 35.69 37.30 38.10 36.97 36.15 36.24 36.89 37.29 37.38 36.78 36.95 36.54 35.84 35.68 36.09 35.82 35.45 35.20 34.47 35.61 36.16 36.52 35.92 35.87
44.24 44.05 43.44 43.29 43.72 40.38 36.30 37.27 38.94 32.82 32.71 34.30 32.84 33.77 33.62 33.22 33.43 34.12 35.06 34.83 36.07 36.18 35.33 33.41 31.50 29.79 30.17 32.23 33.98 36.43 37.46 37.05 35.55 35.86 36.65 37.31 37.07 36.23 35.82 36.03 35.56 35.23 35.03 35.14 35.62 36.07 36.69 36.77 37.07 37.09 37.02 36.80 35.87 35.34
42.64 42.46 40.98 40.65 42.64 38.86 34.52 34.78 38.11 34.44 33.03 33.41 33.77 34.01 32.98 32.44 32.64 32.68 34.19 35.03 35.64 35.39 32.88 31.69 31.91 34.01 35.29 36.57 37.11 37.17 37.41 37.87 36.57 35.03 35.17 36.47 37.57 36.49 35.94 36.01 35.90 36.23 36.18 36.47 36.73 34.04 36.68 36.97 37.55 37.75 37.92 36.80 34.81 33.78
38.27 39.17 39.28 40.72 39.13 38.20 35.92 35.45 33.88 34.96 33.85 33.56 33.49 35.31 30.62 31.63 31.44 31.47 32.10 35.06 33.27 33.27 31.80 34.83 37.60 37.89 38.46 38.06 37.89 38.09 37.26 36.97 35.30 35.09 34.47 34.20 36.58 36.74 36.13 36.80 37.06 36.89 36.29 36.46 37.23 36.73 35.97 37.84 37.71 38.43 35.79 34.55 33.83 34.92
36.71 38.59 34.32 37.21 34.92 34.39 33.79 35.59 34.96 35.28 34.86 32.91 32.86 34.87 30.37 29.16 29.31 29.80 31.77 30.69 30.36 34.23 36.27 36.49 37.04 37.27 36.74 36.11 36.70 37.27 37.09 36.57 36.57 35.91 33.29 33.97 34.38 35.52 36.08 36.94 36.75 37.19 36.96 37.78 37.24 37.47 37.91 38.15 39.15 38.70 35.46 32.56 33.99 34.92
36.97 35.89 33.45 33.65 30.93 31.61 28.49 35.87 31.27 30.57 29.14 29.28 31.95 29.30 29.36 29.38 29.98 31.28 28.13 31.06 33.36 36.66 37.58 37.26 37.13 37.10 36.43 36.91 36.32 36.35 36.56 35.83 35.35 35.97 36.10 36.58 37.13 37.73 37.38 37.34 38.51 36.93 36.43 36.52 37.90 38.44 38.08 36.16 36.36 33.59 33.46 33.65 33.43 32.92
36.82 31.97 29.86 28.94 30.37 26.13 31.06 28.66 31.37 29.66 30.05 28.69 28.05 25.37 26.31 29.58 28.78 27.68 26.52 31.04 34.17 36.44 35.05 34.56 35.96 35.30 35.66 34.39 34.66 35.19 36.20 37.05 36.37 36.71 37.60 36.49 35.61 35.94 37.28 37.08 37.84 39.09 37.90 37.72 37.28 35.92 35.97 33.46 32.79 33.24 32.92 32.20 32.01 31.46
30.35 26.95 29.51 24.71 28.83 26.32 25.51 25.80 26.12 27.47 24.62 25.81 24.80 25.32 26.56 28.34 26.20 25.44 25.56 31.30 34.37 34.50 34.31 35.35 34.93 34.97 33.83 34.49 35.01 35.51 36.95 36.29 35.18 34.82 37.37 37.73 37.20 36.83 36.57 36.53 37.01 37.65 39.07 35.10 32.66 32.38 32.20 32.74 32.38 31.82 31.47 31.47 30.25 29.95
23.96 26.30 26.51 26.26 25.97 25.88 25.98 23.19 24.16 24.84 25.58 24.17 25.13 27.01 27.56 27.16 23.67 23.81 28.14 32.21 32.95 31.69 31.17 31.64 32.49 32.90 33.23 34.12 32.87 33.16 34.00 35.58 34.33 32.37 34.53 36.65 36.12 35.18 33.94 31.96 31.50 33.63 38.09 36.31 33.46 31.64 31.74 31.99 30.99 29.92 30.29 30.31 29.88 29.41
23.30 24.20 27.72 29.75 29.19 27.40 25.56 26.34 27.75 26.47 23.33 22.99 26.05 24.71 25.08 21.16 22.38 28.04 30.72 28.48 29.91 28.83 30.32 30.97 30.14 29.99 29.48 29.70 30.85 30.26 30.04 29.43 29.09 29.08 30.40 31.73 32.59 32.62 31.50 30.69 30.77 32.25 32.33 32.68 32.01 31.47 30.73 30.43 29.49 29.77 29.60 30.00 30.33 30.04
27.61 28.16 23.40 26.44 27.56 29.53 24.75 25.52 24.66 23.98 26.31 28.90 28.30 23.19 22.06 23.65 25.58 26.75 25.51 25.64 26.44 27.66 28.75 28.67 28.19 26.61 26.63 26.73 26.57 26.66 26.16 25.89 26.52 29.01 30.18 31.86 33.23 28.12 27.43 28.45 29.72 28.08 29.80 30.91 30.37 30.56 30.38 30.17 29.23 28.23 28.03 27.74 27.55 28.33
27.35 28.84 28.06 22.10 24.28 26.29 26.79 26.44 27.54 29.79 31.85 29.92 27.54 26.75 28.30 25.25 23.06 23.10 22.65 23.55 25.48 25.16 23.73 22.81 23.77 24.72 25.42 25.47 26.01 25.65 23.87 22.14 19.68 17.85 18.33 20.69 21.77 22.93 23.67 23.94 24.43 25.41 25.52 26.27 27.79 28.56 27.76 26.31 25.72 25.28 24.85 25.39 25.35 24.93
25.52 29.58 26.55 23.52 22.40 24.07 30.45 32.29 31.68 31.83 32.44 32.97 32.54 29.47 25.49 21.16 19.55 21.44 21.31 21.45 20.14 19.65 20.47 21.11 21.24 21.10 20.06 19.62 19.99 21.58 22.70 20.88 18.64 16.67 15.32 15.51 17.50 20.59 21.00 20.18 19.96 20.57 21.73 23.21 23.93 25.60 26.86 26.04 25.45 25.24 23.33 22.47 21.29 20.89
28.08 27.86 25.78 26.55 26.07 30.50 29.86 28.75 29.30 29.32 29.77 30.78 32.46 29.87 24.58 19.08 18.14 17.97 17.98 19.20 19.27 18.91 18.37 17.75 18.28 18.97 17.62 17.10 16.78 16.10 16.13 19.53 17.60 16.68 16.01 15.96 17.01 17.60 17.29 16.98 18.25 18.38 19.16 20.46 21.35 22.10 21.10 22.07 21.92 20.55 18.84 17.00 15.92 15.80
26.51 24.86 24.94 22.82 26.30 28.38 28.93 28.03 28.78 28.11 29.52 28.25 28.29 25.34 21.74 20.96 16.47 15.66 16.43 17.79 17.32 15.53 14.38 15.26 14.60 15.00 16.93 18.36 17.98 18.34 15.93 17.07 16.70 15.49 14.72 12.96 13.72 14.01 13.52 14.14 15.38 15.60 16.59 17.18 19.17 19.15 18.19 18.24 17.41 16.61 16.39 13.67 12.01 11.47
23.69 23.95 23.86 23.36 24.13 24.46 26.68 24.97 24.91 23.47 24.71 24.20 22.84 21.66 18.78 18.70 12.17 14.70 17.63 17.37 15.48 13.85 13.55 14.20 15.49 16.15 16.99 16.66 17.25 16.74 16.05 16.35 15.94 15.24 14.20 12.04 10.94 11.18 10.98 12.22 10.85 10.26 12.77 15.36 16.40 16.17 14.97 13.94 13.21 12.10 10.58 9.23 7.83 6.38

GFSWCAN_sfc_wetblb_021.txt.gz
Wetbulb
50.26 50.05 49.71 49.67 49.56 49.81 50.46 50.97 51.28 51.58 51.95 52.03 51.13 50.64 50.49 50.39 50.74 55.46 54.33 56.60 54.73 46.98 48.78 52.76 52.66 49.11 49.16 47.53 39.44 45.22 41.47 41.08 36.19 35.02 32.55 31.96 28.70 31.80 32.46 37.15 32.43 28.50 27.12 24.21 29.00 26.98 22.83 43.62 42.48 33.85 37.57 42.96 43.46 41.75
49.71 49.42 49.22 49.03 49.29 49.65 50.03 50.25 50.63 51.03 51.42 53.03 51.50 50.87 50.55 50.43 51.14 52.20 53.43 56.51 57.68 52.37 50.35 53.17 52.74 53.52 52.71 52.47 48.90 47.01 43.05 46.09 44.16 37.57 33.83 34.96 32.76 34.90 32.79 27.39 40.18 31.71 34.71 31.38 32.38 30.74 39.98 43.55 42.02 43.65 44.60 43.36 41.23 40.71
49.32 49.14 48.92 48.90 48.99 49.31 49.62 49.66 49.87 50.63 50.89 51.62 52.18 51.39 50.99 50.50 51.05 52.42 54.92 55.50 55.91 47.60 48.85 49.72 49.09 52.83 54.79 54.26 55.00 45.71 45.65 50.11 48.03 48.58 39.74 39.28 30.52 36.00 28.03 31.45 32.41 39.97 43.45 34.31 36.10 41.03 42.39 42.97 44.67 44.83 43.92 42.29 43.06 44.01
47.94 48.53 48.42 48.55 48.67 49.03 48.81 48.89 49.28 50.01 50.59 50.80 51.44 49.96 50.66 50.81 50.77 52.25 54.23 55.32 52.99 47.23 36.25 45.54 52.99 51.08 54.08 54.60 54.69 53.93 52.06 52.04 50.30 44.26 37.77 35.87 31.41 42.19 32.97 35.83 33.46 38.73 42.19 39.57 35.86 40.93 42.19 43.99 44.67 44.25 43.38 43.80 44.16 45.11
46.71 46.80 47.47 48.21 48.46 48.93 48.35 48.19 48.57 49.22 49.82 48.41 47.96 48.21 50.41 50.55 50.57 55.32 55.32 54.73 54.57 50.46 38.41 39.58 50.39 51.41 52.97 52.90 52.51 53.11 51.68 49.52 44.24 37.65 34.78 34.15 34.88 37.33 33.05 34.37 33.45 42.88 39.45 34.56 31.97 41.94 41.44 41.98 43.37 45.05 44.02 43.52 43.27 42.22
46.33 46.41 46.64 46.78 47.45 48.41 48.81 47.90 47.90 48.43 47.16 47.51 48.46 49.53 50.59 49.93 50.10 55.02 50.32 54.03 52.18 54.76 43.58 36.58 47.86 47.78 50.03 51.15 51.21 50.50 50.10 48.93 47.32 40.63 35.13 40.68 47.38 39.37 33.44 32.19 41.06 44.75 45.62 44.48 41.60 45.02 44.03 43.62 43.73 44.60 43.55 43.62 42.36 39.67
45.89 46.16 46.32 46.46 46.66 46.93 47.97 48.05 47.78 47.42 46.66 47.74 48.97 49.84 50.39 48.96 51.95 48.97 47.12 49.62 49.17 52.27 40.22 36.73 38.86 44.64 46.44 48.83 46.70 48.30 48.55 46.12 46.00 41.63 37.50 35.56 38.79 42.82 33.88 32.13 41.49 44.34 44.87 44.60 45.43 43.87 41.11 42.06 40.63 44.34 43.51 41.46 41.10 38.02
45.62 45.77 45.78 46.05 46.43 46.39 46.39 47.32 47.88 48.08 47.49 47.47 49.20 49.48 49.01 47.29 48.71 50.00 50.45 50.20 50.01 49.62 43.96 37.10 36.91 36.48 46.32 36.76 37.65 43.89 37.70 42.56 44.78 40.82 38.67 36.00 38.20 35.37 33.80 40.80 43.57 44.95 44.84 43.69 43.53 43.59 42.49 42.56 43.27 41.24 40.65 37.15 35.30 34.03
45.34 45.50 45.46 45.92 46.07 46.34 46.35 46.61 47.38 48.23 48.50 48.47 48.63 49.64 50.91 49.83 45.63 48.83 48.32 48.73 53.15 48.61 37.96 34.06 32.53 31.44 43.25 39.48 37.80 37.46 41.63 34.04 40.41 34.96 36.05 38.99 34.52 34.58 38.94 41.02 42.18 42.86 41.87 41.82 43.25 43.35 43.43 42.66 42.40 37.13 35.78 34.76 33.21 32.27
45.07 45.30 45.25 45.73 45.85 46.05 46.21 46.52 47.20 47.88 48.16 48.46 49.38 46.60 39.63 42.36 47.13 48.47 49.21 42.55 40.22 39.69 40.40 35.33 37.97 35.78 40.60 35.51 34.42 35.13 34.22 34.06 33.14 34.39 38.25 33.14 34.43 39.05 41.30 42.52 43.03 42.79 44.15 43.93 40.39 39.98 38.79 34.50 34.47 34.19 33.97 33.97 33.24 32.21
45.42 45.47 45.39 45.75 45.41 45.82 46.71 46.86 47.40 47.65 47.68 44.73 39.45 35.87 42.52 46.73 46.07 40.38 37.14 36.91 37.88 34.57 38.74 37.88 36.51 36.19 39.79 33.99 33.66 34.72 32.96 33.14 31.17 30.35 32.97 32.04 31.84 36.26 40.58 41.15 42.27 42.97 43.33 41.83 39.16 38.28 37.13 35.71 34.36 33.84 33.04 31.50 30.57 29.97
45.69 45.54 45.61 45.87 45.41 45.70 46.16 46.52 46.52 45.04 43.23 43.13 42.50 43.92 42.11 38.91 35.37 35.89 34.22 34.03 34.06 33.98 34.72 34.39 35.66 39.25 36.38 41.86 34.48 34.04 33.27 32.76 29.64 35.66 32.40 29.46 32.11 38.80 39.86 40.31 40.96 38.24 37.89 37.63 37.98 36.92 36.58 36.25 35.42 32.58 31.44 30.84 30.76 30.00
45.19 45.36 45.55 45.95 45.16 44.98 45.35 45.39 45.11 44.59 44.56 41.87 37.80 34.58 36.39 32.22 31.28 31.27 29.93 30.90 31.82 32.40 33.83 33.47 32.96 33.68 35.16 36.60 32.77 32.73 31.64 30.58 33.56 30.92 26.83 29.00 37.85 39.18 39.54 36.93 34.32 34.59 32.96 33.29 34.83 35.63 35.33 34.51 33.44 30.63 29.30 30.56 26.64 29.76
45.22 45.11 45.14 45.30 45.62 44.60 44.55 44.55 44.77 45.10 41.33 34.79 33.12 30.30 31.48 30.15 30.72 30.35 31.25 32.05 32.76 32.59 32.77 32.96 32.20 32.56 32.41 32.40 31.84 30.68 31.08 31.42 28.69 24.31 21.46 32.93 37.22 38.43 37.84 35.62 33.40 31.38 29.08 30.18 30.58 30.94 29.99 29.94 29.55 27.57 28.17 26.56 23.76 27.81
44.75 45.32 45.17 44.33 44.40 44.45 44.22 43.93 44.34 43.47 37.65 33.11 33.23 29.20 29.79 31.11 32.02 32.02 32.20 32.40 32.88 34.54 33.50 32.58 32.40 33.45 31.48 30.53 31.11 29.61 27.55 26.42 27.95 27.59 30.75 33.90 35.13 34.77 33.60 33.14 30.78 29.76 26.96 29.20 31.18 30.05 26.45 26.84 27.93 29.87 29.87 29.91 30.09 26.73
43.96 44.70 43.51 44.10 44.23 44.25 44.25 43.51 41.83 40.68 33.41 33.83 32.34 30.50 32.20 32.23 31.85 32.08 32.06 31.90 35.07 33.32 33.68 33.29 31.29 31.28 29.23 29.82 28.12 28.10 27.35 25.89 29.64 31.67 32.84 32.46 32.46 32.73 32.84 32.97 31.82 31.68 30.75 30.76 30.88 31.05 30.18 26.46 25.25 30.06 30.08 29.10 26.51 27.77
43.51 42.27 43.75 42.84 42.93 43.21 43.93 41.00 38.29 33.25 30.03 32.11 30.48 33.50 32.71 32.36 31.21 31.81 32.97 33.14 36.52 33.30 31.63 31.85 28.45 26.43 29.48 27.39 26.98 30.39 28.51 30.19 32.00 31.85 32.13 32.51 32.24 32.16 31.44 31.48 29.81 31.13 31.55 31.45 31.35 31.15 30.89 30.66 27.51 27.78 28.45 31.36 30.62 30.62
42.33 43.34 43.40 43.51 44.28 42.60 40.02 39.92 32.10 31.09 28.56 32.04 31.40 31.39 32.05 32.59 32.46 32.79 33.14 34.04 33.86 31.81 30.68 29.35 30.87 27.53 26.39 24.88 26.48 31.13 30.32 31.01 31.15 31.04 31.05 32.26 32.93 32.68 34.03 32.09 34.04 31.79 31.31 31.23 29.52 30.64 30.62 27.18 29.30 30.22 30.97 31.85 30.81 29.72
42.40 42.98 43.66 43.59 42.70 38.73 34.11 33.36 35.20 28.83 31.07 29.18 30.85 31.44 31.47 31.60 32.50 32.71 32.77 33.30 33.66 33.45 31.89 29.18 27.27 26.45 26.26 28.50 29.74 30.60 30.95 30.14 29.97 30.57 31.41 32.25 32.41 32.21 32.28 32.47 31.74 31.15 30.90 30.78 30.94 29.64 29.88 31.41 30.63 30.44 30.32 29.77 29.54 29.76
41.48 41.47 41.88 41.80 41.61 34.86 31.66 29.91 34.81 29.84 30.11 29.72 31.32 30.96 29.98 29.68 30.86 31.85 32.59 32.59 32.65 31.07 26.56 25.50 25.68 27.71 28.32 30.01 30.74 30.86 31.14 31.45 30.08 28.79 29.60 31.08 31.55 31.81 31.68 30.86 29.95 31.17 30.49 31.27 30.41 27.01 28.11 29.16 29.59 29.95 29.30 26.78 23.41 26.06
40.21 39.59 40.13 40.33 36.48 36.92 30.89 31.54 31.91 29.08 29.93 30.90 31.31 30.50 28.18 30.43 29.88 30.17 30.94 32.20 30.75 24.68 25.33 27.71 27.24 30.45 32.78 30.98 30.73 30.34 31.23 31.71 29.95 28.41 27.84 27.88 29.65 29.35 29.49 30.21 30.70 29.07 27.88 27.11 24.98 27.87 25.78 28.43 31.64 30.08 30.45 31.63 32.96 32.50
37.08 38.94 34.15 35.87 32.53 32.43 28.72 30.50 30.83 29.22 30.42 30.32 30.15 30.93 27.26 26.60 27.19 28.13 30.30 25.87 24.95 26.56 29.64 28.27 29.98 29.52 30.62 31.74 31.83 32.19 32.06 31.52 31.49 29.34 27.91 27.21 27.19 27.42 27.63 27.95 26.56 25.03 25.90 26.80 29.38 30.24 29.45 30.49 30.01 28.33 31.05 32.31 32.85 31.89
36.92 35.39 32.41 31.87 30.15 29.42 25.45 30.40 28.72 30.27 24.28 27.62 29.49 26.79 26.19 26.27 28.02 27.79 26.08 27.19 26.36 30.60 30.43 31.73 32.46 32.38 31.22 31.71 31.24 31.05 31.44 30.90 28.05 29.20 29.90 29.15 28.49 28.34 28.45 28.96 26.99 26.50 28.38 29.31 28.34 29.22 28.75 29.80 28.88 26.31 29.11 31.06 31.09 31.62
36.26 31.75 30.84 29.59 30.65 26.21 29.35 27.39 26.78 24.93 24.68 26.39 25.17 23.04 24.11 26.43 23.98 21.24 17.50 21.25 26.92 29.55 30.13 30.32 30.06 28.29 28.78 30.27 28.75 28.28 28.52 29.28 28.23 27.90 28.66 28.08 27.08 27.93 27.89 27.82 28.29 28.12 28.70 29.23 29.18 29.26 30.04 30.00 26.79 27.63 30.85 30.22 30.94 26.62
26.36 25.90 28.24 25.45 29.05 26.42 21.70 24.60 25.08 21.38 15.70 18.92 16.71 16.73 21.39 20.50 15.11 14.51 16.18 25.99 26.61 26.89 28.24 27.88 28.76 28.73 27.26 25.62 26.43 26.27 26.65 25.33 23.53 22.46 24.19 24.07 21.85 22.32 23.06 24.47 24.88 24.97 24.97 24.20 24.29 24.94 25.23 27.03 29.37 30.06 29.41 29.26 27.85 25.09
22.44 25.53 25.62 25.92 23.04 21.92 22.44 19.77 23.76 21.37 17.92 18.39 17.59 21.89 19.71 16.03 13.02 12.79 23.63 25.49 25.00 25.20 25.81 25.05 22.82 25.23 24.49 25.09 23.24 22.86 23.14 24.14 22.03 19.54 21.27 22.83 23.58 20.82 18.15 17.34 17.03 17.70 20.20 21.24 20.73 20.08 20.34 22.09 23.79 25.86 28.14 27.76 27.12 27.13
22.99 23.94 25.40 28.35 28.49 27.67 26.60 27.16 26.91 24.71 20.75 17.94 18.85 16.80 14.96 10.33 10.37 21.66 24.63 24.29 24.86 25.78 27.50 26.43 25.18 24.00 23.67 23.28 23.63 23.95 22.93 20.18 17.69 20.10 21.50 24.18 21.98 20.04 17.62 15.49 14.80 17.10 18.77 18.85 18.00 17.81 18.45 19.64 21.20 21.88 23.03 24.85 26.31 25.24
25.88 27.15 22.46 26.37 26.38 26.71 22.38 21.59 20.08 18.26 19.13 23.88 20.27 11.57 10.65 11.29 18.02 22.10 22.78 23.98 24.58 26.31 26.42 24.18 22.88 22.22 22.80 22.73 23.26 18.32 13.04 12.98 14.02 14.59 15.82 21.02 18.12 13.96 13.97 14.65 16.05 16.40 14.24 15.66 15.44 16.70 17.48 18.19 19.69 21.36 21.82 22.18 23.57 21.56
25.82 28.38 23.38 17.35 19.49 21.26 19.92 19.22 19.66 24.32 27.23 22.63 16.12 15.47 19.05 20.08 19.29 21.68 21.57 22.72 22.92 21.31 18.50 19.53 15.78 14.31 14.37 14.84 17.08 17.97 10.69 6.75 6.74 2.75 -0.26 0.91 6.20 6.90 12.22 12.62 11.73 10.80 11.55 12.93 13.91 15.79 16.72 17.70 20.21 19.33 20.26 21.02 19.85 15.44
24.95 28.49 20.61 17.44 14.93 18.23 26.06 26.95 28.51 28.74 25.54 27.18 24.94 21.36 19.51 17.87 17.68 18.77 18.82 15.95 15.08 14.28 16.43 17.14 15.69 7.90 4.80 4.59 5.25 7.08 13.74 9.56 3.17 3.23 0.35 -0.19 7.00 9.51 10.02 9.54 9.44 8.82 9.77 10.40 9.22 10.27 13.82 16.48 18.41 20.18 17.27 14.92 15.65 12.38
26.31 27.22 25.05 22.99 24.71 26.13 27.59 27.69 28.14 27.81 27.93 28.36 28.10 23.09 15.41 12.48 12.35 13.22 13.67 16.33 15.95 7.95 8.11 6.11 5.62 5.59 2.96 3.74 6.96 5.39 2.05 2.32 5.04 9.56 5.96 3.34 6.76 1.01 2.85 6.75 6.71 7.88 8.71 6.54 5.55 7.04 7.93 13.45 15.20 14.01 11.30 10.03 9.33 7.37
26.06 23.89 23.89 19.86 23.44 26.24 27.59 25.56 25.93 25.34 20.11 24.93 22.94 21.49 16.48 15.38 7.01 8.05 6.99 10.62 7.36 4.54 4.48 2.97 2.13 4.80 3.08 7.80 3.83 2.43 12.58 7.31 3.82 3.46 5.54 7.21 4.41 4.74 4.66 3.43 6.02 6.66 6.74 0.38 4.15 5.02 7.47 10.78 10.05 8.79 7.93 5.25 4.18 3.11
21.61 18.64 18.64 14.37 13.60 15.33 22.32 14.51 13.88 12.89 13.35 12.00 16.79 16.07 9.96 7.25 3.20 7.12 11.59 12.09 5.11 2.17 1.20 1.02 1.16 1.68 9.17 3.54 -0.01 5.31 1.69 0.17 2.73 11.91 9.92 10.78 7.23 3.53 1.15 4.20 7.24 6.45 2.41 0.96 2.97 6.93 6.92 6.83 4.51 3.29 2.05 0.66 -0.74 -1.81

GFSWCAN_sfc_wetblb_024.txt.gz
Wetbulb
50.00 49.77 49.35 49.05 49.19 49.36 50.16 50.68 50.70 50.83 50.86 50.32 50.33 49.93 50.04 50.64 50.82 53.27 52.18 54.34 51.60 44.06 47.54 50.92 50.27 47.12 46.85 43.95 38.16 42.98 40.30 38.97 36.64 29.89 26.84 32.66 24.77 30.81 30.64 34.81 31.58 29.06 27.07 23.90 23.46 17.21 21.45 40.18 40.52 33.49 36.63 40.89 42.11 40.58
49.34 49.09 48.89 48.73 48.93 49.33 49.99 50.16 50.39 50.69 51.20 50.19 50.10 50.03 49.87 50.13 50.58 53.25 50.01 54.90 54.84 49.37 48.52 50.96 51.34 51.57 50.96 49.83 46.44 43.64 40.61 41.75 40.15 35.17 34.20 35.36 26.57 33.63 29.25 28.04 37.76 30.37 32.08 30.00 31.91 30.98 37.93 41.10 40.35 41.30 43.14 41.71 40.69 39.91
49.04 48.96 48.75 48.59 48.68 49.11 49.67 49.78 49.85 50.17 50.80 50.76 49.66 49.54 50.01 50.28 50.93 53.77 52.40 52.97 51.67 43.91 45.91 48.05 47.96 51.84 53.15 52.18 52.58 43.65 42.69 48.26 46.09 43.29 37.47 32.56 27.09 33.04 29.56 31.36 32.79 38.12 41.30 33.42 34.61 39.01 39.78 41.35 43.02 43.40 42.92 41.37 42.09 44.05
48.75 48.52 48.46 48.46 48.50 48.91 49.09 49.04 49.34 49.66 49.86 49.43 47.62 47.88 49.27 50.09 50.81 53.32 51.93 52.27 48.49 43.35 34.96 43.41 51.50 49.32 53.11 53.02 53.18 51.82 50.18 49.27 45.89 41.43 35.85 34.23 29.03 38.06 30.05 33.05 31.46 35.91 40.31 37.88 34.02 38.95 40.68 42.62 41.99 42.31 41.95 42.48 43.49 44.88
47.95 47.96 47.93 48.11 48.27 48.43 48.61 48.49 48.53 48.31 47.68 48.33 48.51 49.41 49.70 49.86 50.59 53.42 52.38 50.83 51.93 46.23 38.31 38.32 48.38 50.37 51.29 51.77 51.76 51.65 50.02 47.18 41.29 36.70 34.23 33.22 31.40 34.80 32.99 31.34 31.91 40.75 38.40 33.96 31.99 39.89 39.65 40.48 42.20 43.18 41.59 42.64 44.27 42.79
46.58 47.08 47.61 47.88 47.80 48.02 48.15 48.09 47.55 46.61 47.53 48.24 48.96 50.38 49.75 49.09 50.96 52.92 47.35 51.88 50.06 50.56 40.41 33.82 44.63 45.67 47.47 50.34 49.66 49.25 48.69 46.90 43.70 38.16 34.73 37.38 43.73 35.99 33.43 34.84 39.35 43.22 44.84 43.69 40.56 44.08 43.51 42.68 43.37 44.35 43.80 43.27 41.62 36.25
46.13 46.36 46.61 47.15 47.61 48.15 48.22 47.53 46.07 46.72 47.55 48.31 49.71 49.29 47.50 48.63 49.50 47.88 44.07 48.87 48.77 49.10 38.63 36.15 34.83 43.09 45.25 47.00 44.18 45.54 45.89 44.29 44.07 37.97 35.72 37.63 36.04 40.55 33.32 32.66 39.94 42.99 44.24 44.20 44.18 43.04 40.17 40.99 40.45 44.68 44.71 41.19 37.27 35.00
45.82 46.11 46.13 46.06 46.35 47.01 47.64 48.04 47.82 46.86 47.37 48.74 49.80 49.57 48.52 48.64 49.54 48.68 48.83 48.18 48.78 45.81 40.12 33.67 32.19 34.67 44.38 35.47 36.57 41.08 36.82 40.54 41.61 40.86 38.41 35.41 36.14 34.83 33.84 39.26 41.98 43.93 43.72 43.32 42.81 42.34 41.48 42.28 43.76 39.90 37.39 35.67 33.35 31.75
45.53 45.61 45.55 45.86 46.10 46.22 46.72 47.69 48.35 48.15 47.79 49.35 49.28 49.56 48.87 47.41 44.64 48.08 47.48 46.88 50.38 45.68 36.18 32.77 31.00 31.09 41.04 38.60 36.59 35.01 38.39 33.31 39.01 34.77 35.12 36.27 33.82 33.11 37.56 39.54 41.21 42.14 41.29 41.54 42.03 42.41 42.71 42.29 37.72 35.47 34.86 33.50 32.17 31.67
45.02 45.09 44.93 45.13 45.47 46.00 46.31 47.06 47.77 48.17 48.49 48.46 47.33 44.06 39.77 42.35 46.99 47.21 45.74 41.21 38.84 40.36 38.26 33.13 37.30 33.56 39.83 34.05 33.88 33.49 33.47 32.58 32.40 34.75 38.14 33.14 34.42 37.61 38.93 41.28 41.47 41.91 42.17 42.63 40.87 40.17 37.24 34.05 34.00 34.08 33.20 33.80 32.87 31.66
45.53 45.34 44.74 46.12 46.27 46.40 46.63 47.05 47.62 47.86 47.68 44.96 40.33 36.77 42.06 46.26 43.66 38.83 36.62 36.04 37.03 34.53 37.82 36.19 35.70 35.70 37.58 33.82 33.84 33.13 32.54 32.90 30.46 28.88 30.01 28.65 30.32 34.36 39.12 39.73 40.31 42.54 40.50 39.70 40.17 37.51 36.46 35.50 33.83 33.30 32.52 31.59 30.44 30.03
45.60 45.58 44.98 45.12 45.42 45.42 45.83 46.37 45.91 44.54 43.39 43.69 42.94 43.96 41.81 38.84 36.09 35.65 33.67 34.00 33.84 33.58 33.96 34.40 34.91 38.68 36.01 38.88 34.14 33.82 31.89 31.98 28.08 33.10 32.22 29.22 32.33 37.18 35.46 34.47 35.46 36.79 36.73 36.33 36.86 36.00 35.91 35.19 34.92 32.75 31.53 30.43 30.21 29.75
44.93 45.43 45.45 44.84 44.53 44.97 45.46 45.23 45.08 45.06 44.30 42.31 38.54 34.92 37.06 32.71 32.03 32.98 31.18 30.89 31.81 32.39 33.82 33.31 33.49 33.49 35.31 36.59 32.96 32.75 31.30 30.39 33.31 31.30 29.17 30.55 37.76 35.88 33.87 33.85 33.43 34.54 33.89 33.99 34.56 35.21 34.75 33.79 32.79 30.12 28.91 29.79 25.87 29.24
44.69 44.56 45.16 45.00 44.68 44.53 44.57 44.80 45.22 44.53 41.17 35.31 33.82 30.25 31.65 29.40 29.96 29.95 31.08 31.84 32.22 32.40 32.60 32.77 32.00 32.37 32.04 32.57 32.01 30.70 31.24 31.29 28.68 24.48 20.96 33.02 37.46 37.04 34.08 33.54 32.26 30.46 29.09 30.10 30.70 31.83 30.90 29.59 28.81 26.46 24.94 24.80 22.51 26.76
44.49 44.60 44.23 43.89 44.07 44.29 44.40 44.01 44.06 42.37 37.42 33.20 30.46 28.08 27.75 30.09 31.26 31.60 32.21 32.39 32.74 33.99 32.95 32.37 32.19 33.26 31.29 30.14 30.71 29.03 27.12 25.47 27.36 26.29 30.56 32.71 34.14 33.22 31.69 31.68 30.37 29.76 28.20 29.99 30.78 29.42 25.65 25.35 26.59 28.47 28.68 28.81 29.33 25.64
43.85 44.06 42.54 43.61 43.44 44.08 43.83 41.96 39.75 37.29 30.78 32.72 31.83 29.29 30.66 30.75 31.26 32.07 31.87 32.07 34.50 32.95 32.95 32.74 31.09 30.53 28.09 29.21 27.15 26.95 26.37 23.97 27.58 31.12 32.63 31.90 32.08 32.08 32.31 32.10 31.39 31.38 30.78 30.74 30.62 30.51 29.63 25.40 23.44 29.14 29.18 27.65 26.18 24.55
44.00 40.59 42.98 43.08 44.11 43.83 43.34 38.68 34.08 32.50 29.98 32.09 30.31 32.75 32.18 31.44 30.53 32.25 32.40 32.40 35.66 33.46 30.34 31.00 25.60 24.28 28.68 25.51 26.04 29.76 26.80 29.99 31.91 31.81 31.96 32.04 32.06 31.63 31.36 31.31 30.18 31.27 31.35 30.97 30.92 30.68 30.23 29.95 26.16 26.02 26.99 30.56 30.02 29.93
39.82 41.37 43.59 44.03 43.75 41.45 38.22 36.80 31.30 29.66 29.46 31.03 30.07 30.39 31.26 31.84 32.03 32.22 32.58 32.58 31.59 31.35 30.54 26.83 29.09 26.77 25.86 24.33 26.25 30.89 30.31 30.68 31.09 31.53 31.54 32.03 32.38 31.79 33.01 31.65 33.05 31.31 30.76 30.36 28.56 29.83 29.83 25.58 28.37 29.17 30.22 30.66 29.67 28.60
40.64 40.70 43.38 43.21 41.38 34.52 33.06 31.62 32.66 26.70 30.13 30.34 30.40 30.50 30.60 30.89 31.32 31.98 32.22 32.74 31.92 29.17 28.20 26.48 24.03 24.28 24.95 26.84 27.76 30.59 30.23 28.65 29.22 29.92 30.58 31.38 31.44 31.42 31.59 31.81 31.46 30.53 30.30 30.19 30.40 29.18 29.23 30.44 29.52 29.62 29.67 28.05 27.00 26.02
41.49 41.36 41.82 42.35 41.13 30.42 28.65 27.40 31.89 27.87 27.69 29.94 30.90 29.66 29.43 29.08 30.22 31.45 32.24 32.40 31.94 26.11 21.77 20.29 21.58 23.73 24.86 26.10 27.22 27.22 27.52 28.02 28.30 27.12 28.18 29.50 30.29 31.06 30.46 30.04 28.89 30.25 29.72 30.45 29.48 25.78 28.30 28.86 29.54 29.41 28.15 26.55 26.54 30.78
38.51 38.74 39.73 38.55 32.95 31.75 27.75 30.30 30.99 29.22 28.60 29.12 30.27 29.62 27.40 29.41 29.24 29.24 29.93 31.07 26.26 20.44 23.50 25.40 23.59 26.94 29.10 28.15 27.23 26.89 29.04 29.55 28.01 25.77 25.26 25.23 27.11 26.60 28.07 29.22 29.38 27.60 25.88 25.82 23.24 26.64 23.94 25.36 29.68 30.07 25.95 30.75 30.76 29.83
36.89 38.88 33.97 35.85 32.57 30.62 25.64 29.25 27.80 28.20 30.16 29.70 29.62 28.97 26.85 26.31 26.76 27.90 29.46 25.88 23.57 24.93 27.38 26.39 28.37 27.47 29.34 30.53 30.25 29.87 30.08 29.79 29.54 28.09 26.72 26.07 26.81 26.75 27.18 27.27 26.74 24.20 24.10 23.42 26.72 27.90 28.08 28.95 28.93 28.74 31.15 31.44 31.05 30.33
37.10 35.78 32.07 31.43 22.53 27.69 24.03 30.28 26.43 27.51 22.69 26.46 28.34 25.80 25.06 25.32 27.46 28.55 25.70 26.66 25.57 30.08 28.04 29.14 30.44 31.13 29.72 29.11 28.60 27.39 28.15 28.19 26.19 25.82 26.11 25.29 25.17 22.88 22.23 23.34 23.47 22.46 22.47 24.06 26.29 25.54 23.92 23.38 25.23 26.39 28.83 29.20 30.25 29.56
36.32 30.71 26.21 20.79 25.87 21.30 27.32 26.48 25.99 27.27 26.36 25.45 24.48 22.20 22.58 25.32 24.84 22.48 14.18 25.02 29.02 27.29 26.59 26.85 27.42 27.86 27.72 26.56 24.38 23.63 24.19 24.76 23.67 23.25 23.04 21.56 20.80 21.63 22.55 22.87 24.12 21.29 20.10 21.41 20.36 18.75 19.39 19.82 20.86 22.39 23.50 24.70 26.22 27.03
27.11 19.04 18.87 17.21 24.66 22.31 17.93 20.23 23.73 22.19 15.44 20.09 16.65 15.52 19.53 17.38 10.84 9.23 11.66 25.03 25.64 25.43 23.44 23.82 25.55 25.92 25.27 24.35 23.36 22.86 23.57 22.28 20.36 19.68 20.77 21.27 16.76 16.26 17.40 18.58 17.95 18.21 16.97 15.61 15.18 14.25 14.32 15.42 16.84 17.29 19.45 22.68 22.99 24.58
16.83 16.96 15.93 17.43 15.93 19.08 18.59 15.83 16.88 18.74 17.41 17.36 16.74 20.88 11.27 9.91 11.42 10.17 21.74 20.93 23.37 23.41 22.84 23.92 20.10 21.63 22.20 22.73 21.33 20.59 19.23 20.46 19.27 17.07 19.75 20.49 17.30 12.79 10.81 9.88 10.73 11.44 13.89 12.76 13.41 11.33 11.03 12.24 13.36 14.38 15.20 17.60 20.78 22.32
15.70 17.05 23.92 27.35 25.72 27.32 21.46 22.73 26.04 23.24 21.40 20.09 21.40 18.79 14.13 9.59 5.97 20.19 22.90 22.96 23.62 25.05 24.95 24.57 24.20 23.11 21.56 21.41 21.32 18.04 16.61 15.63 13.68 14.92 17.92 17.17 14.93 13.55 10.71 8.47 8.15 10.46 11.78 10.04 10.29 9.97 9.29 10.04 11.18 12.36 13.82 16.83 19.41 21.98
22.76 21.81 17.86 23.70 26.22 26.97 23.40 22.70 21.95 21.09 19.76 23.29 19.63 13.86 13.32 11.22 15.76 19.05 21.50 23.60 24.31 23.74 22.61 22.19 21.41 20.02 19.58 19.19 16.03 10.83 9.49 8.33 9.30 9.37 14.07 12.96 10.89 6.60 5.83 3.45 5.18 11.84 6.19 6.21 8.12 9.25 8.14 8.28 9.72 11.09 14.09 15.50 17.58 15.49
24.91 26.58 24.34 21.15 19.81 19.80 18.73 18.64 19.02 24.28 27.44 21.08 13.38 10.96 18.03 17.69 16.58 19.86 19.86 20.48 20.67 20.20 16.27 14.17 13.56 13.61 12.04 10.56 8.01 6.53 1.82 2.68 3.70 -2.47 -6.91 -6.72 -3.46 0.20 3.34 -1.02 -1.03 4.81 5.13 5.56 8.25 9.02 8.32 8.83 10.27 11.89 16.66 13.88 11.71 10.24
22.21 24.33 17.11 13.41 15.16 19.95 24.59 25.78 26.55 26.77 25.18 24.09 20.41 18.98 17.04 14.72 15.73 16.81 14.86 14.91 14.69 12.70 12.73 12.41 5.80 3.72 -4.01 -1.65 -2.74 3.03 4.57 -2.74 -3.30 -2.40 -5.64 -6.00 1.02 5.23 -0.77 0.22 3.45 3.42 3.84 4.94 4.42 3.78 5.93 5.47 6.55 13.26 11.65 11.43 9.16 6.86
25.40 25.10 23.54 20.44 22.60 24.39 25.67 26.49 27.23 27.34 27.02 27.38 24.02 17.63 12.62 9.95 10.82 10.81 11.63 9.80 5.02 4.78 5.47 0.15 0.53 -4.37 -0.56 0.15 -1.83 -6.36 -2.56 2.01 0.07 1.63 -2.19 1.03 0.47 -4.01 -4.19 -1.44 -0.93 0.63 2.23 3.77 1.08 -0.19 2.12 2.49 5.84 6.33 4.68 4.14 3.80 2.93
24.25 22.51 22.34 17.26 22.24 23.16 25.93 24.40 19.57 17.06 17.17 19.32 19.74 14.72 10.88 4.52 -1.29 3.84 6.28 4.66 1.75 -0.39 -5.09 -7.99 -5.09 -1.83 0.99 0.98 -0.94 -4.55 -2.38 -4.19 -5.27 -4.19 0.89 1.91 -0.74 -4.01 -4.19 -2.29 -2.77 -2.38 1.29 -4.37 -5.71 -3.52 2.38 2.15 0.92 -0.19 -1.38 -1.29 -0.78 -1.30
14.90 5.69 7.93 1.65 7.39 11.31 13.77 7.89 5.18 5.23 8.59 8.43 9.24 5.48 3.47 3.82 0.38 4.11 6.59 -0.61 -0.44 -3.84 -5.09 -5.46 -6.00 -5.82 -2.56 -3.72 -5.03 -6.58 -4.75 -7.09 -6.54 2.16 3.05 5.77 -0.42 -2.01 -5.09 -7.99 -6.91 -10.89 -12.16 -11.08 -9.28 -5.27 -3.46 -6.18 -6.36 -3.25 -4.09 -4.11 -4.12 -4.29

GFSWCAN_sfc_wetblb_027.txt.gz
Wetbulb
49.55 49.23 48.96 47.74 47.87 48.64 49.98 50.15 49.97 49.91 50.69 49.97 49.55 49.46 49.71 49.98 51.70 52.78 51.69 52.73 49.69 43.66 46.68 49.04 48.95 45.70 44.67 42.47 37.79 41.76 39.80 38.09 32.35 29.02 25.97 27.26 22.69 30.16 30.03 33.07 31.43 29.54 28.18 26.92 25.75 18.84 22.83 38.21 38.23 33.11 36.35 37.79 41.18 40.34
48.81 48.66 48.48 48.10 48.82 49.55 49.79 49.98 49.91 49.90 49.63 49.69 49.47 49.67 49.85 50.18 51.54 51.95 51.05 53.76 52.74 48.17 47.39 49.76 50.07 49.96 49.33 47.22 44.57 41.53 41.58 39.89 39.06 32.14 29.42 30.96 25.68 32.86 27.71 26.19 35.34 28.98 31.43 29.18 30.80 30.46 36.97 38.86 38.74 40.08 41.03 40.99 40.70 40.30
48.49 48.47 48.28 48.67 48.98 49.23 49.59 49.57 49.73 49.84 48.75 46.78 47.11 48.25 50.01 50.64 51.87 52.85 51.76 50.95 47.95 43.03 45.74 47.03 46.54 50.88 51.83 51.07 50.90 42.02 40.80 45.12 42.52 40.43 37.38 31.73 25.74 30.94 28.86 30.42 30.93 36.20 38.38 31.66 33.13 36.75 37.83 39.03 40.75 41.62 42.13 40.85 41.09 41.74
48.31 48.16 48.29 48.58 48.64 48.67 48.89 48.92 48.97 47.81 46.96 47.56 47.83 49.43 49.76 50.85 51.66 52.04 50.75 49.98 46.13 41.24 34.76 42.54 50.16 48.37 51.83 52.32 52.16 49.62 48.09 45.59 42.82 39.20 34.33 32.95 26.62 35.45 28.91 32.26 31.69 35.67 38.21 35.43 32.97 37.11 39.45 41.72 42.23 42.02 41.27 41.72 42.38 43.42
47.95 47.95 47.86 48.15 48.31 48.29 48.51 48.25 47.27 47.27 47.92 48.41 49.42 49.34 49.29 51.07 51.46 52.02 50.21 49.04 49.74 44.31 36.86 36.73 46.75 48.80 48.92 51.34 50.49 49.76 47.93 44.95 40.30 35.70 33.13 32.66 30.82 33.75 33.56 30.36 32.28 38.65 37.07 32.17 32.06 38.83 39.10 38.82 42.09 42.01 40.59 40.71 42.27 40.92
47.72 47.58 47.50 47.83 48.04 47.88 47.69 46.28 46.58 47.47 47.98 48.97 49.35 48.19 48.55 50.12 51.64 48.94 44.55 50.05 50.16 47.62 39.95 34.30 43.06 44.37 46.34 48.76 48.57 48.14 47.75 44.85 41.63 38.05 34.17 36.05 40.53 35.14 33.22 34.41 39.20 41.47 42.54 40.81 38.74 40.72 40.67 40.09 40.96 42.18 41.63 43.02 41.04 35.71
47.02 47.38 47.51 47.40 47.43 47.31 46.69 46.19 46.51 47.40 48.50 49.06 48.75 48.01 48.74 48.71 48.77 45.66 41.40 46.88 47.94 46.40 38.15 36.15 34.99 41.44 43.74 44.68 42.24 43.90 43.78 42.71 42.53 38.77 35.03 35.41 34.81 39.27 33.65 32.44 39.03 41.52 42.57 42.77 43.07 42.09 38.96 40.09 40.32 43.51 42.93 37.96 37.06 34.99
46.10 46.21 46.60 47.13 47.49 47.49 47.13 46.35 46.85 47.51 48.35 49.57 49.24 48.39 48.35 48.99 49.04 47.32 47.79 47.13 47.25 42.77 38.28 32.62 30.91 34.34 42.86 36.69 36.73 40.77 37.10 39.97 39.38 38.33 37.80 36.50 35.48 34.19 32.79 38.47 40.50 42.16 42.28 41.91 42.15 41.63 41.42 42.02 42.86 39.41 35.67 34.61 33.25 32.24
45.11 45.56 45.62 45.94 46.75 47.29 46.98 46.71 47.05 47.49 48.49 49.80 48.59 48.49 48.12 46.66 45.75 47.63 46.84 46.84 47.25 43.93 35.06 32.30 30.25 30.40 39.74 37.90 36.17 35.05 38.28 33.62 38.56 34.22 34.93 35.55 33.27 33.51 37.39 38.24 39.99 40.45 40.30 40.97 41.31 40.76 41.07 39.53 35.48 34.46 34.44 33.31 31.86 31.11
45.20 45.48 45.58 45.58 45.84 46.34 46.91 47.13 47.49 47.98 48.80 47.28 46.95 42.35 36.02 42.85 46.79 46.43 44.39 39.07 37.55 39.76 36.88 32.65 35.95 32.45 39.36 33.84 33.68 33.04 33.77 32.76 32.83 32.32 38.15 32.94 34.07 36.66 37.60 38.74 40.38 40.65 41.10 41.63 38.62 37.68 33.25 33.23 33.76 34.00 33.66 33.85 33.14 31.81
45.39 45.39 45.32 45.82 46.08 46.55 46.98 47.29 47.51 47.66 47.60 43.32 38.09 37.30 43.09 45.58 42.51 38.36 35.59 34.53 37.13 35.63 37.40 35.97 35.05 35.39 37.86 33.87 32.73 31.72 32.56 32.35 30.29 28.06 32.80 29.89 30.17 33.08 34.62 33.33 35.98 36.83 38.48 36.96 37.44 36.74 36.46 35.57 34.21 33.49 32.04 31.79 31.28 30.72
45.22 44.99 44.85 45.06 45.45 45.91 46.32 45.96 46.11 44.74 43.65 42.54 41.18 42.60 39.11 36.78 34.17 33.84 31.82 33.66 33.77 33.18 33.78 34.37 35.08 38.39 35.82 36.68 33.90 33.65 30.16 31.38 27.32 33.27 31.83 28.09 30.51 31.56 31.47 32.52 34.56 36.46 36.77 36.25 36.88 35.99 35.78 35.38 34.88 33.07 32.34 31.29 30.84 29.70
45.09 44.99 44.98 44.83 44.74 45.26 45.48 45.38 45.26 44.90 44.69 42.54 38.96 35.74 37.14 33.25 33.01 33.27 31.61 31.25 31.79 32.38 33.43 33.30 33.30 33.12 35.26 36.16 33.12 32.70 31.26 30.06 32.38 31.22 29.39 31.04 31.62 33.57 34.39 34.73 35.18 36.54 35.92 35.97 36.46 36.49 35.72 34.07 32.71 30.50 29.27 29.89 27.06 28.97
44.05 44.26 44.43 44.14 44.43 44.40 44.49 45.14 45.14 44.15 41.58 35.54 33.66 30.92 31.97 29.38 29.56 30.15 31.05 31.61 31.82 32.38 32.57 32.57 32.17 32.53 32.21 32.51 31.81 30.66 31.22 31.07 28.85 25.21 21.24 31.62 35.03 35.94 33.22 32.39 30.97 29.66 28.76 30.10 30.36 30.81 30.27 29.08 28.81 26.96 25.91 25.40 23.76 26.80
44.15 43.87 43.78 43.45 44.17 44.28 44.18 43.38 44.05 42.29 37.27 32.40 32.03 27.46 27.88 29.77 31.02 31.44 32.02 32.36 32.38 33.80 32.74 32.54 32.35 33.15 31.43 30.48 30.69 28.99 26.93 24.90 25.12 21.15 29.07 31.46 32.05 32.13 30.57 31.42 31.10 29.87 27.78 29.21 30.15 28.92 26.31 25.35 25.85 27.31 27.75 27.63 28.36 22.92
44.01 42.84 41.39 43.69 44.14 44.20 43.58 41.28 38.74 37.83 33.06 32.40 31.43 29.35 30.72 30.60 30.90 32.23 32.21 32.06 34.31 32.76 32.92 32.71 31.07 29.55 27.88 28.82 23.64 21.84 22.82 19.31 22.96 30.10 32.27 32.19 31.26 31.47 33.15 33.52 31.31 30.90 30.40 30.24 30.45 30.48 29.71 25.92 24.59 29.18 28.48 27.16 24.24 22.90
42.92 40.07 43.50 43.39 43.46 43.05 42.73 36.64 32.18 31.38 29.09 31.12 30.34 32.56 31.35 31.25 31.07 32.05 32.42 32.57 35.36 32.91 30.51 30.12 23.65 24.51 28.64 26.40 25.82 29.17 25.69 29.26 31.47 31.92 31.82 32.39 32.40 31.44 31.57 31.93 30.50 31.12 31.19 30.83 30.64 30.23 29.96 29.55 25.05 25.51 26.38 30.25 29.40 28.76
40.43 40.36 43.78 43.67 42.30 39.39 36.38 34.05 29.45 29.21 29.22 30.90 29.70 30.18 31.07 31.83 32.03 32.03 32.21 32.18 29.52 31.96 30.21 25.25 28.48 22.36 20.96 20.50 25.15 29.99 31.78 32.67 31.86 31.57 31.69 32.13 32.03 31.29 31.84 31.22 31.94 31.02 30.46 30.14 28.24 29.43 29.39 25.03 27.97 28.64 29.68 30.05 28.56 27.66
39.92 40.21 42.21 42.77 40.96 33.24 30.26 31.05 31.61 28.11 29.56 30.25 30.24 30.23 30.45 30.49 30.91 31.62 32.02 32.20 27.75 27.36 26.67 23.74 20.91 21.20 23.32 25.59 25.45 28.42 29.31 27.11 28.36 29.81 29.67 30.34 30.62 30.71 30.62 30.56 30.59 29.93 29.83 29.69 29.68 28.69 28.69 29.42 28.54 28.26 28.77 28.39 27.30 27.14
40.92 41.08 41.03 41.39 40.17 29.61 28.76 27.72 30.85 28.20 26.63 30.16 30.40 29.17 28.83 29.01 30.05 31.40 32.21 31.81 29.91 24.25 22.33 20.58 22.04 23.67 24.64 25.55 26.15 25.46 26.01 26.13 26.16 24.06 25.28 26.76 27.98 28.54 28.24 28.07 27.66 27.86 27.76 27.99 27.42 24.46 27.48 27.59 28.76 28.60 28.11 27.29 27.38 28.54
37.09 37.37 39.27 37.76 31.18 30.32 28.21 30.00 30.53 30.20 30.50 28.89 29.77 29.23 27.24 29.18 28.83 29.04 29.77 30.28 22.33 19.67 23.05 24.72 20.42 24.72 27.73 27.13 26.32 26.09 28.35 28.46 26.50 24.19 24.04 24.42 26.11 27.14 26.55 26.38 26.25 25.57 23.78 22.96 25.12 25.59 25.72 25.06 24.80 25.23 25.50 26.07 27.88 28.37
35.96 38.17 34.31 34.96 30.98 26.91 25.95 29.31 29.85 28.28 29.73 29.21 28.61 28.88 26.25 25.41 25.84 27.41 29.11 27.81 23.58 23.68 26.29 29.34 30.32 30.30 30.94 28.88 27.43 27.82 28.21 27.94 27.33 26.16 25.37 24.51 23.84 22.54 22.77 23.34 22.29 20.92 22.24 21.98 22.51 22.07 21.61 21.51 21.17 21.08 22.18 23.03 24.27 25.86
37.07 35.44 31.83 31.48 23.49 23.39 22.30 31.44 27.86 28.79 24.71 26.42 27.95 25.32 24.58 25.09 27.28 28.20 25.20 27.21 27.27 29.26 26.89 28.01 29.43 29.97 27.50 26.82 26.06 25.14 25.40 25.10 23.13 22.60 22.89 22.84 22.89 19.89 19.75 22.31 19.75 15.36 14.73 16.90 18.77 17.22 15.43 14.31 15.81 15.04 17.51 17.67 20.06 22.26
35.89 30.55 26.94 25.21 23.65 16.54 20.68 25.78 24.94 23.25 26.09 24.86 24.16 21.76 22.67 24.70 25.71 22.51 15.96 24.91 27.88 28.19 25.94 26.07 26.82 25.70 25.59 24.86 22.36 21.39 22.03 22.92 22.37 20.71 21.01 20.41 19.78 19.26 18.87 18.56 16.93 14.65 13.68 13.98 14.14 11.50 11.47 10.38 10.28 12.38 12.73 13.27 14.22 14.89
26.62 19.76 24.48 15.20 22.25 13.20 10.61 11.03 16.96 17.46 13.53 22.10 22.14 21.49 21.34 20.03 15.90 18.21 11.91 22.51 25.06 24.28 24.19 24.32 24.82 26.16 23.77 21.93 22.18 21.18 20.71 20.99 19.98 18.91 19.43 17.09 12.26 12.38 13.66 15.13 14.69 13.61 11.80 7.08 5.89 7.31 7.39 7.61 7.92 8.64 9.33 10.08 10.10 12.77
15.56 17.92 17.74 11.75 15.08 15.34 12.80 10.09 12.76 15.15 15.99 18.69 21.67 22.20 16.89 17.01 17.97 11.50 20.97 22.28 22.93 23.40 21.15 23.00 23.09 22.57 21.47 22.42 20.36 17.30 16.33 17.76 18.15 15.91 16.35 14.74 12.04 6.18 3.15 3.66 5.07 5.95 10.01 3.19 4.39 3.58 4.47 5.33 5.17 4.85 6.05 7.78 8.90 10.70
10.85 9.80 19.03 25.83 25.04 24.57 20.34 17.41 23.40 23.24 20.96 20.59 17.81 17.26 18.67 16.14 14.74 18.78 22.00 21.75 22.95 22.97 24.18 24.15 23.96 22.49 21.13 17.83 16.18 14.63 13.06 12.35 11.17 15.01 14.98 13.52 12.45 11.40 4.91 -1.48 1.98 5.91 8.42 5.08 0.28 1.57 2.57 3.01 2.39 3.00 4.22 6.83 9.01 11.67
19.42 21.75 20.57 20.66 24.60 26.57 22.66 21.59 22.12 22.10 22.13 25.01 22.95 19.54 18.55 15.05 15.60 18.17 20.45 22.37 21.49 22.06 20.23 19.04 18.51 18.72 16.52 14.96 12.22 9.04 9.14 7.70 9.28 11.06 10.55 8.67 6.84 1.40 1.16 -1.01 0.21 8.34 0.84 -1.28 -3.11 1.66 1.68 2.64 2.81 3.92 5.35 7.31 7.06 8.35
23.12 26.38 25.24 20.47 22.47 20.16 21.76 21.76 20.87 25.35 26.92 23.32 15.53 16.33 15.58 15.89 14.02 16.01 17.28 17.92 19.48 17.22 13.48 12.05 11.24 11.58 10.48 9.48 6.17 4.39 -0.30 -0.71 -1.00 -5.83 -9.63 -11.27 -10.00 -2.18 2.07 -6.20 -6.75 -4.81 -4.96 -4.38 1.79 6.33 6.10 6.33 6.46 6.30 8.95 10.32 6.28 3.07
23.21 24.70 20.33 15.20 16.55 20.50 23.36 24.61 24.05 25.71 26.15 20.46 19.01 17.00 14.76 12.23 13.28 14.95 14.00 13.93 11.32 9.63 7.51 5.17 0.45 2.01 -8.18 -5.83 -7.10 -1.15 0.81 -5.65 -6.20 -5.47 -8.91 -9.63 -2.98 1.06 -9.27 -7.64 -5.83 -6.02 -7.64 -8.73 -4.38 -1.04 0.48 -3.18 -1.48 -2.78 -1.75 -0.83 0.75 0.73
23.71 24.60 22.83 22.03 17.28 22.66 24.16 25.55 26.63 26.25 26.22 24.27 19.86 14.88 11.15 7.42 8.29 10.19 9.46 5.78 7.29 1.32 -0.35 -4.40 -2.93 -10.54 -4.74 -7.46 -9.27 -10.18 -6.92 -7.87 -9.63 -6.01 -5.47 -6.19 -7.64 -9.82 -9.45 -6.92 -7.64 -10.36 -9.45 -8.91 -9.82 -11.45 -10.54 -9.09 -11.09 -11.45 -10.72 -9.65 -8.38 -6.94
23.31 21.21 20.52 18.73 20.44 22.04 14.88 15.37 14.78 8.48 20.67 20.77 16.05 12.29 4.50 -0.00 -4.38 2.04 4.69 0.17 -2.66 -3.66 -8.73 -13.08 -8.55 -5.28 -4.38 -5.47 -9.09 -10.18 -4.57 -8.91 -10.18 -10.18 -9.09 -5.83 -7.10 -9.27 -11.09 -9.63 -13.26 -15.25 -16.71 -16.52 -15.80 -15.44 -14.89 -15.25 -16.34 -15.80 -16.52 -15.44 -12.54 -11.81
12.68 7.22 8.58 -0.24 6.99 9.51 10.47 2.41 0.98 4.24 12.93 15.02 8.50 2.54 0.04 2.06 -1.42 2.63 4.87 -2.03 -2.20 -5.66 -8.02 -9.09 -10.72 -11.27 -8.73 -8.43 -8.00 -9.84 -8.92 -11.63 -11.63 -2.75 -2.02 -1.11 -4.92 -5.65 -12.35 -15.80 -18.52 -19.06 -18.34 -19.79 -18.34 -19.42 -16.16 -16.52 -18.52 -18.16 -17.97 -17.25 -15.25 -13.80

GFSWCAN_sfc_wetblb_030.txt.gz
Wetbulb
49.27 48.80 48.21 47.47 48.06 48.83 49.80 49.98 49.97 49.95 49.32 49.34 49.32 49.27 50.08 51.62 51.87 55.58 52.71 51.36 48.14 43.35 45.41 47.73 47.88 43.84 42.93 41.27 37.13 40.95 39.26 37.83 31.80 29.28 26.38 25.84 22.50 29.20 29.61 31.97 31.41 29.46 28.77 27.87 23.96 15.83 21.86 36.56 38.24 32.95 36.24 35.56 39.10 38.86
48.46 47.69 47.70 47.76 48.69 49.09 49.57 49.62 49.72 50.21 48.41 48.03 48.21 49.31 50.02 51.19 51.78 53.70 52.82 52.47 51.06 47.34 46.47 48.75 48.88 48.78 47.59 45.71 43.19 40.51 41.28 39.32 38.59 31.57 25.83 28.50 28.12 31.32 27.47 25.76 33.67 28.96 30.98 27.54 29.37 29.59 36.16 37.22 37.82 38.63 38.81 38.63 39.11 39.12
47.70 47.72 47.92 48.68 48.91 49.05 49.05 48.96 48.97 48.34 47.34 48.57 49.47 49.50 50.71 51.27 51.39 52.96 51.20 48.26 47.46 43.08 45.02 46.36 46.10 50.01 50.82 49.70 49.06 41.26 38.82 43.01 40.22 38.46 32.54 31.46 25.31 29.22 26.06 28.73 29.42 34.67 36.16 29.74 31.93 35.31 36.08 37.48 38.59 41.19 40.17 40.26 40.73 41.29
48.08 48.31 48.67 48.76 48.69 48.51 48.55 47.74 46.35 47.47 48.01 48.75 49.52 49.87 50.27 50.57 51.00 51.55 49.77 48.19 44.26 40.96 35.24 41.33 48.74 47.23 50.12 51.07 50.49 48.17 45.61 43.06 40.72 37.74 32.78 30.14 26.49 33.69 26.94 30.45 29.84 34.53 36.14 33.84 32.21 36.42 36.60 39.54 40.56 40.19 40.79 40.94 40.78 41.95
47.99 47.94 48.08 48.26 48.21 48.16 47.18 46.75 46.91 47.41 48.32 48.95 49.01 50.69 50.72 50.79 50.92 51.29 49.18 47.96 47.68 43.08 36.97 37.21 45.29 46.74 48.33 49.90 48.58 47.75 46.04 43.63 39.65 35.34 32.99 31.30 28.26 31.61 32.70 29.68 31.53 36.83 35.66 31.35 30.77 37.28 37.43 38.06 40.27 41.65 40.76 40.75 41.81 40.45
47.84 47.83 47.90 47.86 47.56 46.96 46.78 46.93 47.25 47.63 47.90 47.16 47.61 48.59 49.72 48.33 49.79 46.56 43.70 48.46 48.68 45.81 40.44 34.65 41.75 43.00 45.32 46.75 46.59 46.14 46.21 42.94 40.76 38.06 33.87 34.82 38.71 34.47 32.92 33.14 37.97 39.38 40.19 38.95 37.43 38.88 39.01 38.97 40.03 40.14 40.50 40.97 39.47 35.80
47.31 47.50 47.58 47.41 46.96 46.58 46.56 46.76 47.54 47.92 47.96 47.92 48.17 48.54 48.96 49.18 49.13 43.25 40.42 45.66 46.86 44.88 38.16 35.50 34.71 40.16 41.77 43.33 41.12 42.48 42.89 41.44 41.07 38.48 33.77 34.53 35.72 37.41 32.19 30.67 38.05 40.14 41.31 41.14 41.34 40.75 38.24 38.76 39.20 42.04 41.74 36.22 35.91 34.47
46.93 46.96 46.82 46.62 46.76 46.58 46.42 46.58 47.54 48.35 48.73 48.28 48.17 48.51 48.62 48.52 48.04 46.23 46.66 46.91 46.85 41.53 37.71 31.90 31.20 34.04 41.57 36.61 36.70 40.74 37.24 39.88 40.01 38.69 37.29 35.09 36.20 34.39 33.40 36.99 39.55 40.94 41.53 41.07 41.24 40.39 39.89 40.48 40.45 34.37 34.59 34.83 32.97 32.31
46.10 46.42 46.64 46.65 46.64 46.44 46.60 46.76 47.16 48.48 48.45 48.21 47.66 48.19 48.40 46.42 45.10 45.68 46.79 46.50 45.76 42.94 33.77 30.44 30.16 29.62 39.16 37.42 35.81 36.52 38.36 34.82 38.45 34.09 35.51 35.10 32.99 33.05 35.25 35.05 36.94 38.64 38.71 39.47 39.94 40.07 37.53 34.79 32.81 33.49 34.37 33.73 32.22 31.17
45.52 45.45 45.94 46.26 46.49 46.47 46.49 46.64 47.31 48.26 47.53 47.21 46.80 43.52 37.87 42.76 46.45 46.11 43.67 38.61 37.21 36.57 38.81 32.99 34.12 33.23 39.30 33.91 33.56 32.95 34.18 33.01 32.93 33.37 37.96 33.17 32.96 34.88 31.60 32.00 33.74 36.25 39.02 39.82 36.50 31.93 31.60 32.24 33.82 34.49 34.04 34.47 33.09 31.33
45.47 45.81 46.06 46.19 46.56 46.62 47.02 47.29 46.63 47.67 47.30 43.81 39.46 38.08 42.65 44.66 42.55 36.65 33.11 32.61 35.77 32.12 36.32 35.48 34.89 34.95 37.98 34.18 33.70 31.08 33.01 32.34 30.46 27.67 32.93 29.94 30.14 31.94 31.51 33.82 35.37 35.94 36.24 36.15 35.83 36.06 36.17 35.79 33.91 32.16 31.75 32.46 32.63 31.77
45.16 45.19 45.44 45.69 46.05 46.35 46.23 46.14 46.27 43.71 41.37 42.36 41.41 41.74 38.87 36.78 34.79 32.79 31.21 33.70 33.49 31.32 33.70 34.26 34.79 37.90 35.35 35.05 33.71 33.68 29.86 30.78 25.82 32.32 31.36 27.27 28.88 31.05 33.57 34.56 36.27 36.99 36.75 35.80 35.56 34.53 34.72 34.30 34.61 34.25 33.82 31.83 30.92 29.64
44.25 44.44 44.67 44.51 44.98 45.67 45.60 45.50 45.40 44.94 43.89 41.15 37.33 33.38 34.78 31.97 32.63 32.83 31.09 31.86 32.07 32.42 33.31 33.37 33.19 33.17 34.99 35.92 32.99 32.57 31.27 29.57 32.46 30.20 29.10 30.41 31.84 35.07 35.92 36.04 35.41 36.50 35.92 35.89 35.40 35.67 35.20 34.60 33.07 30.65 28.96 29.61 27.56 28.92
43.66 44.01 44.34 44.36 44.45 44.30 45.03 45.52 45.19 44.32 42.28 35.71 34.11 32.93 31.94 30.09 29.79 30.19 31.29 31.84 31.71 32.27 32.45 32.81 32.25 32.60 32.28 32.75 31.89 31.27 30.97 31.29 28.60 25.08 21.85 30.94 33.32 35.05 30.47 30.72 30.49 29.19 28.06 29.52 30.04 30.44 29.79 29.08 28.56 27.20 26.21 25.52 24.00 26.34
43.41 43.58 43.56 43.27 44.20 44.15 43.67 44.14 43.87 42.43 37.43 32.28 32.55 27.11 27.50 29.49 30.91 31.32 31.89 32.22 32.24 33.49 32.81 32.79 32.60 33.49 31.48 30.68 30.20 28.85 26.05 21.35 22.19 20.00 28.46 30.92 32.24 30.89 31.25 33.07 30.76 28.79 25.42 27.56 28.86 28.16 24.00 24.36 25.26 27.14 27.17 27.21 27.77 22.96
43.31 42.59 41.90 43.53 43.61 43.69 42.86 41.35 39.63 38.34 33.92 32.38 30.95 29.39 30.59 31.09 30.59 31.92 31.93 31.92 34.02 33.01 32.81 33.11 31.11 27.54 26.11 28.67 25.29 23.63 21.65 16.44 22.04 29.10 31.87 32.36 32.12 31.70 32.55 34.11 31.28 31.09 30.07 29.74 29.48 29.74 28.64 24.63 23.30 28.54 27.53 26.31 22.32 21.03
43.08 40.30 42.74 43.40 43.12 41.74 41.70 35.86 33.28 31.78 31.35 30.89 30.20 32.24 31.08 31.60 31.13 31.75 32.30 32.46 35.09 32.76 30.56 28.25 23.35 22.90 26.43 22.82 22.30 26.16 20.53 27.07 30.97 30.45 31.41 32.14 31.27 31.79 32.99 31.65 30.22 30.60 30.21 29.98 29.87 29.70 29.49 28.77 24.26 25.58 27.16 29.33 28.54 28.10
38.53 38.63 42.49 43.02 41.17 38.11 34.91 32.70 29.32 30.37 29.69 30.56 29.39 30.06 30.94 31.71 31.89 32.10 32.08 32.04 31.68 31.61 28.30 24.46 29.03 21.39 18.80 17.84 20.74 28.68 29.63 28.89 29.25 29.75 30.94 32.02 31.48 30.65 31.00 30.18 30.93 30.08 29.46 29.19 27.55 28.76 27.95 26.14 26.89 27.12 27.81 27.88 26.65 26.28
39.17 39.53 41.50 41.68 39.39 32.23 30.06 30.43 30.80 28.15 29.10 30.03 30.00 29.98 30.35 30.20 30.64 31.32 32.07 32.24 26.96 26.54 25.91 22.51 18.63 18.94 20.03 22.62 20.71 30.56 30.64 25.06 29.38 29.73 28.91 28.78 29.23 29.32 29.01 29.13 29.07 28.32 27.90 27.72 27.28 26.70 26.87 27.65 26.16 25.26 24.88 24.82 24.10 25.43
40.06 40.05 40.39 40.42 38.58 29.76 28.25 26.68 30.21 29.26 28.52 29.75 29.95 28.69 28.76 28.88 29.81 31.21 31.77 31.09 26.18 23.49 22.18 20.36 20.84 22.33 23.02 24.99 26.07 26.18 26.55 26.53 26.59 24.27 24.14 25.89 26.92 26.95 26.21 25.93 25.40 26.19 24.96 25.11 25.11 22.43 23.22 22.53 22.90 22.21 21.90 21.84 21.86 22.52
36.70 36.36 37.98 34.62 29.60 30.68 28.99 28.62 30.03 30.19 30.35 29.02 29.65 28.98 27.36 29.20 28.65 28.72 29.52 29.78 21.10 19.39 22.88 23.97 21.81 24.86 27.92 27.22 26.74 26.00 27.45 27.51 25.48 23.58 23.56 24.84 25.32 24.36 24.10 23.83 23.09 22.84 21.19 20.24 19.62 18.60 16.99 17.14 18.48 18.37 15.60 16.37 18.04 17.82
35.18 37.83 30.40 31.43 26.87 25.63 26.46 30.12 29.83 29.55 29.45 28.75 28.11 28.70 25.82 25.16 25.82 27.04 28.74 23.82 23.49 23.69 26.12 28.77 30.33 30.77 29.21 27.19 26.59 26.56 26.47 26.20 25.69 24.14 22.91 21.81 20.56 20.79 20.86 19.20 17.49 15.29 15.93 14.67 15.78 13.09 12.75 15.35 14.38 13.42 11.76 12.23 14.09 15.39
35.59 32.63 32.31 26.48 22.55 21.80 25.23 31.34 24.36 28.27 25.07 25.84 26.74 23.30 24.16 24.61 26.15 27.80 24.63 26.81 26.71 28.56 28.72 29.27 28.02 28.07 26.06 25.48 24.83 24.10 24.64 23.11 21.11 21.08 21.18 20.90 20.64 19.15 20.36 16.56 13.97 9.57 9.54 11.91 13.05 13.27 11.09 8.09 9.54 7.62 9.09 9.41 10.09 9.81
33.08 29.49 27.33 25.74 18.47 16.32 20.22 22.18 23.00 20.33 26.04 25.17 22.43 21.23 22.20 24.34 25.11 22.10 18.31 24.44 27.17 27.81 27.42 27.71 26.68 24.58 24.61 23.34 20.02 19.81 21.17 22.36 20.16 19.07 19.51 19.37 17.10 16.42 16.61 15.62 12.93 11.05 10.19 9.34 7.97 4.86 5.68 2.34 2.74 5.29 4.71 4.07 4.88 6.36
18.05 19.83 21.85 19.48 24.13 11.93 7.27 7.64 15.86 16.21 10.90 19.46 21.94 20.75 21.32 19.94 17.02 18.49 14.70 21.86 23.59 23.05 23.56 25.93 26.28 25.48 22.77 21.71 20.54 18.26 18.65 20.50 19.54 16.70 15.59 14.26 10.70 10.41 11.17 11.89 11.30 10.79 9.13 2.26 1.11 -0.24 -0.54 0.45 -1.58 0.26 1.71 1.10 2.94 4.27
15.12 20.40 16.45 7.95 10.00 19.41 8.82 8.55 7.28 9.92 10.46 12.84 15.71 19.16 16.10 15.93 16.62 14.26 19.41 20.40 21.37 21.84 20.42 21.49 21.58 20.89 19.74 20.80 18.31 16.21 14.91 15.76 17.80 14.23 12.99 12.23 9.67 4.12 0.25 -1.11 -0.62 2.03 6.74 -3.24 -5.96 -3.60 -2.01 -1.08 -0.56 -1.73 -1.11 0.32 1.95 4.20
12.17 10.20 17.82 25.37 25.11 23.80 14.08 14.09 19.78 15.07 13.72 19.48 18.24 17.34 20.91 18.15 15.28 17.66 21.37 21.04 21.55 21.35 21.94 22.07 23.34 21.84 18.07 15.49 14.00 12.80 12.09 11.92 13.32 13.65 12.97 12.16 10.72 8.99 1.23 -5.41 -3.60 2.71 5.97 1.29 -7.04 -11.94 -7.59 -3.24 -2.16 -1.26 -0.21 1.33 1.97 3.78
19.46 16.03 15.93 17.36 19.81 23.93 21.66 21.83 21.45 19.64 21.10 24.03 21.39 19.05 18.14 14.51 12.75 16.57 18.56 20.65 19.48 19.07 17.39 16.59 16.28 15.39 13.41 11.92 10.57 10.00 7.95 10.00 9.34 8.38 6.74 6.17 5.42 0.93 -1.84 -3.79 -2.83 5.09 -3.98 -9.58 -11.58 -8.31 -8.13 -4.14 -0.29 1.05 1.57 2.68 -0.92 -1.84
19.14 20.88 19.23 15.53 21.27 22.53 22.37 21.47 21.61 24.68 26.09 24.34 19.23 16.53 13.10 13.63 12.64 13.79 16.25 17.46 17.47 15.90 13.06 11.32 9.71 10.03 9.38 7.89 4.86 2.50 -0.21 -3.13 -3.54 -6.19 -9.40 -11.94 -11.03 -4.12 -1.31 -9.22 -10.67 -9.59 -12.30 -10.85 -4.50 2.02 2.62 2.12 2.66 0.55 -4.14 -3.42 -0.91 -3.05
15.67 19.93 15.15 13.18 14.77 18.83 17.06 22.38 19.60 21.40 22.55 20.45 18.74 15.70 13.20 11.23 11.81 13.89 14.11 13.00 10.10 6.45 3.50 1.19 -0.40 2.29 -8.49 -7.77 -8.13 -4.69 -7.95 -12.48 -9.77 -7.26 -10.85 -12.66 -7.63 -2.48 -10.85 -14.48 -12.66 -10.67 -13.39 -18.46 -13.75 -11.18 -6.86 -12.32 -10.12 -13.45 -12.80 -13.29 -14.69 -16.83
19.85 21.37 20.58 20.79 17.91 18.87 22.18 24.51 25.25 25.57 23.33 15.08 14.77 12.50 10.31 7.08 7.27 9.34 6.98 4.03 3.83 0.43 -3.61 -7.59 -7.59 -15.20 -10.67 -11.21 -12.66 -11.94 -8.68 -10.52 -13.57 -9.76 -9.76 -11.94 -8.49 -12.66 -13.75 -12.66 -15.38 -19.73 -21.55 -21.55 -22.45 -22.09 -21.00 -19.91 -21.73 -22.45 -20.46 -17.56 -17.01 -18.10
21.69 19.18 18.05 16.62 15.80 14.55 10.00 14.45 11.95 14.77 16.44 19.14 12.64 9.53 2.06 0.70 -4.87 2.25 1.93 0.43 -2.50 -6.14 -9.94 -16.65 -11.39 -7.22 -9.94 -11.39 -14.48 -14.29 -7.84 -11.21 -12.30 -11.58 -12.12 -11.58 -10.85 -10.12 -12.30 -14.48 -20.82 -22.09 -21.18 -21.37 -22.27 -21.73 -22.45 -21.91 -23.18 -23.18 -23.54 -21.55 -21.73 -21.37
11.98 6.00 7.79 3.28 7.64 7.43 6.12 -0.57 -2.60 3.47 10.89 8.57 0.16 -1.12 -2.20 -1.06 -2.06 1.10 2.41 -3.60 -3.78 -6.94 -9.07 -10.67 -12.12 -15.20 -12.84 -11.21 -11.43 -13.21 -12.48 -14.84 -13.21 -4.87 -3.42 -4.14 -9.04 -8.49 -14.66 -19.37 -21.73 -22.27 -19.91 -21.73 -23.18 -24.99 -21.91 -20.82 -21.73 -22.45 -22.82 -23.54 -22.09 -21.37

GFSWCAN_sfc_wetblb_033.txt.gz
Wetbulb
48.89 48.39 48.05 47.90 47.76 47.97 49.04 49.50 49.19 49.03 49.14 49.20 49.29 49.64 49.85 50.56 51.65 54.46 51.75 52.59 49.80 44.66 47.23 49.24 48.95 44.13 44.06 43.97 40.82 43.03 42.21 41.42 37.00 35.08 35.07 32.62 32.76 33.63 33.47 34.49 33.68 33.46 31.56 30.15 25.64 26.64 28.17 38.74 41.01 37.70 41.79 41.11 41.88 42.42
47.78 47.52 47.47 47.96 48.77 49.05 49.18 49.13 48.63 47.90 48.12 48.63 49.13 49.89 49.98 50.79 51.45 53.28 51.85 53.65 51.25 48.38 47.55 50.01 50.24 50.47 50.56 48.04 44.60 42.77 44.29 41.86 41.84 36.62 33.15 31.87 32.38 32.32 31.26 32.16 36.06 32.81 36.22 33.93 33.62 34.94 40.16 40.38 42.42 42.91 42.11 41.92 43.28 42.84
47.40 47.42 48.08 48.54 48.60 48.75 48.56 47.72 47.18 47.67 48.45 48.93 49.43 50.45 50.78 51.31 51.55 53.04 52.99 50.68 48.76 45.22 46.59 47.67 47.29 50.40 50.72 50.10 50.79 43.99 41.20 44.79 41.58 41.09 36.24 34.24 33.06 34.19 32.44 32.98 34.64 37.00 37.92 35.69 35.53 39.22 38.35 40.53 42.05 42.00 43.29 43.64 44.73 44.71
47.74 48.37 48.57 48.39 48.28 47.18 46.64 47.69 48.50 47.94 48.46 48.96 49.57 50.19 50.60 50.75 51.34 52.34 50.45 49.38 46.51 43.06 36.58 43.98 48.86 47.39 49.82 51.79 51.99 49.20 45.59 43.32 41.84 40.23 35.10 33.99 34.56 35.73 32.76 35.65 35.48 37.90 37.69 36.44 35.86 38.96 39.53 41.06 42.00 44.27 43.77 44.18 43.94 44.47
47.94 47.96 47.97 47.72 46.59 46.48 46.82 47.15 47.76 47.63 48.57 50.05 49.49 49.68 50.23 50.87 51.13 51.85 50.34 49.06 47.70 45.57 38.10 40.00 45.97 46.77 48.23 49.80 47.91 47.51 46.23 44.50 41.73 37.94 34.57 35.89 34.03 35.73 34.92 34.37 34.25 38.53 38.35 36.25 35.71 40.45 40.84 41.49 43.31 44.48 43.42 43.44 43.86 43.18
47.79 47.47 46.59 46.30 46.46 46.66 46.66 46.82 47.43 47.27 47.81 48.26 49.47 50.37 50.00 50.03 49.66 48.63 46.52 48.89 47.86 46.52 42.43 36.69 42.62 42.91 45.08 46.81 46.20 45.92 46.42 43.82 42.84 40.63 34.76 37.47 40.05 37.60 33.84 34.21 39.16 41.03 41.76 41.15 40.97 42.76 42.61 43.27 43.47 44.13 43.74 43.17 40.88 38.41
47.42 46.95 46.62 46.62 46.48 46.82 46.96 47.62 47.74 47.36 48.02 48.57 49.08 49.60 49.90 49.38 49.61 43.55 41.92 46.26 46.37 45.21 39.67 35.62 36.37 40.83 42.23 43.95 42.62 43.03 44.44 42.67 43.04 39.43 35.94 37.14 38.78 38.77 34.29 34.63 38.46 40.50 42.14 42.79 43.72 43.09 42.19 42.56 42.14 42.32 38.21 36.23 35.99 35.18
46.84 46.62 46.26 46.30 46.46 46.62 46.86 47.47 48.19 47.72 47.86 48.04 48.23 48.23 48.32 48.39 48.00 47.41 47.22 46.43 46.54 41.37 39.21 33.84 33.54 36.34 42.01 38.50 37.32 41.44 39.26 41.92 41.15 39.30 38.13 35.94 37.82 36.33 34.28 35.02 35.65 37.81 39.38 41.90 41.50 42.89 41.82 38.61 36.20 35.17 35.75 35.63 34.34 33.91
46.33 46.15 46.15 46.13 46.15 46.30 46.49 47.29 47.77 47.36 47.47 47.45 47.68 47.75 48.13 46.37 44.20 45.96 46.43 46.22 45.76 43.29 34.52 31.11 32.49 33.03 41.70 37.67 36.76 38.09 39.40 36.21 39.00 35.31 36.84 38.40 34.19 31.52 29.50 30.59 32.48 33.97 35.67 37.74 36.32 35.13 34.84 34.58 34.64 34.97 34.53 33.62 31.72 31.30
45.95 45.81 45.82 45.81 45.97 46.15 46.55 47.07 46.98 47.27 47.27 47.21 46.84 43.47 38.28 43.41 46.13 45.97 43.42 39.96 38.68 37.41 39.49 32.77 36.03 34.40 40.03 35.67 34.40 34.72 35.31 34.37 35.04 34.77 38.09 34.02 32.48 30.81 33.47 34.74 35.47 35.68 35.78 38.48 36.94 32.48 34.21 33.12 32.77 32.98 33.45 33.49 33.24 33.33
46.06 46.13 46.33 46.33 46.33 46.30 46.08 46.05 46.16 47.38 47.68 44.12 41.04 38.90 44.12 45.00 43.63 37.85 34.79 34.73 35.32 32.70 36.70 35.53 36.38 35.17 38.76 35.53 33.66 33.84 33.46 33.63 32.25 33.12 34.41 31.00 29.90 29.29 34.34 35.53 36.47 36.70 36.69 36.33 36.21 35.34 35.15 34.30 34.02 33.13 33.42 33.49 34.55 34.99
45.37 45.49 45.81 45.70 45.60 45.80 46.10 46.34 46.34 44.67 42.73 43.75 43.45 43.33 41.50 39.08 35.66 34.79 32.77 33.80 32.53 31.82 34.14 34.55 34.91 38.02 35.82 37.13 34.90 34.37 31.31 31.52 28.33 33.50 32.35 28.22 27.21 33.11 35.10 35.53 36.71 37.05 36.49 36.50 36.88 36.03 35.93 35.56 35.97 35.83 35.71 34.86 33.45 32.13
44.23 44.46 44.67 44.81 45.55 45.72 45.36 45.26 45.16 44.91 44.11 42.51 39.06 35.88 37.13 33.58 31.78 27.09 30.13 31.25 32.20 32.95 33.78 33.64 33.30 34.20 35.80 36.71 33.48 33.84 31.82 30.98 34.03 31.20 29.55 29.48 31.33 35.45 34.92 35.40 35.41 35.99 35.69 35.54 35.62 35.79 35.68 35.40 34.24 32.44 30.89 31.16 30.09 31.01
43.56 43.83 43.98 44.28 44.44 45.13 44.99 44.51 44.43 43.76 40.87 34.36 32.45 28.87 27.78 31.10 30.84 31.01 32.14 32.39 31.83 32.59 32.77 33.49 32.59 33.68 32.95 32.95 32.23 32.21 31.46 32.32 29.29 27.14 25.10 30.63 33.54 30.93 31.70 31.55 31.15 29.92 27.82 30.13 30.66 30.99 30.06 29.51 29.49 28.79 28.11 28.18 27.81 29.61
43.65 43.28 43.20 43.25 44.00 43.76 43.77 43.66 43.36 41.96 37.36 32.95 32.39 27.44 27.53 29.96 31.55 31.59 31.98 32.36 32.33 33.60 33.13 33.30 33.31 34.26 32.18 31.34 30.65 30.36 27.36 24.26 25.12 24.15 28.91 30.77 31.15 31.06 33.07 32.34 30.97 30.40 27.31 29.92 31.16 30.04 26.97 26.49 27.39 28.78 29.70 29.86 29.07 26.29
43.09 42.34 40.95 42.95 43.15 42.77 42.29 41.48 40.19 39.13 34.59 33.09 31.12 29.12 31.03 30.80 31.30 32.04 32.04 31.85 34.29 32.72 33.10 33.42 31.62 30.35 28.26 29.29 25.47 24.98 25.11 21.79 25.97 30.76 31.84 31.77 31.11 33.34 33.90 34.51 32.41 32.52 31.14 30.74 30.68 30.46 29.61 27.38 26.78 29.11 28.89 28.77 26.98 26.88
41.95 38.26 41.01 42.85 42.42 41.03 40.98 37.52 35.77 33.09 32.25 31.55 30.10 32.39 32.01 32.21 31.27 31.86 32.21 31.83 34.58 33.10 30.94 29.49 25.80 25.24 28.00 25.27 24.94 27.60 24.38 27.95 31.82 32.50 33.36 33.84 33.60 33.54 34.14 34.20 30.74 30.76 30.87 30.45 30.40 29.79 28.81 28.70 27.49 26.91 25.28 26.49 26.43 27.09
36.97 37.66 41.46 41.92 40.18 38.20 35.22 33.32 31.68 31.39 29.36 30.00 29.47 29.77 31.19 31.80 31.83 32.03 32.00 32.23 33.07 32.30 30.36 28.81 30.63 25.40 23.51 21.20 24.28 28.11 30.05 31.55 32.98 33.10 32.82 32.38 32.58 32.75 32.07 31.07 30.48 30.41 29.43 28.21 27.39 27.24 26.62 25.60 24.00 23.48 23.54 23.31 23.83 24.51
38.02 38.93 40.44 40.49 38.06 33.00 31.66 30.93 31.23 28.05 29.21 30.06 30.22 30.21 30.43 30.64 31.08 31.70 32.36 32.14 30.47 29.32 28.96 25.77 22.62 23.89 25.31 26.06 27.18 30.84 31.30 30.23 31.11 29.94 29.18 29.58 29.98 29.66 29.13 28.82 28.09 27.01 26.43 25.22 24.80 24.00 24.13 23.56 22.19 21.64 20.83 20.18 19.94 21.61
39.04 39.68 39.07 38.51 38.24 30.76 28.40 27.26 31.73 30.48 28.48 29.64 29.99 28.58 29.04 29.08 30.03 31.40 31.84 31.44 28.32 26.45 25.28 23.42 24.55 25.48 25.87 27.05 28.34 31.47 30.80 29.49 29.16 26.55 25.46 26.68 26.58 25.87 25.13 25.02 24.60 24.03 23.01 22.74 21.42 19.10 19.44 19.25 19.37 18.39 17.19 16.06 15.77 15.61
35.56 35.83 36.51 33.81 29.80 30.45 28.29 29.05 29.71 30.21 30.15 28.61 29.53 29.14 27.39 29.33 28.51 28.81 28.83 29.69 24.06 23.62 24.46 27.06 26.69 27.29 28.04 27.89 28.21 28.50 27.98 29.29 26.69 27.25 26.29 23.73 24.35 23.61 22.19 22.19 21.83 20.08 18.01 16.93 16.59 15.48 14.78 15.04 15.13 14.86 13.24 12.49 13.50 14.18
33.82 36.53 29.12 29.67 26.36 26.27 27.74 30.87 29.95 30.34 29.35 28.87 28.30 28.84 26.28 25.75 26.12 27.26 28.85 24.54 24.06 26.30 28.04 29.26 30.36 29.40 27.57 26.38 25.76 26.28 25.95 25.79 25.62 24.48 23.65 23.11 21.86 20.90 17.88 16.92 16.24 14.70 14.45 13.23 13.61 12.55 12.20 12.96 11.82 11.00 9.90 10.07 10.61 11.77
33.93 30.95 27.00 26.13 23.91 22.89 24.54 30.50 22.34 28.48 25.67 26.08 27.46 23.76 24.87 25.46 26.93 27.61 25.40 26.67 27.39 28.55 29.22 28.73 27.59 27.63 25.50 25.33 24.74 23.83 24.01 23.17 21.71 21.23 20.50 20.12 20.47 19.12 16.25 14.64 13.10 11.04 10.68 10.94 11.15 10.22 8.65 5.88 7.97 6.75 7.74 7.57 8.11 7.80
31.39 25.59 21.95 23.04 20.11 22.03 19.15 21.11 24.62 21.99 26.45 25.01 22.85 19.11 22.98 24.34 25.18 22.43 21.36 24.93 26.83 28.00 28.26 27.34 26.54 23.90 23.23 21.77 19.96 20.55 21.68 21.29 18.98 17.79 19.24 18.47 16.40 15.60 15.87 14.12 12.12 10.45 9.57 9.03 7.52 5.41 4.87 3.82 1.72 4.63 4.10 3.53 4.08 4.53
18.50 21.72 18.12 20.72 22.18 12.91 14.27 14.10 15.93 22.12 11.37 17.24 15.96 14.04 17.11 19.10 17.27 18.31 16.35 22.04 22.12 21.98 23.32 26.37 26.51 25.28 20.99 19.14 19.07 18.36 18.88 21.23 18.34 15.09 14.55 14.48 13.12 12.77 11.84 11.17 10.49 9.68 8.97 5.87 3.77 2.86 1.72 2.11 2.06 2.28 2.57 2.03 2.26 3.29
17.25 20.67 15.65 16.77 19.32 14.67 13.65 8.79 14.40 10.78 10.90 13.82 17.09 19.13 17.37 18.69 16.92 15.50 17.95 19.43 21.04 21.25 21.51 22.76 21.84 19.59 18.36 19.79 17.41 15.99 15.03 16.68 17.58 13.65 12.31 12.43 10.52 8.55 6.02 4.67 4.63 6.07 7.98 4.55 1.92 0.63 0.96 0.92 0.63 0.02 0.50 2.21 1.47 2.68
15.14 15.79 19.89 26.11 25.23 24.24 14.15 16.38 20.75 16.65 12.37 13.83 18.16 17.68 18.78 16.75 12.90 16.43 20.62 19.49 20.07 19.35 19.69 19.17 22.35 19.77 16.46 14.34 13.79 13.53 14.30 14.40 14.83 13.42 12.86 11.58 10.18 9.13 6.10 3.74 2.55 5.51 6.59 4.29 0.58 -1.31 -2.22 -2.22 -2.05 -0.45 0.75 3.16 4.39 3.83
23.06 17.51 14.27 14.50 14.22 20.14 15.33 12.51 15.05 16.85 18.67 23.38 21.18 15.63 16.80 14.98 13.72 15.26 17.24 19.08 18.54 17.67 15.97 14.89 14.76 14.22 12.59 11.19 10.80 11.72 10.96 10.70 9.69 8.85 8.85 8.39 7.21 6.03 3.96 3.68 2.54 3.94 -0.50 -1.71 -1.72 -2.05 -1.09 -1.33 -0.67 1.29 2.15 1.53 1.09 2.37
16.25 17.42 15.24 9.67 12.05 14.10 13.51 13.48 14.38 21.20 24.34 23.92 19.79 15.57 12.39 12.38 11.82 12.41 14.93 16.31 16.74 15.91 12.93 11.51 10.12 10.45 8.87 6.98 4.18 2.92 3.22 5.69 5.00 -0.26 -1.29 0.14 -0.05 3.72 4.15 1.49 -0.17 -0.77 -2.26 -3.34 -2.78 1.52 3.56 4.59 3.82 1.35 -2.27 -2.90 -2.78 -2.66
17.33 19.23 15.03 10.56 11.28 16.55 18.63 19.60 17.69 19.48 20.17 19.03 17.57 15.05 12.45 10.87 10.94 12.63 13.21 11.99 9.71 6.00 4.03 3.85 3.19 5.68 -0.11 1.35 0.49 1.75 0.05 -1.71 0.44 1.50 0.10 -1.04 0.15 1.84 0.51 -0.96 -1.86 -1.59 -4.76 -5.86 -5.69 -4.97 -3.71 -4.55 -2.86 -4.73 -6.25 -6.06 -6.37 -6.37
18.30 21.07 20.58 19.79 17.10 15.94 15.53 14.27 25.08 25.57 19.77 14.71 12.68 10.58 8.59 7.94 8.48 8.39 6.68 4.83 4.33 2.57 2.74 -0.60 -1.01 -7.11 -1.19 -2.76 -1.49 -2.13 -0.78 -0.57 -7.48 -3.31 -2.41 -2.61 -2.94 -1.52 -0.68 -1.53 -2.94 -5.84 -7.66 -7.66 -7.56 -7.79 -8.20 -7.02 -8.45 -9.20 -8.09 -8.80 -10.22 -10.21
19.08 16.88 16.68 10.30 11.02 9.99 9.41 15.00 8.11 13.67 16.65 15.78 5.79 5.83 1.22 3.10 -1.33 4.91 4.23 3.08 1.04 0.22 -7.66 -9.65 -3.85 -0.26 -4.03 -4.39 -7.48 -5.68 -6.99 -3.68 -2.40 -3.13 -4.03 -3.67 -2.22 -1.33 -1.67 -2.29 -7.11 -8.75 -7.29 -7.11 -8.21 -8.87 -10.21 -9.65 -9.13 -9.70 -10.20 -10.61 -11.38 -11.92
9.05 2.80 9.70 7.18 8.83 6.89 1.93 -0.17 -2.51 0.67 7.13 4.68 1.29 -1.93 -0.72 0.97 -1.27 3.16 3.76 0.26 3.58 -0.12 -4.34 -3.74 -3.75 -5.48 -5.84 -6.57 -4.00 -3.82 -8.26 -5.00 -8.20 -4.76 -2.76 -2.04 -4.76 -3.13 -3.49 -4.94 -7.66 -8.39 -8.02 -7.48 -8.20 -10.22 -9.40 -9.84 -9.20 -10.58 -11.29 -13.28 -13.01 -13.64

GFSWCAN_sfc_wetblb_036.txt.gz
Wetbulb
46.76 46.75 46.61 47.62 48.19 48.58 48.63 48.25 48.06 48.27 48.74 49.32 49.48 49.37 49.89 50.66 51.74 58.58 56.65 57.88 58.14 52.53 51.96 53.05 51.90 50.81 50.22 52.49 49.07 48.39 47.92 47.40 47.08 45.27 45.02 42.65 42.00 40.72 39.93 40.70 39.49 39.38 38.21 37.03 35.33 35.00 33.11 43.79 44.56 40.86 45.78 48.24 47.08 48.08
48.15 47.97 47.83 47.75 47.81 47.61 48.00 48.84 48.98 48.78 48.92 48.92 49.32 49.41 50.03 50.86 51.81 54.85 56.29 57.34 58.25 55.02 52.38 54.68 53.80 54.37 53.34 52.76 52.46 50.59 51.00 49.25 50.75 47.51 44.85 42.69 38.94 37.09 40.31 39.57 41.79 38.64 42.85 42.04 41.07 42.16 44.71 46.23 47.61 48.94 48.63 47.79 48.29 48.49
47.59 47.43 47.75 48.24 48.40 48.17 47.79 47.94 47.99 48.30 48.17 48.78 49.17 49.54 50.38 51.16 51.68 54.83 57.05 56.66 57.24 53.85 52.48 54.15 51.87 54.15 55.84 55.01 55.98 51.12 50.72 51.35 49.46 50.10 47.92 45.69 37.55 43.94 36.96 40.92 41.15 42.97 43.28 42.06 40.41 44.27 45.08 46.45 47.97 48.74 48.93 48.23 48.81 49.34
48.20 48.11 47.94 47.39 47.38 47.34 47.11 47.16 47.29 47.84 48.01 48.44 49.22 49.28 50.11 50.83 51.40 53.77 56.53 54.75 56.37 52.63 42.08 49.71 53.79 51.88 53.85 56.05 55.50 53.94 52.58 50.66 49.40 51.08 47.53 41.45 41.79 43.72 42.48 43.06 43.21 44.09 43.55 42.10 42.01 45.24 45.96 46.53 46.89 47.92 48.56 49.78 49.16 49.74
47.52 46.82 46.62 46.56 46.60 47.43 47.50 47.30 48.13 48.46 48.77 49.32 49.43 49.59 50.51 50.78 51.12 54.52 53.91 53.33 54.27 53.00 43.80 49.18 51.29 51.36 53.03 53.88 52.65 53.09 52.40 51.51 50.83 47.64 41.90 44.77 43.88 43.78 42.56 42.62 42.45 44.12 42.90 42.20 41.58 43.92 44.05 45.72 48.22 48.74 47.87 48.27 48.88 48.20
46.60 46.33 46.33 46.65 46.94 47.12 46.87 47.47 47.94 48.82 48.92 49.45 49.92 50.34 50.36 50.26 50.42 57.81 53.15 52.67 52.22 54.61 51.84 43.81 49.48 48.66 51.16 52.47 51.67 50.82 51.60 51.54 51.69 48.72 41.84 44.64 43.25 45.57 38.79 41.36 42.03 44.23 45.56 46.10 44.55 47.38 47.49 47.95 48.02 47.95 46.46 45.27 45.14 44.40
46.37 46.44 46.56 46.67 47.45 47.56 47.20 47.21 48.53 49.12 48.71 48.99 49.55 49.67 49.49 50.55 54.43 51.81 49.60 50.20 48.23 52.17 49.75 42.01 45.45 47.44 48.26 50.16 47.51 49.89 50.59 49.70 50.42 45.01 40.33 42.37 43.30 46.13 39.18 41.70 39.63 41.65 43.49 45.17 46.35 47.13 45.69 44.07 42.07 42.43 41.60 41.11 40.44 39.53
46.33 46.31 46.38 46.56 46.89 47.41 47.23 47.48 47.93 48.28 48.99 48.77 48.95 48.82 48.67 48.86 50.87 52.44 51.33 47.58 48.74 50.64 50.96 41.97 41.11 46.62 47.64 44.21 42.99 45.38 45.38 49.44 44.84 41.97 42.16 40.90 41.35 42.72 38.73 36.12 38.23 40.60 42.20 43.72 41.63 44.85 42.95 41.58 40.98 39.81 39.56 37.05 34.13 33.70
45.79 46.06 45.95 45.82 46.38 46.80 46.77 46.78 47.21 47.14 47.51 47.82 47.91 48.12 53.51 51.42 52.51 52.04 46.57 46.92 52.19 51.44 45.12 37.55 40.99 38.53 44.93 40.73 41.30 43.80 46.17 39.35 43.27 39.36 40.28 43.65 37.54 34.57 31.41 34.08 36.07 37.54 37.74 38.89 40.07 41.16 39.58 37.78 36.11 35.27 34.68 34.57 33.42 34.04
45.77 45.82 45.84 46.04 46.04 46.41 46.37 46.53 47.03 47.71 47.28 47.68 52.17 49.97 45.70 48.62 46.22 47.75 50.51 49.44 47.78 46.37 43.80 35.92 40.73 37.22 43.48 41.24 38.44 39.94 40.75 38.33 37.11 38.45 40.69 37.37 30.40 33.64 34.95 35.47 36.48 37.59 39.79 39.43 37.16 34.36 34.53 34.14 34.69 35.41 35.76 36.13 36.70 37.10
46.13 45.98 45.97 46.13 46.53 46.85 47.16 47.03 46.55 47.94 50.06 51.31 48.34 44.47 50.12 46.81 50.47 46.35 41.42 41.46 42.67 38.57 40.42 38.96 41.32 38.99 42.20 38.75 36.70 39.15 37.06 37.64 34.98 37.35 38.17 34.90 29.88 31.15 35.65 36.16 37.88 38.27 38.76 38.91 38.99 38.29 38.22 37.34 36.35 35.77 36.15 36.94 37.45 37.42
45.63 45.67 45.58 45.51 45.58 46.32 46.82 46.37 46.87 48.71 47.80 48.22 48.43 47.92 48.04 45.09 43.92 37.21 35.19 37.35 38.14 36.28 37.65 38.23 38.48 40.32 39.35 43.69 38.33 37.87 34.23 35.00 30.93 37.89 35.20 31.10 30.88 34.71 35.82 36.07 37.06 37.70 37.55 37.68 38.67 37.93 37.98 37.83 38.35 37.59 36.39 35.61 34.85 34.20
44.35 44.58 45.09 45.13 44.79 44.94 45.80 45.66 45.02 44.91 45.21 49.66 46.00 40.20 43.53 38.28 35.37 35.92 32.64 34.63 34.23 35.19 35.60 36.04 35.36 39.30 39.59 41.91 36.23 36.52 32.84 33.35 38.29 33.15 31.90 31.43 33.58 34.26 35.94 36.49 36.47 37.66 37.41 37.13 36.77 37.05 36.57 35.74 34.94 34.16 33.33 33.89 34.38 34.36
43.48 43.63 43.75 44.17 44.49 44.08 44.04 44.49 44.89 45.74 46.04 38.78 37.17 33.92 34.65 34.11 34.47 34.29 35.56 35.56 33.38 34.29 35.37 38.09 35.74 37.19 36.82 36.10 34.29 33.74 32.84 34.65 31.18 29.43 29.48 31.53 34.57 34.32 35.88 36.59 35.97 34.04 32.27 34.12 34.43 34.50 33.02 32.86 32.64 33.20 32.55 32.45 32.48 32.15
42.89 42.72 42.72 43.02 43.60 43.69 43.48 43.34 43.89 44.79 41.25 35.78 37.59 30.83 31.18 31.92 32.84 32.47 32.84 33.74 34.27 35.07 36.10 36.28 35.74 38.26 33.92 32.84 33.56 33.53 30.84 29.97 31.33 30.60 32.01 33.72 34.17 35.04 34.52 34.01 34.29 33.35 32.39 34.33 34.90 32.90 32.16 31.94 32.70 32.78 32.79 31.74 30.68 29.75
42.99 42.77 40.77 42.76 42.49 42.68 42.49 42.35 42.82 41.58 37.52 35.10 34.20 31.57 32.84 32.47 31.75 32.29 32.47 32.11 35.04 34.83 35.37 36.05 33.92 34.11 31.75 33.65 31.57 30.83 30.99 28.88 30.14 32.32 33.33 32.39 34.74 34.87 33.89 35.13 35.75 34.33 34.07 34.22 34.18 33.43 32.20 30.95 30.65 31.09 30.72 28.51 27.93 28.05
41.86 39.61 40.74 42.23 42.03 41.39 41.73 41.34 38.36 34.25 34.23 33.00 32.26 33.74 33.56 33.02 32.11 32.11 33.02 32.84 34.76 34.11 32.66 35.36 31.93 29.89 33.05 31.02 29.41 32.97 31.30 33.15 33.75 33.20 33.50 35.81 35.46 35.35 34.06 35.45 33.50 33.74 33.96 33.77 32.48 30.43 29.35 28.93 28.46 27.31 25.91 26.39 26.60 26.99
38.94 40.75 40.71 41.33 41.84 41.13 38.77 38.58 36.53 34.49 30.40 32.28 31.83 31.55 32.64 32.66 32.84 32.84 33.92 35.18 37.67 36.05 35.98 32.85 34.72 31.10 30.80 28.62 30.51 32.00 31.65 34.19 34.77 33.91 35.36 36.44 36.76 35.38 36.25 34.78 34.63 33.52 31.08 28.90 28.56 28.43 27.27 26.57 26.25 25.85 24.90 24.31 24.88 25.25
39.57 39.82 39.77 39.90 40.48 39.64 35.79 34.88 36.65 30.54 30.90 32.77 32.79 33.21 33.52 33.74 34.36 34.45 34.12 34.35 34.49 36.41 36.13 34.33 32.36 31.28 31.96 34.02 32.29 32.17 34.18 34.34 32.41 30.59 30.83 32.98 33.67 33.65 33.20 32.13 31.35 29.98 28.22 26.99 26.81 26.36 26.09 24.29 23.81 23.61 22.88 22.17 21.48 22.61
39.00 39.68 38.74 38.25 41.09 37.76 32.68 33.33 38.02 32.91 30.02 31.05 32.37 30.55 31.41 31.89 32.97 33.15 33.38 35.29 34.81 35.45 32.74 31.43 30.14 30.49 32.13 31.89 32.74 34.68 36.07 37.46 34.54 30.25 28.51 30.25 31.42 30.74 30.19 29.54 28.20 27.51 26.69 25.36 23.66 22.36 23.73 23.65 22.61 21.35 20.10 19.02 19.04 18.54
39.79 39.03 38.06 39.88 37.73 36.37 33.22 32.73 31.77 32.40 31.80 29.82 31.11 30.55 30.06 32.26 31.55 31.92 31.87 35.02 33.89 28.33 28.63 29.97 29.06 29.29 30.81 32.09 33.81 35.12 34.67 35.59 33.43 33.79 30.57 28.13 28.62 27.99 26.51 25.99 25.20 24.56 23.92 23.15 22.43 20.66 19.54 19.42 19.01 18.43 17.82 17.97 17.24 18.27
37.50 37.30 37.66 37.07 34.73 34.06 33.63 33.84 33.08 33.68 32.02 31.26 30.39 30.87 28.95 28.59 29.24 29.46 31.16 31.70 28.79 28.77 29.83 31.00 31.03 30.37 29.05 27.74 29.11 30.80 30.78 30.47 29.78 28.44 27.53 27.28 25.31 24.42 23.42 23.33 23.58 21.69 20.12 18.95 18.87 17.74 17.56 16.87 15.54 15.53 15.86 15.42 15.85 17.06
36.19 36.66 34.68 33.71 30.64 30.80 28.42 33.99 31.35 30.56 27.84 28.92 30.68 27.14 27.29 28.77 29.40 31.85 28.46 28.98 28.83 29.98 30.60 28.89 29.06 29.57 27.60 27.60 27.09 26.95 28.27 27.92 26.11 25.34 25.43 24.81 23.43 23.02 21.38 19.55 19.11 18.48 18.05 16.84 17.04 16.41 15.02 11.19 13.62 12.64 14.13 14.30 14.99 14.93
34.25 29.28 27.58 26.89 28.10 24.80 27.88 26.87 29.66 28.80 30.24 28.13 27.14 24.43 26.15 28.02 29.82 27.78 24.87 27.04 27.62 29.38 29.35 28.33 27.82 25.71 25.58 24.84 23.81 23.80 24.19 24.98 23.53 23.26 23.97 23.14 21.31 19.53 19.78 18.11 16.67 15.47 14.69 15.03 14.56 13.67 13.14 12.51 10.10 12.45 11.93 11.85 11.98 11.63
26.85 23.74 26.04 22.86 25.86 24.37 22.52 22.63 24.15 26.13 23.51 24.73 23.89 24.46 25.21 28.22 23.77 21.61 21.62 23.13 24.36 24.87 26.47 28.59 28.23 26.65 23.48 22.68 22.38 21.70 22.79 24.47 22.02 19.10 19.25 20.45 19.35 18.35 16.79 15.93 15.00 14.05 14.32 13.35 11.80 10.83 10.96 10.39 10.37 9.84 9.61 10.31 9.06 8.79
20.35 24.04 23.57 22.20 23.51 23.40 22.25 21.86 22.11 22.25 23.04 22.98 23.99 25.06 27.09 25.73 20.14 17.64 19.34 21.80 23.14 22.66 22.55 24.33 24.42 21.87 20.20 21.65 20.47 19.24 18.31 20.89 21.09 17.91 16.43 16.95 16.29 15.93 14.48 13.79 14.19 13.61 13.14 11.99 10.09 8.37 8.46 8.46 7.91 6.88 8.05 9.00 8.07 8.47
20.63 22.09 25.25 27.82 26.55 26.36 25.58 25.20 25.66 24.73 22.10 22.11 24.88 24.28 24.51 18.72 16.39 18.41 22.13 21.02 21.91 20.92 20.72 21.46 22.81 21.17 18.69 17.25 17.31 17.45 18.20 18.64 18.26 16.63 15.86 15.00 14.58 14.34 13.39 11.27 9.25 10.60 11.44 9.80 8.28 7.73 6.54 6.26 6.37 6.72 7.30 9.31 9.57 8.35
24.47 25.50 21.72 24.09 25.84 27.13 23.37 23.87 23.25 22.69 24.34 26.34 26.38 20.43 19.14 18.44 16.98 18.68 19.38 20.93 21.03 20.30 18.78 17.50 17.47 17.34 16.14 15.31 16.80 16.80 15.76 15.14 14.52 14.85 14.79 14.12 13.92 13.09 11.21 12.03 11.07 7.43 7.84 7.65 6.47 6.72 6.64 6.43 6.66 7.07 7.35 6.78 6.21 6.86
25.11 26.94 25.90 19.23 22.88 24.36 23.74 23.38 23.73 25.68 25.98 26.19 24.09 19.75 15.77 15.62 16.18 17.30 18.05 19.29 21.08 20.64 17.83 16.20 15.02 15.96 14.37 13.10 12.71 13.56 14.76 15.25 12.71 8.88 7.20 10.93 11.39 11.97 11.94 10.81 10.48 9.94 9.15 7.78 6.21 6.13 6.67 7.33 7.18 5.79 4.55 4.38 4.66 4.94
24.13 26.87 24.44 20.44 20.32 21.09 24.39 26.19 26.32 26.51 24.23 22.58 20.66 17.55 15.51 14.34 14.27 16.69 17.60 17.37 15.89 13.91 12.85 12.60 13.28 15.36 12.88 14.37 12.10 11.13 11.02 10.91 9.98 9.48 8.56 7.72 8.33 9.62 9.25 9.14 8.67 8.76 7.51 6.41 5.51 5.41 5.13 4.85 4.96 5.26 3.42 3.29 3.70 2.20
26.93 27.63 24.04 23.66 22.38 24.67 23.65 23.04 27.14 26.20 23.71 20.10 18.59 17.00 13.51 13.25 14.19 13.77 12.75 12.66 12.98 13.60 13.95 12.37 10.73 11.13 11.61 10.42 11.00 10.49 9.56 9.92 5.71 6.04 6.46 7.42 8.20 8.53 9.03 8.23 8.58 7.33 6.22 4.74 4.00 3.62 2.26 2.41 3.54 1.87 1.77 0.06 -1.16 -1.43
23.17 19.78 20.62 19.24 21.75 21.26 21.17 21.77 21.42 22.89 22.17 18.96 13.93 13.61 12.33 13.03 9.19 11.68 10.70 13.06 13.28 11.27 3.70 9.09 11.09 10.41 9.26 10.18 8.17 9.12 0.43 7.55 7.86 6.47 5.81 6.63 7.97 8.57 8.25 7.74 6.77 5.48 4.46 3.49 3.22 2.23 1.17 0.35 0.76 0.35 -0.14 -0.95 -2.32 -3.55
20.66 20.46 19.17 19.48 19.72 19.70 16.87 16.02 14.60 15.99 16.59 14.38 11.49 11.24 10.53 11.09 6.09 10.09 11.30 10.70 10.55 10.13 9.54 9.50 10.12 10.02 7.23 4.78 7.40 8.68 3.24 7.80 4.16 3.44 1.43 2.10 1.44 3.06 4.50 6.62 5.91 4.65 2.63 2.60 2.70 1.70 -0.03 -0.79 -0.63 -1.34 -1.92 -3.93 -4.35 -4.74

GFSWCAN_sfc_wetblb_039.txt.gz
Wetbulb
45.16 45.38 45.70 45.84 46.05 46.22 46.22 46.15 46.76 48.28 48.62 48.89 48.88 48.85 48.97 49.29 50.13 52.27 58.89 61.87 59.73 54.91 54.52 55.69 54.74 52.89 54.30 54.03 50.48 51.91 50.38 50.57 50.40 45.90 47.18 46.24 44.34 44.82 43.51 44.71 42.35 40.91 40.70 38.22 41.17 35.97 33.40 46.77 46.53 41.71 47.70 49.22 49.52 49.71
45.49 45.66 45.99 46.12 46.10 45.90 46.13 47.92 48.57 48.55 48.32 48.26 48.54 48.59 49.00 49.40 50.65 51.96 57.89 60.95 62.29 57.39 54.61 57.94 56.86 57.22 56.42 56.82 55.76 53.54 53.02 52.20 52.85 50.08 49.54 49.68 41.77 40.28 44.96 40.39 46.39 41.33 45.69 44.58 43.66 43.79 47.69 48.38 47.61 49.63 50.17 48.97 49.32 49.68
46.28 46.24 45.97 46.02 46.01 46.77 48.01 48.05 48.07 48.00 47.79 47.97 48.38 48.86 49.18 50.05 51.32 53.37 59.97 61.73 60.21 56.03 54.35 55.27 53.93 56.48 58.17 58.57 59.67 53.79 55.71 55.75 54.43 56.75 52.41 50.93 41.09 48.53 39.30 44.31 45.09 46.45 47.15 44.50 42.89 45.82 46.51 47.88 49.27 49.87 50.63 50.14 50.96 51.22
46.83 46.95 47.09 47.36 47.51 47.55 47.56 47.76 47.78 48.21 48.43 48.68 48.63 49.04 49.54 50.47 50.96 52.98 58.97 61.29 59.94 56.03 45.79 51.09 56.85 54.20 57.05 58.57 57.96 58.10 56.93 56.32 55.85 56.00 52.76 43.91 43.31 49.34 46.89 47.13 45.94 47.02 46.65 44.46 44.42 46.75 47.70 48.32 49.36 50.30 50.21 51.06 51.12 51.79
46.88 46.91 47.02 47.06 47.18 47.17 47.36 47.27 47.33 47.83 47.99 48.71 49.15 49.27 50.00 50.93 52.27 56.66 59.38 58.17 59.55 56.39 47.66 50.01 54.59 54.73 56.50 56.79 56.18 56.66 56.08 54.59 53.37 50.80 44.54 47.68 49.23 48.10 47.97 47.33 45.88 47.52 45.86 44.48 43.96 46.51 46.54 47.69 49.88 49.79 49.48 48.66 48.95 49.19
46.53 46.53 46.71 46.77 47.06 47.38 47.60 47.42 47.51 47.62 47.78 48.30 49.22 49.61 50.07 50.85 52.19 56.50 55.07 56.25 57.59 60.42 53.29 47.06 53.30 52.34 54.91 55.88 55.21 55.02 55.95 55.53 55.93 50.94 48.53 49.90 47.89 50.25 42.12 43.94 45.82 46.34 46.81 47.04 46.46 48.78 48.94 48.76 46.68 46.76 44.71 44.42 44.82 44.16
46.81 47.24 47.26 47.33 47.92 48.77 48.47 47.76 47.76 48.05 48.32 48.37 49.10 49.73 50.01 50.38 56.77 54.29 51.22 53.35 52.13 58.98 52.59 46.08 46.68 51.39 52.61 53.94 52.55 54.24 55.50 53.70 54.80 50.95 45.03 49.48 48.48 49.79 41.67 43.26 43.17 43.72 45.44 46.98 47.15 48.34 45.95 44.52 42.65 44.34 42.85 40.79 40.03 38.70
46.52 46.88 46.74 47.22 47.40 48.26 48.57 48.37 48.55 48.58 48.59 48.91 49.21 48.36 48.87 49.36 50.30 53.32 51.23 47.52 52.44 54.10 54.67 43.88 42.57 48.11 52.01 48.85 46.07 51.23 51.29 53.36 48.57 45.21 46.26 44.19 46.05 46.05 43.05 40.89 42.29 43.27 45.68 43.53 44.74 46.02 44.52 44.04 42.79 40.40 40.59 39.61 36.77 35.46
46.21 46.05 45.83 46.45 46.70 46.61 47.09 48.21 48.57 48.17 48.72 48.77 48.87 48.88 55.26 55.55 55.02 52.92 46.35 49.43 55.68 53.46 47.78 38.01 40.19 37.82 49.06 45.45 47.15 47.55 51.20 42.08 47.64 41.98 43.70 44.88 40.63 38.85 37.78 38.82 40.12 40.73 40.54 41.00 41.88 41.52 40.30 38.85 39.02 38.84 37.98 38.05 36.72 36.16
46.34 46.37 46.18 46.34 46.45 46.49 46.33 47.43 47.27 47.49 48.04 48.20 54.69 53.97 50.73 51.20 47.12 48.42 51.74 52.09 52.20 49.74 47.30 39.28 45.40 41.73 47.17 44.79 41.49 42.55 42.42 41.32 38.75 41.39 44.81 40.50 36.25 38.13 37.78 38.39 39.43 39.78 41.90 41.14 37.97 36.81 36.83 36.99 37.25 38.05 38.35 38.71 38.74 38.87
45.75 45.43 45.55 46.21 45.97 46.33 46.49 47.02 47.59 48.25 48.60 55.37 51.82 47.71 51.55 47.76 53.16 49.63 44.08 45.17 46.67 41.27 42.27 41.89 44.90 41.72 45.98 40.58 37.60 42.27 38.72 41.29 36.09 39.14 39.79 36.28 34.25 35.06 37.00 38.23 39.79 41.13 42.49 42.05 41.95 40.98 40.40 39.40 37.87 37.36 37.63 37.82 37.81 36.72
45.31 44.93 44.70 44.88 45.50 45.99 46.01 46.74 48.04 50.43 49.31 49.17 51.19 51.40 52.32 49.66 46.77 39.00 36.92 39.21 40.35 37.30 39.35 39.02 40.03 42.10 42.06 46.93 41.22 41.42 35.89 37.62 33.57 41.51 37.71 34.31 33.45 35.37 36.54 37.37 38.35 39.89 40.69 40.26 40.74 39.61 39.39 38.71 38.63 37.57 36.47 35.93 35.31 35.69
44.41 44.56 44.44 44.20 44.16 45.01 45.44 45.43 45.10 44.94 47.24 53.33 49.22 41.79 45.70 39.48 36.56 35.11 32.56 35.00 34.83 37.27 37.34 38.84 36.50 41.21 41.76 43.89 38.89 38.41 34.93 35.50 40.47 34.82 33.43 33.56 34.44 35.80 36.82 38.14 38.67 39.80 39.28 38.67 37.82 37.92 37.28 36.04 35.87 35.78 34.51 34.72 36.51 35.63
43.13 43.54 43.81 43.99 43.97 43.80 44.30 45.10 46.56 48.49 50.01 44.41 39.38 34.20 35.11 35.11 34.57 34.39 36.02 36.20 34.39 35.65 38.01 40.15 37.29 39.77 39.44 36.92 37.10 33.66 34.20 36.45 31.97 30.48 31.47 33.39 34.21 36.01 37.75 38.38 38.13 35.77 34.89 35.89 35.85 35.73 34.63 34.78 34.13 33.98 33.37 32.98 32.41 31.64
42.62 42.51 43.11 42.88 43.36 43.47 43.66 44.46 45.59 46.79 41.75 36.08 38.95 32.39 32.03 32.93 33.30 33.12 33.66 35.11 35.03 36.98 39.97 38.67 39.02 40.88 36.02 34.57 36.25 34.02 31.48 31.01 33.52 32.88 34.06 34.15 36.30 37.41 36.92 37.22 35.63 33.97 33.78 35.36 36.06 33.86 33.48 35.35 34.31 33.75 32.70 31.38 30.53 29.02
43.28 42.42 40.98 42.76 42.18 43.07 43.55 45.22 46.18 44.82 40.64 36.33 34.59 32.21 32.93 32.93 32.03 32.57 32.93 32.57 35.78 36.91 40.02 41.94 37.24 36.38 33.66 34.90 32.36 33.61 33.43 31.95 32.29 34.40 34.97 35.23 35.95 36.36 36.33 36.85 36.85 36.76 36.37 36.39 35.91 34.52 32.49 31.25 32.55 31.89 30.70 28.90 29.09 28.44
43.47 41.35 40.67 41.94 42.45 42.85 43.38 42.77 39.17 35.58 35.80 35.36 32.57 33.66 34.20 32.93 31.85 32.03 33.12 32.74 35.88 35.65 33.48 36.57 34.57 31.97 35.03 32.91 31.57 35.13 32.57 34.10 33.34 33.94 34.93 35.95 34.96 36.16 36.80 36.05 34.86 36.07 36.25 35.35 33.93 33.06 31.77 30.83 29.88 28.84 27.50 27.87 27.73 28.16
41.84 43.25 40.56 41.50 44.06 43.57 41.07 41.41 37.18 35.77 32.11 34.64 32.41 32.75 33.84 33.30 33.48 33.12 34.57 36.28 36.51 35.69 36.50 34.57 37.31 32.90 32.72 30.88 31.54 32.55 33.33 34.62 34.04 34.15 35.55 35.92 35.98 35.46 36.61 35.95 36.18 35.27 32.98 32.43 31.40 30.39 29.17 28.54 28.53 28.38 27.23 26.43 26.57 26.76
39.97 40.55 40.28 40.79 43.27 42.16 36.55 36.58 39.03 31.73 32.87 34.60 34.64 35.22 35.32 34.72 35.73 36.21 36.82 38.10 39.03 39.55 38.09 36.54 34.12 32.97 32.45 33.45 32.68 33.37 33.39 33.85 33.43 33.42 34.35 35.90 35.25 35.52 35.48 34.35 33.64 33.12 31.21 30.44 30.20 29.65 28.79 26.74 26.30 26.06 25.38 24.46 23.66 24.68
39.75 40.02 40.01 40.65 43.19 38.85 33.48 34.76 40.49 34.43 31.35 32.24 34.77 33.16 33.64 33.58 35.26 34.47 35.84 37.99 37.84 37.30 32.38 31.01 29.31 29.43 30.37 31.66 33.41 36.26 36.87 36.70 35.14 32.67 31.20 32.94 34.71 33.97 32.95 33.35 32.19 30.54 29.10 27.91 26.36 25.70 27.52 27.26 25.73 24.04 22.90 21.76 21.87 20.89
42.13 40.59 41.19 43.76 41.30 39.19 35.59 35.10 33.46 33.97 33.61 31.47 33.27 33.18 32.29 34.77 33.28 32.75 34.44 37.35 33.22 29.32 28.94 30.01 29.84 30.66 32.75 34.19 36.07 36.82 35.82 36.35 34.69 34.58 32.67 30.53 32.22 32.03 30.32 29.60 29.40 29.22 28.21 27.42 26.50 24.30 23.23 22.46 22.15 21.36 21.46 21.69 20.57 21.31
39.73 39.78 41.38 41.26 37.72 36.59 34.80 36.41 34.45 36.09 33.43 32.57 32.17 32.91 31.11 30.93 31.10 31.25 33.97 31.55 28.80 29.13 30.22 31.56 32.04 31.99 31.86 31.78 33.03 33.50 32.92 32.55 32.24 31.50 30.46 30.19 28.66 28.11 27.72 27.97 27.81 25.56 23.86 23.13 22.84 21.67 21.71 20.51 18.77 18.69 19.39 19.26 19.53 20.47
39.13 40.04 37.83 36.59 33.03 32.75 29.99 37.33 32.25 32.34 29.24 29.57 32.20 28.28 29.04 30.07 31.01 34.54 28.61 30.16 29.83 31.81 31.38 30.80 30.98 31.71 29.92 30.19 30.30 30.98 32.32 31.99 30.67 29.60 28.91 28.09 27.45 26.73 25.20 23.89 24.27 23.39 22.10 19.94 20.67 20.00 19.03 15.94 17.96 16.65 18.57 18.01 18.59 18.03
37.24 32.86 30.35 29.80 31.49 27.18 32.10 28.96 32.35 29.91 31.44 29.77 27.99 25.31 26.85 28.78 32.01 28.82 26.14 26.30 27.58 30.03 30.86 30.21 30.09 28.45 28.52 27.28 25.77 25.54 27.17 28.67 27.43 27.41 27.76 26.79 24.21 22.73 22.80 21.18 20.35 19.39 18.58 19.29 19.34 18.68 18.42 17.39 15.27 16.72 15.80 14.99 15.72 14.53
29.69 26.48 29.76 26.17 30.68 28.35 26.64 26.62 27.83 28.39 25.09 27.11 26.21 26.05 26.66 30.45 25.52 23.85 23.75 24.52 25.66 26.10 27.99 29.36 28.70 28.35 25.94 24.92 24.56 23.15 24.53 26.68 24.26 21.71 22.84 24.19 22.64 21.33 19.93 19.53 18.25 17.35 18.11 17.49 16.42 15.72 15.36 15.08 14.86 14.12 12.76 13.23 12.56 11.81
23.69 25.98 25.83 26.35 26.60 26.31 26.42 24.25 24.45 24.39 25.58 25.11 25.05 27.57 28.73 27.84 22.20 19.91 21.51 23.54 23.95 23.57 24.16 25.26 27.07 24.69 22.15 23.30 21.84 20.33 20.75 24.06 23.89 20.30 19.50 20.68 20.93 20.83 19.29 18.45 18.54 17.22 17.12 16.21 14.31 12.71 12.75 12.39 11.65 10.72 11.19 12.28 11.74 11.89
22.82 24.12 27.51 29.31 27.85 27.92 27.08 27.50 28.12 26.87 24.05 23.83 25.67 25.30 26.39 20.62 19.39 20.35 22.94 22.63 22.56 22.66 23.08 23.31 23.78 22.91 21.26 20.02 19.84 20.10 20.48 20.18 20.00 18.84 19.07 18.46 18.13 17.95 17.13 15.07 12.99 13.75 14.70 13.80 12.27 11.65 10.28 10.02 10.15 10.42 10.67 12.09 12.51 11.50
25.90 26.65 23.61 26.16 27.18 28.37 25.16 25.51 24.76 23.55 24.75 26.76 27.43 22.59 21.57 20.11 18.44 20.57 21.21 22.76 23.28 22.82 21.79 20.96 20.18 20.12 19.52 19.60 20.56 20.33 19.81 19.22 18.27 18.68 18.83 18.21 17.78 16.88 15.40 15.97 14.17 9.12 12.11 12.44 10.85 10.07 10.06 9.78 9.50 10.44 10.73 9.80 9.26 10.57
25.63 27.38 27.78 22.70 26.10 26.00 24.87 24.30 24.51 25.35 26.37 26.33 25.20 21.96 18.95 17.73 18.67 20.37 20.10 22.10 24.43 24.09 21.05 19.64 19.13 20.18 19.17 18.43 18.22 18.49 18.84 18.31 16.67 12.66 12.58 14.35 15.13 16.04 15.43 14.52 14.38 13.86 13.66 12.59 11.21 10.66 10.18 8.71 8.76 8.65 8.19 7.89 8.95 9.59
25.30 29.37 26.22 24.59 22.93 22.50 24.66 26.66 26.66 26.64 26.03 24.98 23.83 20.51 18.35 16.86 17.34 20.75 20.29 19.85 18.67 17.26 17.39 17.58 18.18 18.36 16.96 18.15 15.90 14.98 15.57 14.47 12.57 11.79 11.19 10.62 11.39 13.20 12.96 12.96 12.67 12.84 12.25 11.47 10.10 10.13 9.93 9.42 9.29 9.90 8.63 8.26 7.98 6.56
28.82 29.05 25.57 25.57 23.48 24.68 25.51 27.72 29.42 27.08 25.85 22.79 22.86 20.85 17.27 15.80 16.77 17.23 16.76 17.46 17.47 17.97 17.99 16.44 15.51 16.45 15.20 13.91 14.10 13.75 13.37 14.06 10.37 10.40 9.70 10.38 11.61 12.12 12.79 12.05 12.10 12.04 10.68 9.80 8.92 8.23 7.70 6.35 7.00 6.95 6.88 5.48 4.42 3.65
26.08 23.03 22.97 20.79 23.48 24.91 26.41 24.97 25.04 24.95 24.96 22.59 18.85 19.46 17.65 18.00 13.40 14.05 14.76 17.44 16.41 14.93 11.37 15.10 14.63 12.99 13.20 13.97 13.38 14.35 5.52 11.12 11.52 10.14 9.20 9.67 10.57 11.59 11.53 11.10 10.95 10.78 9.44 8.06 7.40 7.52 6.93 5.41 5.05 4.94 4.76 3.93 3.00 0.95
23.93 23.99 23.26 23.03 22.94 21.49 23.22 22.33 21.11 19.41 20.46 18.20 16.07 16.69 15.36 15.03 9.36 12.87 15.74 15.57 13.82 13.08 12.63 13.55 14.28 14.37 11.89 10.69 11.30 11.74 9.33 12.38 9.73 8.73 7.75 5.58 4.19 5.39 6.21 9.22 10.11 9.56 7.99 7.43 6.88 6.82 5.87 4.62 3.74 3.42 2.11 1.44 0.61 -0.25

GFSWCAN_sfc_wetblb_042.txt.gz
Wetbulb
45.19 45.30 45.09 44.83 44.80 44.95 45.37 45.85 46.37 46.80 46.77 46.81 47.11 47.24 47.13 47.36 47.78 47.53 48.79 52.42 50.26 51.93 55.10 56.24 55.72 53.54 53.21 47.07 45.60 51.68 50.71 51.69 52.32 46.90 48.09 47.67 43.86 46.47 44.93 45.22 41.98 39.94 40.31 37.56 41.87 35.17 32.93 47.33 45.94 41.51 47.08 49.76 48.95 49.06
45.07 44.87 44.78 44.78 44.82 45.18 45.91 46.22 46.51 46.51 46.42 46.35 46.68 47.16 47.47 47.82 48.34 49.72 48.23 53.32 55.03 54.24 55.10 58.40 57.42 57.90 57.56 56.53 54.68 53.87 53.67 52.00 52.68 50.25 49.74 50.85 40.39 40.29 44.30 41.15 47.59 41.81 45.76 43.87 43.06 42.41 48.53 49.13 47.90 49.91 50.55 49.02 49.43 49.58
44.80 44.85 44.88 45.13 45.58 45.86 46.12 46.12 45.98 46.01 46.01 46.74 46.58 46.95 48.18 49.01 49.80 50.24 50.65 54.02 59.08 55.56 53.52 54.93 53.86 57.01 58.67 57.61 60.39 53.26 58.02 56.39 55.54 58.65 53.24 51.34 39.58 49.40 38.81 45.42 46.72 47.30 48.63 45.99 44.74 46.21 47.12 48.27 49.55 50.41 50.40 49.60 50.14 50.82
45.30 45.51 45.65 45.73 45.96 45.82 45.57 45.31 45.42 45.59 45.98 47.40 47.00 48.48 48.70 49.08 50.06 50.06 49.64 54.98 60.41 55.77 44.59 50.94 57.66 54.75 58.20 59.40 59.09 60.64 59.46 59.66 58.81 57.67 54.07 42.84 42.07 51.36 48.23 48.93 47.77 47.21 47.47 44.82 44.76 46.95 47.71 48.93 49.42 49.21 49.70 50.34 49.55 50.42
45.18 45.27 45.34 45.41 45.37 45.35 45.60 45.63 46.85 47.17 47.76 48.14 48.25 48.42 48.74 49.26 50.03 50.82 53.07 58.00 59.44 55.97 46.63 49.35 54.54 56.13 57.25 57.76 56.68 58.40 58.34 56.95 55.37 51.02 41.50 48.84 50.79 49.93 49.54 49.30 48.05 48.08 46.23 44.73 44.25 46.95 47.14 45.66 46.75 47.87 46.12 45.35 45.93 46.08
45.01 44.98 45.19 45.36 45.60 46.26 47.20 47.10 47.19 47.28 47.46 47.98 48.05 48.42 49.20 49.65 50.30 53.37 51.21 57.51 58.66 60.30 52.78 45.12 52.79 53.27 55.77 56.90 55.79 55.89 56.82 57.43 55.99 50.99 49.63 50.56 50.44 51.43 41.94 44.79 47.10 47.90 48.66 48.44 46.91 48.76 48.55 46.03 45.29 44.51 42.43 42.52 42.10 41.69
46.88 46.90 46.70 46.88 47.02 47.04 47.06 46.93 46.97 47.26 47.93 48.00 48.41 49.44 49.67 50.00 54.89 51.57 50.55 51.41 49.26 59.09 52.07 43.51 45.10 50.91 54.25 54.25 53.74 54.35 56.58 54.58 54.51 51.03 47.70 49.28 48.37 49.72 41.72 44.75 45.44 45.72 46.75 47.66 47.64 47.84 43.50 45.37 41.36 42.19 41.08 39.56 39.56 39.22
46.90 47.49 47.55 47.42 47.24 47.37 47.01 46.86 47.01 47.67 48.34 48.52 49.12 49.62 48.97 48.38 49.17 50.79 52.98 49.26 49.65 55.61 54.20 42.37 38.81 46.92 52.40 49.60 46.90 52.14 52.32 52.45 49.30 45.65 46.48 46.33 46.51 48.66 44.32 43.50 44.39 44.77 45.74 44.99 44.84 45.72 43.82 42.83 42.02 40.96 40.87 39.33 37.39 36.57
46.13 45.81 46.35 47.53 48.16 47.28 47.69 47.35 47.58 48.05 48.80 48.95 49.15 49.19 54.25 55.29 54.22 51.36 47.57 48.60 57.18 53.10 46.97 37.90 39.72 37.54 50.00 45.82 46.14 47.92 50.37 41.35 46.91 42.07 43.53 45.82 41.24 39.67 42.58 41.87 41.64 42.84 42.82 41.85 42.40 42.30 41.68 40.25 39.21 39.03 38.80 38.03 36.58 36.53
46.15 45.56 45.58 45.85 46.78 47.94 48.35 48.22 48.14 48.47 48.90 49.15 53.21 53.04 46.97 52.81 47.62 49.54 52.46 50.88 51.43 50.55 47.17 40.80 45.93 41.53 46.06 44.70 41.53 42.43 42.78 41.54 39.59 40.59 44.40 40.59 36.49 39.17 39.91 40.84 41.72 42.52 42.84 42.20 38.33 37.12 37.97 37.22 37.45 37.59 37.44 38.22 37.14 36.65
45.91 45.41 45.20 45.47 45.97 46.94 46.99 47.32 47.58 48.33 50.02 56.04 52.76 47.56 52.16 48.30 52.24 49.71 45.22 44.68 44.22 40.99 42.18 43.26 44.95 42.16 46.64 40.69 38.12 42.55 38.49 41.28 36.45 39.33 39.12 36.65 35.33 36.13 38.77 39.75 41.40 43.00 42.64 42.02 41.69 40.83 39.94 38.73 37.30 37.18 37.00 36.95 35.84 35.07
44.89 44.72 44.60 44.68 45.58 46.24 46.48 46.82 48.45 51.48 52.13 51.67 51.49 52.27 52.37 50.01 45.59 38.19 35.55 39.70 40.63 37.62 39.00 39.42 41.84 42.44 43.49 47.40 40.95 41.63 35.62 38.81 34.72 41.66 37.16 34.48 34.03 37.03 38.14 39.08 40.58 41.32 40.72 39.86 40.29 39.07 39.13 38.55 38.26 36.93 35.69 34.89 34.69 34.13
44.04 43.98 44.06 44.12 44.47 45.56 46.12 46.58 45.96 46.87 47.80 54.09 48.67 41.55 45.85 39.40 35.91 35.55 32.27 34.94 33.78 36.27 37.16 39.03 36.34 41.31 42.12 43.40 38.55 37.23 34.26 35.70 41.91 34.96 33.83 34.17 34.77 36.72 37.57 38.51 38.93 39.82 39.67 39.08 38.25 37.46 36.40 35.62 35.68 34.99 33.26 33.66 34.15 33.58
43.55 43.69 43.35 43.47 43.86 44.63 45.35 45.96 46.80 49.34 50.14 43.81 38.61 33.92 35.55 33.19 33.73 33.55 34.46 34.10 33.73 34.46 37.36 39.17 37.18 38.60 39.17 35.73 37.00 33.55 34.64 36.09 32.00 30.87 32.60 32.92 34.58 36.60 38.19 38.79 37.42 35.69 34.36 35.55 35.70 35.12 33.90 33.19 32.37 32.01 30.43 30.18 28.57 28.68
42.88 42.72 43.04 42.64 43.16 44.35 45.16 45.42 45.99 47.17 42.20 36.91 38.08 31.38 31.54 32.27 32.83 32.83 33.55 34.46 34.56 37.42 39.17 39.58 39.40 40.28 35.73 34.46 36.45 33.55 31.56 30.87 32.80 32.82 33.90 34.00 35.99 37.35 37.42 36.13 34.27 34.09 33.19 34.01 34.35 33.13 32.53 32.69 32.58 31.33 29.93 29.62 28.71 25.93
43.72 43.93 41.60 42.47 43.19 44.29 45.04 45.91 45.42 44.63 39.67 35.40 33.67 32.10 32.83 32.63 31.91 32.47 32.47 32.47 35.69 37.34 40.56 42.77 37.36 34.64 33.19 34.46 33.07 32.98 32.13 31.78 32.09 33.67 34.54 35.72 36.25 36.56 36.44 35.25 35.02 35.63 35.96 35.10 34.18 32.86 31.80 30.75 30.24 30.17 28.58 27.73 26.15 25.69
44.08 39.72 40.85 42.30 43.32 43.66 43.89 43.95 41.79 37.04 34.34 33.37 31.92 32.10 32.83 32.27 31.53 31.92 32.47 32.60 36.04 36.45 33.73 37.82 33.92 31.86 35.20 33.13 31.48 33.19 31.00 32.25 33.33 33.70 35.12 36.27 35.53 35.91 35.92 35.49 34.90 35.66 35.57 34.64 34.02 32.99 31.10 30.72 29.93 28.89 27.10 26.73 27.10 27.65
42.74 43.72 41.99 42.46 43.99 43.48 42.79 40.05 38.21 36.73 31.83 33.13 31.67 32.28 32.83 32.09 32.28 32.47 33.37 34.94 35.71 35.00 35.14 33.90 37.85 33.12 32.28 31.17 30.53 31.96 32.35 33.02 34.17 34.00 34.32 36.18 36.44 36.20 36.16 35.69 36.01 34.63 33.52 32.47 30.77 30.01 29.49 29.43 28.60 27.12 26.39 25.36 26.14 25.82
40.53 41.91 41.85 42.37 43.59 42.61 37.07 37.78 39.59 32.10 32.80 34.08 34.08 34.02 34.25 33.37 34.74 35.44 35.53 36.75 37.68 38.02 36.56 34.99 32.60 30.80 30.04 31.43 32.27 31.76 32.35 33.04 31.85 32.30 33.08 34.56 34.88 34.97 34.98 34.23 33.46 33.09 31.88 31.35 31.05 29.51 27.35 26.39 25.39 25.03 24.31 23.67 22.61 23.39
40.79 40.64 40.97 42.40 44.02 39.37 34.32 35.51 40.87 34.50 31.23 33.16 34.73 33.87 34.22 34.05 35.11 33.90 35.55 37.18 36.15 35.48 30.76 28.87 26.90 27.89 29.54 31.16 32.77 34.61 34.92 34.38 33.59 31.53 30.98 32.08 33.81 33.84 33.15 32.75 31.35 29.67 27.91 26.75 26.04 27.04 27.52 26.40 24.66 23.31 22.13 21.84 21.10 19.41
42.25 41.33 42.23 44.27 41.80 39.36 36.26 35.34 33.61 34.29 33.79 31.66 33.49 33.89 32.73 35.82 33.40 33.01 33.94 36.77 32.69 28.88 28.29 29.80 29.82 31.52 32.63 32.53 33.39 34.34 34.77 36.48 35.09 34.29 31.96 31.17 32.70 31.70 30.68 30.45 30.62 30.24 28.56 27.52 26.33 23.90 23.54 21.65 21.27 20.94 21.13 21.49 19.90 20.56
40.66 40.87 42.27 41.82 37.60 36.23 35.16 37.70 34.79 36.16 33.48 33.07 32.97 33.54 31.80 31.18 31.12 31.94 34.88 30.39 27.33 28.77 29.65 30.35 31.67 31.67 30.63 30.90 32.27 33.25 32.92 33.42 33.14 32.16 31.70 31.50 29.24 28.33 27.99 28.10 27.59 25.32 23.93 23.53 23.07 21.94 21.57 19.37 18.65 18.31 18.91 19.31 18.58 20.24
40.62 40.95 38.51 37.10 32.34 32.14 30.33 38.23 32.26 32.68 28.81 29.52 32.20 28.97 29.29 29.91 31.07 35.15 28.88 28.53 28.32 31.40 30.90 30.27 30.36 31.05 29.55 29.54 29.51 29.80 32.00 31.17 29.73 29.40 29.02 27.83 27.08 26.54 25.16 24.64 25.55 24.34 21.07 19.52 20.65 19.98 19.14 16.43 17.66 16.78 18.52 17.72 17.43 17.70
38.39 32.85 30.67 30.51 31.85 27.11 33.10 29.26 32.34 29.87 31.25 29.63 27.77 25.54 26.41 28.35 31.64 29.63 24.17 25.22 27.56 29.55 29.89 30.32 31.54 28.50 28.04 26.38 24.35 24.78 28.11 29.23 27.85 27.89 28.74 26.35 23.85 22.70 22.23 20.77 19.60 19.09 19.73 20.38 19.59 18.76 18.36 17.55 15.33 16.35 15.95 14.14 14.81 14.10
30.04 27.17 30.41 26.83 31.91 28.89 26.93 26.49 27.63 27.61 25.19 27.49 26.39 26.07 26.41 30.58 25.22 24.22 22.91 24.72 24.54 24.50 25.72 28.67 27.51 27.86 25.41 24.28 23.66 22.87 25.72 26.08 23.85 21.97 24.14 24.28 22.66 21.41 19.71 18.87 17.93 17.62 18.53 17.56 15.90 15.26 15.36 15.43 14.85 13.47 12.50 12.82 11.86 11.73
23.50 26.35 25.43 25.66 26.10 25.97 26.01 24.03 23.90 24.89 26.40 25.65 24.70 26.60 29.55 27.99 23.14 20.02 20.90 22.91 21.91 21.73 22.43 23.48 26.20 22.98 20.62 21.69 20.61 19.69 20.44 24.08 23.11 19.09 18.82 20.19 20.44 20.97 19.53 18.63 17.85 15.10 16.70 16.04 13.82 12.12 12.25 12.04 11.35 10.76 11.11 11.48 10.84 11.81
22.57 24.14 27.55 30.20 28.85 28.84 27.14 27.85 29.19 27.72 24.95 24.34 26.36 26.77 26.88 22.19 19.15 20.12 22.31 22.26 21.39 22.02 22.36 22.77 22.73 21.60 20.32 19.65 19.63 20.06 20.23 20.19 19.69 18.48 19.24 18.49 17.89 17.52 16.59 14.45 12.42 11.93 14.10 13.68 12.12 10.40 9.30 9.47 9.53 9.72 10.17 11.99 12.06 10.93
25.97 26.47 22.98 27.34 27.55 29.40 25.52 26.31 25.33 23.78 24.44 26.18 28.57 21.83 20.14 18.35 15.95 20.12 21.13 23.45 23.99 23.02 21.82 21.13 20.41 20.00 19.45 20.19 21.15 21.16 21.39 19.83 19.26 19.53 19.02 18.67 18.48 17.50 16.25 16.14 14.46 12.18 13.06 13.58 11.70 11.45 10.22 9.54 8.41 8.43 9.00 8.58 8.40 10.25
25.58 28.18 29.37 22.90 26.06 25.08 24.83 24.97 24.46 24.66 25.25 25.29 24.77 20.51 17.63 17.21 18.71 20.31 21.70 23.72 24.27 23.21 21.00 19.98 20.60 21.42 19.95 19.09 18.83 18.16 17.18 16.54 16.11 13.19 13.33 13.99 15.06 14.61 15.33 14.75 14.87 14.51 14.31 13.22 13.04 12.37 11.99 10.39 9.61 8.99 8.22 8.08 8.66 9.74
25.21 30.42 26.40 25.28 23.71 22.59 24.03 26.82 25.52 25.85 25.16 25.30 22.89 19.51 16.75 16.55 18.31 20.92 20.21 19.84 18.89 17.91 18.17 18.82 18.91 18.44 17.35 17.80 15.71 14.70 14.59 12.94 11.64 10.39 9.53 8.90 9.71 12.75 13.54 13.70 13.02 12.88 12.90 11.73 10.72 10.57 11.61 10.83 9.92 9.09 9.51 9.31 8.84 7.50
27.99 29.08 26.46 25.95 24.05 24.08 25.35 27.56 29.03 27.07 25.28 22.87 23.36 19.79 15.51 14.95 16.49 17.15 16.64 19.36 18.02 18.00 18.79 16.82 15.00 15.40 13.89 12.53 12.47 12.47 12.73 13.34 11.63 11.08 9.34 10.06 11.65 12.10 12.94 12.55 12.79 12.34 11.36 10.50 9.40 8.45 8.14 7.53 7.17 6.57 6.56 6.21 5.66 5.38
25.95 23.03 23.53 21.90 23.58 25.39 26.54 24.94 24.69 25.97 25.01 22.51 19.35 19.86 18.80 18.92 12.85 13.11 14.87 17.54 16.28 14.53 13.51 14.41 13.52 12.60 12.95 13.78 14.31 14.23 7.38 12.17 12.46 10.46 9.20 8.45 8.43 9.55 9.99 10.00 10.43 10.75 10.41 9.22 8.62 8.06 7.55 6.84 6.31 5.51 4.89 4.66 3.70 1.73
24.99 25.15 24.30 23.69 23.21 22.79 24.04 23.48 22.06 20.56 20.55 18.06 16.66 17.64 15.55 14.00 8.91 13.17 16.88 16.69 14.12 13.38 12.86 13.61 14.64 14.72 14.01 13.18 12.49 12.38 10.91 13.19 11.52 12.24 11.57 8.04 4.60 5.90 5.95 7.72 8.05 7.92 6.91 6.07 6.01 6.55 6.18 6.05 5.41 4.70 2.76 1.27 1.56 0.09

GFSWCAN_sfc_wetblb_045.txt.gz
Wetbulb
44.47 44.40 44.33 44.28 44.26 44.35 44.68 44.94 44.95 45.82 45.70 46.33 46.93 47.46 47.96 47.85 47.83 45.80 44.00 48.53 45.45 44.22 47.18 50.39 50.39 47.03 48.42 46.30 40.93 46.86 46.31 47.27 44.89 37.85 36.36 33.02 32.54 35.98 36.71 41.65 36.59 33.36 31.51 26.49 31.14 30.05 27.58 44.31 42.87 36.41 41.10 43.24 44.05 43.89
44.74 44.57 44.31 44.36 44.40 44.45 44.78 45.07 45.49 45.65 46.35 47.00 47.21 47.48 47.64 47.94 47.90 47.35 43.34 48.66 51.18 46.19 47.04 52.45 54.36 54.16 53.10 51.10 49.28 47.59 48.73 47.90 48.54 43.12 40.55 37.71 36.71 34.43 34.69 30.33 43.25 34.24 39.40 34.78 36.08 34.62 43.45 44.05 43.90 45.68 45.60 44.05 44.35 44.51
44.97 44.86 44.58 44.46 44.43 44.52 44.88 45.11 45.27 45.93 46.51 46.77 47.00 47.11 47.55 47.54 47.85 47.39 45.45 48.80 49.37 45.98 44.35 46.90 50.95 53.78 56.17 53.43 54.37 46.95 48.56 52.33 50.67 52.12 45.15 41.07 35.50 37.28 30.24 32.91 36.57 42.06 44.99 38.78 37.59 42.07 42.68 45.43 46.63 47.10 46.92 45.57 45.41 44.50
44.98 44.84 44.63 44.55 44.62 44.69 44.83 45.04 45.40 45.94 46.42 46.49 46.54 46.95 47.22 47.34 47.67 47.76 45.85 49.25 49.82 45.64 34.83 46.53 56.17 53.41 56.63 57.78 56.63 56.97 55.25 54.65 53.72 50.82 40.49 36.94 35.92 44.59 34.55 39.35 38.23 41.16 42.28 40.95 38.96 43.30 44.06 43.77 44.74 44.97 44.52 44.97 41.69 40.75
44.70 44.60 44.71 44.83 44.97 45.06 45.12 45.23 45.49 45.80 45.98 46.24 46.58 46.65 46.88 47.42 47.99 48.37 49.31 49.82 50.91 45.41 42.76 46.74 51.85 54.08 55.98 56.54 54.81 55.87 54.53 51.40 47.88 40.36 35.90 38.09 42.86 40.17 38.78 38.22 34.85 42.60 41.33 34.56 34.06 42.73 41.70 40.19 41.77 42.79 40.79 40.50 41.18 39.28
45.34 45.12 45.12 45.07 45.00 44.97 44.95 44.80 44.66 44.96 45.37 45.87 46.63 47.00 47.45 48.58 49.40 49.19 44.95 49.38 51.21 52.37 47.49 39.50 49.95 50.73 53.61 53.91 54.18 53.89 52.64 51.49 49.69 43.31 38.27 43.52 46.18 40.46 33.19 30.37 42.21 43.93 44.67 45.12 43.03 43.87 41.56 40.50 40.00 40.52 38.87 38.74 38.71 37.69
44.25 44.53 44.45 44.21 44.50 44.15 44.01 43.77 44.32 44.90 45.00 45.46 46.42 47.56 48.54 48.81 49.96 46.86 47.33 51.28 50.00 50.55 45.78 38.98 40.43 49.41 51.42 51.12 48.87 50.46 51.47 48.33 48.34 44.24 39.75 41.20 41.87 42.75 34.37 32.31 41.49 43.78 43.93 44.62 45.07 42.51 39.15 40.19 36.99 38.83 38.21 37.86 37.87 36.83
44.66 44.64 44.73 44.75 44.79 44.96 45.01 45.42 46.77 46.92 46.86 47.67 48.11 48.23 48.38 48.78 49.63 48.48 52.58 50.16 49.07 52.21 46.70 37.84 36.83 42.34 50.01 43.68 39.98 47.38 45.64 45.28 43.65 42.73 41.85 35.72 39.41 34.22 32.20 39.60 41.80 43.27 42.68 41.61 40.99 42.24 39.95 39.87 38.62 37.60 37.71 36.67 35.20 34.35
46.52 46.41 46.39 46.37 46.55 46.52 46.45 46.84 47.31 47.55 47.85 48.07 48.36 48.65 49.10 49.43 48.87 49.78 47.47 47.57 51.95 49.69 38.42 34.83 36.24 35.53 47.09 42.95 41.98 42.74 43.06 37.77 44.05 36.28 39.34 38.10 35.67 34.29 38.74 39.20 40.10 41.25 39.77 39.18 39.96 39.55 38.65 37.22 37.12 36.35 35.99 35.02 33.87 33.31
45.56 46.11 46.54 46.23 46.21 46.34 46.32 46.83 47.37 47.82 48.52 48.58 50.79 49.65 41.14 48.20 47.92 49.49 50.39 44.46 43.27 42.97 40.86 36.08 41.60 36.98 43.97 37.53 36.28 36.71 35.61 35.35 33.53 36.12 40.38 35.13 32.41 37.16 37.68 39.32 40.62 40.65 40.72 39.12 36.03 34.95 36.26 36.03 36.39 36.25 35.77 35.92 34.83 33.88
45.57 45.55 46.06 47.13 46.90 46.59 46.84 47.21 47.80 48.51 49.17 49.26 46.88 42.78 48.31 47.78 49.73 42.15 34.69 34.79 37.06 33.66 36.27 38.55 40.35 39.04 43.81 35.41 35.16 35.65 33.84 33.10 29.40 32.29 32.48 31.37 31.67 35.44 38.89 39.21 39.17 42.38 41.50 40.47 40.08 39.13 38.57 36.74 35.98 34.69 33.79 33.50 31.96 30.55
44.96 45.14 45.53 46.17 46.86 47.31 47.61 47.88 48.45 49.80 50.31 49.65 49.05 49.91 48.85 45.76 39.46 33.41 32.79 34.74 32.62 32.18 35.43 36.05 37.48 40.89 38.32 42.77 34.44 35.70 33.28 30.30 27.30 37.40 33.43 29.05 32.60 35.77 37.42 37.48 39.90 40.15 39.47 38.84 39.11 37.92 37.98 37.32 35.89 34.08 33.27 31.92 29.88 28.76
43.40 44.10 44.91 45.16 45.74 46.74 47.54 47.41 48.18 48.22 47.09 49.09 43.71 37.72 41.08 35.43 31.51 29.18 25.47 32.18 32.41 33.36 35.35 34.94 34.27 35.72 37.22 37.75 34.49 34.39 32.47 27.39 34.18 32.60 30.18 30.57 34.80 36.41 37.22 38.07 38.12 38.57 37.83 36.21 35.09 34.92 34.10 33.31 32.86 31.77 30.51 30.97 28.84 27.15
42.99 43.17 43.64 44.17 44.97 45.34 45.55 45.94 46.72 47.51 46.08 38.64 34.84 31.92 32.61 31.84 30.48 30.05 31.68 32.29 32.27 32.82 34.46 35.90 34.27 34.27 33.92 33.66 33.18 31.63 32.44 33.41 29.90 27.52 26.24 31.57 34.72 35.85 37.22 36.85 36.46 34.64 32.94 33.21 32.76 32.06 30.42 29.78 29.19 28.40 26.49 25.55 25.57 25.34
43.27 42.57 42.98 43.02 44.27 45.10 45.21 45.31 45.47 44.12 38.87 33.24 33.08 28.70 29.05 30.99 32.05 32.08 32.45 32.61 33.09 35.34 35.53 35.35 34.76 35.78 33.00 32.68 32.79 31.90 29.82 28.07 27.36 25.83 31.16 33.52 35.63 36.60 35.29 33.56 32.40 31.42 31.59 32.35 33.11 31.26 30.11 28.87 27.14 26.65 27.19 26.51 25.29 20.99
43.93 42.89 40.43 43.00 43.95 44.72 45.06 44.40 43.30 41.04 35.76 33.22 31.63 31.01 32.03 32.05 31.67 32.03 32.08 32.11 34.69 33.72 34.81 33.96 32.59 32.30 31.49 31.58 30.99 30.08 25.62 24.56 29.19 31.17 33.40 35.51 35.70 33.74 33.03 33.17 33.67 33.67 32.46 32.10 31.51 30.78 30.11 27.97 25.90 25.37 25.24 24.92 18.32 17.59
43.38 38.07 42.30 43.19 43.99 43.91 44.19 41.87 39.41 34.94 32.06 31.75 30.00 31.88 31.71 31.43 30.22 31.11 31.93 32.23 35.23 33.72 32.45 32.62 30.42 29.36 32.22 30.07 27.99 30.21 27.49 29.72 31.82 33.07 34.97 35.03 34.05 32.01 32.27 32.97 33.20 33.00 32.23 31.17 30.71 29.35 27.87 27.86 26.36 25.07 22.62 23.70 24.67 22.89
38.68 41.08 43.08 43.66 44.82 42.27 40.58 39.44 34.77 33.26 29.81 31.26 29.19 30.57 31.68 31.71 31.71 31.88 32.41 34.05 34.05 33.18 33.13 31.70 33.63 31.01 28.54 27.26 27.31 29.69 30.37 31.58 32.30 33.31 33.83 34.49 34.18 34.03 35.03 34.04 33.38 32.17 29.80 29.12 28.49 28.32 27.59 25.50 24.04 22.49 22.47 23.19 23.02 22.06
38.79 40.48 42.37 43.22 42.57 38.33 34.10 35.18 36.00 29.49 30.57 31.70 31.71 31.70 31.90 31.53 32.58 34.13 34.35 35.24 35.47 35.54 33.77 32.15 26.97 25.80 26.44 28.45 29.82 30.92 31.11 31.49 30.81 31.39 32.43 34.22 34.32 33.78 33.03 32.43 31.80 30.00 28.64 28.15 26.42 24.21 23.43 23.25 22.26 21.07 20.93 21.31 19.44 18.71
41.57 41.64 42.10 42.76 42.72 33.57 31.96 31.86 37.24 31.79 29.94 30.76 32.06 31.49 31.52 31.34 32.44 32.83 33.06 33.24 32.86 31.64 27.36 25.31 24.87 26.98 27.76 29.38 31.34 31.96 32.15 32.80 31.74 29.81 29.88 31.37 32.22 32.31 31.51 29.14 26.39 26.01 25.18 24.66 24.27 23.58 22.51 20.79 20.89 20.54 19.40 18.42 14.29 12.87
40.49 39.42 41.83 41.95 37.12 35.60 32.36 31.59 31.14 33.00 32.32 30.54 31.60 31.52 31.16 31.60 31.45 30.85 29.58 31.35 27.83 26.73 26.48 28.62 27.66 28.74 31.40 31.40 32.05 32.94 33.74 33.85 31.45 30.98 30.13 29.00 29.32 28.95 28.23 28.21 28.35 27.36 25.50 23.03 21.74 19.79 18.25 17.14 17.88 18.15 10.13 7.50 7.40 8.38
36.96 41.31 34.26 36.34 32.40 31.53 31.11 33.38 31.32 31.80 31.04 30.86 29.97 30.11 28.39 27.85 28.12 29.16 29.87 25.57 25.21 26.88 28.13 27.95 28.24 28.13 26.89 26.84 29.03 31.15 31.58 31.35 31.29 30.64 30.00 28.84 26.97 26.71 26.75 26.44 23.37 20.73 20.70 20.58 20.47 17.39 16.47 17.26 15.78 12.62 7.02 4.83 9.38 9.11
39.34 37.47 32.89 31.42 24.37 25.24 23.64 31.53 25.75 29.59 24.59 26.73 29.49 26.65 26.27 27.17 28.19 31.03 24.20 25.89 26.99 29.64 29.69 28.80 28.05 27.98 26.26 26.55 26.96 28.61 29.22 28.70 27.22 26.52 25.89 24.84 24.07 22.69 20.78 20.46 22.37 18.99 17.73 18.41 19.69 18.06 15.71 13.73 11.13 5.06 6.66 5.25 4.97 1.32
36.68 30.65 24.06 23.68 24.91 24.95 24.97 22.22 28.26 26.74 26.20 26.55 23.66 21.72 22.75 24.71 27.94 22.80 20.14 22.21 23.41 24.34 25.20 26.74 29.17 25.71 24.14 23.21 21.82 22.84 25.95 25.48 23.93 25.21 25.21 22.47 20.07 19.53 19.41 18.40 18.09 18.00 18.84 18.31 16.67 13.60 11.70 4.67 4.42 5.17 -0.06 -2.23 -3.31 -2.63
21.52 22.05 22.29 16.28 23.43 21.37 18.70 24.78 23.93 21.59 17.54 21.33 20.12 19.09 23.48 26.21 19.78 19.01 19.68 20.21 19.11 19.18 20.84 24.57 21.99 22.68 20.77 20.36 20.11 19.91 22.05 23.69 20.10 17.43 19.77 22.13 19.38 18.42 17.22 16.48 15.72 15.68 16.01 11.75 9.03 2.55 0.06 -0.86 -1.96 -2.59 -0.22 -4.21 1.10 -2.31
21.41 24.76 23.15 23.78 24.17 23.27 23.74 21.15 20.89 18.70 17.83 14.75 22.59 25.06 23.75 21.03 13.19 13.35 17.43 18.09 16.40 17.53 17.73 18.97 20.53 18.21 17.07 18.28 16.87 16.37 17.21 22.04 20.27 16.41 16.53 17.51 16.41 17.12 16.58 13.52 10.93 10.38 12.05 6.37 -0.65 -2.72 -1.06 -1.05 -2.93 -1.96 -4.16 -0.32 2.28 1.90
21.55 23.24 26.87 29.42 28.24 27.15 22.41 24.62 25.24 19.17 14.99 17.00 20.15 19.20 22.72 12.51 9.69 16.92 19.41 20.02 18.70 18.74 19.73 19.41 20.19 18.93 17.86 17.82 18.30 18.14 17.74 17.77 16.92 16.40 16.66 15.77 15.45 14.59 11.27 6.22 1.46 4.60 7.47 3.30 -1.42 -3.88 -5.22 -5.40 -5.40 -5.40 -6.13 0.64 1.01 -3.07
25.01 26.16 22.86 25.95 25.79 26.26 22.33 22.70 20.36 18.39 21.00 23.06 23.96 11.89 11.60 9.81 10.40 17.37 19.09 22.13 20.87 20.12 19.55 19.05 18.43 17.97 17.03 16.68 15.83 14.98 15.18 16.31 14.50 14.88 14.64 14.63 13.27 9.76 6.81 5.04 5.75 9.81 6.84 5.19 -0.90 -1.32 -3.07 -2.69 -5.77 -6.85 -5.59 -6.67 -7.40 -7.06
25.00 27.56 22.44 16.79 23.41 23.00 21.24 21.69 21.32 22.31 23.21 23.05 16.06 12.65 12.04 15.09 16.24 18.02 19.20 19.92 20.15 18.18 16.30 16.32 18.32 15.95 14.05 13.94 12.52 10.86 8.93 7.85 4.96 1.76 0.20 3.09 4.64 5.81 3.59 1.79 3.45 1.86 0.76 1.07 6.45 8.22 5.64 2.83 3.32 0.60 -4.51 0.43 1.18 -2.24
23.05 27.08 23.22 22.37 20.38 19.10 21.43 24.38 19.22 21.20 23.28 20.46 16.75 15.12 13.87 13.09 14.79 16.59 16.61 16.45 15.98 13.17 13.82 14.27 13.46 11.38 9.56 9.61 7.12 4.98 2.91 0.57 2.07 -2.38 -6.31 -7.04 -4.86 2.00 2.18 6.34 2.98 -0.60 1.05 -1.84 -3.79 -1.22 4.59 -0.47 -0.69 -5.48 -5.66 -6.00 -0.59 -3.80
26.29 23.52 18.44 18.09 14.58 21.92 23.55 26.17 23.85 23.51 17.50 13.09 14.95 8.23 8.09 9.09 10.05 13.09 12.71 14.02 12.98 13.36 13.15 6.88 7.17 8.44 6.92 6.09 3.42 -1.27 -1.08 -0.10 2.40 -0.46 -2.51 -3.60 -2.90 -0.02 4.99 5.36 5.52 0.68 -3.24 2.49 -1.42 -4.50 -7.58 -7.94 -4.32 -3.59 -7.76 -8.31 -5.05 -5.97
21.53 19.19 12.94 13.09 16.12 21.13 25.28 20.77 17.67 21.83 19.51 13.94 10.67 8.01 7.78 9.44 2.17 6.11 11.30 11.48 8.67 8.61 8.24 6.81 4.94 1.85 -0.41 0.45 0.80 0.65 0.06 1.73 3.01 -1.99 -1.59 -2.51 -6.13 -7.40 -6.31 -5.22 -3.28 2.68 2.93 2.36 1.09 -2.18 -2.16 -3.06 -5.04 -3.24 -4.68 -7.22 -11.15 -14.50
17.54 16.00 14.89 13.27 15.30 16.74 14.12 14.28 16.71 10.54 10.68 9.74 11.45 10.69 4.94 3.97 0.72 5.19 11.76 10.44 4.07 2.38 6.63 7.48 8.33 6.73 7.04 2.94 -1.08 0.61 4.06 -0.65 0.19 6.74 7.44 5.77 -2.69 -3.41 -7.58 -8.12 -9.76 -10.48 -10.12 -10.84 -10.66 -10.30 -5.77 -0.53 0.72 -2.03 -6.13 -12.30 -11.75 -11.57

GFSWCAN_sfc_wetblb_048.txt.gz
Wetbulb
43.49 43.56 43.65 43.61 43.71 43.88 44.19 44.40 44.50 44.61 44.90 44.97 45.21 45.44 45.88 45.40 47.85 46.79 43.56 47.71 43.63 40.24 43.59 47.84 48.22 43.39 45.10 44.98 40.67 44.13 44.26 43.80 40.44 34.77 35.54 33.23 29.08 35.10 34.63 38.29 34.39 32.73 29.59 25.41 28.17 23.50 25.72 43.37 41.39 35.97 37.89 41.44 42.23 42.27
44.05 43.95 43.78 43.82 43.93 44.21 44.24 44.35 44.50 44.59 44.76 44.78 45.16 45.96 47.39 47.83 48.22 45.84 41.03 47.90 48.82 43.59 44.37 47.72 48.18 47.98 47.69 49.18 46.97 45.45 44.48 45.28 45.91 41.31 38.27 36.97 34.88 32.49 33.41 30.96 41.03 33.54 35.55 32.32 34.15 32.70 41.11 42.89 42.29 43.30 43.79 42.78 42.70 43.26
44.19 44.01 43.93 44.00 44.14 44.40 44.27 44.07 43.68 44.64 44.74 45.06 45.69 47.06 47.45 47.83 48.22 45.21 42.79 45.28 45.56 41.43 43.52 45.26 45.09 52.07 53.93 53.36 53.58 45.05 45.53 49.74 48.63 49.99 44.55 40.84 34.60 35.84 31.32 31.16 35.94 39.98 43.79 38.05 36.91 40.59 41.98 43.33 44.42 44.42 43.41 40.31 40.26 41.31
44.29 44.13 44.12 44.21 44.26 44.33 44.50 44.24 44.32 45.16 44.72 45.07 46.16 46.85 47.33 47.46 47.67 46.24 42.04 46.42 45.50 45.09 36.27 41.49 52.95 51.85 55.20 54.64 53.70 52.31 50.59 51.32 50.92 48.19 40.28 37.53 35.34 41.74 32.98 38.60 36.54 40.04 41.09 38.25 38.19 40.62 41.75 41.65 41.60 40.87 39.73 39.88 38.89 38.86
44.51 44.26 44.25 44.19 44.49 44.51 44.86 44.89 45.10 45.40 45.56 46.09 46.63 46.95 47.25 47.57 47.79 45.63 44.94 46.79 48.55 45.99 38.43 40.00 50.03 53.99 55.37 55.43 53.66 55.54 52.13 49.28 44.06 38.55 35.86 38.51 40.79 39.83 36.87 36.80 33.30 40.96 39.03 34.46 33.36 41.94 39.31 38.40 39.60 41.01 39.12 38.44 38.37 36.90
44.74 44.46 44.38 44.32 44.42 44.63 44.69 45.03 45.21 45.42 45.68 46.10 46.62 47.01 47.22 47.20 47.22 45.50 40.26 46.17 48.81 49.94 42.63 36.23 48.75 50.40 53.64 53.86 52.89 52.75 52.78 50.64 48.23 43.10 38.81 43.00 45.21 38.25 32.57 29.79 40.84 42.16 43.21 43.47 40.70 41.40 39.12 38.29 38.55 39.17 37.38 37.01 36.89 35.84
44.58 44.54 44.61 44.58 44.74 44.89 45.07 44.98 45.20 45.64 45.83 46.12 46.37 46.53 46.65 46.62 45.28 42.70 40.19 47.19 49.06 49.66 42.27 37.07 39.36 49.39 52.31 51.21 48.36 50.41 50.76 46.70 47.96 43.85 39.13 40.01 41.82 40.83 32.29 31.87 40.45 41.73 41.53 40.84 40.48 39.55 36.74 37.80 35.43 37.28 36.76 36.34 36.09 34.79
44.54 44.70 44.67 44.72 44.77 44.89 44.62 44.31 44.35 44.73 45.29 45.73 46.19 46.69 46.46 47.01 46.95 44.57 48.63 49.87 50.27 46.65 44.75 37.16 38.14 41.30 49.92 42.66 42.35 47.59 43.77 43.89 43.76 42.06 39.32 33.88 38.54 32.08 31.58 38.81 40.52 40.05 40.61 40.28 39.60 40.16 38.27 37.26 36.28 35.35 35.80 35.39 33.77 33.08
43.92 44.04 43.91 43.83 44.11 43.84 43.43 43.21 43.61 44.50 45.15 45.78 45.98 46.60 47.77 46.05 44.51 44.93 48.12 48.96 50.05 47.62 39.45 34.26 35.70 35.32 45.17 40.98 40.36 40.47 41.38 36.59 42.29 35.86 36.46 37.75 33.33 30.41 36.77 38.71 38.13 39.21 38.06 36.81 37.47 37.02 36.40 35.11 34.80 34.69 34.29 33.75 32.37 30.23
44.17 43.86 43.99 43.89 43.68 43.44 43.53 43.51 43.85 44.59 45.96 45.92 46.63 45.42 38.96 45.00 49.01 49.25 47.76 44.56 44.00 42.53 40.04 34.97 39.26 36.97 41.96 35.73 35.71 36.28 36.06 34.78 33.52 36.05 39.73 32.49 32.21 35.99 37.29 38.10 38.81 38.86 38.34 37.45 34.26 32.98 33.77 33.61 34.12 33.80 33.44 32.81 31.73 30.07
46.27 45.92 45.85 45.66 45.43 45.13 44.96 45.42 46.47 47.03 47.28 47.06 45.45 41.46 48.27 48.39 47.22 43.99 36.43 34.74 36.59 32.23 34.92 38.25 39.46 38.34 42.53 35.12 34.07 33.63 33.71 30.78 30.84 34.60 32.82 32.24 31.28 35.02 38.24 39.09 40.26 40.25 39.84 38.92 37.86 37.13 37.42 36.54 35.03 32.93 31.68 31.25 29.98 29.05
46.54 46.52 46.39 46.39 46.52 46.70 47.06 47.28 47.60 48.70 49.28 49.00 48.30 48.72 46.94 43.60 37.02 33.84 32.08 32.46 33.24 31.97 35.20 35.70 36.97 40.42 37.56 40.56 34.11 34.47 32.13 29.27 28.34 36.83 33.49 29.09 32.74 37.37 39.41 38.94 39.95 39.89 39.27 38.26 38.13 37.07 36.65 35.32 34.35 32.30 30.31 28.43 28.29 28.80
44.58 45.09 45.94 46.90 46.95 47.30 47.31 47.92 48.29 48.04 49.10 47.08 42.19 36.70 39.65 33.43 31.02 23.68 24.97 30.59 31.07 32.78 34.76 34.20 34.04 35.50 36.95 38.07 34.14 33.76 27.15 27.49 32.85 30.60 25.43 30.30 34.62 36.02 37.15 37.76 37.13 37.16 35.99 35.25 34.74 34.50 33.83 33.24 32.72 29.92 27.32 27.01 27.25 26.55
43.72 44.04 44.45 45.09 45.28 45.66 46.92 47.01 46.83 46.00 44.44 36.90 32.15 30.05 30.81 29.56 29.26 29.48 30.88 31.67 32.24 32.44 33.90 33.89 33.52 34.60 33.00 34.05 32.78 31.63 32.94 33.34 24.95 24.97 25.10 31.77 34.44 35.63 36.44 35.58 34.10 32.96 32.17 32.15 31.54 31.10 29.98 29.02 27.80 28.16 27.28 26.12 24.83 23.29
43.23 43.29 43.64 43.48 44.71 44.98 44.93 44.79 44.58 42.49 36.38 31.27 32.41 27.61 27.98 30.76 31.85 31.86 32.26 32.57 32.89 34.38 33.89 34.17 33.86 34.82 32.62 32.24 31.97 31.06 29.12 27.60 24.53 24.64 30.36 33.96 34.73 34.80 33.39 32.69 31.68 30.70 30.69 30.67 30.56 28.54 27.52 27.12 26.20 25.80 25.91 25.39 24.34 22.02
42.84 41.84 40.74 43.46 44.15 44.51 44.15 42.77 40.58 39.18 34.86 31.38 30.89 30.81 32.02 31.82 31.07 31.43 31.85 32.09 34.87 32.98 33.52 33.15 31.94 30.62 30.41 31.31 29.62 28.31 24.92 26.51 28.71 30.58 33.22 35.14 33.59 32.28 32.13 32.39 32.86 32.68 31.28 30.45 29.62 28.58 27.13 25.84 25.27 25.40 24.79 22.71 20.09 19.70
41.98 37.45 42.43 44.06 43.75 43.39 43.63 39.56 36.42 32.91 32.45 30.07 29.06 31.86 31.49 31.08 30.20 31.11 31.68 32.21 34.83 33.52 32.29 30.65 29.76 28.95 31.06 29.47 27.59 29.68 26.40 28.94 31.14 32.56 34.05 33.13 31.81 32.14 32.64 32.23 31.91 31.95 30.99 30.41 30.20 28.62 26.93 26.13 25.08 24.71 22.35 22.74 23.43 21.58
36.36 38.15 43.49 44.23 43.45 41.58 39.28 37.59 33.82 32.28 29.37 30.84 27.74 29.97 31.73 31.61 31.11 31.75 32.35 34.28 33.48 32.59 32.85 31.10 33.04 26.33 23.01 25.01 25.96 28.91 29.95 31.07 32.83 33.10 31.93 32.62 33.13 33.24 33.67 32.85 32.70 31.75 30.10 28.76 28.17 27.55 26.44 24.67 23.19 22.52 23.68 22.81 21.56 21.79
39.14 40.47 42.66 43.43 42.01 35.58 31.61 33.00 33.63 29.09 29.81 31.32 31.67 31.64 31.49 31.50 32.44 32.29 32.42 32.98 33.92 33.39 31.81 29.06 24.11 23.32 24.34 27.48 28.87 29.80 30.36 30.91 30.21 31.19 31.90 33.13 33.22 32.28 31.76 31.13 30.44 29.38 28.52 26.89 25.73 23.74 23.21 22.97 21.56 21.36 21.39 20.28 17.91 18.24
41.69 41.42 41.54 41.73 40.61 31.79 30.13 29.66 33.58 30.19 29.00 30.37 31.82 30.95 31.25 30.72 31.17 30.16 29.80 30.34 30.98 29.39 25.97 23.77 22.81 24.09 26.03 28.24 30.93 31.28 31.26 32.15 31.55 29.42 28.92 30.60 31.64 30.43 29.10 27.70 26.67 26.67 25.66 24.19 22.61 21.79 20.98 20.07 20.44 19.81 18.53 16.15 12.68 12.11
37.24 37.82 38.72 37.00 33.12 33.67 32.33 30.61 32.12 32.17 31.44 29.98 31.68 31.64 30.39 29.68 26.35 25.93 26.02 29.02 25.60 24.79 23.95 25.72 24.87 26.02 27.74 29.21 30.75 31.58 31.97 32.33 31.19 30.65 28.18 26.04 28.02 27.55 27.27 27.33 26.56 24.49 22.40 20.30 18.58 17.66 17.35 16.60 17.17 16.13 8.69 4.97 4.52 5.90
34.49 38.95 30.51 32.77 28.43 28.05 28.20 31.15 30.39 31.60 30.52 30.16 29.03 29.74 27.02 26.09 25.22 25.20 26.70 24.05 23.70 24.79 26.56 25.43 24.99 24.89 24.46 25.41 25.89 27.97 29.60 29.66 29.32 28.29 27.70 26.99 24.96 24.04 22.55 22.60 21.27 19.87 20.00 19.59 18.57 16.66 16.14 16.19 15.33 13.98 10.32 5.01 9.17 6.12
35.02 32.15 27.44 26.01 21.77 20.88 19.65 27.64 23.59 28.09 23.51 25.75 27.35 24.87 24.56 23.71 28.49 28.28 21.58 22.72 22.30 24.39 26.33 25.81 25.09 25.19 23.63 24.21 25.25 25.71 26.53 25.84 23.52 22.87 22.28 21.23 20.66 20.08 20.08 19.94 20.20 18.27 17.33 18.01 18.74 16.82 14.93 13.47 11.36 8.47 6.30 6.81 2.71 -4.19
33.30 25.21 24.99 18.01 21.54 16.76 17.85 20.16 25.30 24.59 23.14 21.08 20.61 18.31 21.81 24.63 25.84 20.33 17.15 17.53 19.87 21.88 22.50 23.21 23.83 21.76 21.43 20.69 19.32 19.99 23.07 22.95 21.59 21.71 22.25 19.91 17.44 16.89 17.45 16.54 16.24 16.57 16.64 15.86 14.18 12.14 10.74 7.45 5.93 5.96 -1.27 -8.50 -10.86 -9.77
20.03 19.24 16.70 12.53 19.32 18.89 14.62 20.48 15.80 16.87 13.45 15.71 14.18 16.82 19.06 22.32 15.85 15.07 13.69 15.75 16.51 15.90 17.59 20.83 19.16 19.34 17.09 16.68 16.87 17.68 20.82 20.44 17.47 15.36 16.82 19.47 17.43 16.46 15.14 14.31 13.12 13.46 13.59 9.68 5.85 3.52 2.34 1.04 -3.31 -8.32 -5.13 -11.22 -0.79 -2.16
19.22 19.82 20.29 21.73 21.15 17.88 15.47 18.23 12.48 19.95 12.53 9.53 19.37 22.28 19.20 10.92 6.83 8.87 14.21 14.69 13.90 15.53 15.05 16.48 16.82 15.42 14.87 15.97 14.66 14.59 16.17 19.81 17.51 13.35 13.69 15.34 15.20 15.07 13.34 11.46 9.47 8.35 9.56 3.50 0.25 -4.02 -5.97 -7.44 -9.23 -7.96 -10.68 -3.25 0.81 -3.25
14.55 15.06 23.08 27.51 25.67 23.09 16.03 16.73 18.58 13.15 10.48 15.35 14.71 9.20 15.11 1.75 3.78 13.50 18.07 18.32 16.61 17.04 18.24 17.66 17.85 16.33 14.94 14.89 15.83 15.53 15.28 15.61 14.33 13.53 14.49 13.87 12.93 11.95 6.55 -0.31 -0.29 3.37 5.44 -0.91 -6.40 -8.16 -7.60 -10.13 -11.04 -11.40 -13.04 -13.58 -11.04 -10.68
21.91 23.07 18.52 21.03 14.32 18.19 9.41 8.95 8.33 10.25 10.50 19.20 15.15 4.83 0.63 1.75 7.03 15.71 16.64 19.96 18.98 19.28 17.68 17.14 16.33 14.45 11.92 10.61 10.34 10.07 10.29 12.36 13.33 12.46 11.34 10.53 9.37 7.73 5.14 5.04 3.30 10.82 3.73 0.13 -2.73 -2.75 -4.88 -1.99 -5.78 -6.15 -7.78 -11.22 -9.59 -12.13
22.49 24.98 17.32 16.34 12.59 14.10 15.45 13.83 12.91 18.18 21.70 20.18 5.36 6.05 6.95 11.60 12.44 14.23 16.47 17.26 17.77 15.94 12.52 11.76 12.50 11.11 8.85 7.44 5.86 5.45 5.22 2.82 -1.08 -4.16 -8.50 -7.78 -6.15 -1.78 4.36 5.68 3.44 2.04 -4.17 -3.07 2.18 4.39 1.68 0.75 -0.21 -2.40 -7.60 -10.13 -3.29 -7.05
15.56 18.12 11.97 7.10 7.37 11.83 13.23 10.94 11.64 9.72 17.19 11.63 12.71 12.02 10.60 10.18 12.27 14.14 14.14 12.78 10.58 8.52 7.56 8.00 8.54 6.39 3.02 -2.88 -2.88 0.97 -0.75 -2.22 -0.21 -5.32 -9.96 -11.22 -5.99 -2.40 -3.43 -2.34 0.48 1.27 0.40 -5.97 -3.61 -3.30 -0.35 -9.42 -7.42 -9.07 -7.78 -9.41 -13.94 -12.85
17.23 12.88 9.80 8.29 8.36 18.64 20.83 12.82 13.62 10.85 4.95 2.69 2.29 -0.04 1.36 5.70 7.08 10.95 11.26 9.32 10.54 6.75 5.82 2.08 -1.35 -7.42 -2.54 -5.24 -9.77 -11.40 -7.42 -2.26 -5.24 -6.33 -7.96 -9.95 -12.67 -13.94 -13.40 -12.85 -13.22 -12.31 -10.68 -8.68 -5.78 -5.60 -5.78 -8.32 -10.50 -7.96 -6.33 -7.96 -10.13 -13.22
6.70 5.04 5.76 9.21 9.63 14.30 18.90 20.32 19.46 12.05 6.77 1.98 2.15 -3.06 -0.74 -4.01 -4.15 1.96 7.81 2.90 4.35 2.30 -0.90 -3.79 -4.70 -1.98 -7.78 -9.77 -10.50 -4.70 -1.68 -3.97 -4.15 -5.60 -3.61 -5.24 -8.50 -11.22 -13.40 -11.77 -15.39 -16.12 -16.84 -17.21 -17.93 -16.66 -15.57 -12.49 -7.78 -6.33 -4.53 -8.32 -11.22 -15.94
6.79 2.71 1.22 4.93 10.61 9.59 5.37 12.00 9.78 7.35 5.76 -0.16 2.80 1.20 -1.27 -1.61 -3.29 2.02 7.80 1.37 -2.39 -6.51 -7.23 -7.78 -5.06 0.38 1.82 -4.01 -6.15 -7.78 -6.51 -10.68 -9.59 -1.80 0.38 0.38 -0.78 -1.61 -9.95 -14.12 -15.94 -15.39 -14.49 -16.84 -18.29 -19.20 -13.40 -12.85 -12.49 -10.50 -7.15 -7.66 -10.50 -14.30

GFSWCAN_sfc_wetblb_051.txt.gz
Wetbulb
44.16 44.68 44.61 44.23 44.20 44.43 44.21 44.23 44.10 44.21 44.26 44.32 43.92 44.18 45.16 44.97 45.73 44.64 43.37 47.90 44.29 39.68 41.10 46.19 45.62 42.69 43.19 42.39 37.68 40.91 43.76 43.01 39.56 35.58 33.68 31.09 27.90 34.82 33.44 36.50 34.04 34.18 30.40 25.95 26.88 22.93 26.53 40.79 39.44 34.42 36.78 39.52 40.95 40.86
43.26 43.39 43.07 43.58 43.64 43.81 43.78 43.94 44.01 43.85 43.70 43.75 44.16 44.69 45.16 45.66 46.49 45.22 42.11 47.74 47.77 41.41 42.15 45.99 45.99 46.45 45.47 44.81 43.35 43.47 42.32 43.33 43.64 39.65 35.97 34.37 32.10 29.04 32.71 30.34 38.93 32.84 36.47 33.41 34.17 32.44 39.32 41.29 39.88 40.85 41.45 41.57 41.00 41.74
43.34 43.36 43.42 43.33 43.32 43.21 43.47 43.51 43.67 43.81 44.27 44.44 44.98 45.36 45.64 45.82 45.83 44.24 44.17 46.00 44.92 40.09 39.68 41.77 43.45 48.14 49.65 47.81 49.94 43.45 43.31 47.70 46.49 46.35 40.38 38.54 33.38 35.25 30.71 31.35 35.11 38.72 41.31 36.09 36.28 39.21 40.32 41.24 40.84 40.67 41.29 40.53 41.18 42.60
43.78 43.57 43.71 43.76 43.67 43.64 43.78 43.84 43.87 44.25 44.53 44.81 44.86 45.16 45.31 45.94 46.04 46.38 44.53 45.98 43.36 43.14 35.49 39.95 49.43 49.91 53.21 52.89 51.36 51.20 48.84 49.48 48.20 45.55 37.88 35.91 33.54 41.02 31.63 38.09 37.02 40.62 40.86 37.62 36.87 39.01 40.26 39.85 38.49 38.53 38.35 38.69 37.82 38.07
43.97 43.90 43.93 43.91 43.74 43.78 43.89 43.64 43.52 44.29 44.45 44.71 44.42 44.58 45.75 46.50 46.87 45.74 45.90 45.73 47.04 39.95 37.74 40.81 46.44 49.28 53.47 53.08 52.20 51.53 50.51 47.48 42.81 38.10 34.75 35.56 40.20 39.63 38.11 38.71 35.22 40.29 39.34 35.91 33.89 40.88 39.53 38.63 38.64 39.35 37.86 36.64 36.80 36.17
44.17 43.94 43.94 44.13 44.05 44.11 43.79 44.56 43.51 43.19 44.34 43.12 46.56 47.11 47.09 46.86 46.06 44.29 38.43 42.98 47.06 48.05 41.78 35.08 45.11 46.20 50.87 51.53 51.14 49.46 49.60 47.22 44.68 40.37 37.55 41.81 43.37 39.36 34.82 34.87 41.05 41.88 42.88 42.11 40.51 43.15 39.08 38.21 37.78 38.10 36.54 36.05 36.01 35.39
44.21 44.09 44.21 44.29 44.42 44.67 44.50 44.24 44.09 44.69 44.43 45.56 46.45 46.66 46.61 46.24 42.90 39.08 38.21 44.08 46.82 48.55 41.48 35.16 36.21 43.79 51.69 48.50 46.06 47.53 47.17 44.31 45.02 41.51 36.78 38.56 40.30 38.50 28.06 31.31 39.60 40.73 40.13 39.41 39.33 38.75 35.73 36.61 34.47 36.41 35.59 35.24 35.14 33.69
44.28 44.44 44.44 44.43 44.70 44.91 44.89 44.88 45.35 45.72 46.15 46.31 46.36 46.35 46.47 46.45 44.48 39.39 45.91 47.94 48.11 43.82 43.61 34.55 35.88 39.10 49.32 43.10 42.15 45.84 42.97 43.47 43.82 41.16 38.27 34.54 37.97 30.84 32.21 37.42 39.06 39.14 39.00 38.68 38.00 38.78 37.45 35.93 35.39 34.10 34.46 33.97 32.42 31.52
44.37 44.38 44.42 44.59 44.75 44.96 44.99 45.17 45.42 45.70 45.80 46.08 46.27 46.22 44.88 43.29 37.63 42.76 47.94 48.98 49.66 42.92 35.72 33.66 33.85 33.89 44.91 41.97 40.68 39.78 43.06 36.02 42.25 36.40 37.49 39.68 33.72 32.85 34.76 36.99 38.17 38.83 37.95 35.04 35.71 35.43 35.17 33.61 33.20 33.34 33.16 31.89 29.65 28.51
44.05 44.33 44.34 44.30 44.31 44.15 44.16 44.09 44.47 45.30 45.65 45.85 45.18 42.27 37.62 40.86 47.63 47.86 46.34 42.37 42.36 42.89 42.29 34.59 39.73 36.38 43.04 35.84 35.67 34.95 35.25 34.74 33.83 36.39 39.61 34.30 33.53 36.50 36.65 38.18 37.79 37.20 36.46 36.01 32.99 31.70 32.41 32.35 32.52 32.39 31.72 31.70 30.73 28.66
43.64 43.83 43.74 43.84 43.81 43.54 43.67 43.87 44.68 45.26 45.21 42.97 40.19 38.92 46.80 48.10 45.57 40.56 34.51 34.87 35.68 33.06 35.98 37.72 38.41 38.29 42.01 35.56 34.54 34.90 33.11 32.71 32.53 34.46 35.42 32.37 32.11 35.15 37.77 37.85 38.38 38.35 38.26 38.20 37.51 36.45 35.75 34.95 33.53 31.72 30.24 29.99 29.46 29.00
44.27 44.17 43.87 43.65 43.59 43.61 43.84 43.97 44.44 44.31 43.34 44.20 46.32 48.19 47.06 43.87 37.69 33.92 31.63 32.40 32.56 31.81 34.81 35.64 36.83 39.58 37.21 40.61 33.69 33.90 32.19 29.58 30.20 36.06 33.03 30.89 32.21 36.66 37.84 37.49 38.33 38.97 38.48 37.97 38.31 36.86 36.34 34.92 33.61 31.40 29.72 29.05 28.95 28.20
45.02 44.37 44.16 44.04 44.08 44.45 44.45 44.68 44.66 46.58 47.78 47.67 42.18 36.63 38.77 33.42 31.40 28.96 28.00 29.98 30.18 32.55 34.54 34.19 33.65 34.13 36.05 36.79 31.57 28.80 25.00 26.80 33.09 32.13 30.86 29.13 34.02 37.52 38.01 38.17 37.26 38.25 37.89 36.60 35.19 34.62 33.31 31.19 30.69 29.49 28.13 27.51 26.39 24.95
45.17 46.00 46.43 46.32 45.79 45.36 45.21 45.94 46.04 46.69 44.13 36.08 34.86 29.32 30.47 28.83 29.08 29.24 30.83 31.75 32.14 32.20 32.94 34.19 33.12 33.63 32.58 33.02 31.52 24.65 31.82 32.20 21.52 20.34 23.41 31.61 34.72 35.59 35.65 35.27 34.12 33.02 32.44 32.50 32.09 31.25 29.37 27.94 26.88 26.93 26.59 25.35 23.37 22.48
43.84 44.31 44.45 44.34 45.65 46.46 46.63 46.23 44.83 42.31 36.89 32.58 32.90 26.90 28.09 30.89 31.79 31.81 32.20 32.37 32.85 34.15 33.29 33.33 33.21 32.86 32.32 31.68 30.71 30.50 28.68 26.72 22.38 22.08 29.94 33.09 34.39 33.64 32.88 32.38 31.51 30.93 30.69 30.50 30.66 29.22 27.67 26.42 25.44 25.06 25.56 24.79 22.91 20.69
42.92 43.23 41.73 43.58 44.30 44.68 44.03 42.82 40.97 38.48 33.02 32.21 30.64 30.02 31.18 31.58 30.21 31.16 31.75 32.00 34.61 32.91 31.99 30.94 28.20 26.33 30.30 29.88 28.45 26.86 21.22 21.28 27.78 30.36 32.62 33.25 32.26 31.86 31.66 31.92 32.00 31.64 30.37 29.29 29.04 28.01 26.91 25.69 24.58 24.23 24.26 22.71 20.80 19.40
42.11 39.00 42.15 44.08 43.38 43.53 43.56 39.90 37.07 32.20 30.26 30.32 28.60 31.79 30.89 30.87 30.18 31.08 31.60 31.70 34.57 33.29 32.00 29.39 29.03 28.72 31.24 28.41 26.43 28.37 25.44 28.16 30.90 31.76 32.60 32.31 31.58 31.53 31.87 31.20 30.81 30.16 29.17 28.07 27.13 26.89 26.27 25.67 23.61 22.42 21.24 21.83 22.30 20.35
35.99 37.76 43.08 44.05 43.15 41.04 39.15 37.82 33.63 31.58 29.43 30.65 28.23 29.73 30.23 30.06 29.55 30.05 31.12 32.14 32.83 32.53 32.25 29.22 31.01 25.22 22.64 23.49 24.59 28.48 29.53 30.81 31.52 31.46 31.65 32.31 32.25 32.32 32.45 31.19 31.24 30.69 29.70 28.78 26.84 25.74 25.42 24.31 23.68 22.63 22.70 22.68 21.12 20.49
38.51 39.34 41.60 42.44 40.71 35.35 32.27 33.27 33.80 29.02 29.58 31.25 31.52 31.70 31.42 29.66 29.98 30.31 30.50 31.87 32.10 32.16 30.33 27.63 22.54 21.04 21.88 26.31 27.32 29.20 29.76 30.50 29.64 30.59 30.95 31.76 32.20 31.78 31.63 31.04 30.21 29.08 28.39 27.56 26.14 24.60 23.60 23.12 22.57 22.02 20.71 20.12 18.34 18.18
40.51 40.53 40.03 40.69 39.44 30.87 29.68 30.39 33.81 31.01 28.75 30.15 30.98 27.04 27.42 27.25 28.53 28.18 27.84 28.44 29.45 28.04 23.86 20.89 19.79 21.29 22.25 25.47 29.32 30.86 31.22 31.79 30.82 28.25 26.69 27.42 29.14 28.86 28.77 28.42 26.60 25.42 23.93 23.31 22.50 21.75 20.52 19.61 19.83 18.44 17.52 16.56 15.45 14.27
36.06 36.41 37.10 35.42 31.73 32.14 29.93 30.15 31.12 31.36 30.83 30.41 31.63 30.55 26.89 26.69 23.65 22.91 23.04 26.53 23.47 23.42 20.93 22.31 21.85 23.57 25.68 25.78 27.75 29.65 29.31 29.47 27.96 27.97 25.96 24.67 26.43 26.33 25.43 25.13 24.60 23.06 20.84 19.74 18.32 17.70 17.51 16.99 17.14 16.06 13.32 9.30 9.72 11.68
32.19 36.45 27.32 30.45 26.67 27.22 27.46 30.17 30.92 31.58 30.15 29.76 28.89 28.34 24.95 23.08 21.17 22.58 24.55 19.26 18.84 20.07 23.32 22.04 21.80 22.47 21.86 22.43 23.46 25.28 25.78 25.18 24.88 23.60 23.03 24.01 21.71 20.98 20.69 21.89 20.98 18.91 18.50 18.27 17.68 15.71 15.64 16.15 15.72 13.83 10.65 7.80 10.54 9.57
33.02 30.88 25.90 25.40 21.21 19.94 18.83 27.05 23.68 28.02 23.67 24.93 26.06 23.85 23.57 23.71 25.03 26.02 17.65 19.02 18.74 21.38 23.05 23.54 23.44 23.16 21.81 22.43 23.45 23.10 24.07 22.87 20.87 20.42 19.90 19.03 18.99 18.58 18.19 18.60 19.04 17.10 16.01 16.52 17.44 15.72 14.08 14.19 11.45 9.08 7.84 7.62 5.19 0.16
31.08 20.62 16.14 15.07 18.48 11.69 15.75 17.02 23.37 22.14 20.59 19.53 19.64 17.40 23.21 22.62 22.76 17.00 13.41 14.88 17.47 19.61 19.98 19.63 20.79 19.51 19.34 18.87 17.51 18.23 20.60 20.88 18.75 18.87 19.70 17.65 15.15 14.70 15.26 14.27 14.14 13.90 14.03 13.49 11.82 9.88 8.50 6.64 6.60 5.65 1.88 -3.52 -5.29 -7.64
19.38 17.26 15.12 10.45 15.01 14.77 9.08 9.63 12.33 15.25 8.60 11.19 10.98 13.83 20.12 19.35 11.57 10.82 10.36 13.16 14.84 14.43 15.75 18.15 17.25 16.63 14.97 15.02 15.51 16.31 18.36 17.60 15.27 12.90 14.92 17.20 14.89 13.79 12.06 11.37 10.81 10.88 11.62 7.22 4.65 3.50 2.13 0.68 -1.77 -4.08 -1.50 -9.63 -2.95 -7.82
14.51 17.29 19.20 11.69 16.59 13.94 13.06 9.52 12.66 10.44 7.86 9.53 17.56 19.43 9.68 5.53 1.19 4.45 11.87 12.54 12.06 13.84 13.19 14.43 14.49 13.92 12.89 13.88 12.28 12.14 13.56 16.68 14.25 10.18 10.81 12.19 12.57 12.22 9.71 7.34 6.63 6.78 7.41 1.91 -1.23 -4.23 -4.75 -7.85 -11.63 -10.73 -12.53 -8.73 -6.73 -11.08
14.93 15.46 19.72 25.20 22.51 20.30 12.82 11.01 14.60 9.31 8.37 10.13 11.37 7.10 3.47 -2.96 -0.75 11.36 16.96 16.41 14.42 15.62 16.27 15.50 14.72 12.72 11.43 11.49 12.60 12.73 13.13 13.13 11.98 10.92 11.21 9.74 8.94 8.30 3.90 -0.94 -1.14 3.74 4.85 -3.05 -8.58 -9.28 -6.91 -9.63 -12.35 -12.35 -12.35 -18.15 -17.07 -15.61
23.37 22.16 10.84 11.61 11.72 14.76 7.22 4.14 4.84 6.82 8.94 17.92 9.09 -1.52 -4.37 -3.83 4.18 12.97 14.84 18.29 16.72 16.19 13.93 11.92 10.32 8.76 6.95 6.61 7.48 8.45 9.42 7.68 7.95 6.85 5.51 5.65 4.95 4.72 4.66 5.75 6.08 9.27 3.01 -0.45 -2.40 -4.92 -9.81 -6.55 -5.10 -6.73 -10.36 -10.18 -8.36 -14.89
17.30 16.38 14.25 6.85 7.71 10.26 12.79 7.37 8.04 14.73 16.70 14.38 -1.52 1.75 3.71 8.63 9.08 10.42 13.69 14.46 14.37 12.17 8.86 7.52 6.96 2.38 3.21 3.96 2.20 1.36 2.73 -0.76 -4.20 -7.36 -11.83 -14.16 -11.26 -5.53 -2.11 -4.22 -3.69 -2.77 -2.60 -4.21 -0.93 5.82 3.77 0.66 -2.38 -8.91 -9.81 -11.26 -5.48 -10.18
13.44 12.96 7.83 0.32 4.48 8.22 10.36 8.04 6.79 4.25 11.45 7.56 10.11 9.24 8.08 8.14 10.26 13.20 11.61 9.09 6.85 4.14 0.69 -0.39 -1.69 -1.06 -10.36 -9.45 -8.91 -3.53 -2.96 -7.68 -8.70 -9.45 -12.90 -12.35 -8.91 -9.10 -16.88 -16.34 -14.89 -12.35 -14.71 -15.61 -13.44 -8.77 -1.12 -7.83 -6.01 -8.93 -10.73 -11.45 -15.98 -17.07
10.01 8.32 6.03 4.87 7.13 11.05 11.88 5.57 8.76 4.42 -2.36 -2.02 -2.39 -3.41 -0.87 3.65 4.55 8.35 7.24 4.35 4.50 1.24 -0.95 -6.56 -8.36 -13.98 -9.09 -10.72 -14.53 -13.80 -10.36 -5.70 -7.46 -7.09 -8.00 -9.99 -13.08 -14.35 -16.34 -17.25 -18.15 -20.51 -21.23 -20.51 -20.51 -19.60 -17.25 -17.25 -16.52 -13.98 -10.36 -9.99 -11.99 -11.08
4.61 -1.84 3.85 5.38 9.87 14.04 10.83 12.09 4.82 1.76 -2.74 -5.47 -3.29 -8.91 -5.11 -6.63 -7.64 -0.07 3.30 -1.45 -3.29 -6.73 -6.73 -11.45 -9.27 -5.28 -8.54 -10.72 -12.35 -12.17 -7.09 -9.99 -12.71 -13.26 -11.81 -10.72 -10.36 -12.17 -14.16 -13.62 -17.79 -19.97 -19.24 -21.23 -22.32 -20.87 -19.60 -17.43 -18.15 -18.33 -16.88 -10.90 -9.50 -9.13
-0.57 -2.79 -3.59 0.79 6.07 7.17 6.42 12.19 7.85 4.33 1.79 -1.47 -0.60 -2.07 -4.56 -6.54 -8.20 -0.89 2.03 -3.02 -5.68 -10.04 -10.54 -12.71 -11.45 -6.73 -2.95 -6.92 -10.57 -14.16 -12.53 -16.34 -15.25 -5.10 -3.65 -2.56 -8.00 -7.82 -14.71 -18.52 -20.15 -20.15 -19.06 -21.05 -20.51 -20.69 -20.33 -19.97 -19.24 -13.10 -9.41 -10.43 -10.60 -11.15

GFSWCAN_sfc_wetblb_054.txt.gz
Wetbulb
45.78 46.19 46.19 46.27 46.22 45.90 45.55 45.18 45.11 44.79 45.47 45.40 45.33 45.28 45.59 46.03 46.54 45.03 42.75 45.50 42.92 39.41 40.72 44.48 43.25 40.42 40.26 40.47 34.01 37.83 39.76 40.37 36.71 33.75 32.57 33.07 28.23 34.74 33.26 36.06 35.08 34.86 31.53 26.14 26.21 23.04 27.20 40.13 38.85 34.81 36.94 37.61 39.10 39.60
44.23 44.18 44.32 43.98 44.27 44.29 44.56 44.54 45.09 45.12 45.14 45.10 45.17 45.12 45.71 46.09 46.47 45.01 40.41 47.11 47.57 41.16 41.45 44.67 44.20 44.61 43.59 43.42 41.83 40.32 39.35 40.35 41.01 37.51 34.71 31.50 29.90 29.07 32.91 31.31 37.47 34.51 37.17 34.03 34.65 34.11 39.25 40.06 38.96 39.89 40.05 39.54 39.89 40.35
43.79 44.10 44.29 44.21 44.23 44.38 44.93 44.60 44.86 44.86 44.81 44.84 44.86 45.16 45.64 45.82 46.40 44.73 41.23 43.00 44.69 40.52 40.39 41.32 39.98 46.22 47.66 46.23 46.95 40.12 41.23 45.90 43.74 43.84 38.44 35.94 31.71 33.84 29.73 31.88 34.07 37.55 39.45 35.71 36.18 39.01 39.71 40.84 40.74 40.44 40.44 40.65 41.56 41.29
43.39 43.41 43.52 43.60 43.64 43.57 43.45 43.34 43.23 43.02 43.19 44.20 44.16 44.16 45.22 45.02 45.69 45.00 41.93 44.35 43.76 39.19 32.73 38.52 48.87 46.59 49.75 48.66 46.98 47.73 46.41 47.68 46.13 43.75 37.08 35.40 32.10 39.55 32.28 36.42 36.07 38.28 40.11 37.08 35.84 38.43 39.72 40.79 38.59 38.87 38.19 38.93 38.22 37.63
43.71 43.58 43.46 43.41 43.40 43.38 43.60 43.75 43.60 43.51 43.71 43.98 44.36 44.58 45.26 45.24 45.36 43.96 43.59 43.99 44.31 38.82 35.59 35.73 43.82 46.95 48.67 50.65 49.59 48.97 48.63 45.81 41.43 36.92 34.04 35.10 37.98 38.06 34.68 35.25 33.59 39.73 38.29 35.73 34.65 41.85 40.51 39.76 38.60 38.95 37.91 36.84 37.08 35.80
43.80 43.71 43.68 43.75 43.71 43.68 43.62 43.68 43.99 44.20 44.31 44.33 44.08 44.99 44.74 44.95 45.09 42.09 37.74 44.49 47.45 45.06 36.12 32.70 42.62 42.62 47.14 51.39 51.19 48.75 48.95 45.01 42.96 39.26 34.28 38.81 41.50 39.98 33.23 31.41 40.05 41.71 42.43 43.45 41.69 42.93 38.17 38.31 37.24 37.35 35.97 35.69 35.80 35.12
43.85 43.77 43.69 43.35 43.54 43.72 43.76 43.85 43.97 44.01 44.37 44.28 44.87 44.96 45.10 44.60 43.61 40.22 37.44 41.64 47.04 45.77 39.21 31.08 32.69 41.34 48.78 50.33 47.60 47.85 45.37 43.70 43.28 39.51 34.48 37.63 38.76 39.50 27.69 31.06 38.95 40.42 40.07 40.35 39.22 38.70 35.73 36.94 35.00 35.47 35.05 34.62 34.78 33.08
44.09 44.01 43.45 43.28 43.35 43.03 43.16 43.36 42.53 43.05 43.82 44.29 44.67 44.82 45.41 45.57 44.39 39.39 42.23 45.69 46.61 43.57 41.86 29.91 33.74 37.97 47.20 43.16 42.38 46.31 42.09 41.38 41.69 38.97 34.93 33.69 36.92 30.79 33.41 36.55 37.50 37.79 38.09 37.96 36.83 37.48 37.25 35.32 34.40 32.99 33.32 32.92 31.33 30.36
44.06 44.12 44.24 44.18 43.76 43.65 44.02 42.88 44.02 45.57 45.97 45.81 45.93 45.46 44.21 41.97 38.57 38.50 46.84 46.54 45.76 40.99 34.10 32.17 33.06 32.12 42.07 41.21 39.97 41.14 41.50 34.93 40.33 34.78 36.58 37.65 32.58 33.00 35.77 35.79 36.27 37.15 36.99 34.26 35.33 35.00 34.74 32.94 32.33 32.28 32.10 31.45 29.97 29.20
44.14 44.25 44.23 44.49 44.51 44.77 44.93 45.15 45.45 45.77 45.90 45.33 42.76 39.12 34.00 38.00 45.48 47.32 45.01 41.06 40.42 39.68 40.99 33.88 37.56 34.19 42.11 35.49 34.96 35.10 34.95 34.57 33.67 36.15 39.20 31.48 33.24 35.10 36.15 37.47 38.07 36.68 35.86 35.45 32.61 31.26 31.85 31.69 31.31 31.07 30.50 30.96 30.41 30.34
44.41 44.35 44.45 44.47 44.64 44.70 44.83 45.08 45.05 45.58 44.53 39.58 37.59 35.91 41.53 46.91 43.69 39.82 34.34 35.10 35.46 33.45 36.29 36.13 37.23 35.78 40.87 35.53 33.68 33.05 32.77 33.32 32.17 34.52 34.94 32.55 33.66 35.20 37.32 37.39 38.19 37.45 37.27 37.51 36.46 35.26 34.88 33.30 31.46 29.83 29.27 30.08 30.38 30.29
44.97 44.63 44.51 44.21 44.06 44.25 44.64 44.82 44.64 42.55 41.31 42.73 43.24 45.82 45.29 42.94 36.81 32.61 31.76 32.17 33.06 31.41 34.12 34.92 36.62 38.46 36.94 40.89 34.67 34.28 32.50 31.75 31.07 36.01 33.27 31.27 33.30 36.57 37.09 36.78 37.38 38.07 37.26 36.32 36.48 34.62 34.23 33.36 32.13 30.66 29.65 29.01 28.65 27.32
44.01 44.19 44.31 43.98 43.80 44.11 44.17 44.56 44.66 44.70 45.41 43.85 42.39 35.97 37.60 32.73 30.89 25.77 26.57 29.83 30.72 32.76 34.16 34.44 33.51 34.33 35.73 37.82 32.56 31.49 29.22 30.17 33.42 32.20 31.37 31.47 34.94 36.25 36.74 37.27 36.89 37.84 36.91 35.93 34.94 34.40 32.81 31.50 31.33 30.26 28.25 27.62 26.65 25.45
44.17 44.11 44.45 44.51 44.26 44.34 44.48 44.75 44.54 44.35 43.03 35.41 33.14 27.92 29.96 28.48 28.48 29.27 30.86 31.81 31.84 32.00 32.77 33.67 32.94 33.12 32.58 32.32 30.87 30.47 31.76 31.85 27.95 26.55 23.62 31.58 34.48 35.06 35.58 35.79 34.55 33.27 32.68 32.09 31.07 30.68 29.83 29.12 27.87 27.43 26.49 25.16 24.02 23.22
44.27 44.28 44.33 44.09 44.30 44.30 44.48 44.80 44.66 42.60 37.33 31.85 31.75 26.96 28.26 30.93 31.66 31.48 32.03 32.38 32.70 33.80 32.93 33.39 33.08 34.35 31.92 30.81 30.19 30.56 29.33 26.61 24.81 19.77 29.54 32.19 33.63 33.74 33.07 32.71 31.87 31.32 30.58 29.64 29.18 27.62 26.79 26.45 25.12 23.86 23.82 23.91 22.93 21.28
44.37 43.47 42.03 45.77 45.85 45.83 45.00 43.38 41.49 39.16 33.75 31.77 30.16 28.59 30.09 30.01 29.27 30.59 30.83 31.48 34.30 32.74 33.09 32.73 31.04 31.03 29.76 29.59 27.18 26.71 25.00 23.17 27.25 29.79 31.82 32.48 31.69 31.68 31.53 31.67 31.57 31.05 30.09 29.07 28.15 27.13 26.16 24.93 23.93 22.90 22.47 21.41 20.43 19.75
42.80 39.38 42.55 44.73 44.38 43.74 43.66 40.07 36.42 31.44 30.11 29.56 28.05 29.57 29.40 29.38 27.92 29.43 30.33 30.23 33.47 32.96 31.46 30.94 28.81 27.03 31.16 27.42 25.15 27.53 24.29 27.66 30.12 30.86 31.55 31.84 30.99 30.64 30.29 29.87 29.64 29.25 28.41 27.58 26.86 26.04 24.92 24.65 23.54 22.27 20.31 21.00 21.39 19.50
37.05 39.17 43.96 44.37 43.19 41.70 39.14 37.98 32.35 30.97 28.44 30.26 27.31 28.06 27.71 27.41 26.20 27.29 28.91 31.30 31.78 31.84 30.37 26.09 29.39 23.54 21.36 21.46 22.81 27.31 29.36 29.91 30.61 30.82 30.79 31.31 31.47 31.31 30.94 29.10 28.92 28.21 27.41 27.19 26.44 25.41 24.67 23.73 22.98 22.07 22.14 20.91 19.55 19.11
37.84 38.82 42.63 43.93 41.99 36.93 32.82 32.46 33.49 27.74 27.67 29.13 27.89 27.91 27.87 26.28 27.62 28.56 28.93 30.13 31.44 30.68 28.71 24.93 18.75 17.32 17.48 23.32 22.60 26.44 29.22 29.76 28.16 28.34 29.06 31.00 31.13 30.28 29.91 29.50 28.68 27.33 26.46 26.10 25.37 24.20 23.97 23.84 22.33 21.84 21.48 21.00 18.81 17.34
39.99 39.57 39.87 40.75 39.78 32.08 30.18 29.99 33.44 29.37 27.80 28.63 28.20 24.38 24.03 23.23 24.35 24.88 25.20 26.63 26.44 24.95 20.60 18.28 16.88 18.57 19.33 21.75 24.39 27.99 30.09 31.22 28.30 25.05 24.24 25.34 26.86 26.72 26.11 25.32 24.32 24.13 22.85 22.29 21.70 21.45 20.11 18.23 18.02 17.64 17.51 17.34 15.98 14.09
35.41 35.13 35.86 34.71 31.01 31.88 30.52 30.28 30.56 31.06 31.03 28.01 28.91 27.52 25.14 25.23 20.95 19.45 19.83 23.81 20.28 19.66 17.46 19.21 19.11 21.00 23.09 23.61 24.80 24.90 24.17 24.71 23.95 25.12 23.36 21.11 23.43 23.50 22.77 22.69 22.52 21.41 19.61 18.89 17.69 17.05 17.03 16.15 16.17 15.49 13.95 12.56 12.57 12.61
30.84 35.36 27.32 29.62 26.85 26.83 26.54 28.55 30.09 31.40 29.45 29.41 28.32 28.35 24.57 19.27 18.04 19.46 21.39 16.48 16.08 16.97 19.85 20.07 19.44 20.30 20.13 20.08 20.91 22.92 23.22 22.67 22.49 21.14 20.58 21.05 18.76 18.59 18.48 19.52 18.47 16.69 16.43 16.08 15.64 14.42 14.75 14.90 14.13 13.13 11.88 11.64 12.83 10.65
32.06 29.47 24.28 24.33 20.36 19.27 17.74 26.35 21.17 25.69 18.87 21.53 23.42 21.25 20.71 19.45 22.49 23.55 14.96 16.53 16.58 19.18 20.32 20.21 21.49 20.88 19.55 20.12 20.69 20.70 21.32 20.48 18.37 17.97 17.42 16.41 16.16 15.76 14.41 14.49 15.82 14.28 12.70 13.22 14.41 13.15 11.55 11.82 10.59 9.15 9.24 9.18 7.91 5.22
29.81 19.53 15.16 14.49 17.54 10.38 14.44 15.40 21.99 20.37 18.22 17.04 16.74 16.05 20.38 16.72 19.59 13.32 11.19 12.90 15.68 17.74 17.76 17.98 18.75 17.66 17.58 16.82 14.93 15.08 17.74 18.56 16.64 16.47 17.09 14.74 12.16 11.42 11.89 11.08 11.02 10.76 11.46 10.71 9.42 7.44 6.53 4.59 4.93 4.73 2.59 0.18 -0.54 -2.94
19.73 17.68 14.42 9.75 13.16 13.19 7.56 7.42 10.66 13.51 11.00 12.99 12.86 16.30 14.35 16.05 9.55 8.69 7.38 11.67 13.27 12.82 13.97 16.49 15.65 14.68 13.36 13.22 13.59 14.09 15.68 15.06 12.80 10.05 12.37 15.17 12.78 11.35 9.39 8.78 8.39 8.57 9.28 5.33 2.88 1.86 1.06 0.11 -1.89 -2.12 -0.80 -7.08 -1.86 -8.89
15.61 17.03 18.91 14.44 16.21 13.91 16.07 13.92 14.41 5.41 6.61 8.15 10.16 13.67 5.43 2.34 -1.30 3.03 10.32 10.92 10.95 12.40 11.05 11.58 12.54 11.74 10.43 11.09 9.77 10.12 11.60 13.92 11.83 7.58 7.96 9.11 8.63 6.74 5.21 3.95 4.06 5.70 5.33 -0.80 -4.50 -6.00 -5.63 -8.35 -12.15 -10.89 -13.42 -9.80 -10.70 -15.96
16.49 14.39 16.57 22.01 21.02 17.96 9.13 7.95 11.77 6.25 3.50 4.32 6.34 1.82 -1.92 -6.19 -3.45 9.76 14.32 14.54 12.37 11.56 11.11 10.10 11.07 10.06 9.57 9.70 10.72 10.22 9.85 9.49 8.18 7.18 7.47 6.62 6.06 6.18 2.95 -1.47 -0.92 3.09 5.25 0.70 -4.56 -7.44 -7.80 -9.62 -12.88 -11.07 -13.24 -18.86 -20.13 -18.68
22.45 17.14 8.26 8.46 8.67 12.74 5.06 1.58 2.52 4.51 8.20 14.93 5.00 -5.29 -8.35 -8.00 1.52 10.50 13.21 15.17 12.82 11.95 10.10 8.70 7.28 6.32 5.74 5.80 6.33 5.62 5.71 4.32 2.95 2.38 2.24 2.34 1.67 0.38 -1.80 -1.93 -1.41 4.16 -4.76 -7.62 -7.98 -7.80 -7.80 -7.62 -5.99 -7.98 -11.43 -11.61 -8.89 -12.34
12.74 11.53 11.73 3.95 4.98 7.36 8.34 3.79 5.21 10.42 11.95 8.83 -5.48 -2.55 1.37 6.75 7.20 9.01 11.16 11.75 11.90 9.61 5.22 3.04 1.78 -3.13 -0.59 1.38 -0.61 -1.56 -1.27 -4.58 -5.86 -9.17 -14.15 -15.78 -13.42 -6.60 -7.80 -12.88 -13.60 -12.88 -14.15 -12.52 -5.45 1.94 4.66 0.51 -1.65 -6.35 -6.53 -8.17 -6.59 -9.28
8.45 10.15 5.50 1.62 1.60 4.33 1.80 4.19 -2.03 -2.84 7.11 4.73 8.17 7.76 6.17 5.70 8.69 11.27 8.48 6.48 3.25 -4.90 -10.70 -11.97 -13.60 -10.36 -15.24 -12.70 -12.52 -6.90 -6.54 -14.33 -13.98 -11.89 -15.96 -15.05 -10.53 -7.63 -17.41 -19.41 -18.86 -18.86 -22.85 -23.58 -21.94 -15.99 -7.44 -16.14 -11.64 -16.70 -16.56 -14.41 -15.80 -14.15
7.18 5.57 6.63 4.98 6.19 3.25 2.52 -3.32 -1.11 -2.52 -6.22 -3.96 -6.60 -6.96 -3.72 0.85 2.07 5.59 4.66 1.02 -2.42 -9.09 -8.71 -11.07 -9.98 -17.23 -13.79 -15.05 -17.59 -17.05 -13.43 -12.35 -15.96 -14.33 -13.24 -13.60 -15.24 -17.59 -19.04 -18.86 -20.31 -23.94 -25.03 -23.76 -24.12 -24.66 -23.58 -23.21 -24.84 -24.48 -20.31 -16.70 -10.26 -8.26
1.14 -4.72 0.99 2.67 6.00 4.60 5.09 6.18 -6.35 -4.57 -7.08 -8.53 -5.99 -12.15 -9.85 -9.85 -10.70 -3.65 -0.42 -5.43 -9.40 -9.99 -11.79 -15.96 -14.51 -9.43 -12.70 -14.51 -18.50 -19.77 -13.24 -15.96 -15.60 -14.51 -13.60 -15.60 -17.23 -17.41 -18.14 -18.14 -22.67 -23.94 -24.12 -24.84 -25.21 -25.03 -24.12 -24.48 -26.48 -26.84 -25.21 -22.49 -19.41 -16.69
-4.85 -7.63 -6.42 -0.40 4.54 5.34 7.17 6.96 4.49 0.49 -4.91 -5.27 -3.81 -5.63 -9.80 -9.76 -10.02 -4.47 -1.18 -9.31 -10.52 -12.23 -12.70 -15.24 -14.87 -13.06 -10.89 -13.43 -15.05 -17.41 -15.96 -19.41 -18.86 -6.72 -5.63 -7.62 -11.79 -12.15 -19.95 -23.03 -25.03 -24.66 -22.67 -24.66 -26.48 -26.84 -24.66 -23.58 -24.84 -25.39 -24.12 -24.48 -24.66 -23.21

GFSWCAN_sfc_wetblb_057.txt.gz
Wetbulb
46.22 46.06 46.15 46.33 46.34 46.25 46.16 46.50 47.23 46.91 46.34 46.10 45.69 45.92 46.22 46.91 47.33 45.10 43.19 45.51 43.02 39.62 40.38 43.60 42.87 40.47 40.77 40.61 35.57 39.01 40.15 40.76 38.78 34.62 34.38 34.54 33.03 36.87 37.57 38.35 36.59 36.39 33.76 32.77 31.72 31.74 32.11 42.53 40.41 38.97 44.15 42.55 43.62 43.56
44.40 45.68 46.06 46.24 46.17 46.22 46.48 46.47 46.15 45.99 45.72 45.59 45.55 45.76 46.42 46.90 47.05 46.15 41.56 45.55 46.39 41.39 41.32 44.81 44.93 45.26 44.01 45.69 41.88 41.48 40.48 40.84 41.27 38.26 37.08 36.50 34.59 33.29 36.77 34.45 39.78 36.51 39.22 37.38 37.89 39.23 44.15 43.22 45.42 44.68 43.55 44.77 43.14 44.38
43.78 43.96 44.61 45.82 45.33 45.08 45.22 45.15 45.19 45.30 45.11 45.26 45.47 45.79 46.68 46.64 47.03 45.35 42.51 42.95 43.32 39.97 39.46 41.29 40.74 47.18 47.11 45.96 47.66 41.99 42.38 45.97 44.25 46.27 41.21 40.22 36.02 37.42 34.07 35.26 38.70 39.86 42.56 40.00 40.29 41.87 42.16 43.38 44.43 43.80 44.38 44.31 43.92 44.87
43.84 44.19 44.10 44.07 44.43 44.27 44.42 44.54 44.69 44.80 45.19 45.58 45.54 45.61 45.90 46.13 46.48 44.34 41.50 44.01 41.99 40.78 33.52 37.56 47.18 45.18 48.81 48.46 47.26 47.86 47.71 48.53 47.33 46.18 39.64 36.81 37.16 41.14 37.31 41.04 39.79 41.15 42.60 39.76 39.29 41.50 42.33 44.17 43.81 43.55 42.37 42.51 41.03 40.98
43.49 43.27 43.34 43.88 44.10 44.47 44.54 44.61 44.47 44.58 45.26 45.20 45.37 45.48 45.67 46.05 45.60 43.28 42.74 43.76 43.30 39.10 33.10 35.97 43.15 45.59 47.21 48.93 47.34 47.77 47.86 47.49 44.68 40.85 36.38 38.57 40.43 40.12 37.98 39.29 37.88 42.37 40.92 39.26 39.31 44.25 44.64 45.40 45.11 42.65 41.24 40.70 40.21 38.05
43.54 43.43 43.35 43.21 43.43 43.44 43.17 43.15 43.64 44.23 44.12 44.39 44.59 45.01 45.22 45.36 44.12 40.92 35.80 43.32 44.27 45.73 37.38 31.64 41.95 43.43 47.78 49.17 48.37 47.30 47.94 47.48 46.54 42.88 39.54 41.36 43.25 42.41 36.75 37.83 43.09 43.93 44.12 45.43 44.62 45.41 40.45 39.55 39.45 41.02 39.51 38.65 38.70 38.27
43.66 43.75 43.60 43.47 43.48 43.56 43.44 43.14 43.61 43.81 43.98 44.03 44.39 45.07 45.12 44.99 41.81 37.07 34.95 41.19 43.55 44.15 38.75 32.30 34.99 41.66 45.61 48.24 48.64 48.48 49.64 47.70 46.08 43.50 39.18 42.03 42.53 42.63 34.98 37.86 42.65 43.05 43.60 41.96 41.18 41.19 38.56 38.92 38.66 38.30 37.66 37.13 36.82 36.03
43.25 43.09 43.61 43.66 43.73 43.72 43.70 43.79 43.82 43.82 44.48 44.00 44.50 44.87 44.75 44.39 43.88 39.88 44.09 45.84 44.36 41.45 41.45 31.20 32.29 38.13 46.59 42.70 42.14 46.49 43.54 44.35 43.08 42.11 38.38 40.19 39.80 36.94 35.45 39.44 40.34 40.15 39.81 39.70 40.07 39.12 40.28 37.54 36.33 35.15 34.93 34.69 33.17 32.10
43.24 43.30 43.47 43.55 43.60 43.35 43.67 43.99 44.13 43.98 43.93 43.85 43.89 44.45 42.87 41.04 35.20 39.59 45.88 46.77 46.89 42.56 34.47 32.86 31.70 33.27 43.60 40.84 40.61 41.02 41.96 36.01 42.00 37.12 38.57 40.71 36.84 36.50 39.58 39.25 39.17 38.82 39.15 37.50 36.25 36.08 36.22 35.70 34.51 33.82 33.97 33.62 31.86 31.17
43.92 43.28 43.02 43.25 42.92 42.93 43.16 43.53 44.04 44.40 44.50 44.47 42.77 38.92 34.53 39.64 44.71 46.21 42.97 39.46 39.16 40.03 39.92 34.04 36.36 34.91 41.56 37.78 36.57 36.48 36.56 35.44 34.20 38.03 40.79 35.85 36.91 38.53 38.12 39.33 39.84 38.22 37.05 36.47 34.03 32.62 32.85 32.94 33.12 32.91 33.05 33.48 32.51 31.94
44.41 44.43 44.15 44.51 44.63 44.71 45.01 44.93 44.45 44.46 44.24 41.90 38.10 35.22 40.39 45.38 41.58 38.51 34.39 33.70 33.86 33.10 36.07 36.42 35.64 36.42 42.13 37.56 34.73 35.03 33.31 33.30 32.95 35.95 37.07 35.83 34.62 38.16 38.77 38.81 38.67 38.04 37.64 38.15 37.65 36.55 36.38 34.34 33.00 31.90 31.69 32.19 32.34 31.53
45.00 44.66 44.20 43.67 44.48 44.80 44.92 44.78 44.98 42.85 41.21 42.77 42.35 43.58 42.90 39.22 34.73 31.23 31.70 32.84 32.84 30.49 35.03 34.90 36.09 38.81 37.98 40.99 36.98 35.21 32.72 32.54 32.13 35.88 33.13 32.71 34.37 36.56 37.73 37.28 37.32 37.98 37.87 36.73 36.75 35.25 34.57 33.44 32.79 31.72 30.98 30.08 28.69 27.44
44.45 44.49 44.38 44.44 44.59 44.72 44.44 44.40 44.04 42.80 43.02 42.45 41.04 35.76 36.17 32.39 28.68 29.12 27.76 30.37 31.44 32.93 34.29 34.94 33.48 35.65 36.91 36.95 33.30 32.93 31.09 30.58 34.48 32.21 31.77 31.38 35.37 36.10 37.27 37.45 36.88 37.25 36.60 35.30 34.00 32.94 31.99 31.48 31.87 30.34 28.11 28.27 27.90 26.53
44.19 44.18 44.16 44.22 44.24 44.23 44.27 44.16 43.85 42.47 40.80 34.28 31.98 29.00 29.36 27.55 28.36 29.00 31.26 32.00 31.82 32.40 32.77 33.82 32.95 33.84 33.11 32.72 32.40 31.29 32.19 31.83 30.40 29.33 27.08 31.88 33.05 34.65 35.40 35.36 34.11 32.37 31.90 31.73 31.28 30.81 29.66 28.91 27.98 28.02 27.59 27.04 25.66 24.26
44.00 44.16 44.35 44.14 44.32 44.16 44.23 44.13 43.40 41.17 34.46 31.26 31.39 27.05 28.16 31.27 31.41 31.63 31.83 32.36 32.31 33.60 32.90 33.27 33.45 34.44 31.86 31.48 32.03 31.92 30.33 26.57 26.32 25.86 30.04 32.13 33.20 33.19 32.27 32.04 31.12 30.16 29.51 29.02 28.67 27.33 26.53 26.28 25.52 25.13 25.88 25.32 24.10 23.21
44.07 43.88 42.87 44.05 44.29 44.61 43.91 42.83 41.37 38.14 32.54 31.15 27.64 24.92 28.04 28.08 26.26 28.50 28.69 29.74 32.53 32.19 33.08 33.54 31.83 31.65 30.71 30.60 28.74 26.23 26.55 23.69 26.80 29.54 31.39 31.86 31.05 31.02 30.81 30.58 30.05 29.26 28.45 27.68 27.26 26.69 25.55 24.48 23.44 22.82 23.13 22.59 22.39 22.10
43.08 39.56 44.11 44.23 44.32 44.16 43.30 39.69 36.75 32.10 31.17 29.63 26.10 27.07 25.94 26.32 25.07 26.18 27.82 28.63 32.63 32.57 31.11 31.70 25.79 24.38 30.69 27.03 24.11 26.72 23.84 26.14 28.36 29.80 30.71 30.90 29.70 29.33 29.49 29.08 28.54 28.11 27.43 26.90 26.24 25.28 23.90 23.43 23.43 22.29 20.47 21.28 21.52 20.57
37.98 43.09 45.17 44.68 43.38 41.24 38.95 36.79 32.75 30.89 25.90 26.07 23.92 24.60 24.87 24.74 23.34 24.94 27.28 29.17 30.72 31.04 29.02 24.67 27.30 21.38 19.36 19.23 19.97 22.47 24.66 29.85 29.79 29.95 30.03 30.41 30.03 29.31 28.80 27.73 28.08 27.58 26.69 26.44 25.93 25.70 25.25 24.53 23.16 22.16 21.09 20.59 20.27 20.10
42.21 43.38 43.80 43.97 42.50 36.58 32.78 32.80 33.70 25.10 24.52 26.03 25.05 25.27 25.34 23.21 24.82 25.94 27.13 27.89 28.87 28.68 26.52 22.45 16.85 14.85 15.51 20.30 18.74 20.58 25.47 27.47 25.47 25.34 25.67 27.28 28.16 27.93 27.21 26.79 26.15 25.49 25.18 24.64 23.60 22.63 22.45 22.76 22.67 22.15 21.80 20.83 18.36 17.85
42.58 41.71 42.88 42.60 39.93 32.37 30.26 30.42 33.79 29.00 25.71 25.60 26.80 22.69 22.44 21.62 22.67 23.03 22.97 24.20 24.03 22.02 17.63 15.41 14.91 16.52 17.47 19.75 22.20 22.81 24.66 29.10 26.43 22.31 21.32 22.60 23.92 23.62 23.43 23.32 22.68 22.68 21.93 21.51 20.93 20.94 19.70 18.47 18.90 18.85 19.35 19.10 17.76 15.55
36.35 35.74 36.54 36.35 31.78 32.06 30.65 30.46 30.17 30.45 29.25 26.62 28.39 26.63 23.52 23.63 19.42 17.51 18.16 22.24 17.96 16.77 15.06 17.04 17.22 19.22 20.98 21.28 22.99 23.14 21.87 22.14 21.22 22.52 20.74 19.10 21.42 21.60 20.90 21.03 20.70 19.94 18.34 17.83 16.77 16.11 16.03 15.32 15.80 16.26 16.01 15.44 15.18 15.26
31.12 34.40 27.04 29.38 27.00 26.56 25.62 27.41 29.66 30.85 27.39 27.48 26.70 26.24 19.40 15.85 15.31 17.31 19.48 14.60 13.75 15.15 17.47 18.13 17.54 18.49 17.82 17.88 18.66 20.68 20.98 20.62 19.88 18.64 17.96 17.81 15.54 15.87 16.14 17.36 16.46 14.93 14.99 14.84 14.23 13.12 13.07 13.48 14.11 13.84 13.39 13.22 13.57 12.52
31.26 28.75 23.94 23.85 20.05 19.13 17.63 26.35 20.46 24.76 19.94 21.59 21.21 18.40 15.81 13.95 19.26 20.60 12.02 14.60 14.79 17.69 18.90 18.75 19.90 19.14 17.63 17.77 18.65 18.95 19.33 18.22 16.23 15.60 14.89 14.01 13.95 13.90 13.08 13.07 14.29 12.99 11.55 11.64 12.59 11.09 9.68 9.66 8.98 8.80 9.57 9.21 9.36 8.55
28.98 18.59 14.07 13.19 16.60 9.95 14.15 15.10 21.23 19.49 17.58 16.89 16.97 13.69 16.80 15.62 17.01 11.83 9.17 11.47 14.37 15.94 16.18 16.43 17.14 16.31 15.88 14.82 13.11 13.05 16.05 16.64 14.92 14.71 15.16 12.93 10.15 9.42 9.92 9.54 9.57 9.53 9.37 9.09 7.80 6.64 5.87 5.11 4.61 5.66 4.51 4.68 4.02 4.19
18.80 17.21 14.98 13.27 12.81 11.70 9.38 12.82 10.26 13.41 11.38 13.32 13.06 12.56 9.55 14.33 7.86 7.04 7.42 10.39 12.20 11.59 12.33 14.80 13.88 13.11 12.06 12.16 12.41 12.58 13.54 13.49 11.10 8.53 9.60 13.26 10.82 9.76 8.41 8.04 7.66 7.69 8.94 6.41 4.28 3.91 3.47 2.38 2.02 2.18 2.23 0.72 1.76 1.15
13.45 14.91 17.17 17.32 15.94 12.90 14.68 13.96 10.99 5.88 7.69 6.02 9.14 9.25 5.72 3.47 0.59 2.94 9.11 10.74 10.29 9.90 9.13 9.99 11.88 10.22 8.73 9.50 8.53 8.50 9.31 11.93 10.23 6.67 6.31 7.52 7.69 6.97 5.40 4.24 3.81 4.17 6.22 3.90 4.25 3.13 3.00 2.18 0.93 0.51 1.21 1.29 -5.21 -2.60
13.44 10.16 15.14 19.85 19.00 15.16 7.65 7.16 10.69 6.48 3.46 4.78 6.17 0.90 -0.68 -5.87 -2.58 8.41 12.82 12.65 9.99 9.11 9.95 9.11 10.98 9.78 8.41 8.17 8.10 7.81 7.82 7.60 6.35 5.48 5.91 5.30 4.81 4.90 3.49 1.20 0.13 2.26 4.39 1.52 1.08 0.58 0.64 -0.09 -0.43 -0.56 -1.02 -0.29 -0.46 -3.35
19.33 14.09 6.55 6.29 7.79 10.81 3.22 1.03 1.56 3.37 6.72 11.95 3.80 -5.70 -8.57 -6.59 1.62 8.51 11.52 11.70 10.91 9.99 8.30 7.31 6.54 6.02 5.27 4.53 4.22 4.49 5.45 4.33 3.99 4.22 4.28 3.42 2.01 0.24 -1.90 -1.57 -1.98 0.32 -3.18 -3.25 -0.07 -0.12 1.32 0.31 -0.02 -0.46 -0.84 -1.16 -2.21 -1.19
8.10 8.11 9.96 0.13 2.25 4.98 5.94 0.84 2.66 7.28 9.38 5.64 -5.39 -3.13 0.98 5.62 6.57 8.76 10.06 11.32 11.99 9.52 5.56 3.13 1.46 -0.52 0.92 1.64 -0.54 -1.10 -0.66 0.19 0.18 -4.87 -6.41 -5.12 -4.42 -0.90 -2.94 -3.88 -3.61 -5.00 -6.57 -3.27 -2.24 4.04 3.52 1.21 0.26 -3.06 -5.11 -5.20 -4.84 -5.14
6.30 8.54 5.48 -0.95 -0.80 1.41 -0.05 -0.46 -3.01 -2.73 5.82 5.00 7.25 6.70 4.98 4.75 6.89 9.24 8.00 7.30 5.05 0.93 -3.49 -6.39 -7.84 -3.31 -5.12 -2.80 -3.85 -2.18 -3.87 -6.75 -5.00 -3.80 -4.77 -4.94 -3.20 -1.53 -5.31 -5.85 -5.67 -6.93 -9.83 -7.30 -6.24 -4.24 -4.26 -6.77 -4.74 -7.46 -8.29 -7.54 -5.87 -4.97
6.30 4.42 3.40 4.47 2.49 -0.59 -1.90 -6.03 -6.75 -5.25 -5.90 -3.65 -5.42 -5.58 -2.87 1.80 4.24 5.21 3.38 0.98 -2.01 -4.77 -2.66 -3.85 -4.21 -9.83 -4.28 -6.03 -6.03 -6.42 -4.36 -4.48 -10.56 -7.66 -6.40 -5.67 -6.39 -5.85 -5.85 -7.12 -8.38 -10.92 -10.92 -9.65 -9.65 -9.29 -8.29 -8.40 -10.54 -11.29 -9.95 -10.11 -10.97 -10.42
-0.10 -4.03 1.27 1.20 4.44 1.94 3.79 0.79 -8.20 -6.59 -8.93 -6.03 -6.57 -11.65 -7.89 -7.20 -9.11 -2.27 -1.00 -3.92 -2.65 -4.05 -8.93 -10.38 -7.30 -4.03 -8.02 -8.93 -12.37 -10.92 -12.92 -7.66 -6.03 -6.75 -7.12 -5.67 -3.35 -5.21 -6.61 -7.84 -11.47 -11.47 -10.02 -10.56 -11.47 -11.47 -11.83 -11.30 -11.05 -11.65 -12.01 -12.22 -12.76 -12.93
-6.86 -8.93 -6.22 -0.61 1.64 1.53 3.35 4.02 2.62 -0.65 -4.78 -5.48 -6.03 -7.30 -10.38 -6.65 -7.47 -3.04 -1.31 -7.91 -4.19 -4.81 -7.14 -7.30 -6.43 -8.93 -10.56 -11.29 -8.38 -8.57 -12.40 -9.30 -12.92 -7.84 -5.12 -5.30 -8.75 -8.57 -8.05 -8.86 -10.38 -10.56 -9.44 -9.79 -11.13 -12.20 -11.21 -11.48 -11.13 -12.21 -12.24 -14.33 -14.34 -13.82

GFSWCAN_sfc_wetblb_063.txt.gz
Wetbulb
45.97 46.42 46.60 46.26 45.60 46.42 47.34 47.27 46.33 46.71 47.03 46.77 47.01 47.32 47.62 47.64 47.11 46.03 47.03 51.52 47.94 42.07 43.82 45.70 45.82 43.30 42.49 43.85 40.69 44.62 43.05 45.58 44.55 40.17 39.57 39.82 40.55 40.36 40.48 43.38 42.33 40.32 39.72 40.02 41.22 39.25 36.68 49.78 48.42 45.20 50.54 53.76 53.44 53.40
45.35 45.49 45.51 45.97 45.55 46.15 46.40 46.52 46.33 46.55 46.70 46.87 47.22 47.13 47.35 47.26 47.05 47.54 46.28 50.99 51.06 46.53 44.33 49.21 49.91 50.20 47.86 47.47 46.01 45.25 44.76 45.04 45.88 42.28 43.89 43.82 42.87 43.21 41.20 38.62 47.30 40.53 45.73 42.69 44.27 44.37 51.16 50.69 51.48 52.72 54.22 53.97 54.56 54.30
44.82 45.21 45.71 46.12 46.05 46.20 46.33 46.33 46.31 46.36 46.89 47.04 46.94 47.15 47.51 47.14 46.70 47.73 47.36 49.30 48.29 43.41 44.56 45.78 44.34 50.09 51.13 51.58 53.04 45.32 48.17 49.01 47.73 50.31 46.49 45.44 41.15 44.44 40.60 40.92 43.29 47.06 49.75 45.93 46.70 49.22 50.20 51.61 52.95 53.21 54.05 54.04 54.78 54.52
45.03 44.91 45.18 46.24 46.12 46.26 46.26 46.63 46.44 46.74 46.78 46.90 46.94 47.00 46.14 47.13 47.58 48.09 46.12 48.55 47.13 43.76 38.93 41.95 49.70 46.62 50.37 51.48 51.38 52.19 51.04 51.87 51.36 50.75 47.07 45.70 42.89 46.18 43.85 44.13 43.53 45.52 47.03 45.70 45.53 47.96 49.24 51.80 52.61 52.95 53.95 54.21 53.61 53.18
44.71 44.85 44.80 44.69 45.46 46.13 46.31 46.43 46.17 46.51 46.70 46.72 46.68 46.86 46.31 47.04 47.26 48.07 48.18 49.84 49.90 43.87 39.24 41.33 46.25 46.87 47.50 47.78 49.14 50.96 51.29 50.08 48.46 46.25 43.90 42.69 45.07 44.59 46.53 46.26 43.78 46.48 45.41 45.06 44.11 49.05 50.34 50.88 53.67 55.05 54.34 53.97 53.07 52.52
44.39 44.69 44.70 44.68 44.58 44.76 45.04 45.29 45.31 45.31 45.60 45.70 46.10 46.22 46.52 46.49 47.29 45.45 39.31 47.40 49.74 49.60 43.64 36.88 45.78 44.79 45.57 45.49 47.15 48.53 49.59 49.94 49.33 47.29 46.59 46.65 48.31 46.80 43.39 41.99 46.96 47.66 48.43 49.87 48.41 51.53 52.23 52.94 50.99 51.63 53.24 54.33 54.17 52.90
43.93 44.24 44.48 44.52 44.77 44.78 44.78 44.87 45.17 45.24 45.39 45.65 45.70 46.06 46.10 46.29 46.70 42.05 40.82 45.44 47.32 50.01 42.97 37.56 38.56 44.07 45.89 44.40 43.96 47.65 49.20 48.61 48.53 47.18 46.36 47.03 47.34 47.74 46.12 41.14 45.85 48.21 49.78 50.13 51.88 51.92 49.57 51.52 50.48 50.47 51.11 52.46 50.46 52.15
43.92 44.06 44.17 44.24 44.59 44.70 44.38 44.48 45.14 45.43 45.01 45.31 45.19 44.59 44.93 45.58 45.77 43.29 46.62 46.36 48.99 45.97 44.78 36.58 36.60 40.40 45.85 40.75 40.53 48.68 45.84 46.90 46.36 45.80 47.37 45.67 47.75 47.28 41.52 45.41 47.17 48.54 49.08 49.71 50.85 52.38 51.66 52.10 50.26 49.51 49.45 49.15 48.02 48.63
43.74 43.72 43.61 43.68 43.93 44.27 44.49 44.22 44.38 44.65 44.51 44.34 44.00 44.33 44.79 43.14 41.59 43.52 45.37 46.20 50.60 45.69 37.75 35.16 34.86 34.85 47.19 43.76 43.43 45.59 45.91 40.95 46.72 43.99 44.85 45.82 43.92 40.53 43.96 45.28 46.56 48.41 48.60 49.11 51.01 51.71 51.51 48.41 48.88 48.39 47.19 46.49 46.76 45.84
43.47 43.70 43.55 43.50 43.54 43.89 44.05 44.49 44.23 44.24 43.76 43.66 44.39 41.75 37.69 42.63 45.23 45.11 43.96 41.35 42.52 43.95 42.53 35.54 41.74 38.37 40.35 41.33 40.90 39.64 44.91 41.21 36.53 42.20 47.07 42.84 42.45 46.84 46.91 45.48 49.44 50.21 49.13 51.02 47.15 46.75 47.05 46.50 47.28 46.13 45.26 46.05 46.13 44.44
43.52 43.85 43.87 43.72 43.72 44.09 44.27 44.43 43.97 43.98 44.18 45.27 41.61 37.13 44.00 44.68 44.27 40.95 35.35 35.92 35.96 32.76 38.77 39.90 40.45 37.84 41.02 34.63 38.93 43.41 39.82 38.78 35.22 39.64 39.70 37.01 37.98 39.37 42.52 44.11 45.82 47.22 47.67 47.91 47.63 46.90 46.72 46.54 46.62 44.84 43.97 44.16 43.34 42.31
45.14 43.69 43.86 43.79 43.70 43.71 43.64 43.78 44.38 45.71 44.44 43.25 43.86 44.64 43.96 41.53 36.45 33.04 32.52 35.85 34.19 33.21 39.90 38.98 38.56 37.67 35.80 34.27 39.03 37.74 37.81 37.13 33.77 39.64 34.67 32.12 33.51 36.41 37.99 39.13 39.39 41.58 43.11 43.82 44.38 43.82 44.01 43.86 43.32 40.85 37.97 33.40 31.40 30.80
44.24 43.64 43.94 43.63 43.60 43.79 43.80 43.68 44.04 43.37 45.37 47.17 43.45 37.94 36.88 36.05 30.51 29.96 26.76 31.64 33.51 39.10 39.83 40.06 36.17 38.39 37.48 41.49 38.55 38.73 35.04 34.49 38.35 33.41 31.31 31.18 34.01 34.96 34.96 35.99 34.58 35.02 35.12 35.04 34.28 35.20 33.68 31.76 31.84 31.34 29.71 30.00 28.88 27.46
43.48 43.57 43.88 43.72 43.20 43.27 43.38 43.18 43.64 44.21 46.16 37.58 35.01 30.14 32.27 30.07 31.15 30.37 28.68 34.31 35.20 36.49 39.14 41.46 37.92 38.72 37.76 37.58 35.76 33.77 34.13 35.76 32.32 31.28 28.77 30.92 32.52 33.41 32.52 32.47 30.76 29.54 29.74 29.17 28.49 29.01 28.78 28.82 28.96 29.98 29.99 29.95 28.71 27.47
44.09 43.98 43.80 43.57 43.59 43.26 42.90 42.73 43.59 45.54 39.92 32.25 32.68 25.08 27.59 30.97 31.43 31.49 30.42 33.03 32.73 35.57 40.50 38.42 37.31 38.29 34.67 34.13 34.13 33.22 32.14 30.06 28.81 27.79 30.18 31.49 32.14 31.11 29.55 29.15 28.55 28.27 28.62 28.60 29.03 28.53 28.67 28.81 28.35 28.34 29.16 29.07 28.09 26.90
44.03 44.02 43.53 43.50 43.23 42.74 43.02 43.22 43.79 43.47 37.92 31.44 27.30 25.55 27.68 29.63 28.28 27.65 27.38 27.69 30.98 30.68 39.39 38.63 33.22 35.04 32.32 34.13 31.20 28.01 29.02 23.72 26.95 29.73 30.96 31.23 29.92 30.47 30.32 30.10 30.15 30.74 30.25 29.84 29.68 28.93 28.52 27.68 27.32 27.32 27.90 27.45 27.04 26.33
44.21 42.48 43.28 43.03 43.19 42.57 42.19 40.73 38.33 32.12 29.95 28.29 25.99 26.66 25.88 26.37 25.03 25.24 29.28 28.33 30.74 32.12 32.14 34.23 29.54 26.80 34.28 29.06 24.64 25.75 24.22 25.51 28.59 30.36 30.99 31.32 29.99 29.71 30.40 30.00 29.80 29.65 28.97 28.71 28.54 28.51 28.01 28.10 27.70 26.35 24.20 24.75 24.67 24.42
42.64 44.23 43.41 43.61 43.98 42.18 40.36 38.80 33.35 29.99 24.36 25.39 24.15 25.33 25.31 24.56 24.01 25.78 26.95 28.67 31.49 30.89 28.42 24.95 28.29 22.82 20.86 20.46 20.20 23.72 26.88 28.83 28.12 27.69 28.10 28.34 28.77 29.55 29.88 28.88 29.35 29.04 28.21 28.01 27.73 27.46 26.63 25.87 24.43 24.25 24.40 24.44 23.92 23.75
43.14 43.74 43.51 43.62 43.08 39.56 35.71 35.26 34.63 25.39 25.54 26.55 25.65 25.70 26.38 24.65 25.59 26.95 27.80 29.39 28.97 29.19 26.61 23.22 17.77 15.47 17.20 19.90 19.84 23.28 27.00 27.59 25.65 25.33 25.23 26.38 27.43 26.70 26.67 26.96 26.53 25.90 25.72 25.37 25.13 24.84 25.55 25.85 25.58 25.67 25.49 25.14 23.80 24.29
43.45 42.65 42.16 41.78 42.11 38.04 33.50 33.40 36.72 29.54 25.86 27.18 28.35 24.83 24.31 23.76 24.86 25.74 24.74 25.80 24.44 22.33 18.79 16.70 15.65 16.90 17.97 20.38 23.32 23.90 27.39 28.52 25.71 22.28 21.62 22.76 23.83 23.52 23.84 24.13 23.60 23.79 23.20 23.22 24.00 24.10 23.55 22.71 22.88 22.87 22.93 22.68 21.81 20.34
40.73 38.46 39.01 41.34 40.90 38.05 33.87 32.90 31.99 31.90 30.80 29.83 31.42 29.23 26.53 27.49 24.54 24.10 23.21 24.00 20.41 18.06 15.58 18.88 18.80 19.54 21.55 22.23 23.46 23.34 22.47 23.15 22.62 22.31 20.74 19.58 22.00 21.92 21.27 21.78 22.26 21.83 20.98 20.44 19.73 19.40 20.09 19.55 20.41 20.59 20.65 20.00 19.54 19.97
38.88 36.38 41.52 40.29 36.64 35.40 34.31 35.32 33.46 35.63 32.55 30.67 29.98 29.67 26.02 24.06 22.66 22.25 23.44 18.65 17.01 19.12 20.25 19.43 19.92 20.79 19.36 19.03 20.29 21.74 21.23 21.02 20.72 19.77 19.36 19.72 17.96 18.43 18.72 19.45 18.23 17.68 17.70 17.78 17.35 16.02 15.80 17.15 18.48 18.35 18.81 18.97 18.30 16.07
36.97 39.59 37.16 36.22 33.09 32.81 29.27 37.27 30.88 30.68 26.86 27.67 29.04 24.70 24.08 23.59 23.70 26.64 18.85 18.63 18.41 22.19 23.03 21.69 20.74 21.02 20.02 20.89 20.20 20.10 20.71 19.68 18.00 17.61 17.15 16.79 16.82 16.93 16.27 16.55 17.44 16.05 14.83 15.22 16.71 16.05 14.88 14.95 15.16 16.25 16.54 16.29 16.42 15.50
36.58 31.14 28.73 28.56 30.27 26.15 31.43 27.74 30.75 28.78 28.35 25.89 23.47 20.19 20.69 22.76 25.65 20.61 14.89 16.57 18.64 21.05 20.58 21.71 23.49 21.27 20.18 18.55 16.86 17.20 18.66 19.09 17.45 17.29 17.56 15.73 14.05 13.93 15.62 15.55 16.15 16.60 16.66 16.41 15.62 14.91 15.17 14.44 14.38 14.40 13.53 13.00 12.49 12.35
26.85 23.64 28.08 24.13 28.89 26.08 24.53 24.47 24.28 25.11 21.52 22.90 20.08 19.77 20.19 24.95 18.72 16.21 14.30 16.62 18.07 17.98 19.94 20.21 20.00 20.29 17.86 17.01 16.66 16.04 17.79 17.94 15.79 14.61 17.58 19.46 17.93 16.51 14.52 13.71 12.89 13.49 16.25 15.50 14.08 13.39 12.78 13.14 12.69 12.26 11.02 9.42 8.55 9.56
20.20 22.54 22.89 23.98 23.78 23.22 23.44 20.70 20.50 20.68 21.41 19.47 18.76 21.33 23.81 19.94 14.43 12.56 15.02 17.03 16.86 17.07 17.89 19.11 18.60 16.69 14.82 15.86 14.50 14.11 15.45 19.04 17.54 13.43 13.32 15.05 16.03 16.01 14.39 13.26 11.69 10.13 13.69 13.93 13.38 12.37 10.90 10.97 9.88 9.52 9.97 9.75 7.33 8.12
20.22 21.54 23.42 26.23 26.04 25.10 23.62 23.99 23.91 21.42 17.83 16.77 19.04 17.29 17.77 11.65 10.74 13.17 16.51 17.63 16.81 17.08 18.07 19.37 18.93 17.15 15.37 15.04 15.37 15.48 15.43 14.85 13.56 12.81 13.69 13.38 13.03 12.82 12.20 9.73 7.07 8.89 12.27 12.08 11.82 11.37 9.70 9.26 8.74 8.68 8.38 9.35 8.74 8.08
22.68 22.61 16.98 20.02 19.68 22.11 17.35 18.04 17.32 15.91 16.87 18.20 19.60 11.69 9.72 11.08 11.52 16.67 16.43 17.55 17.60 17.17 16.17 16.16 16.62 16.80 16.03 15.65 16.56 17.04 15.55 14.37 13.37 14.10 14.30 13.47 12.64 12.21 11.28 10.54 8.63 8.11 9.96 9.18 10.78 9.68 9.33 8.64 7.95 7.39 6.42 6.65 6.04 7.90
21.49 23.20 20.11 12.06 16.37 16.15 14.90 15.67 15.68 15.35 15.76 18.63 15.99 12.12 10.36 12.62 17.22 16.29 17.01 17.70 18.99 17.73 15.14 14.33 14.58 16.36 15.44 14.68 13.68 14.03 14.40 15.01 12.39 8.13 8.00 9.26 10.16 8.54 10.68 10.61 10.36 9.41 10.71 10.88 7.82 8.29 7.06 6.99 5.58 5.59 5.98 7.19 8.24 8.97
19.89 24.27 17.40 13.28 12.19 12.55 13.86 16.32 14.39 15.28 16.34 16.39 14.91 12.69 11.90 12.52 14.42 19.01 18.11 18.05 17.10 15.53 15.51 15.38 16.02 16.88 14.33 14.49 11.38 10.09 11.13 10.98 10.77 11.51 10.14 7.96 7.43 9.03 9.46 8.98 9.00 8.69 9.31 9.40 8.49 9.33 5.08 8.00 6.98 8.59 6.45 6.21 5.66 4.87
23.87 23.36 18.18 16.72 13.83 15.28 15.85 16.87 16.85 16.74 16.05 15.06 16.75 14.47 11.89 12.47 14.03 15.51 15.37 15.62 15.37 14.83 14.58 13.06 13.08 14.53 13.05 11.65 12.46 10.96 8.39 8.74 6.23 6.69 8.80 9.23 9.24 9.16 8.05 7.65 8.23 8.92 9.13 7.99 7.15 6.82 5.17 6.60 7.07 5.10 4.08 2.80 1.63 1.71
20.94 19.50 16.65 12.51 12.91 15.88 17.91 18.86 18.20 17.03 16.50 16.18 13.04 13.71 12.65 13.53 10.83 13.02 15.03 15.77 14.57 14.34 9.80 13.83 13.01 11.72 10.67 10.12 9.50 8.11 4.61 8.54 8.29 7.44 4.93 8.23 9.13 7.84 8.68 8.44 8.09 8.44 7.21 6.16 6.49 5.64 3.94 3.14 4.45 3.38 3.26 2.46 1.01 0.40
20.00 19.70 18.33 16.15 13.60 13.27 16.37 17.30 15.92 13.70 16.03 14.46 13.47 14.67 14.52 14.25 9.64 13.19 13.66 15.61 15.75 15.52 13.87 14.35 13.40 11.41 8.92 8.08 9.12 8.26 6.52 8.74 4.03 3.62 3.26 2.53 1.41 3.02 5.33 9.14 8.10 7.06 4.73 5.03 5.80 4.93 3.13 2.41 2.51 1.68 1.66 0.55 0.06 -0.44

GFSWCAN_sfc_wetblb_066.txt.gz
Wetbulb
45.62 45.44 45.35 45.23 46.07 46.17 46.63 46.89 46.95 47.12 47.02 46.62 46.78 46.83 47.04 47.50 47.53 45.49 45.79 48.88 47.39 41.84 42.80 44.18 45.07 42.59 43.57 43.49 39.05 43.47 42.26 42.54 43.19 39.17 38.40 37.72 37.68 38.84 37.57 40.33 40.12 38.38 37.80 37.44 38.71 35.21 33.87 50.51 48.95 43.21 48.31 52.57 53.76 53.31
45.47 45.45 46.29 46.36 46.41 46.47 46.59 47.37 47.23 46.63 46.24 46.77 47.12 46.80 47.00 47.65 47.56 46.82 43.72 48.35 51.29 45.55 43.47 48.04 47.89 49.07 49.28 47.89 45.91 44.93 42.95 43.12 44.40 41.39 41.99 42.52 42.31 42.49 39.29 32.33 44.32 37.59 42.81 40.86 42.35 42.06 51.08 50.37 50.48 52.17 54.15 54.29 53.93 54.40
45.41 45.24 46.31 46.43 46.40 46.52 46.13 46.15 46.13 46.10 46.50 46.66 46.98 46.94 47.29 47.53 47.65 47.40 45.19 47.59 48.06 43.58 43.54 45.21 44.43 49.93 52.18 50.94 53.25 44.19 46.93 46.81 46.82 50.27 45.61 44.78 40.63 43.39 39.00 39.97 40.85 45.93 48.43 43.43 42.86 48.16 49.73 51.94 51.55 53.10 53.51 53.42 54.69 54.80
45.26 45.01 45.95 45.97 46.40 46.20 46.17 46.40 46.31 46.15 46.33 46.66 46.59 46.91 47.28 46.83 47.11 47.90 45.98 48.55 47.04 43.95 37.31 40.21 49.14 47.89 51.45 51.29 51.04 50.48 48.94 50.19 48.39 50.27 46.50 45.26 41.52 47.07 42.17 43.84 41.79 44.90 46.82 45.20 44.11 47.84 48.63 49.77 50.53 52.45 52.80 54.18 54.21 54.22
44.99 44.79 45.23 45.93 46.27 46.32 46.47 46.29 46.22 46.31 46.54 46.75 47.01 47.11 47.09 47.10 47.36 47.74 47.86 49.04 51.25 43.62 36.93 40.24 46.45 47.85 49.24 49.56 48.20 49.22 48.62 47.92 46.17 43.74 46.08 42.31 45.47 45.84 46.30 45.56 42.61 46.24 44.29 42.66 43.19 48.78 49.87 50.24 52.20 53.13 52.07 52.87 54.21 53.36
44.70 44.67 44.74 45.43 45.91 45.98 45.89 46.23 46.34 46.49 46.70 46.41 46.75 46.77 46.31 46.56 46.88 45.11 39.72 46.33 49.65 48.40 40.81 36.28 45.66 45.06 46.49 47.30 46.51 46.09 46.83 46.87 47.91 43.96 44.24 46.14 48.63 45.46 43.03 39.44 44.93 47.17 47.46 47.47 46.11 50.80 51.02 52.75 52.83 52.57 50.93 52.13 54.11 53.18
44.56 44.85 44.83 44.84 45.32 45.29 45.23 45.36 46.34 46.31 45.85 46.13 46.57 46.59 45.96 46.40 46.25 42.90 40.30 45.12 47.88 49.87 41.60 37.45 37.81 44.11 46.08 45.55 45.75 45.25 46.75 45.24 45.89 43.65 44.64 44.67 45.14 44.97 41.40 38.94 44.81 47.52 48.28 49.20 51.03 50.51 49.43 51.43 50.52 51.22 50.75 51.52 51.94 52.83
44.14 44.62 44.42 44.57 44.89 44.88 44.91 45.22 45.43 45.54 45.37 45.81 45.71 45.43 45.80 46.31 46.17 43.33 46.12 47.03 47.70 44.92 42.84 35.49 35.55 40.01 45.67 41.35 40.50 46.34 44.06 44.93 45.27 44.47 46.28 44.66 46.35 47.10 40.89 44.48 46.64 47.96 48.45 48.40 49.23 50.38 50.99 52.43 52.13 50.66 50.25 50.12 48.82 49.29
43.69 43.99 44.24 44.21 44.93 44.77 44.76 44.57 44.83 45.13 45.11 45.29 45.46 45.81 45.80 44.83 41.81 42.67 45.35 46.94 52.02 45.34 36.87 36.15 33.85 33.36 44.80 41.62 43.37 44.85 45.77 39.29 45.32 42.33 42.23 44.35 42.92 38.97 43.11 44.63 46.17 47.88 47.85 48.00 50.15 50.96 50.31 49.98 49.25 49.16 48.57 47.69 46.65 46.79
43.42 43.51 44.06 43.90 43.88 44.10 43.90 44.03 44.09 44.59 44.88 45.17 45.36 41.82 37.51 41.46 44.74 45.10 44.64 41.15 40.80 41.49 41.65 36.32 40.29 36.13 41.73 39.30 40.09 39.30 41.37 38.45 36.10 39.94 44.57 40.20 39.93 43.93 40.95 44.08 45.08 46.13 47.18 48.08 46.72 46.31 47.10 47.12 47.50 47.36 46.14 46.68 46.95 45.90
43.92 43.74 44.14 44.22 44.13 43.73 43.53 43.67 44.11 44.40 43.94 45.08 39.97 37.20 43.86 45.19 44.76 41.23 35.12 35.35 36.64 33.63 37.92 38.58 39.47 37.58 41.26 35.03 34.04 36.75 32.59 35.80 33.85 38.44 38.49 37.16 37.33 35.24 37.78 39.07 39.99 41.97 44.30 45.57 46.51 46.71 46.27 46.09 46.03 44.80 39.65 35.84 34.97 34.31
44.19 44.21 44.06 43.15 43.04 43.57 43.95 43.87 44.58 45.58 44.63 43.33 42.75 44.07 43.81 40.62 36.60 33.48 32.76 35.58 33.41 31.92 38.62 38.17 39.02 39.89 37.03 40.54 36.55 37.37 33.86 34.76 32.57 41.38 37.06 32.18 31.53 34.29 34.33 35.32 34.73 36.95 38.16 37.32 39.51 38.96 38.49 37.59 36.62 34.80 32.89 30.60 29.66 28.79
43.84 43.81 43.79 43.61 43.61 43.69 43.57 43.71 44.22 45.07 45.76 46.96 42.74 36.73 37.65 35.66 29.78 28.81 25.96 30.00 33.32 37.90 39.50 39.48 35.20 37.95 38.90 39.15 34.87 34.40 32.41 32.95 37.52 33.48 28.00 28.68 31.53 33.00 32.41 32.41 30.55 31.16 31.42 31.19 30.51 31.47 31.16 30.59 30.38 28.71 26.94 27.12 26.96 26.00
43.44 43.54 43.62 43.73 43.60 43.73 43.47 43.69 43.88 45.15 45.06 38.02 34.49 29.49 31.09 29.17 29.46 28.07 28.07 29.11 32.47 33.49 36.18 40.56 37.88 36.94 36.54 34.02 33.13 31.68 32.56 32.21 32.08 30.06 26.09 28.92 30.04 30.31 30.00 30.04 29.26 27.98 28.25 28.12 28.16 28.51 28.30 27.98 27.79 28.32 27.87 27.26 26.34 25.31
43.47 43.50 43.47 43.45 43.36 43.01 43.08 43.32 43.97 44.98 38.61 31.66 32.26 25.19 26.57 30.22 30.61 29.80 30.76 31.56 30.87 31.39 33.76 38.01 36.21 36.89 32.77 31.86 32.04 32.41 31.68 26.49 26.39 25.09 27.63 29.75 30.99 29.88 29.22 29.68 29.79 29.07 29.02 28.66 28.83 28.08 27.80 27.89 27.06 26.41 27.11 26.56 25.31 24.21
44.07 43.55 42.43 42.80 42.79 42.97 43.12 44.32 43.35 42.28 37.16 29.73 26.52 25.58 26.53 27.98 25.90 27.44 27.78 27.75 30.32 29.31 31.16 35.98 32.95 32.77 31.50 32.38 29.04 25.19 25.42 19.75 23.57 26.84 29.14 30.12 29.45 29.78 29.64 29.84 29.71 29.68 29.09 28.61 28.48 28.22 27.47 26.53 25.82 26.08 26.33 26.18 25.74 25.21
44.19 42.08 42.87 43.21 42.77 42.33 42.53 42.19 38.23 31.81 29.47 27.91 26.13 27.17 25.87 25.32 23.88 26.93 27.77 27.74 30.32 28.78 31.43 34.23 27.28 26.34 33.05 27.00 21.89 23.77 21.99 24.21 25.92 26.66 27.70 29.06 28.84 28.72 29.12 29.16 28.86 28.79 28.14 27.86 27.57 27.45 26.88 27.03 26.24 24.77 23.17 23.77 24.04 23.96
42.67 43.30 43.34 43.36 44.28 42.66 40.38 38.42 33.24 29.44 23.79 25.17 24.15 25.21 25.56 25.74 24.47 26.01 28.96 28.93 30.35 30.67 29.34 24.64 28.49 22.13 19.14 19.07 18.29 22.63 26.50 25.89 25.86 25.10 26.01 26.56 26.59 27.03 28.29 27.57 27.73 27.60 27.10 26.81 26.70 26.63 26.32 25.23 24.32 24.01 24.70 24.68 24.21 24.03
43.99 43.73 42.81 43.14 42.76 40.42 35.32 34.99 34.76 25.29 25.39 26.67 26.22 26.41 25.85 25.53 26.04 26.62 27.75 28.10 29.16 29.62 27.14 23.23 17.70 15.85 16.86 19.89 20.14 22.69 26.08 25.22 22.55 22.90 22.80 24.25 25.32 24.96 24.78 25.08 25.20 24.75 24.48 24.35 23.88 23.23 23.82 24.91 25.08 25.12 24.64 24.03 22.78 24.15
42.31 42.05 42.08 41.58 42.72 37.79 32.98 33.13 36.18 28.98 25.32 26.29 27.85 24.70 24.24 23.92 25.08 25.09 24.23 25.13 24.13 22.04 18.26 15.47 14.67 16.34 17.61 19.90 22.37 22.16 26.35 26.51 23.67 20.81 20.30 21.62 22.96 22.93 23.28 23.33 22.71 22.58 21.94 22.12 22.45 22.46 21.62 21.06 21.63 21.08 21.07 20.66 19.45 18.51
41.05 41.09 40.92 40.95 40.50 37.69 34.96 33.90 31.78 31.83 30.84 29.83 29.87 27.88 25.90 26.57 22.44 20.61 20.94 23.84 20.06 17.87 15.58 18.60 17.83 19.75 21.67 22.03 23.18 22.40 21.51 22.69 21.97 21.39 19.58 18.61 21.13 20.98 20.27 20.54 20.98 20.47 18.83 18.64 18.12 17.97 18.58 18.75 19.49 19.68 18.33 16.93 18.19 19.90
40.02 38.24 41.33 41.03 36.78 35.91 34.67 37.01 34.08 35.72 32.36 30.66 29.70 29.15 25.84 23.67 22.96 22.50 23.13 18.87 17.68 18.00 18.99 18.95 19.71 19.07 18.65 19.28 20.68 21.56 21.22 20.74 20.27 19.37 19.03 18.97 17.05 17.59 17.44 18.11 17.22 16.16 16.27 16.37 15.92 14.87 15.40 16.99 18.33 18.36 18.58 17.80 16.04 15.17
37.05 39.91 38.13 37.36 32.56 32.43 29.99 37.64 31.07 31.31 27.36 27.70 28.81 24.78 23.86 23.00 23.99 26.58 18.22 18.43 19.10 22.96 21.98 20.74 20.70 21.71 20.39 20.96 20.52 20.35 20.99 19.66 17.94 17.46 17.58 17.47 17.54 17.67 17.35 17.40 17.97 16.48 15.35 15.69 16.96 15.81 14.92 15.25 15.49 15.76 15.84 15.95 15.60 14.91
37.70 32.79 29.82 29.97 31.14 26.62 32.24 28.30 30.76 28.06 27.73 25.61 23.62 20.23 20.83 23.01 25.72 19.97 14.73 16.77 19.61 21.99 21.41 23.39 23.65 20.38 19.08 17.85 16.50 17.48 19.55 20.36 18.47 17.98 17.91 16.03 14.17 14.16 15.59 15.79 16.85 17.40 16.72 16.09 15.77 15.38 15.15 14.81 13.94 12.69 11.97 12.21 11.88 11.61
27.15 23.75 28.43 25.04 30.45 27.63 25.52 24.97 25.13 24.84 21.71 23.12 20.76 20.15 21.10 25.25 18.97 16.75 14.74 16.96 18.14 19.82 20.57 20.61 20.47 20.02 16.97 16.42 16.86 16.73 18.27 17.77 15.53 13.72 16.98 19.77 17.06 15.50 13.69 13.26 13.13 13.89 16.72 15.65 13.39 12.97 12.46 13.06 12.76 11.44 9.87 8.27 9.04 9.01
20.26 23.05 23.57 24.65 24.80 24.68 24.52 21.27 21.80 21.74 22.09 20.20 19.84 22.05 24.17 20.60 16.07 13.17 15.34 17.40 17.05 18.05 19.69 20.28 18.14 16.12 15.01 15.83 14.17 13.49 14.83 18.68 16.02 11.80 12.51 14.25 15.40 15.60 13.86 12.18 9.86 9.57 13.81 14.28 13.33 11.36 10.25 10.30 10.07 9.62 9.65 7.98 4.86 7.81
20.91 21.40 24.28 28.38 27.42 26.69 24.43 24.74 25.08 21.84 18.82 18.01 19.91 19.34 19.36 13.57 11.50 13.58 17.10 18.93 16.91 18.08 19.30 19.97 19.22 17.17 15.55 15.08 15.34 15.22 15.14 14.96 13.95 12.80 14.02 13.59 12.93 12.28 11.51 9.04 6.82 9.01 12.55 12.10 11.48 10.85 9.46 8.80 8.21 8.35 8.29 8.07 7.80 7.65
22.90 23.18 18.06 21.36 20.40 23.13 18.88 19.10 17.90 16.62 16.96 19.17 20.44 13.33 12.12 12.85 12.16 16.60 16.91 18.58 18.30 18.13 17.05 17.05 17.26 17.35 16.44 16.16 17.34 17.08 15.97 14.46 14.18 14.47 13.84 13.31 13.13 12.92 11.64 10.08 9.93 9.73 9.24 9.29 10.16 9.10 8.94 7.86 7.66 7.11 6.62 6.55 6.85 8.23
22.16 23.61 19.52 13.40 17.29 16.51 16.00 16.87 16.14 15.92 16.98 19.39 16.99 12.94 11.70 14.76 18.21 16.66 17.82 18.73 19.87 18.48 16.37 15.32 15.51 17.07 15.91 15.11 14.67 14.67 14.88 15.32 12.57 9.37 9.27 9.85 9.22 8.28 11.23 11.35 10.58 10.11 11.39 11.06 9.32 8.72 6.79 7.13 5.48 5.80 6.94 7.35 8.06 8.72
21.04 25.10 17.49 15.00 13.66 12.10 14.25 17.36 14.94 18.27 18.43 16.85 15.65 13.78 12.94 13.77 16.81 20.37 19.57 19.42 18.30 16.97 16.90 16.78 17.40 17.19 15.23 14.34 11.07 10.36 10.92 10.78 10.31 10.79 10.04 7.76 7.12 9.64 9.92 9.53 9.54 9.44 10.04 9.66 8.79 9.08 8.11 8.26 9.37 8.66 6.59 6.48 5.36 3.30
25.80 23.98 18.93 17.00 13.54 15.46 16.07 18.17 19.23 18.73 18.34 17.34 18.49 14.66 11.85 12.57 14.83 17.31 17.12 17.12 16.74 16.44 15.50 14.26 14.61 15.21 13.56 12.50 12.77 11.35 8.65 8.57 6.49 7.35 9.52 10.06 9.98 9.47 8.06 8.26 8.37 9.04 9.35 8.08 7.30 6.95 4.78 5.72 6.94 6.00 5.13 3.56 2.55 1.68
23.53 20.31 16.83 12.97 13.56 16.71 19.42 21.05 19.66 17.47 18.17 16.54 14.02 14.36 14.00 14.89 12.04 13.47 16.22 17.16 16.12 15.65 10.72 15.39 13.76 11.52 11.60 11.03 10.03 8.45 6.56 9.38 8.49 8.10 8.26 8.68 9.00 8.22 8.94 8.80 8.80 8.64 7.33 6.16 6.88 5.90 5.21 3.99 4.01 4.25 3.47 2.92 1.87 0.71
21.01 20.84 19.41 17.08 14.76 15.73 17.53 19.04 16.95 15.37 17.21 15.40 14.88 15.90 15.30 14.94 11.29 13.20 15.31 16.97 16.38 17.05 14.95 15.27 13.62 12.00 9.98 10.35 10.54 8.35 7.35 7.89 4.12 6.26 4.38 3.57 0.77 2.78 3.60 8.83 8.14 7.32 6.07 5.54 5.84 5.93 4.68 3.95 2.74 2.27 1.50 1.29 1.29 0.11

GFSWCAN_sfc_wetblb_069.txt.gz
Wetbulb
45.62 45.99 45.90 46.32 46.42 46.59 46.86 46.61 46.45 46.77 47.01 47.10 47.30 47.26 47.08 46.55 46.79 45.35 43.08 45.60 43.49 39.71 40.62 43.64 43.46 39.86 39.96 39.20 34.08 36.97 36.97 37.18 35.79 34.18 32.67 30.94 26.88 35.63 33.97 38.18 35.95 34.15 32.93 31.88 32.64 32.01 30.44 47.29 45.72 40.82 43.14 46.73 48.00 47.05
45.67 45.63 45.96 46.33 46.54 46.59 46.56 46.90 47.18 46.66 46.31 46.38 46.80 46.80 46.78 46.63 46.83 46.01 40.66 46.38 49.19 43.24 41.82 46.26 45.67 46.42 45.09 43.98 41.22 39.70 37.85 39.12 38.79 36.32 37.95 35.26 30.99 29.77 33.74 26.36 41.35 34.03 38.70 36.38 38.09 35.89 44.95 47.62 46.58 48.44 49.90 48.84 48.72 48.18
45.33 45.59 46.02 46.27 46.38 46.34 46.17 46.22 46.86 46.98 46.31 46.38 46.75 46.79 46.70 46.96 47.25 45.54 43.74 46.05 46.12 42.17 40.55 40.72 40.77 47.38 49.89 47.93 47.54 39.70 39.16 43.92 42.82 45.42 41.65 37.86 31.65 35.75 28.73 31.48 33.70 41.79 44.77 39.91 40.58 43.56 44.80 47.02 49.19 50.03 50.44 49.51 50.48 49.28
45.31 45.34 45.91 46.34 46.38 46.29 46.10 45.78 45.95 46.26 46.79 46.59 46.36 46.45 46.66 47.09 46.95 46.74 44.74 46.27 45.50 41.95 33.96 38.08 47.44 44.85 50.79 49.62 47.99 47.23 46.14 46.46 44.85 44.35 40.87 37.65 31.39 40.32 33.21 37.45 36.17 41.91 44.62 42.69 41.13 44.77 45.57 46.76 47.72 48.61 49.58 50.64 50.75 50.68
45.07 45.41 46.03 46.43 46.36 46.27 46.10 45.90 45.87 46.56 46.50 46.45 46.70 46.89 47.18 47.08 47.07 46.63 46.82 46.91 47.68 41.14 33.37 38.37 44.76 46.21 48.31 46.98 46.48 46.80 45.92 43.67 40.58 39.55 37.71 36.89 38.95 37.99 37.81 38.58 36.48 41.68 40.82 39.35 37.07 45.07 44.37 45.63 48.10 49.12 48.38 49.21 50.01 50.03
44.91 45.35 45.86 45.86 46.21 46.38 46.25 46.29 46.18 46.40 46.70 46.74 47.04 47.45 47.34 47.52 47.32 45.13 39.20 45.40 48.35 47.70 40.15 32.81 42.53 42.59 43.84 44.90 44.79 44.37 44.04 43.54 42.09 38.72 36.64 41.63 43.45 40.34 28.54 30.66 40.95 43.17 44.04 43.88 41.51 45.73 47.77 49.13 49.79 49.44 47.84 48.40 49.24 48.64
44.68 45.09 45.62 45.44 46.14 46.07 46.06 45.99 46.15 46.24 46.56 46.52 46.55 46.90 46.73 46.61 45.81 41.38 37.99 42.12 47.21 46.57 39.09 33.46 33.65 41.23 43.88 43.05 41.53 41.98 43.32 41.70 41.37 42.50 39.76 41.79 41.46 40.64 29.34 30.63 41.14 43.79 45.38 46.27 46.50 47.19 44.91 46.13 45.40 47.64 47.88 48.54 48.07 48.40
44.51 45.03 45.09 45.20 45.98 45.63 45.70 45.55 45.90 46.13 46.61 46.52 46.49 46.41 46.43 46.66 46.01 41.59 44.48 46.76 47.26 43.67 42.00 29.79 31.92 36.50 43.19 36.90 35.38 41.21 38.28 39.27 40.70 40.66 40.12 40.17 41.78 37.80 30.55 39.51 41.74 44.58 46.40 45.68 46.48 46.56 45.75 48.59 47.93 46.72 47.07 46.32 45.19 44.62
44.34 44.53 44.43 44.70 44.99 44.98 45.13 45.32 45.73 45.95 46.08 45.99 45.92 46.33 45.28 43.93 39.55 41.16 45.56 46.18 46.87 42.61 33.09 30.96 28.18 27.05 41.45 37.69 37.86 37.64 39.37 29.05 40.70 35.97 37.86 40.84 36.77 34.10 37.30 38.03 38.80 39.90 41.84 43.86 46.31 45.87 46.25 45.63 45.75 45.00 44.65 44.29 42.75 41.78
44.20 44.19 44.20 44.24 44.33 44.56 44.70 45.22 45.47 45.83 46.17 45.94 45.10 40.03 35.31 40.65 45.66 45.05 42.96 38.19 38.86 38.26 38.36 31.09 35.19 31.45 38.71 36.32 31.90 32.45 31.35 30.75 30.85 34.05 39.82 34.43 32.75 35.82 36.37 37.69 37.50 38.20 39.27 40.25 41.57 41.24 42.22 42.14 40.87 38.04 36.45 37.37 36.69 33.82
44.25 43.85 43.82 43.90 44.13 43.91 43.86 43.91 44.15 44.50 44.93 43.01 37.71 36.69 41.56 44.86 42.95 37.95 30.88 31.57 33.66 29.93 34.10 33.22 34.89 32.40 37.70 33.07 32.52 33.85 32.30 32.09 26.44 29.97 33.09 31.99 28.69 32.09 33.80 34.47 34.86 36.73 37.37 36.94 37.73 37.14 37.03 38.86 36.28 33.76 31.49 30.48 29.35 27.95
43.92 43.49 43.56 43.53 43.69 43.93 44.22 44.87 45.33 43.24 41.58 41.82 40.51 42.67 41.96 38.80 35.13 30.26 28.87 30.84 29.68 28.27 32.41 30.78 32.52 35.03 31.43 37.77 33.32 33.64 31.48 31.41 26.76 34.08 29.37 26.84 27.56 30.56 30.69 30.55 30.78 32.27 33.68 33.56 33.98 33.11 32.67 31.73 30.94 29.32 27.84 26.65 26.02 25.84
43.66 43.48 43.75 43.85 43.76 44.26 44.67 44.42 44.53 44.32 45.70 43.89 41.41 35.07 34.99 31.15 27.92 24.61 24.07 24.20 26.69 30.94 34.07 31.86 32.80 31.46 33.47 35.67 30.73 32.79 29.35 30.99 34.86 30.35 24.63 25.17 28.54 28.71 28.90 29.11 28.37 29.45 29.62 29.33 28.92 28.98 28.41 27.50 27.82 26.85 25.20 25.55 25.24 24.28
43.45 43.50 43.74 43.58 43.48 43.54 43.83 44.18 44.46 43.94 41.50 35.35 31.58 21.70 24.36 22.38 24.54 23.18 25.02 26.75 30.00 30.85 29.44 31.78 28.43 31.60 33.37 30.90 31.38 30.31 31.94 31.74 27.78 23.33 20.43 24.94 27.33 27.96 28.47 28.84 27.41 27.20 27.65 27.33 26.94 26.92 26.16 25.57 24.86 25.20 25.03 25.20 24.11 23.14
43.31 43.36 43.38 42.74 43.33 43.18 43.56 43.81 44.01 39.12 33.41 25.12 25.22 21.51 21.39 27.18 27.34 27.68 28.85 29.23 29.51 30.02 29.76 33.28 33.67 34.96 32.06 31.20 31.59 30.51 28.75 21.19 20.68 19.20 23.95 26.10 28.22 28.47 28.12 28.50 27.80 27.29 26.99 26.39 26.12 24.99 24.31 24.05 23.51 23.15 24.07 24.05 23.55 22.74
43.48 43.40 41.53 43.07 42.66 42.93 42.99 42.01 38.90 37.46 31.03 24.47 22.25 19.24 21.49 19.10 15.73 23.66 25.01 26.08 29.50 28.55 29.52 31.66 31.86 30.73 29.26 26.25 23.73 20.80 20.77 16.21 18.49 22.29 25.35 27.32 26.70 27.11 27.10 27.46 27.35 27.12 26.16 25.20 24.99 24.55 23.97 23.19 22.81 23.10 23.72 23.70 23.15 22.99
44.01 40.10 42.67 43.24 43.31 42.67 42.42 38.15 33.34 28.03 25.92 25.28 21.28 21.85 21.74 21.71 21.19 23.63 26.19 25.78 29.43 27.94 28.53 29.87 21.50 24.03 29.49 22.20 18.75 21.69 17.42 19.39 21.92 22.57 23.32 24.32 26.03 25.88 26.00 25.77 25.60 25.38 24.81 24.78 24.69 24.59 24.33 24.87 24.12 22.94 21.43 22.82 23.14 22.45
40.22 41.60 43.19 43.45 43.38 41.13 38.00 35.46 28.90 26.48 21.85 23.56 20.41 19.73 22.91 20.63 21.19 23.00 25.00 26.71 27.98 28.75 25.22 21.68 24.49 17.23 14.70 15.39 14.84 19.39 21.35 20.53 21.34 21.78 22.16 22.87 23.39 23.57 23.87 22.82 23.57 24.27 24.24 24.63 24.95 24.99 25.09 24.11 22.95 22.58 23.17 23.37 22.35 21.58
42.22 41.93 42.72 42.85 41.28 37.46 31.87 31.90 32.13 23.26 24.13 25.06 24.88 25.01 24.55 22.44 23.70 24.25 24.73 25.27 25.68 25.87 24.15 18.32 11.77 12.17 12.56 16.67 16.69 18.63 22.16 21.02 19.05 19.63 20.50 21.99 22.86 22.09 21.73 22.24 22.40 21.81 21.56 21.43 21.03 20.07 19.71 20.71 20.73 20.68 20.19 20.61 20.08 19.94
42.55 42.61 42.11 41.51 41.69 34.62 30.99 30.84 34.16 27.77 24.54 23.99 25.54 22.19 21.96 21.07 22.67 22.02 21.61 22.57 21.97 19.19 13.84 11.58 11.64 14.15 15.61 18.25 19.50 19.15 23.54 23.27 20.86 17.57 17.15 18.77 20.05 19.77 19.55 20.14 19.55 19.79 19.12 19.25 19.36 19.46 18.51 17.47 17.82 17.61 18.10 17.12 15.41 15.66
41.16 41.13 41.18 40.99 37.16 36.02 32.27 30.73 29.52 29.17 27.56 27.35 26.51 26.35 23.16 23.52 18.55 17.53 18.28 20.92 16.55 15.74 13.90 15.29 14.97 17.85 19.35 19.68 20.72 19.68 18.29 18.53 18.13 18.30 16.52 15.23 17.53 17.60 17.24 17.34 17.82 16.83 15.38 15.34 15.16 15.21 16.22 16.12 15.48 15.37 13.84 12.80 15.09 13.97
38.46 40.25 37.04 37.15 31.87 32.18 30.38 32.64 31.56 31.43 28.69 27.87 25.78 26.19 22.15 18.56 17.97 17.70 19.86 16.24 14.72 15.28 17.40 16.80 17.12 17.17 16.77 17.38 18.43 19.07 18.58 18.54 18.34 17.39 17.31 17.29 15.11 15.28 15.34 16.01 15.46 14.20 14.28 13.80 14.02 12.92 13.71 14.86 15.13 15.75 13.47 11.51 11.90 10.98
38.90 37.43 32.37 32.01 26.62 25.20 23.18 31.96 23.99 27.29 20.39 21.63 23.15 19.03 17.25 15.69 20.10 22.27 12.86 16.69 18.13 20.34 19.32 18.41 18.54 19.47 18.55 19.43 19.51 19.03 19.30 18.10 16.16 16.08 16.29 15.98 16.31 16.36 15.74 15.88 15.80 13.81 12.96 13.61 14.78 13.36 11.89 11.28 10.85 10.19 10.33 10.72 10.50 7.26
36.05 29.91 25.13 24.50 24.87 22.64 24.51 21.09 27.32 25.32 22.50 19.81 17.70 14.04 16.71 18.16 20.71 13.21 11.72 14.42 18.65 19.76 20.83 20.47 18.84 16.32 16.02 15.85 14.47 15.32 18.01 19.14 17.21 16.54 16.29 14.24 12.15 11.98 13.00 12.72 13.85 14.90 14.03 13.40 12.38 11.09 10.94 8.12 5.90 5.87 3.93 1.14 1.62 0.86
19.08 18.53 21.86 16.64 23.73 19.10 16.75 21.02 18.37 18.63 13.07 16.19 12.62 12.24 14.73 20.51 10.65 10.69 11.22 14.15 14.55 17.68 15.87 17.50 18.18 16.68 13.94 14.02 14.83 15.27 16.30 15.86 13.72 10.98 13.37 16.09 13.10 12.08 10.66 10.58 10.41 11.47 13.47 8.71 5.70 4.01 3.14 2.80 2.46 0.64 0.99 -1.51 0.44 -3.42
14.13 18.17 19.26 22.22 19.90 20.19 21.10 16.56 13.33 16.15 15.05 11.53 14.77 18.62 15.50 10.43 5.02 6.59 12.89 12.23 11.26 13.99 16.32 14.80 12.62 12.61 12.26 13.21 11.33 11.00 12.22 15.05 12.84 9.17 9.95 10.73 10.48 11.18 8.86 6.17 5.21 6.78 10.10 8.24 4.53 0.45 1.40 0.71 -1.11 1.03 -5.03 -2.56 -5.39 -7.39
13.83 14.92 22.50 26.20 24.89 23.87 18.24 20.08 19.55 12.95 9.26 11.18 15.35 12.07 8.63 0.76 1.10 9.62 14.47 16.00 13.08 15.57 17.02 17.67 16.97 14.79 12.92 12.26 12.77 12.50 12.62 12.42 10.88 10.41 11.10 10.12 9.08 7.86 4.13 -2.05 -2.35 3.31 7.58 2.73 1.53 -3.00 -6.05 -8.09 -7.79 -6.64 -8.58 -10.06 -9.54 -7.94
18.32 18.53 10.86 15.18 15.04 18.60 9.59 8.68 6.50 5.96 7.58 14.96 13.40 1.74 0.31 2.89 4.71 12.83 13.59 14.04 13.47 15.88 15.44 14.94 14.48 14.11 13.16 13.51 14.59 13.17 8.89 7.46 8.01 8.11 9.16 8.50 7.54 6.29 2.45 -0.41 1.61 7.46 -3.26 -4.98 -4.22 -4.25 -5.91 -8.59 -9.65 -9.95 -9.00 -6.97 -6.58 -5.66
15.85 17.89 14.56 6.51 9.62 10.52 11.51 10.08 9.11 12.22 14.49 14.62 5.90 4.59 4.94 13.25 13.63 12.06 13.54 14.24 15.00 14.78 12.86 11.92 10.53 10.86 11.38 10.33 8.90 7.78 5.28 5.72 -0.95 -3.42 -0.75 -1.45 -3.61 -1.33 -0.86 -0.68 -3.45 -1.89 2.25 -0.44 4.91 -2.76 -4.06 -7.05 -8.20 -8.76 -8.72 -8.30 -9.13 -9.92
15.52 19.54 10.65 7.18 4.76 5.83 10.22 11.48 13.31 11.25 12.83 10.18 11.05 11.08 9.81 9.75 14.50 16.12 15.51 16.87 15.57 11.88 10.83 10.79 13.23 10.37 8.47 -0.32 -3.98 -2.91 -0.35 -1.71 -2.38 -2.35 -0.32 -4.88 -4.89 -2.90 -4.71 -3.45 -1.66 -3.89 -4.48 -6.34 -6.58 -1.21 1.63 -4.12 0.28 -4.32 -8.31 -10.92 -13.01 -13.58
21.55 17.27 11.86 10.55 7.20 7.37 7.64 8.99 9.79 12.16 9.10 10.61 10.72 3.84 3.95 4.25 5.66 8.50 8.44 6.95 6.20 4.27 3.86 3.10 7.41 6.30 2.12 0.66 0.68 -1.29 -5.25 -5.61 -6.93 -4.58 -3.06 -4.17 -4.16 -5.82 -7.35 -5.46 -6.68 -5.71 -3.02 -7.49 -8.86 -9.44 -10.87 -11.61 -10.24 -9.39 -11.12 -12.22 -12.86 -14.54
17.15 11.37 7.45 3.36 6.59 11.56 15.28 15.97 12.90 7.30 11.75 5.21 1.66 2.55 3.68 6.76 1.81 4.99 5.66 8.44 7.95 7.31 5.48 8.95 5.30 -1.98 -3.26 -3.62 -5.80 -6.02 -2.48 -4.39 -5.84 -5.62 -5.62 -3.63 -7.07 -8.87 -3.63 -2.78 -5.55 -4.99 -7.39 -9.16 -7.13 -9.05 -9.58 -10.96 -12.65 -13.11 -13.23 -13.47 -14.24 -14.45
13.97 13.68 10.20 8.44 5.94 7.35 8.45 12.77 9.30 7.10 8.60 6.94 6.87 6.34 4.00 4.39 0.71 3.59 4.85 7.34 10.50 11.67 8.00 3.84 0.28 -2.95 -3.52 0.80 -3.60 -5.43 -2.73 -7.97 -4.70 2.55 -1.62 -3.07 -6.51 -6.70 -11.06 -6.70 -8.39 -10.77 -7.62 -9.43 -10.01 -9.10 -8.55 -8.06 -11.13 -12.61 -13.18 -13.84 -13.78 -15.40

GFSWCAN_sfc_wetblb_072.txt.gz
Wetbulb
45.56 45.61 45.81 45.87 46.09 46.66 46.89 46.96 46.78 47.10 46.87 46.46 46.96 46.57 46.56 46.66 47.17 45.65 43.02 44.28 40.26 34.62 39.60 41.08 41.44 37.67 37.93 37.80 31.58 34.69 35.08 34.84 33.90 28.34 28.66 27.68 25.93 31.90 32.75 36.50 35.18 34.50 32.04 30.43 29.93 26.84 27.31 44.92 44.99 39.73 42.17 45.24 46.53 46.63
45.38 45.57 45.75 46.06 46.09 46.44 46.71 46.73 46.11 46.71 46.78 46.44 46.74 46.71 46.49 46.95 47.16 46.69 40.96 44.57 44.91 40.22 40.29 44.03 43.32 45.05 44.00 43.27 39.23 37.48 35.80 35.84 36.38 32.60 33.07 31.84 26.50 26.78 31.12 28.67 39.73 32.16 35.66 33.25 34.46 33.61 42.47 46.03 46.47 47.51 47.48 45.89 46.76 47.18
45.38 45.48 45.99 46.40 46.48 46.35 46.25 45.98 45.98 46.55 46.66 46.25 46.69 46.87 46.88 47.04 47.37 46.20 42.31 43.31 42.91 38.36 39.99 39.81 40.42 46.20 48.26 47.42 46.10 36.50 36.90 41.56 39.80 41.05 37.29 35.95 29.31 32.27 25.13 29.03 32.60 38.56 42.52 37.14 37.71 41.15 43.85 46.01 47.65 48.64 48.55 47.08 48.68 48.47
45.28 45.94 46.15 46.39 46.39 46.16 45.91 45.86 46.33 46.76 46.68 46.46 47.01 46.92 47.04 47.09 47.18 45.79 42.79 43.62 42.74 38.32 33.02 36.71 46.36 44.91 49.13 47.86 46.93 44.96 43.86 44.68 43.40 41.09 36.02 34.26 33.75 38.65 30.32 34.28 33.05 36.02 40.83 39.05 38.61 41.92 44.96 45.47 47.61 48.31 49.24 49.02 47.94 48.96
45.22 45.79 45.85 46.33 46.28 46.25 46.26 46.25 46.01 46.14 46.34 46.59 46.83 47.03 47.08 47.09 46.99 45.04 43.70 45.32 45.59 39.35 34.27 37.18 42.77 44.78 46.53 46.79 45.93 46.02 44.56 42.20 39.30 35.58 33.25 32.86 37.29 37.74 37.25 36.43 33.80 40.73 39.97 36.56 35.49 44.11 43.37 44.40 46.69 49.23 47.52 46.52 48.29 48.43
45.19 45.36 45.99 46.01 46.00 46.02 46.26 45.91 46.21 46.12 46.35 46.41 46.50 46.87 46.50 46.41 46.40 44.27 39.25 44.57 47.69 47.01 36.54 31.25 41.48 41.24 43.89 44.87 44.69 44.73 44.40 42.51 42.62 38.00 34.28 38.00 42.17 40.00 33.89 30.29 37.63 41.18 41.83 43.51 40.23 43.43 45.15 46.39 46.85 47.41 45.70 47.22 48.51 47.29
44.88 45.47 46.10 45.84 45.91 45.93 46.21 46.03 45.97 45.98 46.11 46.18 46.50 46.62 46.23 45.97 45.33 40.46 37.36 43.16 47.19 46.22 37.78 33.95 33.55 41.81 44.02 43.93 42.11 42.48 43.31 40.75 39.89 39.03 35.76 37.59 39.87 40.78 33.64 31.07 38.41 39.88 43.70 44.20 45.09 43.82 43.00 44.77 45.07 47.40 47.40 47.17 46.85 46.22
45.04 45.47 45.66 45.55 45.66 45.96 45.86 46.00 46.00 46.23 46.44 46.41 46.39 46.27 46.37 46.76 46.12 43.01 45.07 46.67 46.52 42.10 39.19 29.84 33.83 35.41 41.91 37.03 36.45 40.73 37.13 37.50 37.58 36.95 36.99 37.82 39.45 38.50 33.31 37.54 37.85 37.87 40.22 41.03 41.14 44.85 43.60 46.31 45.61 45.27 45.77 45.36 42.93 40.21
44.29 44.40 44.49 44.63 45.14 45.62 45.79 45.96 45.74 45.84 46.14 46.12 45.73 46.39 44.95 43.37 40.28 41.50 46.92 46.94 46.41 40.31 29.58 28.75 26.57 31.15 40.33 36.69 36.03 36.27 36.49 28.25 36.01 29.69 33.80 37.50 35.61 30.97 32.60 33.86 35.72 36.66 35.95 36.31 40.65 43.14 43.93 43.38 42.63 42.36 43.13 41.50 36.93 32.42
43.76 43.67 43.84 43.78 43.82 43.79 44.27 45.17 45.54 45.91 45.96 45.70 43.99 39.59 35.94 40.84 45.36 45.37 42.33 37.99 37.26 36.09 35.71 28.63 33.47 31.84 37.35 34.65 33.76 30.47 30.14 27.07 26.71 30.80 37.04 33.05 29.85 32.82 32.67 34.01 34.15 35.26 36.03 36.74 37.05 36.54 37.51 37.99 36.41 35.32 34.02 33.01 31.62 29.24
44.20 44.23 43.72 43.87 44.22 44.43 44.65 44.27 44.47 45.24 44.97 39.27 38.09 36.09 40.58 44.40 41.21 36.33 30.27 29.62 31.32 28.60 32.83 32.69 34.48 32.78 35.89 32.36 32.75 33.77 30.85 31.18 22.38 28.88 30.33 30.78 25.77 28.67 30.98 31.46 31.94 33.03 35.03 34.43 34.80 33.80 32.53 33.94 32.46 29.67 27.97 27.50 27.19 26.38
44.21 44.03 43.83 43.92 44.27 44.40 44.38 44.74 44.87 41.77 39.71 39.26 38.81 40.74 39.37 36.48 31.58 27.10 24.08 28.17 28.57 29.13 32.52 30.68 32.90 33.22 30.50 36.86 33.35 32.91 31.06 30.63 24.18 32.05 26.07 22.84 24.97 28.16 28.65 28.76 28.91 30.66 31.33 30.69 31.04 30.28 29.92 29.14 28.49 26.93 26.06 25.25 25.03 25.05
43.59 43.64 43.62 43.72 43.87 44.14 44.14 44.44 44.93 44.57 44.56 41.34 37.50 32.13 31.61 27.19 20.10 19.14 19.41 24.86 27.17 29.58 30.54 32.70 28.11 28.11 32.05 35.22 30.96 32.22 30.00 29.56 33.68 26.54 20.70 21.89 25.53 27.36 27.50 27.44 27.25 28.27 27.84 26.83 26.22 26.37 26.03 25.60 25.99 25.02 23.53 23.86 23.93 23.15
43.30 43.27 42.90 43.27 43.27 43.67 43.24 42.81 42.70 40.98 38.02 31.26 26.31 19.12 19.56 17.53 20.66 21.72 23.55 24.84 29.08 28.64 28.28 30.34 30.07 32.02 31.69 30.82 31.23 30.00 31.13 28.83 22.68 16.43 16.37 22.95 25.70 27.53 27.49 27.78 26.13 24.86 24.60 24.12 23.50 23.40 22.93 22.68 22.32 22.83 22.86 23.23 22.15 21.15
42.95 42.90 42.93 42.85 43.50 43.41 42.86 41.72 41.47 36.27 30.28 24.36 23.57 16.51 17.74 22.38 21.90 25.79 27.15 26.64 28.98 29.12 28.89 32.17 32.57 33.89 31.48 30.58 27.51 26.40 21.51 15.60 17.74 15.75 21.12 24.27 26.46 26.40 25.75 25.75 24.64 24.15 23.51 23.18 23.40 22.89 22.65 22.62 22.17 21.94 23.05 23.18 22.68 21.65
44.05 42.19 40.77 43.27 43.58 43.05 42.76 38.73 34.90 33.69 27.14 20.95 19.94 15.50 18.86 13.69 11.94 16.59 24.07 24.76 28.04 27.09 29.01 30.53 30.94 28.33 25.43 21.48 18.61 17.32 16.70 13.51 16.30 19.48 21.86 25.50 24.16 24.16 24.37 24.90 24.59 24.37 23.76 23.01 22.98 22.93 22.73 22.00 21.26 21.19 21.79 21.60 21.35 21.07
42.69 37.49 42.71 43.12 43.54 41.99 41.26 34.19 29.41 25.22 22.66 21.36 17.15 14.59 11.55 7.27 9.74 16.07 23.66 24.12 27.92 26.46 25.49 27.33 19.36 19.53 26.03 19.69 16.20 19.21 12.98 15.80 19.13 20.44 22.14 22.72 23.26 23.73 24.26 24.39 24.18 23.94 23.40 23.33 23.09 23.39 22.96 23.63 22.87 21.37 19.21 20.58 21.19 20.68
38.20 40.28 42.98 43.12 42.25 39.12 35.21 31.49 26.66 24.27 19.88 20.73 15.10 19.70 17.82 15.46 15.79 17.73 23.33 23.44 23.64 23.99 23.35 19.33 22.00 13.75 10.06 11.03 11.13 17.31 17.61 19.32 20.49 19.99 20.39 21.30 21.83 22.00 22.10 21.05 21.41 21.48 20.68 20.39 21.31 21.54 21.85 21.79 20.87 19.85 20.45 20.37 19.60 19.24
40.57 41.00 42.84 42.70 40.80 34.71 28.94 29.32 28.58 20.84 21.85 22.70 21.66 21.04 19.03 20.27 21.97 22.02 22.68 23.81 23.77 23.22 20.71 15.75 9.59 9.39 9.76 14.43 14.10 17.30 18.71 18.73 16.51 17.11 17.56 18.50 19.97 19.78 19.59 19.71 19.69 19.32 19.07 18.78 18.46 17.63 17.81 18.81 18.79 19.16 20.13 19.23 17.13 17.13
42.47 42.42 42.00 42.06 40.95 32.64 29.17 28.78 31.45 25.14 22.49 22.02 22.97 18.83 18.39 17.96 19.97 20.28 20.10 21.45 20.49 17.68 12.47 9.04 9.28 12.49 13.07 15.46 17.07 20.02 19.73 20.13 17.54 14.46 14.43 16.09 17.57 17.07 16.31 16.91 16.89 17.69 17.40 17.76 17.30 17.32 16.57 15.61 15.92 16.29 15.62 15.25 13.96 12.22
39.64 39.23 40.15 38.99 35.89 34.61 30.46 28.37 27.85 26.78 24.93 24.91 24.44 24.84 18.77 21.08 17.18 16.30 16.43 19.64 15.01 14.19 10.59 13.55 13.81 16.46 17.88 18.19 19.02 18.18 17.28 18.22 16.52 16.06 14.66 13.49 16.34 16.59 16.10 16.17 16.21 15.71 14.46 14.53 13.99 14.41 13.94 12.57 13.24 13.36 12.45 10.75 10.82 10.16
35.52 39.46 34.33 34.02 30.06 29.97 28.45 30.01 28.39 27.85 25.26 23.41 22.84 23.65 14.97 10.02 9.37 14.11 18.60 13.77 13.31 14.42 15.71 15.26 15.64 15.87 15.79 15.68 16.52 17.36 17.37 17.54 17.20 16.79 17.26 16.94 14.53 14.31 14.15 14.99 14.26 12.65 12.94 12.69 12.42 11.03 11.33 12.74 13.02 10.88 8.83 7.99 8.57 7.90
36.53 34.33 29.24 28.02 23.60 22.72 21.88 29.05 23.15 27.63 20.95 21.15 20.45 17.39 15.30 11.16 16.15 20.01 9.67 15.53 15.72 16.90 14.93 15.02 15.09 16.12 16.41 17.40 17.62 17.21 17.45 16.18 14.36 14.09 14.25 14.14 14.64 14.91 14.67 14.72 14.84 12.43 11.24 11.92 12.23 10.05 8.20 8.02 7.31 7.41 7.64 6.08 4.74 2.57
33.06 25.87 21.32 20.32 22.03 15.70 19.27 19.05 25.74 22.50 18.86 16.56 14.91 11.23 16.46 15.73 16.59 9.42 8.69 12.85 16.59 19.51 17.09 14.78 15.38 13.86 14.56 14.78 12.88 13.80 15.75 16.97 15.11 14.49 14.85 13.31 11.23 10.90 11.70 11.48 12.83 12.56 12.05 11.51 9.89 7.43 5.15 0.92 1.70 2.97 -0.35 -1.22 -3.77 -4.33
17.63 17.04 17.17 12.47 18.88 16.15 11.95 10.16 12.68 14.81 7.18 10.42 7.55 8.40 13.27 15.92 5.72 5.67 6.34 11.71 12.87 11.98 13.20 16.73 16.24 14.73 11.30 11.08 12.48 13.02 15.27 14.55 11.72 9.52 11.87 13.44 11.04 10.18 9.07 9.08 9.12 9.75 10.53 5.45 2.74 1.58 -4.32 -3.22 -3.26 -3.63 -4.47 -6.66 -3.00 -10.11
10.84 16.26 14.06 17.88 13.18 16.00 16.48 9.99 8.13 7.96 7.78 8.32 10.50 13.21 8.42 3.14 -1.52 1.65 9.75 7.99 6.96 10.55 9.52 8.91 11.62 11.05 10.87 11.98 10.32 10.28 11.36 13.39 11.51 7.86 8.18 9.60 11.09 6.35 2.31 1.49 2.02 4.77 6.37 -2.39 -3.10 -4.82 -5.22 -7.23 -8.36 -6.83 -10.49 -9.83 -11.42 -8.43
7.64 7.31 19.43 23.03 21.67 20.70 13.28 13.28 15.47 9.57 6.07 5.45 7.00 1.85 0.13 -6.68 -5.22 7.16 12.82 12.13 11.60 12.52 15.57 16.17 14.98 12.56 10.76 10.38 11.37 11.73 11.61 11.09 9.48 8.10 8.73 8.07 7.58 6.79 1.72 -3.55 -3.40 1.58 1.45 -1.20 -7.50 -8.37 -8.74 -12.47 -14.28 -15.01 -15.55 -17.54 -17.36 -16.28
15.35 14.78 6.76 7.36 8.33 12.27 0.34 -0.57 -2.32 -1.59 0.58 12.89 7.09 -4.16 -6.67 -4.67 1.27 9.11 9.92 11.44 9.89 15.13 14.31 14.22 13.81 13.16 12.08 11.77 11.42 9.59 7.99 7.92 8.14 7.83 7.17 6.16 3.91 -1.00 -2.76 -3.96 -1.69 3.30 -9.23 -10.90 -11.07 -12.01 -11.60 -13.56 -15.01 -15.19 -12.65 -9.02 -10.66 -9.75
8.92 12.12 10.01 -1.81 1.45 4.35 6.51 1.31 2.75 8.59 12.01 9.15 -4.31 -1.41 2.01 11.29 9.10 8.16 9.48 9.87 12.16 13.38 10.55 9.44 7.15 7.39 6.73 4.76 2.49 3.06 1.03 0.32 -1.80 -4.85 -10.47 -11.74 -11.74 -2.72 -6.67 -9.75 -7.57 -5.04 -6.53 -8.14 1.13 -7.97 -9.07 -12.08 -12.05 -12.69 -14.11 -13.81 -15.64 -18.81
10.01 12.98 3.99 -2.57 -1.56 1.13 2.20 5.94 2.88 -0.14 8.65 6.43 9.40 10.39 8.90 7.40 11.16 12.83 11.80 14.05 11.01 8.22 5.19 7.94 9.23 4.55 -4.31 -6.51 -11.56 -7.62 -9.24 -14.82 -13.01 -4.86 -9.41 -12.47 -7.78 -5.43 -12.11 -10.84 -11.02 -12.11 -14.10 -13.92 -12.83 -9.55 -2.72 -9.09 -3.79 -7.80 -11.93 -16.14 -19.22 -19.00
15.61 8.76 4.40 2.72 -1.05 -1.23 0.30 -3.22 0.40 4.67 -0.04 -2.45 -5.58 -3.98 -1.09 1.27 3.92 6.97 7.08 5.14 4.05 2.94 3.43 -1.08 -4.32 -10.84 -4.54 -9.39 -13.01 -15.37 -11.93 -9.63 -13.92 -8.48 -6.31 -9.93 -15.01 -15.37 -14.64 -13.74 -15.01 -11.74 -14.46 -16.09 -16.10 -16.48 -17.20 -17.73 -18.45 -17.00 -17.73 -17.73 -18.27 -18.99
6.90 -1.35 0.54 -2.32 2.56 5.59 6.60 5.89 2.36 -1.78 -4.67 -6.13 -6.85 -10.47 -4.50 -5.22 -6.67 -2.70 2.84 -1.09 2.84 1.42 -1.41 -5.76 -4.49 -7.21 -12.29 -14.64 -16.82 -15.74 -9.06 -11.39 -12.47 -9.57 -10.12 -14.28 -16.28 -16.28 -12.65 -7.21 -9.20 -13.22 -15.41 -16.09 -14.10 -13.37 -13.65 -15.59 -18.09 -18.81 -17.73 -17.54 -19.90 -20.45
2.79 1.45 -3.06 -1.62 0.53 1.10 3.68 4.84 -0.36 2.28 1.19 -1.06 -0.36 -1.29 -2.19 -0.51 -4.16 -0.32 3.83 3.06 -0.70 -0.46 -2.36 -7.94 -11.56 -12.83 -10.30 -8.86 -7.76 -11.56 -9.57 -12.83 -12.83 -0.68 -5.94 -7.21 -11.59 -11.20 -18.09 -18.63 -18.09 -17.54 -15.74 -17.18 -18.45 -16.28 -13.37 -12.29 -13.19 -15.91 -17.73 -19.90 -21.35 -21.90

GFSWCAN_sfc_wetblb_078.txt.gz
Wetbulb
45.07 45.12 45.34 45.66 45.71 46.01 46.45 46.52 46.63 46.51 46.67 46.61 46.67 46.61 46.77 46.68 46.85 45.01 42.28 43.83 39.41 34.72 38.47 40.77 39.84 36.39 35.94 35.42 30.81 34.38 34.36 33.21 32.29 29.32 29.37 28.33 23.67 28.32 28.90 31.42 31.73 30.85 28.99 29.16 31.91 29.59 27.44 42.62 43.56 37.80 40.27 43.53 44.93 45.54
44.82 45.22 45.41 45.71 45.87 46.03 46.49 46.86 46.93 46.76 46.76 46.72 46.70 46.79 46.86 46.91 46.94 46.54 40.07 44.90 43.98 39.64 38.94 43.56 43.09 42.94 41.87 40.85 37.54 37.50 35.32 33.63 33.63 29.52 29.03 28.09 24.76 22.98 28.11 24.08 34.40 28.80 32.98 30.68 32.59 32.45 40.24 42.76 44.06 45.89 46.66 45.11 45.31 45.78
45.05 45.32 45.74 45.79 46.24 46.56 46.72 46.74 46.81 46.76 46.76 46.52 46.84 47.09 46.99 47.18 47.03 46.31 42.03 43.37 41.97 38.15 36.64 37.91 37.22 42.42 44.76 44.10 44.17 35.19 34.90 38.47 35.94 37.84 32.18 31.13 26.54 29.31 24.12 26.15 28.67 32.62 37.62 33.73 34.83 37.82 40.35 42.80 45.19 47.35 47.52 46.68 47.44 47.40
45.56 45.63 45.80 46.01 46.29 46.41 46.40 46.43 46.29 46.51 46.42 46.58 46.68 46.84 46.97 46.99 47.13 46.51 41.43 43.37 41.71 38.19 31.08 32.24 42.74 40.20 44.65 44.40 43.48 42.51 41.48 43.22 41.00 39.40 33.26 29.73 27.70 33.83 27.45 30.67 29.42 32.33 35.07 34.76 34.89 38.11 40.30 42.50 44.71 46.35 47.23 47.31 46.92 46.41
45.98 46.09 45.95 46.13 45.92 46.11 46.00 46.20 45.98 46.36 46.49 46.42 46.49 46.72 47.02 47.07 47.11 45.15 44.16 43.52 41.35 36.05 28.19 30.49 41.91 44.00 45.83 43.59 42.51 43.47 43.41 41.28 37.96 35.45 29.59 29.22 32.76 34.94 32.78 32.88 30.50 35.56 34.47 32.01 30.55 38.35 38.29 39.68 43.61 45.54 44.93 45.43 47.37 45.81
45.06 45.38 45.95 45.97 45.93 45.90 46.01 45.60 46.11 46.50 46.50 45.90 46.22 46.52 46.58 46.72 45.54 42.40 37.13 42.68 44.20 40.67 34.53 29.93 41.87 41.20 43.05 44.36 42.03 41.44 41.68 40.62 39.82 35.72 32.70 35.49 38.88 35.15 26.63 27.84 35.01 36.80 37.71 38.52 37.16 40.06 39.24 40.59 41.50 44.09 44.91 44.79 43.71 41.61
44.71 45.21 45.60 45.58 45.60 45.98 46.11 45.81 45.94 45.85 45.97 46.06 46.31 46.33 46.15 45.79 43.59 38.94 36.88 40.41 44.96 42.40 35.37 31.97 34.08 41.30 43.06 43.68 42.39 42.35 43.58 41.69 41.00 38.47 33.89 34.45 35.94 36.35 28.61 26.27 35.23 36.14 35.65 36.37 38.71 37.95 38.15 39.18 38.75 42.25 43.27 41.62 38.82 36.51
44.40 44.91 44.99 45.19 45.65 45.77 45.65 45.85 46.06 46.05 45.98 46.01 46.08 45.49 45.47 45.82 45.20 41.61 44.17 44.74 43.58 38.78 37.06 30.30 32.90 36.33 42.55 35.99 35.41 41.25 37.89 38.91 39.14 38.33 38.20 35.03 36.67 35.75 31.78 31.99 33.24 33.32 33.12 35.93 35.35 36.75 38.46 38.11 36.88 36.92 37.63 37.11 31.87 29.65
43.97 44.26 44.57 44.70 45.14 45.47 45.49 45.63 45.79 45.82 45.92 45.69 45.55 45.13 43.51 41.88 38.76 41.06 45.45 45.34 44.90 39.35 32.05 30.82 30.77 30.09 38.67 34.61 36.15 34.87 34.34 30.76 33.54 34.08 35.67 36.23 33.79 26.86 27.03 29.10 29.71 30.36 30.39 31.72 33.91 36.49 34.86 33.04 31.53 31.58 33.27 32.35 29.69 28.44
43.82 43.85 44.28 44.47 44.64 44.75 45.21 45.65 45.71 45.60 45.42 44.72 40.95 37.52 33.21 38.84 46.17 45.58 41.86 37.82 37.52 37.87 33.33 31.62 32.80 32.57 35.00 34.23 32.51 27.84 30.24 28.99 27.86 31.47 36.36 31.41 25.31 28.43 27.66 29.40 29.06 29.56 30.47 32.31 31.74 31.62 30.74 32.16 28.55 26.68 26.24 27.08 26.54 25.40
43.93 43.86 43.61 44.55 44.95 44.81 44.80 44.76 45.03 45.42 44.48 41.16 35.50 32.72 42.21 45.20 41.61 37.31 30.98 30.69 30.99 29.50 33.18 33.51 33.49 32.88 35.31 30.48 31.32 31.40 25.74 26.73 21.66 27.59 30.97 26.55 21.10 24.02 27.39 27.24 27.94 28.55 29.01 29.32 31.34 31.09 30.56 29.51 28.35 26.29 24.71 24.65 24.01 23.25
43.80 43.83 43.52 43.03 43.52 44.36 44.60 44.74 44.77 42.26 41.05 40.81 40.37 41.45 37.03 31.97 28.69 27.25 23.20 29.35 29.65 28.79 31.13 32.45 31.34 31.99 31.29 36.38 31.59 33.28 28.84 29.34 22.36 31.52 23.89 16.87 21.66 25.28 25.51 25.27 24.57 25.37 25.96 25.56 26.59 26.66 27.20 27.34 27.23 25.42 23.87 22.66 22.04 21.44
43.35 43.59 43.54 43.48 42.44 42.42 42.13 42.62 43.53 44.01 43.41 37.96 33.42 26.87 26.87 20.92 14.51 18.05 15.33 22.67 23.20 26.97 27.97 31.25 29.47 29.83 30.53 34.28 32.26 32.00 29.29 26.65 29.05 20.33 16.16 18.99 23.38 24.06 24.13 23.86 23.29 23.89 23.87 23.67 23.04 23.39 23.32 23.33 24.36 23.04 21.38 21.64 21.12 20.02
43.19 43.09 43.16 42.68 42.61 41.22 41.12 39.41 40.38 37.32 33.30 26.69 22.05 13.05 13.66 10.85 16.53 17.63 20.25 22.77 26.72 27.14 27.23 29.85 30.96 30.97 31.39 30.59 30.28 26.53 23.62 23.91 15.10 9.79 11.31 20.01 22.59 22.98 22.93 22.95 21.94 21.86 22.15 21.60 21.21 21.29 20.77 20.37 19.54 20.03 19.80 20.21 19.12 17.86
43.09 42.67 42.86 42.82 41.70 41.41 39.55 38.82 36.56 31.27 25.93 19.84 18.92 10.52 13.68 19.34 19.98 20.95 23.52 25.42 25.72 27.23 28.40 31.31 32.27 30.87 25.78 23.14 21.98 20.35 13.48 10.38 13.94 10.90 16.21 20.49 22.26 22.47 22.09 21.96 21.34 21.07 20.35 19.97 20.23 19.66 19.11 19.20 18.86 18.53 19.48 19.43 19.06 18.06
41.90 40.87 39.68 43.12 40.99 40.03 37.61 35.12 32.28 30.16 24.74 19.97 16.87 13.21 15.48 14.35 15.04 16.79 19.11 20.22 24.31 23.61 28.36 29.83 26.78 21.60 18.71 17.54 13.65 11.25 12.36 8.75 10.31 15.73 18.60 21.04 19.70 20.52 21.10 21.76 21.86 21.84 20.92 20.22 20.20 19.74 19.14 18.05 17.35 17.32 17.93 17.55 17.06 16.43
41.19 35.65 41.88 43.02 41.92 38.64 37.26 29.63 28.22 24.55 21.27 18.80 14.05 17.37 12.26 11.73 10.06 14.39 18.36 18.80 22.83 21.65 20.06 22.10 12.30 11.99 20.38 11.59 10.31 13.17 7.10 12.91 15.24 16.01 17.63 18.42 18.09 18.14 18.74 19.20 19.13 20.06 20.58 20.20 19.97 19.52 19.04 19.60 19.11 17.66 15.44 16.78 16.90 16.41
35.57 37.22 42.12 42.68 38.47 35.20 30.59 28.52 24.52 21.52 16.10 16.38 10.53 13.85 14.08 10.88 14.72 16.15 18.08 20.35 19.86 21.05 19.29 15.31 18.40 11.99 9.50 9.38 9.10 14.32 14.05 14.91 15.67 14.39 14.78 16.66 17.34 17.91 18.42 17.35 17.90 18.43 18.03 18.03 18.72 19.48 19.03 17.85 16.46 15.68 16.04 16.26 15.28 14.82
38.35 38.53 41.62 41.31 36.27 30.91 27.33 25.87 24.80 15.41 15.85 16.66 16.22 16.85 15.55 14.24 18.12 19.02 19.58 19.14 19.74 20.29 18.11 15.06 9.14 7.51 7.30 11.66 11.44 13.12 13.69 15.05 13.53 14.36 15.03 15.95 17.01 17.54 17.54 17.61 17.24 16.53 16.34 16.23 15.96 14.93 14.75 15.77 15.36 15.18 15.00 14.68 12.52 12.64
41.06 40.79 40.49 40.43 37.68 30.10 27.32 25.24 27.33 21.33 16.36 16.79 17.66 15.82 15.17 13.44 16.14 10.82 16.13 17.62 17.28 15.22 10.58 7.94 7.12 9.66 9.90 11.47 13.68 13.52 13.89 16.58 15.35 12.58 12.12 14.08 15.90 15.66 15.01 16.03 15.98 16.25 15.52 15.21 14.81 15.16 13.92 12.44 12.42 12.07 11.78 11.14 9.33 8.21
36.78 36.70 37.77 35.21 31.38 30.83 27.29 24.94 22.89 22.35 21.18 20.87 21.30 20.31 14.73 17.39 14.05 12.28 12.62 16.43 11.90 10.93 8.22 11.00 8.82 13.01 14.77 15.43 16.48 16.62 15.59 15.99 13.57 14.22 12.97 11.40 14.32 14.95 14.61 14.87 14.84 14.19 12.91 12.69 11.44 10.57 10.67 9.62 9.74 9.04 7.34 5.47 5.92 6.58
32.30 37.16 30.40 31.06 28.59 28.71 26.79 27.04 24.41 24.48 23.26 22.79 20.83 20.52 12.02 8.56 8.50 12.94 16.31 10.11 9.81 10.50 11.07 11.43 12.78 13.45 12.76 11.88 13.05 14.97 14.88 15.44 15.36 14.50 14.47 14.59 12.49 12.45 12.32 12.98 12.43 10.65 10.77 10.49 10.36 9.23 9.10 9.01 7.92 6.31 4.01 2.79 3.90 3.45
33.65 31.35 27.00 26.72 21.66 20.90 20.64 27.37 21.97 25.05 15.89 17.29 19.07 15.05 10.59 7.31 13.92 17.79 8.44 12.83 12.44 15.77 15.40 14.72 14.14 14.75 14.00 14.64 15.49 14.86 14.60 13.69 12.00 12.05 11.89 11.80 12.47 12.91 12.31 12.30 12.61 10.29 8.95 9.21 10.09 8.41 6.91 6.16 3.96 2.20 1.50 0.87 -0.88 -3.20
30.52 21.44 16.58 15.32 18.42 10.78 15.64 14.43 22.30 18.44 15.18 14.43 13.28 10.50 9.84 9.37 13.00 8.21 6.17 8.00 12.61 16.29 14.93 13.38 14.91 13.34 13.31 12.73 11.08 11.96 13.67 14.40 13.00 12.97 13.43 11.70 9.77 9.55 10.40 9.81 9.64 9.24 9.12 8.20 6.62 4.53 3.14 -1.25 0.09 -0.63 -3.80 -7.02 -9.93 -11.86
17.82 14.68 14.75 8.89 14.06 10.84 5.29 2.63 6.38 10.20 3.57 6.67 7.26 8.62 7.88 11.99 2.77 1.51 1.49 7.97 9.12 7.21 9.16 13.51 13.48 12.42 9.70 9.95 10.62 11.31 13.80 13.60 10.92 8.95 10.49 11.22 9.51 8.87 7.73 7.30 6.48 6.78 7.70 2.68 -2.20 -3.28 -6.97 -5.79 -7.95 -9.20 -9.72 -13.47 -8.29 -17.28
8.58 11.20 10.78 9.09 7.11 9.85 9.07 2.09 1.03 0.85 1.69 1.90 3.88 4.31 0.61 -2.58 -5.47 -2.61 5.55 4.38 4.17 7.75 3.63 5.24 8.79 10.46 9.82 11.16 9.49 8.91 9.72 12.47 11.35 7.65 7.35 9.17 8.69 3.73 1.71 0.45 0.50 2.32 1.61 -4.90 -5.02 -7.74 -10.03 -13.29 -12.39 -11.30 -16.92 -14.38 -15.11 -19.46
2.59 3.69 14.83 16.57 16.65 13.88 4.99 4.93 8.23 2.77 -2.42 -2.78 -2.27 -5.73 -6.33 -11.85 -12.75 2.87 10.21 11.19 10.37 10.59 13.72 13.31 13.87 11.88 9.65 8.91 8.82 8.16 7.78 7.66 7.00 6.00 6.45 5.48 4.58 4.58 0.53 -4.91 -5.13 -1.40 -0.91 -6.20 -11.75 -9.39 -11.00 -18.01 -19.82 -20.00 -20.54 -23.45 -23.08 -21.45
7.80 9.56 2.76 0.96 3.54 7.17 -5.32 -5.50 -7.13 -6.04 -1.51 9.43 1.07 -7.32 -12.57 -10.94 -1.52 5.75 8.96 10.53 11.13 13.21 11.29 10.31 10.17 9.97 8.79 7.90 6.63 4.66 3.64 2.75 3.74 3.43 2.99 2.53 0.57 -4.25 -7.14 -8.04 -6.40 -1.69 -12.77 -18.01 -18.73 -17.64 -16.20 -13.69 -15.11 -19.64 -19.46 -16.01 -17.82 -25.44
1.69 5.26 4.69 -5.70 -1.52 1.41 2.06 -5.13 -2.42 6.12 9.13 1.53 -9.00 -7.31 0.11 7.45 3.29 6.38 8.62 10.09 9.93 10.07 6.36 4.45 1.86 0.06 0.84 0.45 -1.99 -1.78 -5.69 -8.23 -6.41 -9.67 -14.92 -16.19 -16.37 -7.89 -9.12 -14.20 -15.47 -16.37 -18.55 -12.39 -4.23 -11.84 -11.89 -16.74 -16.74 -17.10 -18.91 -19.46 -22.90 -29.07
2.81 7.86 -0.38 -6.65 -4.11 -0.96 -3.50 -0.15 -3.15 -4.95 4.22 2.41 6.78 8.25 6.48 3.75 5.38 6.84 7.91 7.34 5.06 -0.09 -3.70 -5.32 -8.04 -7.44 -9.85 -9.85 -11.12 -7.87 -11.84 -16.37 -12.02 -5.19 -8.95 -13.47 -10.51 -13.69 -16.56 -17.10 -16.74 -19.82 -21.63 -18.37 -16.93 -13.50 -3.68 -6.77 -8.40 -17.64 -18.37 -20.73 -23.08 -22.18
8.57 3.46 1.05 1.34 1.03 -0.83 -3.28 -10.39 -13.11 -9.30 -10.22 -8.07 -11.30 -7.14 -3.00 -2.98 2.53 4.48 3.24 0.97 -0.28 -3.68 -3.34 -7.67 -9.49 -15.29 -15.50 -18.01 -17.82 -16.74 -12.28 -14.38 -20.91 -18.37 -16.56 -19.64 -20.73 -18.37 -17.28 -17.28 -17.82 -21.27 -22.54 -20.91 -20.36 -21.63 -22.54 -21.81 -21.09 -20.00 -18.73 -18.19 -20.91 -24.17
-1.76 -5.69 -0.77 -0.12 1.37 2.00 -1.05 -8.40 -13.29 -11.84 -14.92 -9.12 -11.84 -17.46 -10.39 -9.69 -10.03 -3.53 0.03 -2.13 -4.24 -5.13 -9.49 -14.38 -10.39 -7.51 -13.84 -18.19 -22.36 -21.45 -15.30 -15.47 -17.28 -18.01 -16.74 -18.55 -19.64 -21.99 -20.73 -18.37 -21.99 -22.36 -21.81 -21.45 -22.18 -20.91 -20.18 -20.00 -21.99 -23.81 -22.72 -21.45 -23.63 -25.26
-2.49 -2.88 -2.32 -0.13 -1.52 -3.32 -3.68 -3.51 -3.33 -5.50 -8.94 -10.21 -9.49 -12.57 -12.57 -10.29 -8.11 -4.57 -2.36 -6.22 -5.86 -4.23 -1.43 -5.18 -11.85 -18.37 -18.19 -18.37 -16.74 -19.09 -18.01 -19.28 -18.19 -6.04 -10.75 -12.02 -16.74 -16.37 -22.90 -24.17 -22.72 -21.27 -19.64 -20.91 -22.18 -20.73 -18.73 -17.82 -19.46 -21.63 -22.72 -23.99 -23.63 -24.90

GFSWCAN_sfc_wetblb_081.txt.gz
Wetbulb
44.84 44.98 44.86 44.92 45.31 45.59 45.85 46.31 46.45 46.63 46.81 46.52 46.47 46.43 46.47 46.45 46.46 44.05 40.85 43.58 37.77 34.03 36.48 40.76 40.80 37.70 37.18 36.66 32.23 35.37 34.52 35.14 34.45 30.56 30.16 30.32 28.86 31.26 30.00 32.08 33.17 32.89 31.34 30.86 31.91 29.80 28.12 43.62 44.45 39.43 44.05 46.23 47.22 47.49
44.44 44.51 44.80 45.21 45.64 45.88 46.13 46.17 46.45 46.75 46.79 46.86 46.72 46.61 46.77 46.59 46.61 45.61 39.82 43.55 43.33 37.53 37.91 43.48 42.82 43.23 42.76 41.73 37.93 37.68 36.19 34.91 35.86 32.74 32.99 33.29 30.30 30.36 31.21 26.87 35.32 30.08 35.80 34.00 35.60 35.36 42.42 44.06 45.34 47.61 48.12 47.10 48.77 47.98
44.93 45.26 45.65 45.81 45.99 46.27 46.45 46.52 46.43 46.79 46.99 46.95 47.02 46.88 46.95 47.00 46.87 45.75 42.05 42.23 40.93 35.91 37.26 38.16 37.34 43.11 45.63 45.02 45.93 36.23 37.60 39.95 37.78 40.86 36.03 34.36 30.16 33.11 29.36 30.58 32.17 35.28 38.98 36.93 36.99 39.42 40.28 42.66 45.44 46.74 47.33 47.52 49.26 49.06
45.84 46.04 46.16 46.09 46.25 46.32 46.20 46.17 46.27 46.52 46.51 46.74 46.95 46.81 46.67 47.00 47.07 46.35 41.88 43.13 41.25 38.28 32.76 34.21 42.51 40.06 44.95 45.60 44.32 44.46 42.95 43.74 42.42 41.87 36.99 33.74 32.44 36.09 32.47 34.56 33.96 36.09 37.40 36.14 36.52 39.13 41.58 43.02 44.35 44.46 44.67 44.96 46.32 48.88
45.54 45.84 45.81 45.86 45.81 46.23 46.18 45.81 45.84 45.97 46.40 46.61 46.79 46.77 46.93 47.23 47.18 46.08 44.43 43.44 43.68 38.33 31.18 33.34 41.64 43.11 42.89 43.09 43.10 43.92 43.21 42.92 41.27 37.43 34.80 34.37 36.25 37.16 35.93 35.41 34.49 38.13 36.76 35.42 34.41 39.52 39.60 40.54 43.24 42.98 42.27 43.65 45.69 46.97
45.14 45.34 45.40 45.56 45.98 46.16 46.02 45.68 45.89 46.52 46.41 46.49 46.83 46.77 47.22 47.11 46.68 42.02 35.48 42.70 44.06 43.15 35.48 30.29 39.90 42.33 43.85 42.78 42.24 41.39 41.98 42.97 42.47 38.30 36.81 37.90 40.44 38.27 33.91 33.03 36.14 36.99 37.08 36.77 36.59 38.51 38.29 39.85 41.54 40.60 40.87 38.75 37.32 37.40
44.99 45.23 45.47 45.89 45.95 45.99 45.76 45.65 45.86 46.39 46.38 46.51 46.47 46.68 46.79 46.47 43.05 38.68 36.47 40.83 44.33 44.06 37.16 29.80 32.38 41.07 44.08 43.22 41.97 41.55 42.44 42.00 41.97 39.55 37.62 37.47 38.12 38.86 33.38 31.22 34.14 34.26 33.73 34.92 36.68 36.64 38.27 39.43 36.82 37.69 38.87 36.54 34.91 33.30
44.54 45.06 45.15 45.66 45.52 45.54 45.52 45.21 45.86 45.64 45.74 46.17 46.40 46.42 44.70 45.43 45.34 42.03 43.78 44.35 44.14 39.87 37.68 29.07 31.99 36.26 41.57 36.75 37.06 42.66 39.50 40.41 40.37 39.09 39.48 36.93 38.82 37.10 31.14 30.48 31.56 31.60 32.59 34.85 33.62 35.11 36.57 36.53 35.16 33.94 35.85 35.82 32.15 29.61
44.12 44.75 44.82 45.16 45.27 45.14 45.14 45.15 45.26 45.79 45.86 45.61 45.23 45.60 43.63 41.72 39.96 41.42 45.07 45.28 45.52 39.65 31.43 31.67 30.29 30.12 39.06 35.04 35.91 35.83 37.92 32.55 35.77 34.33 37.20 37.60 33.95 22.37 25.09 27.13 27.60 28.70 28.93 29.77 32.12 34.55 34.36 33.16 30.62 29.75 30.88 30.64 28.87 27.28
43.84 44.38 44.84 44.84 44.76 44.93 44.94 45.13 45.15 45.02 44.72 43.87 41.72 38.44 32.97 40.32 45.38 44.86 41.27 37.71 36.88 37.48 35.57 30.67 35.18 32.05 37.25 32.40 32.25 32.74 32.20 31.55 29.60 33.32 36.83 28.61 23.78 27.40 26.90 27.87 27.20 27.45 28.34 29.22 27.96 29.77 29.88 29.74 28.24 26.62 26.39 26.80 26.28 25.67
43.98 43.63 44.04 44.55 44.70 44.97 45.14 44.90 44.75 44.86 43.97 40.69 35.42 33.30 42.33 44.99 40.59 36.31 31.63 32.17 32.29 30.26 32.17 33.32 33.42 33.47 36.12 32.39 32.17 33.35 30.46 30.79 27.19 31.45 31.09 25.24 20.67 23.72 26.22 26.14 26.04 26.23 26.97 27.22 28.00 28.89 28.95 28.41 27.15 26.20 25.16 25.32 24.75 23.75
43.75 43.80 43.38 42.86 42.96 44.02 45.12 44.56 44.48 42.73 40.66 41.12 39.29 39.92 36.59 31.09 28.75 28.35 27.70 30.71 29.78 27.56 30.55 32.20 31.99 34.43 34.04 36.18 33.14 34.26 30.22 31.14 25.96 29.73 23.17 16.65 21.55 23.75 23.87 23.59 23.90 24.36 24.57 24.65 25.37 25.44 26.04 26.06 26.30 24.75 23.26 22.48 21.77 21.13
43.15 42.94 43.12 42.52 41.86 41.95 43.27 44.83 44.71 44.13 42.09 36.96 32.21 26.23 26.98 21.03 15.43 18.17 19.07 22.48 23.51 25.96 28.36 31.97 30.02 31.45 33.54 35.30 33.08 32.96 29.24 25.42 28.26 20.19 15.92 18.41 21.76 22.88 22.66 22.80 22.80 23.35 23.29 22.85 22.67 22.78 22.31 21.92 22.85 22.14 19.94 20.44 19.85 18.55
42.99 42.94 42.64 42.35 41.22 40.36 39.00 41.93 42.35 36.96 32.03 25.40 21.97 12.55 12.03 9.83 16.45 17.17 19.35 22.22 26.14 26.55 26.45 30.42 31.38 31.67 31.62 28.73 28.46 23.47 22.91 24.49 16.79 12.74 12.71 18.06 20.69 21.67 22.29 22.53 21.27 20.48 20.51 20.20 20.07 20.54 19.95 19.36 18.81 19.28 19.32 19.19 17.50 15.88
42.74 42.54 42.46 41.09 41.30 39.71 38.84 37.30 35.35 30.94 25.83 19.71 18.36 10.37 13.32 18.61 19.67 20.44 22.17 24.40 23.94 25.52 28.43 31.53 29.42 27.85 23.32 20.95 22.23 21.33 16.49 12.10 13.80 11.70 16.38 19.57 21.14 21.72 21.19 20.95 20.31 20.04 19.47 19.24 19.39 18.56 17.90 18.01 17.54 17.39 18.35 18.01 17.06 15.84
42.13 41.15 39.90 42.10 39.00 38.35 36.71 34.44 31.29 29.35 24.63 19.29 16.19 14.34 15.68 16.67 15.44 16.90 18.17 19.41 23.24 22.51 26.54 26.96 23.79 19.53 17.79 17.47 14.12 11.39 12.86 8.87 11.57 15.81 18.74 20.09 19.27 19.54 19.88 20.72 20.41 20.71 20.48 19.87 19.31 18.85 18.11 17.03 16.16 16.19 17.01 16.28 15.30 14.70
40.61 35.57 41.50 42.90 40.23 36.93 36.22 29.52 27.30 23.19 19.91 16.91 13.81 17.44 14.41 14.51 13.71 15.88 17.76 17.93 21.75 21.58 18.66 20.49 14.00 13.90 19.38 12.80 10.07 13.23 9.20 12.91 15.46 16.26 17.66 18.42 18.33 18.23 18.98 19.25 19.30 20.39 19.77 19.55 19.17 18.57 18.21 18.51 18.03 16.40 14.46 15.85 15.89 15.31
34.78 36.41 41.20 41.73 37.14 34.14 29.56 28.02 23.72 20.49 14.84 15.68 11.84 14.37 15.72 14.72 15.36 15.62 17.88 18.99 20.03 20.81 18.90 15.79 18.51 12.02 10.35 9.97 9.70 13.48 14.17 15.23 15.94 15.20 15.27 16.71 17.63 17.93 18.70 17.70 17.71 18.08 17.44 17.32 18.00 18.34 18.03 16.96 15.52 14.81 14.76 14.86 13.66 12.85
38.29 38.75 41.22 39.70 35.55 30.33 26.30 24.98 24.15 14.54 15.51 16.15 17.23 17.63 17.33 16.97 17.64 17.49 17.63 18.89 20.54 20.92 18.18 14.40 8.82 7.55 8.39 12.17 13.10 14.40 15.63 16.02 14.01 14.35 14.89 15.52 16.02 16.88 17.27 17.00 16.54 16.23 16.01 15.68 15.17 14.37 14.37 14.76 14.78 14.70 14.67 14.04 11.58 11.29
40.30 40.34 39.66 39.60 37.11 28.84 25.37 23.99 26.70 19.92 14.62 16.31 17.88 16.13 15.25 14.51 17.31 13.62 15.72 17.23 16.75 14.99 9.79 7.51 7.49 9.68 11.14 13.06 15.76 15.63 16.33 17.28 15.44 12.92 12.49 14.06 15.93 15.64 15.36 16.15 15.82 16.22 15.38 14.91 14.55 14.76 13.66 12.20 11.96 11.65 12.13 11.56 10.14 8.97
35.90 35.84 36.53 34.56 30.62 29.39 26.43 24.33 21.78 21.42 20.11 19.04 20.30 19.72 15.89 16.22 14.20 13.26 12.72 15.87 11.02 10.29 8.14 11.03 10.99 13.04 14.76 15.43 17.02 17.21 16.16 17.03 15.08 15.18 13.23 12.47 15.12 15.40 14.96 15.28 15.40 15.11 13.67 13.17 11.98 11.21 11.14 10.08 9.95 9.67 8.65 7.77 7.98 7.93
31.46 35.65 29.90 30.81 28.06 27.91 25.81 26.02 23.58 23.58 22.64 22.00 20.50 18.77 11.99 9.03 10.45 13.14 15.33 9.84 9.42 10.86 11.86 12.19 13.03 13.73 12.99 12.27 13.60 15.22 15.57 15.70 15.57 15.18 15.29 15.16 13.39 13.19 12.93 13.78 13.42 11.90 11.77 11.72 11.35 10.38 9.59 9.26 8.98 7.97 6.98 6.31 7.11 6.43
32.43 30.74 26.26 25.47 20.36 19.59 20.97 27.18 20.33 23.44 14.63 16.42 18.26 13.44 10.51 8.67 13.86 16.99 9.45 12.05 12.15 15.42 15.36 14.64 14.49 15.01 14.03 15.08 15.25 14.92 15.35 14.45 12.96 12.86 12.94 12.81 12.94 13.09 12.84 12.79 13.15 11.59 10.34 10.16 10.89 9.21 7.04 6.36 5.40 5.22 4.89 4.34 3.61 2.40
29.34 19.62 14.37 13.43 17.38 9.86 14.63 13.40 21.07 16.94 14.89 14.41 13.50 8.78 9.71 10.15 13.11 8.95 6.45 9.49 13.81 15.82 14.82 14.80 15.15 13.39 13.50 12.72 11.48 12.17 13.90 14.38 12.62 12.60 13.77 12.33 10.28 9.96 10.56 9.92 9.77 9.92 10.53 9.95 8.32 7.06 5.53 4.27 3.68 3.18 1.49 0.13 -0.38 -0.84
15.56 11.68 12.09 6.25 11.95 9.06 3.88 2.18 6.58 10.48 4.87 7.51 7.95 8.37 7.96 11.80 3.96 2.37 2.53 8.33 9.79 9.20 9.97 13.63 13.36 12.52 10.38 10.42 11.28 11.62 13.82 13.59 11.12 9.19 10.87 11.54 10.18 9.47 8.31 7.92 7.20 7.21 8.78 6.01 3.20 2.30 0.50 0.99 0.77 0.25 0.53 0.31 -0.58 -2.07
6.99 9.41 9.25 7.46 6.80 9.87 8.67 2.32 0.70 1.61 3.49 2.97 3.04 3.83 3.00 0.32 -2.17 -1.17 5.85 6.53 6.66 8.71 6.54 8.59 10.63 10.62 10.11 11.14 10.13 9.48 9.60 12.19 11.80 8.46 7.65 9.10 9.50 7.94 6.54 5.53 5.17 5.17 3.33 4.09 2.56 0.92 -0.98 -2.37 -0.90 -1.47 -2.24 -3.62 -8.40 -1.89
1.59 1.60 12.72 14.22 14.93 11.85 4.61 5.19 7.96 3.26 -1.65 -1.65 0.78 -3.85 -3.11 -8.93 -9.63 3.65 10.92 11.43 11.23 12.46 13.65 13.86 14.46 12.26 10.07 8.59 8.11 7.38 7.60 7.91 7.79 6.58 6.40 5.83 5.05 5.39 5.92 4.25 3.47 4.15 3.74 1.81 1.04 2.10 1.08 -1.45 -2.20 -2.16 -2.65 -4.74 -3.93 -2.70
6.00 7.96 0.82 -0.80 1.93 5.42 -4.38 -3.48 -4.74 -5.10 0.16 8.04 1.58 -6.57 -9.99 -7.26 0.01 7.75 9.74 11.90 12.50 12.03 10.45 9.60 9.50 9.62 8.28 6.87 5.96 5.26 4.58 4.66 5.13 4.87 5.16 4.54 2.53 0.64 -1.02 -0.45 0.22 -0.93 -3.17 -2.69 -0.67 -2.06 -0.17 -0.27 -1.01 -2.48 -1.60 1.08 -1.34 -8.54
0.26 4.21 3.81 -7.83 -2.38 0.50 1.19 -4.39 -1.11 5.93 7.96 1.09 -6.28 -4.19 1.30 6.65 5.24 8.72 10.61 11.68 12.72 11.16 7.39 5.44 2.86 2.49 2.37 1.40 -1.05 0.08 0.64 2.23 2.58 -2.80 -3.29 -1.85 -2.52 1.37 -1.84 -2.38 -1.82 -2.33 -1.64 1.50 0.70 -2.20 -2.05 -2.91 -2.79 -1.89 -2.27 -1.15 -3.59 -8.54
1.51 5.75 -1.92 -7.90 -5.14 -2.02 -3.65 -1.13 -1.14 -3.32 3.71 3.83 7.33 7.95 6.43 5.03 6.46 9.39 10.14 10.34 8.76 4.82 0.73 0.32 -2.11 -0.36 -0.49 -0.25 -0.93 -0.82 -4.23 -6.91 -4.01 0.29 -0.61 -0.99 -0.58 -1.60 -3.83 -1.65 -1.11 -4.19 -4.56 -0.53 0.03 -0.01 3.23 -1.37 -2.41 -5.70 -4.81 -4.82 -4.11 -3.77
6.90 1.37 0.36 0.82 -2.20 -3.55 -5.16 -11.26 -12.89 -7.84 -7.34 -5.21 -7.82 -4.09 -0.47 0.44 5.50 5.57 3.96 1.08 -1.74 -3.56 -0.54 -1.30 -3.29 -7.71 -3.65 -5.46 -3.31 -4.16 -2.59 -3.87 -13.08 -9.50 -7.62 -6.68 -6.20 -4.01 -3.65 -5.64 -6.91 -7.09 -5.10 -3.54 -3.09 -3.61 -5.17 -5.64 -4.37 -4.02 -3.84 -3.83 -6.01 -8.74
-1.87 -5.14 -0.04 -1.34 -0.02 1.66 0.31 -5.64 -11.44 -7.46 -10.18 -5.29 -8.18 -13.26 -7.51 -4.84 -5.64 0.85 1.59 1.74 3.54 1.95 -3.83 -4.92 -2.92 1.36 -5.17 -7.32 -11.45 -10.21 -12.72 -6.01 -6.06 -7.64 -6.91 -6.01 -5.10 -8.00 -7.46 -6.76 -9.27 -7.27 -5.28 -5.46 -6.19 -5.46 -5.64 -4.40 -4.22 -5.28 -4.56 -4.96 -6.56 -8.18
-1.97 -2.53 -1.61 0.75 -0.43 -1.11 -3.13 -4.53 -4.75 -6.37 -8.73 -9.27 -9.45 -13.62 -12.71 -7.41 -5.41 -0.80 -0.15 -3.56 0.24 3.24 2.32 -1.43 -4.48 -8.00 -9.09 -9.82 -6.19 -8.18 -10.90 -7.82 -11.81 -4.74 -8.91 -8.73 -13.08 -9.81 -9.66 -9.65 -9.11 -8.18 -6.73 -6.37 -7.27 -7.46 -6.73 -7.27 -6.01 -7.46 -8.36 -10.36 -10.18 -10.54

GFSWCAN_sfc_wetblb_084.txt.gz
Wetbulb
45.21 45.00 44.97 44.74 44.83 44.90 45.21 45.70 45.98 46.10 46.30 46.26 46.40 46.24 46.33 46.49 46.36 44.44 41.22 44.15 38.66 36.39 39.79 42.09 42.27 39.28 39.55 39.39 34.70 38.23 36.26 35.42 33.75 32.54 32.31 31.87 30.68 33.37 32.50 34.89 35.16 31.36 30.57 30.81 31.12 30.38 28.61 45.14 44.44 38.67 42.61 48.60 49.13 49.10
45.27 45.57 46.31 46.08 45.46 45.43 45.73 45.89 46.21 46.28 46.24 46.56 46.49 46.88 46.40 46.58 46.52 45.95 40.26 44.96 43.25 37.75 38.33 43.36 42.88 45.42 45.43 44.60 40.63 40.27 37.67 37.28 38.28 35.03 35.90 36.25 33.00 35.92 33.86 30.23 38.38 31.76 37.53 34.74 36.87 36.47 43.42 44.21 44.25 47.36 47.86 46.88 47.46 49.39
45.19 46.02 46.15 46.36 46.40 46.54 46.58 46.60 46.49 46.49 46.51 46.69 46.79 46.99 46.99 46.77 46.68 45.91 42.75 42.90 40.07 35.38 37.89 38.72 37.25 44.43 47.93 47.82 49.27 38.76 40.66 42.20 41.09 43.96 39.96 37.97 32.80 37.11 32.12 33.58 36.24 38.86 41.72 38.23 37.62 41.17 41.87 43.14 46.20 45.44 47.16 46.86 48.84 49.80
45.10 45.86 46.06 45.92 45.92 46.04 46.33 46.49 46.45 46.47 46.47 46.60 46.79 46.92 47.04 46.92 46.96 45.89 42.56 43.44 41.79 39.13 33.30 37.48 44.65 42.13 48.23 47.92 47.08 47.14 44.56 45.17 44.71 42.99 39.11 37.64 35.03 40.27 36.23 37.96 37.37 40.30 40.90 37.93 38.11 41.41 43.74 44.45 45.43 44.76 44.29 45.88 46.18 49.20
45.06 45.52 45.56 45.60 46.13 46.29 46.28 46.03 46.17 46.17 46.35 46.62 46.97 47.10 47.13 46.99 46.83 45.50 45.21 44.20 46.04 40.30 33.25 35.89 41.69 44.09 46.15 46.94 45.40 45.17 44.18 43.40 42.28 38.32 37.69 36.83 40.13 39.89 41.08 39.87 37.48 41.93 39.52 37.78 37.72 39.72 40.49 43.28 44.30 44.26 42.64 42.26 42.24 44.09
45.04 45.40 45.57 45.76 45.86 45.81 45.46 45.42 45.90 46.13 45.92 46.37 46.68 47.20 47.12 46.67 46.79 43.10 35.79 42.85 45.97 46.32 37.40 32.71 42.66 42.36 43.65 44.60 44.51 43.53 43.89 42.46 41.60 38.51 38.56 41.72 43.56 40.57 36.48 35.11 38.01 38.53 38.61 39.43 38.59 39.39 41.18 43.24 44.37 42.46 41.25 41.27 39.26 40.33
44.71 45.56 45.68 45.44 45.16 45.21 45.44 45.63 46.18 46.50 46.36 46.33 46.49 46.90 46.83 46.55 43.25 39.55 38.96 42.50 46.42 47.43 39.02 35.15 36.26 41.77 44.32 42.99 43.36 43.56 43.98 41.85 41.20 39.87 39.08 40.46 41.94 41.87 36.89 34.60 33.86 34.20 35.37 38.07 37.11 38.21 39.92 40.33 36.80 39.01 40.00 41.28 39.02 38.07
44.48 45.32 45.19 45.12 45.15 44.86 45.35 45.59 46.28 46.28 46.23 46.42 46.60 46.39 46.40 45.57 45.10 43.13 44.99 45.02 45.69 40.49 40.05 33.97 34.66 37.03 43.45 39.52 38.50 43.59 40.42 40.63 39.61 39.73 42.34 39.71 42.61 41.85 32.14 30.73 31.12 32.07 33.90 35.58 34.37 35.45 36.74 37.18 35.76 35.62 38.20 38.64 36.99 34.94
44.26 45.11 44.86 44.88 44.87 44.71 44.58 45.35 45.56 45.79 45.85 45.78 45.53 45.22 43.52 42.25 39.41 41.64 45.13 45.52 48.33 42.05 35.13 33.19 32.13 31.23 41.71 37.39 38.14 38.68 39.82 34.37 37.83 37.05 37.69 39.19 32.80 26.95 25.64 27.40 28.98 28.23 28.29 29.18 32.10 34.02 33.68 32.90 31.44 30.18 31.70 34.32 33.74 31.36
44.05 44.26 44.49 44.57 44.91 44.62 44.69 44.65 44.65 44.61 44.75 44.49 44.04 39.48 34.01 41.19 44.91 44.47 41.29 37.63 38.34 40.18 39.12 34.79 37.82 33.46 37.70 36.53 35.43 33.52 36.33 34.90 32.86 35.90 37.68 31.57 25.67 27.56 28.03 28.11 27.85 27.55 27.75 29.15 28.36 30.06 30.59 30.20 29.53 27.65 27.12 29.11 29.91 29.28
43.93 43.46 43.24 44.19 45.08 44.56 44.85 44.90 45.10 45.35 45.23 43.29 36.92 35.66 40.79 44.10 42.34 38.64 33.95 34.06 34.07 31.70 34.86 35.90 36.14 34.52 37.57 35.35 33.99 34.40 34.30 34.87 30.51 32.77 33.16 28.05 24.21 24.59 27.08 26.22 27.34 27.38 27.53 27.92 28.23 29.12 29.21 29.11 27.91 26.86 25.52 25.49 25.34 25.39
43.67 43.52 42.92 43.27 44.68 44.82 44.89 44.72 44.39 43.83 42.51 41.16 38.85 39.36 37.62 33.31 33.67 32.77 31.38 32.71 32.46 29.93 33.96 33.60 34.04 34.00 36.14 38.17 34.97 35.65 32.44 33.81 28.41 31.42 28.11 22.80 23.29 25.47 26.11 25.53 26.14 26.35 25.94 25.70 26.12 25.96 26.60 26.81 26.97 25.69 24.44 22.41 21.56 20.78
43.14 42.74 42.50 41.85 41.21 42.12 44.23 44.47 44.01 42.67 42.39 39.59 34.88 29.50 29.12 25.69 22.58 23.81 22.96 26.70 28.41 29.06 31.25 33.27 32.36 35.32 36.56 38.28 33.83 34.27 30.45 26.91 31.36 24.53 20.66 21.14 23.34 24.80 24.98 25.08 25.11 25.50 25.05 24.74 23.95 24.19 23.61 22.99 23.50 22.70 20.71 20.42 20.10 18.16
42.82 42.76 41.62 41.42 39.57 40.49 43.06 42.72 39.42 38.73 36.90 30.15 26.62 19.27 21.23 18.92 21.54 21.98 23.54 25.44 28.73 28.95 28.91 33.01 34.49 34.09 34.98 32.03 32.35 27.83 26.61 30.07 23.22 19.44 16.26 21.37 21.81 22.84 23.49 23.80 22.94 21.73 21.61 21.52 21.23 21.18 20.75 19.85 18.46 18.50 18.27 18.35 17.18 16.23
42.55 42.40 40.62 40.23 39.55 38.26 37.59 36.80 36.00 35.56 31.04 24.62 25.09 18.64 19.61 22.34 23.84 23.89 25.31 27.62 26.01 26.28 30.71 35.30 32.98 32.74 28.26 26.35 27.11 26.71 22.32 17.85 18.70 17.66 20.12 21.90 22.33 22.60 22.31 22.45 21.68 20.91 20.29 20.36 20.52 19.39 18.99 19.23 18.50 18.00 18.59 18.62 17.88 17.03
42.38 41.97 41.20 38.43 38.88 37.61 36.32 36.24 35.35 33.54 28.41 23.58 20.64 20.57 22.19 23.67 22.19 23.15 22.69 23.77 25.61 26.22 32.12 33.02 29.38 25.68 21.53 22.43 19.77 17.24 17.48 14.99 16.19 19.76 21.64 22.82 21.04 21.23 21.45 21.74 21.16 21.47 21.18 20.71 20.36 19.85 19.01 17.97 16.91 16.97 17.28 16.57 16.06 15.62
41.70 41.26 40.94 39.19 36.57 36.48 35.77 34.05 31.46 24.99 22.68 20.54 18.82 21.55 21.29 21.74 19.42 20.57 21.60 21.99 25.29 27.68 26.14 26.77 21.55 18.70 24.76 19.00 15.17 17.39 15.34 17.33 19.95 20.64 21.64 21.21 20.81 20.58 20.69 20.41 20.76 20.75 20.61 20.30 19.82 19.28 18.90 19.46 19.34 17.61 15.25 16.48 16.42 15.93
40.81 41.88 41.05 41.59 40.32 36.27 33.57 31.84 27.07 23.31 18.01 20.97 18.52 19.57 20.54 20.14 20.05 20.29 21.81 23.26 25.21 24.94 24.14 20.04 23.85 17.12 15.41 13.70 14.95 17.38 18.75 19.83 20.51 20.02 19.85 20.65 20.63 20.78 21.24 20.26 20.10 20.21 19.46 19.19 19.60 19.46 19.10 18.09 16.54 15.65 15.79 16.03 15.27 14.75
40.56 41.32 40.59 39.28 39.48 35.64 29.54 28.13 28.53 19.16 19.89 21.74 22.21 22.62 21.83 21.00 21.40 21.51 22.75 24.02 24.59 25.61 23.43 20.54 15.48 13.79 14.20 17.10 18.15 19.59 20.51 20.81 18.77 18.77 19.06 19.35 20.16 19.43 19.41 19.55 19.60 19.38 18.90 18.85 18.44 17.09 17.32 18.11 18.10 18.04 17.48 17.03 14.98 14.82
40.26 39.41 39.11 39.16 39.49 33.13 26.82 26.54 30.80 23.46 19.98 20.61 22.71 20.38 20.64 19.98 20.86 21.58 21.17 21.45 21.16 19.28 14.81 13.15 13.14 14.71 16.38 18.41 20.85 20.83 20.98 21.62 20.68 18.47 17.98 19.38 20.30 20.03 20.36 20.83 20.14 20.31 19.57 19.11 18.83 18.23 17.35 15.91 15.87 16.72 16.81 16.29 14.91 13.22
40.08 39.48 38.50 40.05 36.39 33.93 29.74 27.37 25.13 25.18 23.93 22.40 24.06 23.82 20.73 22.02 19.92 18.87 18.20 21.35 17.01 14.50 12.82 15.52 16.34 17.06 18.77 19.68 21.43 22.16 20.86 22.22 20.81 21.47 18.94 17.62 19.50 19.99 20.08 20.36 20.42 20.22 19.12 18.37 17.38 15.93 16.02 14.90 14.78 15.12 14.81 14.00 13.41 12.63
37.66 36.86 37.75 37.60 33.16 31.64 29.41 30.67 27.52 28.42 26.19 24.61 23.68 22.87 19.79 18.47 18.44 17.51 20.08 15.60 13.87 14.60 16.06 16.80 17.11 18.26 17.11 16.57 17.63 19.09 19.15 19.55 19.37 18.92 18.58 19.02 18.19 18.02 17.72 18.62 18.68 17.08 16.87 16.73 16.37 14.93 14.12 14.02 14.53 14.27 13.50 12.51 12.34 11.89
35.46 36.34 32.98 31.87 27.58 27.69 25.64 31.95 25.44 25.69 21.03 22.03 23.20 18.10 17.38 17.55 18.30 21.64 14.68 15.13 15.08 18.45 18.38 17.74 17.28 18.13 17.31 17.99 18.08 18.11 18.63 18.88 18.03 17.75 17.55 17.52 17.77 17.98 17.64 17.47 18.03 16.63 14.89 14.33 15.22 13.93 11.98 10.77 11.27 12.00 11.86 11.56 10.65 9.12
31.84 24.88 22.68 23.37 26.11 20.32 24.77 22.46 24.91 22.08 22.62 20.56 17.88 14.21 15.00 17.00 19.24 16.15 11.13 13.68 16.24 18.71 17.94 17.37 18.73 17.10 17.18 16.89 16.54 16.67 17.65 18.47 17.41 17.41 17.75 17.16 15.88 14.69 15.24 14.75 15.12 15.35 15.37 15.06 14.00 12.83 12.04 10.84 9.93 11.01 10.15 9.28 8.53 7.80
22.77 16.31 21.30 18.31 22.34 19.75 17.72 17.30 17.36 18.66 15.81 16.92 14.52 14.19 13.84 18.03 12.38 10.82 9.69 13.14 15.64 15.84 16.70 17.86 17.74 17.46 15.91 15.74 16.22 15.81 17.05 17.57 16.10 14.32 15.29 16.05 15.24 14.80 13.41 13.09 12.38 12.69 15.16 13.82 11.47 10.36 9.27 9.41 9.29 8.85 8.45 8.20 6.77 6.06
12.57 15.10 16.61 17.19 18.10 17.93 17.21 14.39 14.72 14.92 15.07 12.37 11.11 12.23 14.86 12.74 9.00 7.34 10.98 14.29 15.49 16.18 16.88 17.42 17.20 16.26 15.00 15.83 15.11 14.60 13.68 16.31 16.55 13.56 12.12 13.96 14.30 15.11 13.72 12.51 11.82 10.47 12.22 13.48 12.08 9.96 8.68 8.43 7.89 6.93 6.34 4.97 2.94 5.98
12.15 12.61 15.73 17.07 18.53 16.65 14.84 15.35 15.79 14.54 11.41 11.36 12.64 9.93 11.38 5.53 5.27 9.39 14.58 16.40 16.20 16.97 17.79 18.47 18.38 16.94 14.91 13.24 12.76 12.79 13.44 13.38 12.77 11.64 11.82 11.56 11.54 12.13 13.63 12.72 9.78 10.58 12.54 11.55 12.31 11.94 9.53 8.26 7.91 7.63 7.09 7.91 7.58 7.83
13.53 13.56 9.61 9.24 10.29 12.29 8.09 9.16 9.39 8.64 10.53 12.28 11.88 4.24 5.49 5.65 7.49 13.80 15.27 16.96 17.17 16.67 15.49 14.68 15.14 15.12 13.96 12.80 12.88 12.65 11.72 11.38 10.60 11.14 11.76 11.04 10.53 10.08 8.86 9.66 8.02 5.31 9.72 10.06 11.06 10.33 10.51 9.65 8.69 7.67 7.29 8.15 7.18 6.75
10.95 12.95 11.61 1.76 7.10 7.84 6.95 8.00 9.18 10.48 11.46 12.15 8.59 7.01 7.82 10.81 13.45 15.04 15.75 17.16 17.45 16.61 14.41 12.88 11.49 12.93 11.88 10.94 11.04 12.28 12.25 12.50 8.26 4.39 3.11 8.90 9.63 8.82 9.28 9.63 9.66 9.78 11.49 10.05 6.43 7.76 7.45 8.30 7.95 8.77 4.34 9.07 8.56 6.80
10.08 14.21 8.33 4.89 3.80 5.36 6.94 10.06 9.01 9.66 11.22 11.73 13.12 11.38 10.90 11.55 12.94 16.58 16.88 16.68 16.02 15.18 13.98 13.29 12.04 14.01 11.66 12.51 10.16 8.93 9.25 7.92 7.22 9.52 9.43 8.37 8.83 8.48 9.04 9.31 9.48 8.63 10.38 10.88 9.66 8.92 7.56 7.19 5.76 5.63 5.87 5.87 6.97 6.53
13.69 13.87 10.03 9.44 7.23 9.44 10.33 8.88 10.31 11.05 11.06 10.84 12.31 11.27 9.20 11.29 13.44 12.74 12.43 12.91 12.78 11.55 12.25 11.49 10.49 10.92 10.82 9.71 11.37 9.57 8.48 6.74 1.51 2.14 5.34 7.13 7.69 8.37 7.92 6.80 8.03 8.99 9.18 8.48 7.77 7.72 7.05 6.29 6.84 5.34 4.93 4.08 3.25 1.48
10.40 9.69 8.46 6.13 7.58 10.32 11.25 11.13 11.89 11.53 11.56 11.79 9.52 9.95 9.09 11.49 8.96 10.97 10.38 12.33 12.54 12.99 7.99 11.70 13.07 12.26 9.20 7.89 5.70 6.10 0.67 6.05 5.64 4.97 4.11 6.80 7.37 5.21 6.17 6.03 4.92 6.88 6.89 5.97 6.00 5.79 2.45 2.73 4.96 4.19 3.85 3.05 2.90 1.85
11.28 11.62 11.04 10.36 8.98 9.60 9.86 11.30 10.13 9.22 10.25 9.75 8.25 6.57 7.51 9.36 6.88 9.96 8.75 8.31 11.26 13.88 12.70 11.87 9.82 7.70 5.24 5.69 6.94 5.27 5.09 4.98 0.51 1.93 -0.34 -0.54 -1.99 1.24 4.96 5.70 5.31 4.21 1.86 3.93 4.60 3.47 0.07 -1.28 1.92 1.34 1.37 -0.27 -0.64 -0.69